<?xml version="1.0" encoding="UTF-8" standalone="no" ?>
<gpx xmlns="http://www.topografix.com/GPX/1/1" xmlns:xsi="http://www.w3.org/2001/XMLSchema-instance" xsi:schemaLocation="http://www.topografix.com/GPX/1/1 http://www.topografix.com/GPX/1/1/gpx.xsd" version="1.1" creator="VisuGPX - https://www.visugpx.com">
  <metadata>
    <name>Aubrac 22-2</name>
  </metadata>
  <trk>
    <name><![CDATA[Aubrac 22-2_1]]></name>
    <extensions>
      <line xmlns="http://www.topografix.com/GPX/gpx_style/0/2">
        <color>0000FF</color>
        <width>4</width>
      </line>
    </extensions>
    <trkseg>
      <trkpt lat="44.80209" lon="3.2756">
        <ele>1007</ele>
        <time>2021-02-07T11:09:17Z</time>
      </trkpt>
      <trkpt lat="44.80208" lon="3.2764">
        <ele>1010</ele>
        <time>2021-02-07T11:09:30Z</time>
      </trkpt>
      <trkpt lat="44.80229" lon="3.27769">
        <ele>1009</ele>
        <time>2021-02-07T11:09:52Z</time>
      </trkpt>
      <trkpt lat="44.80204" lon="3.27786">
        <ele>1007</ele>
        <time>2021-02-07T11:09:59Z</time>
      </trkpt>
      <trkpt lat="44.80225" lon="3.27865">
        <ele>1003</ele>
        <time>2021-02-07T11:10:13Z</time>
      </trkpt>
      <trkpt lat="44.80236" lon="3.28006">
        <ele>983</ele>
        <time>2021-02-07T11:10:36Z</time>
      </trkpt>
      <trkpt lat="44.80228" lon="3.28065">
        <ele>978</ele>
        <time>2021-02-07T11:10:46Z</time>
      </trkpt>
      <trkpt lat="44.80253" lon="3.28142">
        <ele>977</ele>
        <time>2021-02-07T11:11:00Z</time>
      </trkpt>
      <trkpt lat="44.8024" lon="3.28227">
        <ele>973</ele>
        <time>2021-02-07T11:11:15Z</time>
      </trkpt>
      <trkpt lat="44.80189" lon="3.28394">
        <ele>973</ele>
        <time>2021-02-07T11:11:45Z</time>
      </trkpt>
      <trkpt lat="44.80218" lon="3.28411">
        <ele>975</ele>
        <time>2021-02-07T11:11:52Z</time>
      </trkpt>
      <trkpt lat="44.80226" lon="3.28503">
        <ele>984</ele>
        <time>2021-02-07T11:12:07Z</time>
      </trkpt>
      <trkpt lat="44.80236" lon="3.28543">
        <ele>985</ele>
        <time>2021-02-07T11:12:14Z</time>
      </trkpt>
      <trkpt lat="44.80217" lon="3.28788">
        <ele>991</ele>
        <time>2021-02-07T11:12:55Z</time>
      </trkpt>
      <trkpt lat="44.80276" lon="3.29152">
        <ele>996</ele>
        <time>2021-02-07T11:13:57Z</time>
      </trkpt>
      <trkpt lat="44.80178" lon="3.29249">
        <ele>999</ele>
        <time>2021-02-07T11:14:25Z</time>
      </trkpt>
      <trkpt lat="44.80138" lon="3.29309">
        <ele>998</ele>
        <time>2021-02-07T11:14:39Z</time>
      </trkpt>
      <trkpt lat="44.80124" lon="3.29402">
        <ele>998</ele>
        <time>2021-02-07T11:14:54Z</time>
      </trkpt>
      <trkpt lat="44.80143" lon="3.29411">
        <ele>996</ele>
        <time>2021-02-07T11:14:59Z</time>
      </trkpt>
      <trkpt lat="44.80213" lon="3.29401">
        <ele>995</ele>
        <time>2021-02-07T11:15:16Z</time>
      </trkpt>
      <trkpt lat="44.80256" lon="3.29412">
        <ele>993</ele>
        <time>2021-02-07T11:15:26Z</time>
      </trkpt>
      <trkpt lat="44.80258" lon="3.2976">
        <ele>984</ele>
        <time>2021-02-07T11:16:23Z</time>
      </trkpt>
      <trkpt lat="44.80274" lon="3.29843">
        <ele>978</ele>
        <time>2021-02-07T11:16:38Z</time>
      </trkpt>
      <trkpt lat="44.80265" lon="3.29868">
        <ele>976</ele>
        <time>2021-02-07T11:16:42Z</time>
      </trkpt>
      <trkpt lat="44.80266" lon="3.29897">
        <ele>973</ele>
        <time>2021-02-07T11:16:47Z</time>
      </trkpt>
      <trkpt lat="44.80272" lon="3.29929">
        <ele>970</ele>
        <time>2021-02-07T11:16:53Z</time>
      </trkpt>
      <trkpt lat="44.80287" lon="3.29975">
        <ele>966</ele>
        <time>2021-02-07T11:17:01Z</time>
      </trkpt>
      <trkpt lat="44.80306" lon="3.29988">
        <ele>965</ele>
        <time>2021-02-07T11:17:06Z</time>
      </trkpt>
      <trkpt lat="44.80338" lon="3.2999">
        <ele>965</ele>
        <time>2021-02-07T11:17:13Z</time>
      </trkpt>
      <trkpt lat="44.80326" lon="3.30012">
        <ele>964</ele>
        <time>2021-02-07T11:17:18Z</time>
      </trkpt>
      <trkpt lat="44.8029" lon="3.30047">
        <ele>962</ele>
        <time>2021-02-07T11:17:28Z</time>
      </trkpt>
      <trkpt lat="44.80309" lon="3.30229">
        <ele>973</ele>
        <time>2021-02-07T11:17:59Z</time>
      </trkpt>
      <trkpt lat="44.80298" lon="3.30428">
        <ele>988</ele>
        <time>2021-02-07T11:18:32Z</time>
      </trkpt>
      <trkpt lat="44.80306" lon="3.30475">
        <ele>994</ele>
        <time>2021-02-07T11:18:40Z</time>
      </trkpt>
      <trkpt lat="44.80297" lon="3.30518">
        <ele>998</ele>
        <time>2021-02-07T11:18:47Z</time>
      </trkpt>
      <trkpt lat="44.80293" lon="3.30568">
        <ele>1003</ele>
        <time>2021-02-07T11:18:56Z</time>
      </trkpt>
      <trkpt lat="44.80293" lon="3.3061">
        <ele>1006</ele>
        <time>2021-02-07T11:19:03Z</time>
      </trkpt>
      <trkpt lat="44.80311" lon="3.30647">
        <ele>1012</ele>
        <time>2021-02-07T11:19:10Z</time>
      </trkpt>
      <trkpt lat="44.80335" lon="3.30769">
        <ele>1022</ele>
        <time>2021-02-07T11:19:31Z</time>
      </trkpt>
      <trkpt lat="44.80362" lon="3.30801">
        <ele>1029</ele>
        <time>2021-02-07T11:19:39Z</time>
      </trkpt>
      <trkpt lat="44.80389" lon="3.3081">
        <ele>1034</ele>
        <time>2021-02-07T11:19:46Z</time>
      </trkpt>
      <trkpt lat="44.80488" lon="3.30923">
        <ele>1047</ele>
        <time>2021-02-07T11:20:15Z</time>
      </trkpt>
      <trkpt lat="44.80561" lon="3.31047">
        <ele>1055</ele>
        <time>2021-02-07T11:20:42Z</time>
      </trkpt>
      <trkpt lat="44.80559" lon="3.31067">
        <ele>1056</ele>
        <time>2021-02-07T11:20:45Z</time>
      </trkpt>
      <trkpt lat="44.80524" lon="3.31101">
        <ele>1055</ele>
        <time>2021-02-07T11:20:55Z</time>
      </trkpt>
      <trkpt lat="44.80518" lon="3.31133">
        <ele>1057</ele>
        <time>2021-02-07T11:21:01Z</time>
      </trkpt>
      <trkpt lat="44.80529" lon="3.3115">
        <ele>1059</ele>
        <time>2021-02-07T11:21:05Z</time>
      </trkpt>
      <trkpt lat="44.80552" lon="3.31143">
        <ele>1060</ele>
        <time>2021-02-07T11:21:10Z</time>
      </trkpt>
      <trkpt lat="44.80582" lon="3.31162">
        <ele>1064</ele>
        <time>2021-02-07T11:21:18Z</time>
      </trkpt>
      <trkpt lat="44.80602" lon="3.31199">
        <ele>1066</ele>
        <time>2021-02-07T11:21:26Z</time>
      </trkpt>
      <trkpt lat="44.80674" lon="3.31397">
        <ele>1075</ele>
        <time>2021-02-07T11:22:02Z</time>
      </trkpt>
      <trkpt lat="44.80685" lon="3.31459">
        <ele>1076</ele>
        <time>2021-02-07T11:22:13Z</time>
      </trkpt>
      <trkpt lat="44.80682" lon="3.31548">
        <ele>1077</ele>
        <time>2021-02-07T11:22:28Z</time>
      </trkpt>
      <trkpt lat="44.8072" lon="3.3161">
        <ele>1080</ele>
        <time>2021-02-07T11:22:41Z</time>
      </trkpt>
      <trkpt lat="44.80767" lon="3.31641">
        <ele>1081</ele>
        <time>2021-02-07T11:22:53Z</time>
      </trkpt>
      <trkpt lat="44.80851" lon="3.31518">
        <ele>1081</ele>
        <time>2021-02-07T11:23:22Z</time>
      </trkpt>
      <trkpt lat="44.80883" lon="3.3149">
        <ele>1081</ele>
        <time>2021-02-07T11:23:31Z</time>
      </trkpt>
      <trkpt lat="44.80917" lon="3.3147">
        <ele>1083</ele>
        <time>2021-02-07T11:23:39Z</time>
      </trkpt>
      <trkpt lat="44.81042" lon="3.3136">
        <ele>1085</ele>
        <time>2021-02-07T11:24:14Z</time>
      </trkpt>
      <trkpt lat="44.81115" lon="3.31312">
        <ele>1085</ele>
        <time>2021-02-07T11:24:32Z</time>
      </trkpt>
      <trkpt lat="44.81169" lon="3.31267">
        <ele>1084</ele>
        <time>2021-02-07T11:24:47Z</time>
      </trkpt>
      <trkpt lat="44.8122" lon="3.31242">
        <ele>1083</ele>
        <time>2021-02-07T11:25:00Z</time>
      </trkpt>
      <trkpt lat="44.81375" lon="3.31133">
        <ele>1081</ele>
        <time>2021-02-07T11:25:40Z</time>
      </trkpt>
      <trkpt lat="44.81416" lon="3.31091">
        <ele>1077</ele>
        <time>2021-02-07T11:25:52Z</time>
      </trkpt>
      <trkpt lat="44.81455" lon="3.3107">
        <ele>1074</ele>
        <time>2021-02-07T11:26:02Z</time>
      </trkpt>
      <trkpt lat="44.81533" lon="3.3106">
        <ele>1069</ele>
        <time>2021-02-07T11:26:20Z</time>
      </trkpt>
      <trkpt lat="44.81544" lon="3.31042">
        <ele>1068</ele>
        <time>2021-02-07T11:26:24Z</time>
      </trkpt>
      <trkpt lat="44.81552" lon="3.30982">
        <ele>1065</ele>
        <time>2021-02-07T11:26:34Z</time>
      </trkpt>
      <trkpt lat="44.81565" lon="3.30972">
        <ele>1065</ele>
        <time>2021-02-07T11:26:37Z</time>
      </trkpt>
      <trkpt lat="44.81614" lon="3.31029">
        <ele>1066</ele>
        <time>2021-02-07T11:26:52Z</time>
      </trkpt>
      <trkpt lat="44.81633" lon="3.31103">
        <ele>1067</ele>
        <time>2021-02-07T11:27:05Z</time>
      </trkpt>
      <trkpt lat="44.81752" lon="3.3121">
        <ele>1061</ele>
        <time>2021-02-07T11:27:38Z</time>
      </trkpt>
      <trkpt lat="44.81789" lon="3.3126">
        <ele>1060</ele>
        <time>2021-02-07T11:27:50Z</time>
      </trkpt>
      <trkpt lat="44.81841" lon="3.31268">
        <ele>1058</ele>
        <time>2021-02-07T11:28:03Z</time>
      </trkpt>
      <trkpt lat="44.81918" lon="3.31332">
        <ele>1051</ele>
        <time>2021-02-07T11:28:23Z</time>
      </trkpt>
      <trkpt lat="44.81919" lon="3.31379">
        <ele>1049</ele>
        <time>2021-02-07T11:28:31Z</time>
      </trkpt>
      <trkpt lat="44.82075" lon="3.31478">
        <ele>1038</ele>
        <time>2021-02-07T11:29:11Z</time>
      </trkpt>
      <trkpt lat="44.82122" lon="3.3157">
        <ele>1040</ele>
        <time>2021-02-07T11:29:30Z</time>
      </trkpt>
      <trkpt lat="44.82056" lon="3.31671">
        <ele>1038</ele>
        <time>2021-02-07T11:29:53Z</time>
      </trkpt>
      <trkpt lat="44.8209" lon="3.31733">
        <ele>1035</ele>
        <time>2021-02-07T11:30:06Z</time>
      </trkpt>
      <trkpt lat="44.82093" lon="3.31815">
        <ele>1027</ele>
        <time>2021-02-07T11:30:19Z</time>
      </trkpt>
      <trkpt lat="44.82137" lon="3.31849">
        <ele>1027</ele>
        <time>2021-02-07T11:30:31Z</time>
      </trkpt>
      <trkpt lat="44.82237" lon="3.31873">
        <ele>1018</ele>
        <time>2021-02-07T11:30:55Z</time>
      </trkpt>
      <trkpt lat="44.82251" lon="3.31909">
        <ele>1015</ele>
        <time>2021-02-07T11:31:01Z</time>
      </trkpt>
      <trkpt lat="44.82265" lon="3.32006">
        <ele>1013</ele>
        <time>2021-02-07T11:31:18Z</time>
      </trkpt>
      <trkpt lat="44.82303" lon="3.32068">
        <ele>1015</ele>
        <time>2021-02-07T11:31:31Z</time>
      </trkpt>
      <trkpt lat="44.82358" lon="3.32195">
        <ele>1016</ele>
        <time>2021-02-07T11:31:56Z</time>
      </trkpt>
      <trkpt lat="44.82387" lon="3.32324">
        <ele>1014</ele>
        <time>2021-02-07T11:32:18Z</time>
      </trkpt>
      <trkpt lat="44.82396" lon="3.32493">
        <ele>1011</ele>
        <time>2021-02-07T11:32:47Z</time>
      </trkpt>
      <trkpt lat="44.82563" lon="3.32476">
        <ele>1002</ele>
        <time>2021-02-07T11:33:26Z</time>
      </trkpt>
      <trkpt lat="44.8258" lon="3.32454">
        <ele>1001</ele>
        <time>2021-02-07T11:33:31Z</time>
      </trkpt>
      <trkpt lat="44.82604" lon="3.32457">
        <ele>1000</ele>
        <time>2021-02-07T11:33:37Z</time>
      </trkpt>
      <trkpt lat="44.82729" lon="3.32515">
        <ele>1001</ele>
        <time>2021-02-07T11:34:07Z</time>
      </trkpt>
      <trkpt lat="44.82766" lon="3.32503">
        <ele>1003</ele>
        <time>2021-02-07T11:34:16Z</time>
      </trkpt>
      <trkpt lat="44.82802" lon="3.32725">
        <ele>1005</ele>
        <time>2021-02-07T11:34:54Z</time>
      </trkpt>
      <trkpt lat="44.82843" lon="3.3277">
        <ele>1005</ele>
        <time>2021-02-07T11:35:06Z</time>
      </trkpt>
      <trkpt lat="44.82918" lon="3.32769">
        <ele>1000</ele>
        <time>2021-02-07T11:35:24Z</time>
      </trkpt>
      <trkpt lat="44.83001" lon="3.32716">
        <ele>1002</ele>
        <time>2021-02-07T11:35:45Z</time>
      </trkpt>
      <trkpt lat="44.83189" lon="3.32625">
        <ele>1006</ele>
        <time>2021-02-07T11:36:31Z</time>
      </trkpt>
      <trkpt lat="44.83451" lon="3.32593">
        <ele>1003</ele>
        <time>2021-02-07T11:37:33Z</time>
      </trkpt>
      <trkpt lat="44.83758" lon="3.32643">
        <ele>1001</ele>
        <time>2021-02-07T11:38:45Z</time>
      </trkpt>
      <trkpt lat="44.83887" lon="3.327">
        <ele>997</ele>
        <time>2021-02-07T11:39:16Z</time>
      </trkpt>
      <trkpt lat="44.84128" lon="3.32929">
        <ele>990</ele>
        <time>2021-02-07T11:40:24Z</time>
      </trkpt>
      <trkpt lat="44.84205" lon="3.32977">
        <ele>982</ele>
        <time>2021-02-07T11:40:44Z</time>
      </trkpt>
      <trkpt lat="44.84223" lon="3.33003">
        <ele>978</ele>
        <time>2021-02-07T11:40:50Z</time>
      </trkpt>
      <trkpt lat="44.84293" lon="3.32995">
        <ele>980</ele>
        <time>2021-02-07T11:41:06Z</time>
      </trkpt>
      <trkpt lat="44.84373" lon="3.33061">
        <ele>980</ele>
        <time>2021-02-07T11:41:28Z</time>
      </trkpt>
      <trkpt lat="44.84468" lon="3.33111">
        <ele>988</ele>
        <time>2021-02-07T11:41:52Z</time>
      </trkpt>
      <trkpt lat="44.84356" lon="3.33191">
        <ele>987</ele>
        <time>2021-02-07T11:42:21Z</time>
      </trkpt>
      <trkpt lat="44.84285" lon="3.33214">
        <ele>983</ele>
        <time>2021-02-07T11:42:38Z</time>
      </trkpt>
      <trkpt lat="44.84247" lon="3.33273">
        <ele>984</ele>
        <time>2021-02-07T11:42:51Z</time>
      </trkpt>
      <trkpt lat="44.84163" lon="3.33306">
        <ele>979</ele>
        <time>2021-02-07T11:43:12Z</time>
      </trkpt>
      <trkpt lat="44.84103" lon="3.33355">
        <ele>979</ele>
        <time>2021-02-07T11:43:28Z</time>
      </trkpt>
      <trkpt lat="44.84029" lon="3.33394">
        <ele>973</ele>
        <time>2021-02-07T11:43:46Z</time>
      </trkpt>
      <trkpt lat="44.83969" lon="3.33474">
        <ele>968</ele>
        <time>2021-02-07T11:44:06Z</time>
      </trkpt>
      <trkpt lat="44.83938" lon="3.33552">
        <ele>964</ele>
        <time>2021-02-07T11:44:20Z</time>
      </trkpt>
      <trkpt lat="44.83862" lon="3.33534">
        <ele>947</ele>
        <time>2021-02-07T11:44:38Z</time>
      </trkpt>
      <trkpt lat="44.83861" lon="3.3356">
        <ele>947</ele>
        <time>2021-02-07T11:44:43Z</time>
      </trkpt>
      <trkpt lat="44.83823" lon="3.33744">
        <ele>946</ele>
        <time>2021-02-07T11:45:14Z</time>
      </trkpt>
      <trkpt lat="44.83818" lon="3.33842">
        <ele>944</ele>
        <time>2021-02-07T11:45:31Z</time>
      </trkpt>
      <trkpt lat="44.83841" lon="3.33908">
        <ele>946</ele>
        <time>2021-02-07T11:45:43Z</time>
      </trkpt>
      <trkpt lat="44.83877" lon="3.33959">
        <ele>945</ele>
        <time>2021-02-07T11:45:55Z</time>
      </trkpt>
      <trkpt lat="44.83915" lon="3.33995">
        <ele>945</ele>
        <time>2021-02-07T11:46:05Z</time>
      </trkpt>
      <trkpt lat="44.83974" lon="3.34094">
        <ele>931</ele>
        <time>2021-02-07T11:46:27Z</time>
      </trkpt>
      <trkpt lat="44.84039" lon="3.34109">
        <ele>930</ele>
        <time>2021-02-07T11:46:42Z</time>
      </trkpt>
      <trkpt lat="44.84081" lon="3.34151">
        <ele>922</ele>
        <time>2021-02-07T11:46:54Z</time>
      </trkpt>
      <trkpt lat="44.84115" lon="3.34168">
        <ele>919</ele>
        <time>2021-02-07T11:47:03Z</time>
      </trkpt>
      <trkpt lat="44.84176" lon="3.34215">
        <ele>915</ele>
        <time>2021-02-07T11:47:19Z</time>
      </trkpt>
      <trkpt lat="44.84214" lon="3.34253">
        <ele>913</ele>
        <time>2021-02-07T11:47:30Z</time>
      </trkpt>
      <trkpt lat="44.84257" lon="3.34278">
        <ele>911</ele>
        <time>2021-02-07T11:47:41Z</time>
      </trkpt>
      <trkpt lat="44.84296" lon="3.3432">
        <ele>905</ele>
        <time>2021-02-07T11:47:52Z</time>
      </trkpt>
      <trkpt lat="44.84325" lon="3.34337">
        <ele>901</ele>
        <time>2021-02-07T11:47:59Z</time>
      </trkpt>
      <trkpt lat="44.84398" lon="3.34361">
        <ele>887</ele>
        <time>2021-02-07T11:48:17Z</time>
      </trkpt>
      <trkpt lat="44.84458" lon="3.34358">
        <ele>879</ele>
        <time>2021-02-07T11:48:31Z</time>
      </trkpt>
      <trkpt lat="44.84494" lon="3.34307">
        <ele>878</ele>
        <time>2021-02-07T11:48:43Z</time>
      </trkpt>
      <trkpt lat="44.84531" lon="3.34287">
        <ele>875</ele>
        <time>2021-02-07T11:48:52Z</time>
      </trkpt>
      <trkpt lat="44.84572" lon="3.34243">
        <ele>874</ele>
        <time>2021-02-07T11:49:04Z</time>
      </trkpt>
      <trkpt lat="44.84659" lon="3.34203">
        <ele>875</ele>
        <time>2021-02-07T11:49:26Z</time>
      </trkpt>
      <trkpt lat="44.84853" lon="3.34079">
        <ele>881</ele>
        <time>2021-02-07T11:50:15Z</time>
      </trkpt>
      <trkpt lat="44.84894" lon="3.34102">
        <ele>875</ele>
        <time>2021-02-07T11:50:26Z</time>
      </trkpt>
      <trkpt lat="44.84968" lon="3.3406">
        <ele>874</ele>
        <time>2021-02-07T11:50:44Z</time>
      </trkpt>
      <trkpt lat="44.85028" lon="3.34084">
        <ele>868</ele>
        <time>2021-02-07T11:50:59Z</time>
      </trkpt>
      <trkpt lat="44.85029" lon="3.34097">
        <ele>867</ele>
        <time>2021-02-07T11:51:01Z</time>
      </trkpt>
      <trkpt lat="44.85011" lon="3.34108">
        <ele>867</ele>
        <time>2021-02-07T11:51:06Z</time>
      </trkpt>
      <trkpt lat="44.84992" lon="3.3411">
        <ele>868</ele>
        <time>2021-02-07T11:51:10Z</time>
      </trkpt>
      <trkpt lat="44.84963" lon="3.34105">
        <ele>870</ele>
        <time>2021-02-07T11:51:17Z</time>
      </trkpt>
      <trkpt lat="44.84929" lon="3.34112">
        <ele>871</ele>
        <time>2021-02-07T11:51:25Z</time>
      </trkpt>
      <trkpt lat="44.84916" lon="3.34133">
        <ele>869</ele>
        <time>2021-02-07T11:51:29Z</time>
      </trkpt>
      <trkpt lat="44.8499" lon="3.34271">
        <ele>862</ele>
        <time>2021-02-07T11:51:58Z</time>
      </trkpt>
      <trkpt lat="44.85003" lon="3.34265">
        <ele>862</ele>
        <time>2021-02-07T11:52:01Z</time>
      </trkpt>
      <trkpt lat="44.85031" lon="3.34315">
        <ele>861</ele>
        <time>2021-02-07T11:52:12Z</time>
      </trkpt>
      <trkpt lat="44.8507" lon="3.34369">
        <ele>862</ele>
        <time>2021-02-07T11:52:25Z</time>
      </trkpt>
      <trkpt lat="44.85059" lon="3.34397">
        <ele>862</ele>
        <time>2021-02-07T11:52:30Z</time>
      </trkpt>
      <trkpt lat="44.85006" lon="3.34467">
        <ele>861</ele>
        <time>2021-02-07T11:52:47Z</time>
      </trkpt>
      <trkpt lat="44.85012" lon="3.34566">
        <ele>864</ele>
        <time>2021-02-07T11:53:03Z</time>
      </trkpt>
      <trkpt lat="44.85041" lon="3.34583">
        <ele>865</ele>
        <time>2021-02-07T11:53:11Z</time>
      </trkpt>
      <trkpt lat="44.85063" lon="3.34548">
        <ele>865</ele>
        <time>2021-02-07T11:53:18Z</time>
      </trkpt>
      <trkpt lat="44.85136" lon="3.346">
        <ele>871</ele>
        <time>2021-02-07T11:53:38Z</time>
      </trkpt>
      <trkpt lat="44.85161" lon="3.34527">
        <ele>870</ele>
        <time>2021-02-07T11:53:51Z</time>
      </trkpt>
      <trkpt lat="44.85524" lon="3.33736">
        <ele>868</ele>
        <time>2021-02-07T11:56:27Z</time>
      </trkpt>
      <trkpt lat="44.85607" lon="3.33622">
        <ele>870</ele>
        <time>2021-02-07T11:56:54Z</time>
      </trkpt>
      <trkpt lat="44.85617" lon="3.33596">
        <ele>870</ele>
        <time>2021-02-07T11:56:59Z</time>
      </trkpt>
      <trkpt lat="44.85632" lon="3.33492">
        <ele>867</ele>
        <time>2021-02-07T11:57:16Z</time>
      </trkpt>
      <trkpt lat="44.85624" lon="3.33401">
        <ele>866</ele>
        <time>2021-02-07T11:57:32Z</time>
      </trkpt>
      <trkpt lat="44.85572" lon="3.33222">
        <ele>867</ele>
        <time>2021-02-07T11:58:04Z</time>
      </trkpt>
      <trkpt lat="44.85552" lon="3.33209">
        <ele>866</ele>
        <time>2021-02-07T11:58:09Z</time>
      </trkpt>
      <trkpt lat="44.85495" lon="3.33114">
        <ele>864</ele>
        <time>2021-02-07T11:58:29Z</time>
      </trkpt>
      <trkpt lat="44.85576" lon="3.33026">
        <ele>866</ele>
        <time>2021-02-07T11:58:53Z</time>
      </trkpt>
      <trkpt lat="44.85558" lon="3.33011">
        <ele>866</ele>
        <time>2021-02-07T11:58:58Z</time>
      </trkpt>
      <trkpt lat="44.85534" lon="3.33032">
        <ele>865</ele>
        <time>2021-02-07T11:59:05Z</time>
      </trkpt>
      <trkpt lat="44.85567" lon="3.32929">
        <ele>864</ele>
        <time>2021-02-07T11:59:23Z</time>
      </trkpt>
      <trkpt lat="44.85589" lon="3.3297">
        <ele>865</ele>
        <time>2021-02-07T11:59:32Z</time>
      </trkpt>
      <trkpt lat="44.85598" lon="3.33008">
        <ele>866</ele>
        <time>2021-02-07T11:59:39Z</time>
      </trkpt>
      <trkpt lat="44.85577" lon="3.33059">
        <ele>867</ele>
        <time>2021-02-07T11:59:48Z</time>
      </trkpt>
      <trkpt lat="44.85613" lon="3.33134">
        <ele>867</ele>
        <time>2021-02-07T12:00:03Z</time>
      </trkpt>
      <trkpt lat="44.85588" lon="3.33161">
        <ele>869</ele>
        <time>2021-02-07T12:00:11Z</time>
      </trkpt>
      <trkpt lat="44.85678" lon="3.33316">
        <ele>868</ele>
        <time>2021-02-07T12:00:44Z</time>
      </trkpt>
      <trkpt lat="44.85745" lon="3.33413">
        <ele>871</ele>
        <time>2021-02-07T12:01:06Z</time>
      </trkpt>
      <trkpt lat="44.85717" lon="3.33452">
        <ele>872</ele>
        <time>2021-02-07T12:01:15Z</time>
      </trkpt>
      <trkpt lat="44.85677" lon="3.33525">
        <ele>872</ele>
        <time>2021-02-07T12:01:31Z</time>
      </trkpt>
      <trkpt lat="44.85705" lon="3.33612">
        <ele>876</ele>
        <time>2021-02-07T12:01:47Z</time>
      </trkpt>
      <trkpt lat="44.85777" lon="3.33789">
        <ele>885</ele>
        <time>2021-02-07T12:02:20Z</time>
      </trkpt>
      <trkpt lat="44.85804" lon="3.33835">
        <ele>888</ele>
        <time>2021-02-07T12:02:30Z</time>
      </trkpt>
      <trkpt lat="44.85842" lon="3.33994">
        <ele>900</ele>
        <time>2021-02-07T12:02:58Z</time>
      </trkpt>
      <trkpt lat="44.85854" lon="3.34142">
        <ele>914</ele>
        <time>2021-02-07T12:03:23Z</time>
      </trkpt>
      <trkpt lat="44.85861" lon="3.34176">
        <ele>917</ele>
        <time>2021-02-07T12:03:29Z</time>
      </trkpt>
      <trkpt lat="44.85887" lon="3.34233">
        <ele>922</ele>
        <time>2021-02-07T12:03:40Z</time>
      </trkpt>
      <trkpt lat="44.86045" lon="3.34484">
        <ele>939</ele>
        <time>2021-02-07T12:04:35Z</time>
      </trkpt>
      <trkpt lat="44.86077" lon="3.34515">
        <ele>940</ele>
        <time>2021-02-07T12:04:44Z</time>
      </trkpt>
      <trkpt lat="44.86135" lon="3.34601">
        <ele>941</ele>
        <time>2021-02-07T12:05:04Z</time>
      </trkpt>
      <trkpt lat="44.86256" lon="3.34668">
        <ele>939</ele>
        <time>2021-02-07T12:05:34Z</time>
      </trkpt>
      <trkpt lat="44.86399" lon="3.34787">
        <ele>940</ele>
        <time>2021-02-07T12:06:13Z</time>
      </trkpt>
      <trkpt lat="44.86642" lon="3.35152">
        <ele>938</ele>
        <time>2021-02-07T12:07:36Z</time>
      </trkpt>
      <trkpt lat="44.86803" lon="3.35336">
        <ele>950</ele>
        <time>2021-02-07T12:08:24Z</time>
      </trkpt>
      <trkpt lat="44.86831" lon="3.35354">
        <ele>953</ele>
        <time>2021-02-07T12:08:32Z</time>
      </trkpt>
      <trkpt lat="44.86899" lon="3.35316">
        <ele>957</ele>
        <time>2021-02-07T12:08:49Z</time>
      </trkpt>
      <trkpt lat="44.86936" lon="3.3532">
        <ele>961</ele>
        <time>2021-02-07T12:08:57Z</time>
      </trkpt>
      <trkpt lat="44.87005" lon="3.35335">
        <ele>970</ele>
        <time>2021-02-07T12:09:14Z</time>
      </trkpt>
      <trkpt lat="44.87059" lon="3.35501">
        <ele>992</ele>
        <time>2021-02-07T12:09:44Z</time>
      </trkpt>
      <trkpt lat="44.87076" lon="3.35521">
        <ele>996</ele>
        <time>2021-02-07T12:09:49Z</time>
      </trkpt>
      <trkpt lat="44.87094" lon="3.35553">
        <ele>999</ele>
        <time>2021-02-07T12:09:56Z</time>
      </trkpt>
      <trkpt lat="44.87129" lon="3.3558">
        <ele>1003</ele>
        <time>2021-02-07T12:10:05Z</time>
      </trkpt>
      <trkpt lat="44.87153" lon="3.35615">
        <ele>1008</ele>
        <time>2021-02-07T12:10:13Z</time>
      </trkpt>
      <trkpt lat="44.87144" lon="3.35646">
        <ele>1010</ele>
        <time>2021-02-07T12:10:19Z</time>
      </trkpt>
      <trkpt lat="44.87138" lon="3.3568">
        <ele>1013</ele>
        <time>2021-02-07T12:10:25Z</time>
      </trkpt>
      <trkpt lat="44.8714" lon="3.3572">
        <ele>1017</ele>
        <time>2021-02-07T12:10:31Z</time>
      </trkpt>
      <trkpt lat="44.87162" lon="3.3579">
        <ele>1024</ele>
        <time>2021-02-07T12:10:44Z</time>
      </trkpt>
      <trkpt lat="44.87198" lon="3.35862">
        <ele>1031</ele>
        <time>2021-02-07T12:10:58Z</time>
      </trkpt>
      <trkpt lat="44.87209" lon="3.35966">
        <ele>1038</ele>
        <time>2021-02-07T12:11:16Z</time>
      </trkpt>
      <trkpt lat="44.87187" lon="3.36023">
        <ele>1041</ele>
        <time>2021-02-07T12:11:27Z</time>
      </trkpt>
      <trkpt lat="44.87176" lon="3.36086">
        <ele>1046</ele>
        <time>2021-02-07T12:11:37Z</time>
      </trkpt>
      <trkpt lat="44.87162" lon="3.36285">
        <ele>1067</ele>
        <time>2021-02-07T12:12:10Z</time>
      </trkpt>
      <trkpt lat="44.87151" lon="3.36362">
        <ele>1076</ele>
        <time>2021-02-07T12:12:23Z</time>
      </trkpt>
      <trkpt lat="44.87122" lon="3.36388">
        <ele>1082</ele>
        <time>2021-02-07T12:12:31Z</time>
      </trkpt>
      <trkpt lat="44.87086" lon="3.36409">
        <ele>1089</ele>
        <time>2021-02-07T12:12:41Z</time>
      </trkpt>
      <trkpt lat="44.87031" lon="3.36788">
        <ele>1108</ele>
        <time>2021-02-07T12:13:45Z</time>
      </trkpt>
      <trkpt lat="44.8702" lon="3.36897">
        <ele>1114</ele>
        <time>2021-02-07T12:14:03Z</time>
      </trkpt>
      <trkpt lat="44.87018" lon="3.37016">
        <ele>1121</ele>
        <time>2021-02-07T12:14:23Z</time>
      </trkpt>
      <trkpt lat="44.87013" lon="3.37091">
        <ele>1127</ele>
        <time>2021-02-07T12:14:35Z</time>
      </trkpt>
      <trkpt lat="44.87029" lon="3.37177">
        <ele>1126</ele>
        <time>2021-02-07T12:14:50Z</time>
      </trkpt>
      <trkpt lat="44.87077" lon="3.37289">
        <ele>1126</ele>
        <time>2021-02-07T12:15:11Z</time>
      </trkpt>
      <trkpt lat="44.87096" lon="3.3737">
        <ele>1128</ele>
        <time>2021-02-07T12:15:25Z</time>
      </trkpt>
      <trkpt lat="44.87114" lon="3.37469">
        <ele>1135</ele>
        <time>2021-02-07T12:15:42Z</time>
      </trkpt>
      <trkpt lat="44.87144" lon="3.37585">
        <ele>1147</ele>
        <time>2021-02-07T12:16:03Z</time>
      </trkpt>
      <trkpt lat="44.87141" lon="3.37654">
        <ele>1155</ele>
        <time>2021-02-07T12:16:14Z</time>
      </trkpt>
      <trkpt lat="44.87117" lon="3.37804">
        <ele>1169</ele>
        <time>2021-02-07T12:16:40Z</time>
      </trkpt>
      <trkpt lat="44.87123" lon="3.37894">
        <ele>1174</ele>
        <time>2021-02-07T12:16:55Z</time>
      </trkpt>
      <trkpt lat="44.87105" lon="3.37984">
        <ele>1178</ele>
        <time>2021-02-07T12:17:10Z</time>
      </trkpt>
      <trkpt lat="44.87096" lon="3.38091">
        <ele>1181</ele>
        <time>2021-02-07T12:17:28Z</time>
      </trkpt>
      <trkpt lat="44.87096" lon="3.38203">
        <ele>1188</ele>
        <time>2021-02-07T12:17:47Z</time>
      </trkpt>
      <trkpt lat="44.87062" lon="3.38323">
        <ele>1189</ele>
        <time>2021-02-07T12:18:08Z</time>
      </trkpt>
      <trkpt lat="44.87041" lon="3.38413">
        <ele>1190</ele>
        <time>2021-02-07T12:18:24Z</time>
      </trkpt>
      <trkpt lat="44.87004" lon="3.3846">
        <ele>1192</ele>
        <time>2021-02-07T12:18:35Z</time>
      </trkpt>
      <trkpt lat="44.86977" lon="3.38662">
        <ele>1187</ele>
        <time>2021-02-07T12:19:09Z</time>
      </trkpt>
      <trkpt lat="44.87029" lon="3.38744">
        <ele>1183</ele>
        <time>2021-02-07T12:19:27Z</time>
      </trkpt>
      <trkpt lat="44.87047" lon="3.3883">
        <ele>1183</ele>
        <time>2021-02-07T12:19:42Z</time>
      </trkpt>
      <trkpt lat="44.87071" lon="3.38928">
        <ele>1183</ele>
        <time>2021-02-07T12:19:59Z</time>
      </trkpt>
      <trkpt lat="44.87083" lon="3.3904">
        <ele>1183</ele>
        <time>2021-02-07T12:20:18Z</time>
      </trkpt>
      <trkpt lat="44.87099" lon="3.39091">
        <ele>1182</ele>
        <time>2021-02-07T12:20:27Z</time>
      </trkpt>
      <trkpt lat="44.87144" lon="3.39139">
        <ele>1181</ele>
        <time>2021-02-07T12:20:41Z</time>
      </trkpt>
      <trkpt lat="44.8719" lon="3.39177">
        <ele>1183</ele>
        <time>2021-02-07T12:20:53Z</time>
      </trkpt>
      <trkpt lat="44.87378" lon="3.39143">
        <ele>1206</ele>
        <time>2021-02-07T12:21:37Z</time>
      </trkpt>
      <trkpt lat="44.8747" lon="3.391">
        <ele>1212</ele>
        <time>2021-02-07T12:22:00Z</time>
      </trkpt>
      <trkpt lat="44.87515" lon="3.39104">
        <ele>1216</ele>
        <time>2021-02-07T12:22:10Z</time>
      </trkpt>
      <trkpt lat="44.87534" lon="3.39173">
        <ele>1225</ele>
        <time>2021-02-07T12:22:23Z</time>
      </trkpt>
      <trkpt lat="44.87673" lon="3.39181">
        <ele>1236</ele>
        <time>2021-02-07T12:22:55Z</time>
      </trkpt>
      <trkpt lat="44.8767" lon="3.39233">
        <ele>1242</ele>
        <time>2021-02-07T12:23:04Z</time>
      </trkpt>
      <trkpt lat="44.87643" lon="3.39297">
        <ele>1249</ele>
        <time>2021-02-07T12:23:16Z</time>
      </trkpt>
      <trkpt lat="44.87616" lon="3.394">
        <ele>1254</ele>
        <time>2021-02-07T12:23:34Z</time>
      </trkpt>
      <trkpt lat="44.87664" lon="3.39443">
        <ele>1265</ele>
        <time>2021-02-07T12:23:48Z</time>
      </trkpt>
      <trkpt lat="44.87743" lon="3.3943">
        <ele>1269</ele>
        <time>2021-02-07T12:24:06Z</time>
      </trkpt>
      <trkpt lat="44.87813" lon="3.39465">
        <ele>1275</ele>
        <time>2021-02-07T12:24:24Z</time>
      </trkpt>
      <trkpt lat="44.87877" lon="3.39516">
        <ele>1282</ele>
        <time>2021-02-07T12:24:41Z</time>
      </trkpt>
      <trkpt lat="44.87978" lon="3.39529">
        <ele>1285</ele>
        <time>2021-02-07T12:25:04Z</time>
      </trkpt>
      <trkpt lat="44.88005" lon="3.39555">
        <ele>1289</ele>
        <time>2021-02-07T12:25:12Z</time>
      </trkpt>
      <trkpt lat="44.88069" lon="3.39606">
        <ele>1293</ele>
        <time>2021-02-07T12:25:29Z</time>
      </trkpt>
      <trkpt lat="44.88136" lon="3.39671">
        <ele>1297</ele>
        <time>2021-02-07T12:25:48Z</time>
      </trkpt>
      <trkpt lat="44.88196" lon="3.39744">
        <ele>1301</ele>
        <time>2021-02-07T12:26:07Z</time>
      </trkpt>
      <trkpt lat="44.88291" lon="3.39808">
        <ele>1308</ele>
        <time>2021-02-07T12:26:31Z</time>
      </trkpt>
      <trkpt lat="44.88406" lon="3.39898">
        <ele>1322</ele>
        <time>2021-02-07T12:27:02Z</time>
      </trkpt>
      <trkpt lat="44.88634" lon="3.40001">
        <ele>1338</ele>
        <time>2021-02-07T12:27:58Z</time>
      </trkpt>
      <trkpt lat="44.88701" lon="3.40061">
        <ele>1346</ele>
        <time>2021-02-07T12:28:16Z</time>
      </trkpt>
      <trkpt lat="44.88789" lon="3.40108">
        <ele>1351</ele>
        <time>2021-02-07T12:28:38Z</time>
      </trkpt>
      <trkpt lat="44.88881" lon="3.40147">
        <ele>1351</ele>
        <time>2021-02-07T12:29:01Z</time>
      </trkpt>
      <trkpt lat="44.88951" lon="3.40186">
        <ele>1348</ele>
        <time>2021-02-07T12:29:18Z</time>
      </trkpt>
      <trkpt lat="44.8903" lon="3.40203">
        <ele>1344</ele>
        <time>2021-02-07T12:29:37Z</time>
      </trkpt>
      <trkpt lat="44.89121" lon="3.40194">
        <ele>1337</ele>
        <time>2021-02-07T12:29:58Z</time>
      </trkpt>
      <trkpt lat="44.89169" lon="3.40147">
        <ele>1338</ele>
        <time>2021-02-07T12:30:12Z</time>
      </trkpt>
      <trkpt lat="44.89245" lon="3.40104">
        <ele>1329</ele>
        <time>2021-02-07T12:30:31Z</time>
      </trkpt>
      <trkpt lat="44.89346" lon="3.40108">
        <ele>1316</ele>
        <time>2021-02-07T12:30:55Z</time>
      </trkpt>
      <trkpt lat="44.89373" lon="3.40104">
        <ele>1313</ele>
        <time>2021-02-07T12:31:01Z</time>
      </trkpt>
      <trkpt lat="44.8944" lon="3.40134">
        <ele>1308</ele>
        <time>2021-02-07T12:31:17Z</time>
      </trkpt>
      <trkpt lat="44.89492" lon="3.40203">
        <ele>1307</ele>
        <time>2021-02-07T12:31:34Z</time>
      </trkpt>
      <trkpt lat="44.89531" lon="3.40267">
        <ele>1313</ele>
        <time>2021-02-07T12:31:48Z</time>
      </trkpt>
      <trkpt lat="44.89516" lon="3.40336">
        <ele>1319</ele>
        <time>2021-02-07T12:32:00Z</time>
      </trkpt>
      <trkpt lat="44.89492" lon="3.40426">
        <ele>1327</ele>
        <time>2021-02-07T12:32:16Z</time>
      </trkpt>
      <trkpt lat="44.89477" lon="3.40525">
        <ele>1338</ele>
        <time>2021-02-07T12:32:33Z</time>
      </trkpt>
      <trkpt lat="44.89473" lon="3.40653">
        <ele>1350</ele>
        <time>2021-02-07T12:32:54Z</time>
      </trkpt>
      <trkpt lat="44.89486" lon="3.40829">
        <ele>1368</ele>
        <time>2021-02-07T12:33:23Z</time>
      </trkpt>
      <trkpt lat="44.89528" lon="3.40761">
        <ele>1369</ele>
        <time>2021-02-07T12:33:38Z</time>
      </trkpt>
      <trkpt lat="44.89586" lon="3.40705">
        <ele>1373</ele>
        <time>2021-02-07T12:33:55Z</time>
      </trkpt>
      <trkpt lat="44.89644" lon="3.40688">
        <ele>1373</ele>
        <time>2021-02-07T12:34:08Z</time>
      </trkpt>
      <trkpt lat="44.89711" lon="3.40675">
        <ele>1372</ele>
        <time>2021-02-07T12:34:24Z</time>
      </trkpt>
      <trkpt lat="44.89787" lon="3.40696">
        <ele>1372</ele>
        <time>2021-02-07T12:34:42Z</time>
      </trkpt>
      <trkpt lat="44.8985" lon="3.40705">
        <ele>1372</ele>
        <time>2021-02-07T12:34:57Z</time>
      </trkpt>
      <trkpt lat="44.89911" lon="3.40709">
        <ele>1373</ele>
        <time>2021-02-07T12:35:11Z</time>
      </trkpt>
      <trkpt lat="44.89975" lon="3.40696">
        <ele>1376</ele>
        <time>2021-02-07T12:35:26Z</time>
      </trkpt>
      <trkpt lat="44.90048" lon="3.40658">
        <ele>1374</ele>
        <time>2021-02-07T12:35:45Z</time>
      </trkpt>
      <trkpt lat="44.90109" lon="3.40632">
        <ele>1374</ele>
        <time>2021-02-07T12:35:59Z</time>
      </trkpt>
      <trkpt lat="44.90148" lon="3.40645">
        <ele>1377</ele>
        <time>2021-02-07T12:36:09Z</time>
      </trkpt>
      <trkpt lat="44.90297" lon="3.40611">
        <ele>1377</ele>
        <time>2021-02-07T12:36:44Z</time>
      </trkpt>
      <trkpt lat="44.9041" lon="3.4058">
        <ele>1377</ele>
        <time>2021-02-07T12:37:11Z</time>
      </trkpt>
      <trkpt lat="44.90528" lon="3.4058">
        <ele>1378</ele>
        <time>2021-02-07T12:37:38Z</time>
      </trkpt>
      <trkpt lat="44.90702" lon="3.40572">
        <ele>1377</ele>
        <time>2021-02-07T12:38:19Z</time>
      </trkpt>
      <trkpt lat="44.90781" lon="3.40546">
        <ele>1373</ele>
        <time>2021-02-07T12:38:38Z</time>
      </trkpt>
      <trkpt lat="44.90851" lon="3.40512">
        <ele>1372</ele>
        <time>2021-02-07T12:38:55Z</time>
      </trkpt>
      <trkpt lat="44.90899" lon="3.40422">
        <ele>1371</ele>
        <time>2021-02-07T12:39:14Z</time>
      </trkpt>
      <trkpt lat="44.90963" lon="3.40356">
        <ele>1370</ele>
        <time>2021-02-07T12:39:32Z</time>
      </trkpt>
      <trkpt lat="44.90811" lon="3.40983">
        <ele>1394</ele>
        <time>2021-02-07T12:41:22Z</time>
      </trkpt>
      <trkpt lat="44.90757" lon="3.41422">
        <ele>1402</ele>
        <time>2021-02-07T12:42:36Z</time>
      </trkpt>
      <trkpt lat="44.90681" lon="3.41623">
        <ele>1397</ele>
        <time>2021-02-07T12:43:13Z</time>
      </trkpt>
      <trkpt lat="44.90611" lon="3.41701">
        <ele>1396</ele>
        <time>2021-02-07T12:43:34Z</time>
      </trkpt>
      <trkpt lat="44.90472" lon="3.42087">
        <ele>1388</ele>
        <time>2021-02-07T12:44:46Z</time>
      </trkpt>
      <trkpt lat="44.90335" lon="3.42047">
        <ele>1394</ele>
        <time>2021-02-07T12:45:19Z</time>
      </trkpt>
      <trkpt lat="44.902" lon="3.4205">
        <ele>1389</ele>
        <time>2021-02-07T12:45:50Z</time>
      </trkpt>
      <trkpt lat="44.90141" lon="3.42119">
        <ele>1383</ele>
        <time>2021-02-07T12:46:08Z</time>
      </trkpt>
      <trkpt lat="44.90097" lon="3.42251">
        <ele>1378</ele>
        <time>2021-02-07T12:46:32Z</time>
      </trkpt>
      <trkpt lat="44.90079" lon="3.42292">
        <ele>1377</ele>
        <time>2021-02-07T12:46:40Z</time>
      </trkpt>
      <trkpt lat="44.89849" lon="3.42369">
        <ele>1373</ele>
        <time>2021-02-07T12:47:35Z</time>
      </trkpt>
      <trkpt lat="44.89603" lon="3.42425">
        <ele>1379</ele>
        <time>2021-02-07T12:48:34Z</time>
      </trkpt>
      <trkpt lat="44.8954" lon="3.42462">
        <ele>1376</ele>
        <time>2021-02-07T12:48:49Z</time>
      </trkpt>
      <trkpt lat="44.89362" lon="3.42445">
        <ele>1372</ele>
        <time>2021-02-07T12:49:31Z</time>
      </trkpt>
      <trkpt lat="44.89298" lon="3.42555">
        <ele>1365</ele>
        <time>2021-02-07T12:49:55Z</time>
      </trkpt>
      <trkpt lat="44.89198" lon="3.42645">
        <ele>1365</ele>
        <time>2021-02-07T12:50:22Z</time>
      </trkpt>
      <trkpt lat="44.89164" lon="3.42695">
        <ele>1367</ele>
        <time>2021-02-07T12:50:34Z</time>
      </trkpt>
      <trkpt lat="44.89176" lon="3.42859">
        <ele>1374</ele>
        <time>2021-02-07T12:51:01Z</time>
      </trkpt>
      <trkpt lat="44.89182" lon="3.43103">
        <ele>1379</ele>
        <time>2021-02-07T12:51:42Z</time>
      </trkpt>
      <trkpt lat="44.89143" lon="3.43188">
        <ele>1379</ele>
        <time>2021-02-07T12:51:58Z</time>
      </trkpt>
      <trkpt lat="44.88792" lon="3.43674">
        <ele>1391</ele>
        <time>2021-02-07T12:53:53Z</time>
      </trkpt>
      <trkpt lat="44.88264" lon="3.4405">
        <ele>1419</ele>
        <time>2021-02-07T12:56:11Z</time>
      </trkpt>
      <trkpt lat="44.88001" lon="3.4413">
        <ele>1424</ele>
        <time>2021-02-07T12:57:14Z</time>
      </trkpt>
      <trkpt lat="44.87902" lon="3.44109">
        <ele>1425</ele>
        <time>2021-02-07T12:57:37Z</time>
      </trkpt>
      <trkpt lat="44.87789" lon="3.44154">
        <ele>1417</ele>
        <time>2021-02-07T12:58:05Z</time>
      </trkpt>
      <trkpt lat="44.87738" lon="3.44267">
        <ele>1407</ele>
        <time>2021-02-07T12:58:27Z</time>
      </trkpt>
      <trkpt lat="44.8771" lon="3.44412">
        <ele>1399</ele>
        <time>2021-02-07T12:58:52Z</time>
      </trkpt>
      <trkpt lat="44.87644" lon="3.44499">
        <ele>1394</ele>
        <time>2021-02-07T12:59:13Z</time>
      </trkpt>
      <trkpt lat="44.87576" lon="3.44552">
        <ele>1399</ele>
        <time>2021-02-07T12:59:31Z</time>
      </trkpt>
      <trkpt lat="44.87563" lon="3.44675">
        <ele>1396</ele>
        <time>2021-02-07T12:59:52Z</time>
      </trkpt>
      <trkpt lat="44.87527" lon="3.44741">
        <ele>1394</ele>
        <time>2021-02-07T13:00:05Z</time>
      </trkpt>
      <trkpt lat="44.87421" lon="3.44754">
        <ele>1392</ele>
        <time>2021-02-07T13:00:30Z</time>
      </trkpt>
      <trkpt lat="44.87087" lon="3.44643">
        <ele>1385</ele>
        <time>2021-02-07T13:01:50Z</time>
      </trkpt>
      <trkpt lat="44.87037" lon="3.44658">
        <ele>1388</ele>
        <time>2021-02-07T13:02:02Z</time>
      </trkpt>
      <trkpt lat="44.87018" lon="3.44759">
        <ele>1384</ele>
        <time>2021-02-07T13:02:20Z</time>
      </trkpt>
      <trkpt lat="44.86994" lon="3.44926">
        <ele>1378</ele>
        <time>2021-02-07T13:02:48Z</time>
      </trkpt>
      <trkpt lat="44.86969" lon="3.44967">
        <ele>1373</ele>
        <time>2021-02-07T13:02:57Z</time>
      </trkpt>
      <trkpt lat="44.8689" lon="3.45006">
        <ele>1371</ele>
        <time>2021-02-07T13:03:16Z</time>
      </trkpt>
      <trkpt lat="44.86881" lon="3.45035">
        <ele>1369</ele>
        <time>2021-02-07T13:03:22Z</time>
      </trkpt>
      <trkpt lat="44.86881" lon="3.45177">
        <ele>1358</ele>
        <time>2021-02-07T13:03:45Z</time>
      </trkpt>
      <trkpt lat="44.86867" lon="3.45246">
        <ele>1354</ele>
        <time>2021-02-07T13:03:57Z</time>
      </trkpt>
      <trkpt lat="44.86792" lon="3.45317">
        <ele>1350</ele>
        <time>2021-02-07T13:04:18Z</time>
      </trkpt>
      <trkpt lat="44.86633" lon="3.45476">
        <ele>1330</ele>
        <time>2021-02-07T13:05:04Z</time>
      </trkpt>
      <trkpt lat="44.86638" lon="3.45637">
        <ele>1325</ele>
        <time>2021-02-07T13:05:30Z</time>
      </trkpt>
      <trkpt lat="44.86621" lon="3.45804">
        <ele>1330</ele>
        <time>2021-02-07T13:05:58Z</time>
      </trkpt>
      <trkpt lat="44.86671" lon="3.4596">
        <ele>1326</ele>
        <time>2021-02-07T13:06:27Z</time>
      </trkpt>
      <trkpt lat="44.86681" lon="3.46068">
        <ele>1320</ele>
        <time>2021-02-07T13:06:45Z</time>
      </trkpt>
      <trkpt lat="44.86712" lon="3.46129">
        <ele>1319</ele>
        <time>2021-02-07T13:06:57Z</time>
      </trkpt>
      <trkpt lat="44.86688" lon="3.46283">
        <ele>1325</ele>
        <time>2021-02-07T13:07:23Z</time>
      </trkpt>
      <trkpt lat="44.86669" lon="3.4634">
        <ele>1325</ele>
        <time>2021-02-07T13:07:34Z</time>
      </trkpt>
      <trkpt lat="44.86688" lon="3.46476">
        <ele>1328</ele>
        <time>2021-02-07T13:07:56Z</time>
      </trkpt>
      <trkpt lat="44.86655" lon="3.46621">
        <ele>1330</ele>
        <time>2021-02-07T13:08:22Z</time>
      </trkpt>
      <trkpt lat="44.86672" lon="3.46767">
        <ele>1334</ele>
        <time>2021-02-07T13:08:46Z</time>
      </trkpt>
      <trkpt lat="44.86676" lon="3.46969">
        <ele>1326</ele>
        <time>2021-02-07T13:09:20Z</time>
      </trkpt>
      <trkpt lat="44.86578" lon="3.47346">
        <ele>1294</ele>
        <time>2021-02-07T13:10:26Z</time>
      </trkpt>
      <trkpt lat="44.86472" lon="3.47344">
        <ele>1287</ele>
        <time>2021-02-07T13:10:51Z</time>
      </trkpt>
      <trkpt lat="44.86389" lon="3.47324">
        <ele>1279</ele>
        <time>2021-02-07T13:11:10Z</time>
      </trkpt>
      <trkpt lat="44.86423" lon="3.47372">
        <ele>1274</ele>
        <time>2021-02-07T13:11:22Z</time>
      </trkpt>
      <trkpt lat="44.86396" lon="3.47523">
        <ele>1256</ele>
        <time>2021-02-07T13:11:47Z</time>
      </trkpt>
      <trkpt lat="44.86351" lon="3.47573">
        <ele>1247</ele>
        <time>2021-02-07T13:12:01Z</time>
      </trkpt>
      <trkpt lat="44.86337" lon="3.47655">
        <ele>1242</ele>
        <time>2021-02-07T13:12:15Z</time>
      </trkpt>
      <trkpt lat="44.86293" lon="3.47774">
        <ele>1234</ele>
        <time>2021-02-07T13:12:37Z</time>
      </trkpt>
      <trkpt lat="44.8635" lon="3.48075">
        <ele>1215</ele>
        <time>2021-02-07T13:13:29Z</time>
      </trkpt>
      <trkpt lat="44.86312" lon="3.4809">
        <ele>1213</ele>
        <time>2021-02-07T13:13:38Z</time>
      </trkpt>
      <trkpt lat="44.86285" lon="3.4808">
        <ele>1211</ele>
        <time>2021-02-07T13:13:44Z</time>
      </trkpt>
      <trkpt lat="44.86298" lon="3.48169">
        <ele>1199</ele>
        <time>2021-02-07T13:13:59Z</time>
      </trkpt>
      <trkpt lat="44.86315" lon="3.48217">
        <ele>1194</ele>
        <time>2021-02-07T13:14:08Z</time>
      </trkpt>
      <trkpt lat="44.8636" lon="3.4824">
        <ele>1193</ele>
        <time>2021-02-07T13:14:19Z</time>
      </trkpt>
      <trkpt lat="44.86402" lon="3.48279">
        <ele>1187</ele>
        <time>2021-02-07T13:14:31Z</time>
      </trkpt>
      <trkpt lat="44.86409" lon="3.48311">
        <ele>1184</ele>
        <time>2021-02-07T13:14:37Z</time>
      </trkpt>
      <trkpt lat="44.86397" lon="3.48383">
        <ele>1181</ele>
        <time>2021-02-07T13:14:49Z</time>
      </trkpt>
      <trkpt lat="44.86362" lon="3.48503">
        <ele>1172</ele>
        <time>2021-02-07T13:15:10Z</time>
      </trkpt>
      <trkpt lat="44.8632" lon="3.48609">
        <ele>1164</ele>
        <time>2021-02-07T13:15:31Z</time>
      </trkpt>
      <trkpt lat="44.86243" lon="3.48677">
        <ele>1155</ele>
        <time>2021-02-07T13:15:52Z</time>
      </trkpt>
      <trkpt lat="44.86159" lon="3.4877">
        <ele>1149</ele>
        <time>2021-02-07T13:16:17Z</time>
      </trkpt>
      <trkpt lat="44.86102" lon="3.48798">
        <ele>1142</ele>
        <time>2021-02-07T13:16:31Z</time>
      </trkpt>
      <trkpt lat="44.86063" lon="3.4892">
        <ele>1139</ele>
        <time>2021-02-07T13:16:53Z</time>
      </trkpt>
      <trkpt lat="44.86051" lon="3.48917">
        <ele>1137</ele>
        <time>2021-02-07T13:16:56Z</time>
      </trkpt>
      <trkpt lat="44.86028" lon="3.48986">
        <ele>1130</ele>
        <time>2021-02-07T13:17:08Z</time>
      </trkpt>
      <trkpt lat="44.85964" lon="3.49092">
        <ele>1122</ele>
        <time>2021-02-07T13:17:31Z</time>
      </trkpt>
      <trkpt lat="44.85894" lon="3.4911">
        <ele>1125</ele>
        <time>2021-02-07T13:17:48Z</time>
      </trkpt>
      <trkpt lat="44.85797" lon="3.49155">
        <ele>1131</ele>
        <time>2021-02-07T13:18:12Z</time>
      </trkpt>
      <trkpt lat="44.85662" lon="3.49171">
        <ele>1136</ele>
        <time>2021-02-07T13:18:44Z</time>
      </trkpt>
      <trkpt lat="44.85567" lon="3.4922">
        <ele>1143</ele>
        <time>2021-02-07T13:19:07Z</time>
      </trkpt>
      <trkpt lat="44.85482" lon="3.49171">
        <ele>1135</ele>
        <time>2021-02-07T13:19:29Z</time>
      </trkpt>
      <trkpt lat="44.85397" lon="3.49166">
        <ele>1134</ele>
        <time>2021-02-07T13:19:49Z</time>
      </trkpt>
      <trkpt lat="44.85311" lon="3.49164">
        <ele>1135</ele>
        <time>2021-02-07T13:20:09Z</time>
      </trkpt>
      <trkpt lat="44.85206" lon="3.49105">
        <ele>1137</ele>
        <time>2021-02-07T13:20:35Z</time>
      </trkpt>
      <trkpt lat="44.85128" lon="3.49034">
        <ele>1141</ele>
        <time>2021-02-07T13:20:57Z</time>
      </trkpt>
      <trkpt lat="44.85012" lon="3.49006">
        <ele>1144</ele>
        <time>2021-02-07T13:21:24Z</time>
      </trkpt>
      <trkpt lat="44.84926" lon="3.48992">
        <ele>1152</ele>
        <time>2021-02-07T13:21:44Z</time>
      </trkpt>
      <trkpt lat="44.84867" lon="3.49069">
        <ele>1163</ele>
        <time>2021-02-07T13:22:03Z</time>
      </trkpt>
      <trkpt lat="44.8474" lon="3.48909">
        <ele>1189</ele>
        <time>2021-02-07T13:22:43Z</time>
      </trkpt>
      <trkpt lat="44.84696" lon="3.48826">
        <ele>1200</ele>
        <time>2021-02-07T13:23:00Z</time>
      </trkpt>
      <trkpt lat="44.84672" lon="3.48759">
        <ele>1209</ele>
        <time>2021-02-07T13:23:12Z</time>
      </trkpt>
      <trkpt lat="44.84608" lon="3.48707">
        <ele>1213</ele>
        <time>2021-02-07T13:23:30Z</time>
      </trkpt>
      <trkpt lat="44.84536" lon="3.4868">
        <ele>1219</ele>
        <time>2021-02-07T13:23:47Z</time>
      </trkpt>
      <trkpt lat="44.84487" lon="3.48587">
        <ele>1222</ele>
        <time>2021-02-07T13:24:06Z</time>
      </trkpt>
      <trkpt lat="44.84446" lon="3.48457">
        <ele>1220</ele>
        <time>2021-02-07T13:24:30Z</time>
      </trkpt>
      <trkpt lat="44.844" lon="3.48333">
        <ele>1222</ele>
        <time>2021-02-07T13:24:53Z</time>
      </trkpt>
      <trkpt lat="44.84371" lon="3.48275">
        <ele>1220</ele>
        <time>2021-02-07T13:25:05Z</time>
      </trkpt>
      <trkpt lat="44.84277" lon="3.48232">
        <ele>1220</ele>
        <time>2021-02-07T13:25:28Z</time>
      </trkpt>
      <trkpt lat="44.84289" lon="3.48172">
        <ele>1218</ele>
        <time>2021-02-07T13:25:38Z</time>
      </trkpt>
      <trkpt lat="44.84332" lon="3.48151">
        <ele>1222</ele>
        <time>2021-02-07T13:25:49Z</time>
      </trkpt>
      <trkpt lat="44.84263" lon="3.48109">
        <ele>1224</ele>
        <time>2021-02-07T13:26:06Z</time>
      </trkpt>
      <trkpt lat="44.84226" lon="3.48013">
        <ele>1231</ele>
        <time>2021-02-07T13:26:24Z</time>
      </trkpt>
      <trkpt lat="44.84224" lon="3.47931">
        <ele>1233</ele>
        <time>2021-02-07T13:26:38Z</time>
      </trkpt>
      <trkpt lat="44.84201" lon="3.47839">
        <ele>1232</ele>
        <time>2021-02-07T13:26:54Z</time>
      </trkpt>
      <trkpt lat="44.84162" lon="3.47623">
        <ele>1252</ele>
        <time>2021-02-07T13:27:31Z</time>
      </trkpt>
      <trkpt lat="44.84064" lon="3.47561">
        <ele>1254</ele>
        <time>2021-02-07T13:27:56Z</time>
      </trkpt>
      <trkpt lat="44.83986" lon="3.47502">
        <ele>1259</ele>
        <time>2021-02-07T13:28:17Z</time>
      </trkpt>
      <trkpt lat="44.83975" lon="3.47429">
        <ele>1262</ele>
        <time>2021-02-07T13:28:29Z</time>
      </trkpt>
      <trkpt lat="44.83988" lon="3.47329">
        <ele>1267</ele>
        <time>2021-02-07T13:28:46Z</time>
      </trkpt>
      <trkpt lat="44.83973" lon="3.47233">
        <ele>1274</ele>
        <time>2021-02-07T13:29:02Z</time>
      </trkpt>
      <trkpt lat="44.83946" lon="3.47186">
        <ele>1279</ele>
        <time>2021-02-07T13:29:12Z</time>
      </trkpt>
      <trkpt lat="44.83809" lon="3.4717">
        <ele>1286</ele>
        <time>2021-02-07T13:29:44Z</time>
      </trkpt>
      <trkpt lat="44.8318" lon="3.46239">
        <ele>1307.8</ele>
      </trkpt>
      <trkpt lat="44.83173" lon="3.46238">
        <ele>1307.8</ele>
      </trkpt>
      <trkpt lat="44.83168" lon="3.4628">
        <ele>1308.8</ele>
      </trkpt>
      <trkpt lat="44.83161" lon="3.46386">
        <ele>1315</ele>
      </trkpt>
      <trkpt lat="44.83153" lon="3.46455">
        <ele>1315.5</ele>
      </trkpt>
      <trkpt lat="44.83098" lon="3.46658">
        <ele>1310.1</ele>
      </trkpt>
      <trkpt lat="44.83077" lon="3.46693">
        <ele>1309.1</ele>
      </trkpt>
      <trkpt lat="44.83046" lon="3.46714">
        <ele>1308.3</ele>
      </trkpt>
      <trkpt lat="44.83012" lon="3.46716">
        <ele>1308.3</ele>
      </trkpt>
      <trkpt lat="44.82974" lon="3.46698">
        <ele>1309.2</ele>
      </trkpt>
      <trkpt lat="44.82924" lon="3.46663">
        <ele>1311.4</ele>
      </trkpt>
      <trkpt lat="44.82851" lon="3.46606">
        <ele>1312.1</ele>
      </trkpt>
      <trkpt lat="44.82831" lon="3.46609">
        <ele>1312.9</ele>
      </trkpt>
      <trkpt lat="44.82828" lon="3.46611">
        <ele>1313</ele>
      </trkpt>
      <trkpt lat="44.8282" lon="3.46616">
        <ele>1313.1</ele>
      </trkpt>
      <trkpt lat="44.82694" lon="3.46704">
        <ele>1319</ele>
      </trkpt>
      <trkpt lat="44.82681" lon="3.46716">
        <ele>1319.8</ele>
      </trkpt>
      <trkpt lat="44.82654" lon="3.46761">
        <ele>1326.8</ele>
      </trkpt>
      <trkpt lat="44.82644" lon="3.46815">
        <ele>1328.1</ele>
      </trkpt>
      <trkpt lat="44.82644" lon="3.46844">
        <ele>1328</ele>
      </trkpt>
      <trkpt lat="44.82622" lon="3.46987">
        <ele>1328.7</ele>
      </trkpt>
      <trkpt lat="44.82603" lon="3.47053">
        <ele>1328</ele>
      </trkpt>
      <trkpt lat="44.82576" lon="3.4709">
        <ele>1331.8</ele>
      </trkpt>
      <trkpt lat="44.82533" lon="3.47158">
        <ele>1332.4</ele>
      </trkpt>
      <trkpt lat="44.82471" lon="3.47209">
        <ele>1330.5</ele>
      </trkpt>
      <trkpt lat="44.8241" lon="3.47249">
        <ele>1332.7</ele>
      </trkpt>
      <trkpt lat="44.82351" lon="3.47325">
        <ele>1332.3</ele>
      </trkpt>
      <trkpt lat="44.82328" lon="3.47355">
        <ele>1333</ele>
      </trkpt>
      <trkpt lat="44.82274" lon="3.47378">
        <ele>1334</ele>
      </trkpt>
      <trkpt lat="44.82239" lon="3.47376">
        <ele>1336</ele>
      </trkpt>
      <trkpt lat="44.82199" lon="3.47341">
        <ele>1336</ele>
      </trkpt>
      <trkpt lat="44.82106" lon="3.47292">
        <ele>1341</ele>
      </trkpt>
      <trkpt lat="44.82105" lon="3.47292">
        <ele>1341</ele>
      </trkpt>
      <trkpt lat="44.82074" lon="3.47269">
        <ele>1343</ele>
      </trkpt>
      <trkpt lat="44.82039" lon="3.47246">
        <ele>1347</ele>
      </trkpt>
      <trkpt lat="44.82037" lon="3.47247">
        <ele>1347</ele>
      </trkpt>
      <trkpt lat="44.82004" lon="3.47259">
        <ele>1345</ele>
      </trkpt>
      <trkpt lat="44.81969" lon="3.47339">
        <ele>1346</ele>
      </trkpt>
      <trkpt lat="44.81931" lon="3.47421">
        <ele>1346</ele>
      </trkpt>
      <trkpt lat="44.81876" lon="3.47466">
        <ele>1354</ele>
      </trkpt>
      <trkpt lat="44.81874" lon="3.47466">
        <ele>1354</ele>
      </trkpt>
      <trkpt lat="44.81758" lon="3.47551">
        <ele>1359</ele>
      </trkpt>
      <trkpt lat="44.81647" lon="3.47649">
        <ele>1366</ele>
      </trkpt>
      <trkpt lat="44.81609" lon="3.47678">
        <ele>1366</ele>
      </trkpt>
      <trkpt lat="44.81585" lon="3.47678">
        <ele>1369</ele>
      </trkpt>
      <trkpt lat="44.81549" lon="3.47672">
        <ele>1372</ele>
      </trkpt>
      <trkpt lat="44.81525" lon="3.47688">
        <ele>1373</ele>
      </trkpt>
      <trkpt lat="44.81469" lon="3.47783">
        <ele>1379</ele>
      </trkpt>
      <trkpt lat="44.81412" lon="3.47865">
        <ele>1387</ele>
      </trkpt>
      <trkpt lat="44.81343" lon="3.47959">
        <ele>1387</ele>
      </trkpt>
      <trkpt lat="44.81265" lon="3.4805">
        <ele>1392</ele>
      </trkpt>
      <trkpt lat="44.81165" lon="3.48109">
        <ele>1402</ele>
      </trkpt>
      <trkpt lat="44.81122" lon="3.48122">
        <ele>1403</ele>
      </trkpt>
      <trkpt lat="44.81071" lon="3.48173">
        <ele>1400</ele>
      </trkpt>
      <trkpt lat="44.81013" lon="3.4823">
        <ele>1397</ele>
      </trkpt>
      <trkpt lat="44.80977" lon="3.48249">
        <ele>1397</ele>
      </trkpt>
      <trkpt lat="44.80907" lon="3.48249">
        <ele>1397</ele>
      </trkpt>
      <trkpt lat="44.80842" lon="3.48255">
        <ele>1395</ele>
      </trkpt>
      <trkpt lat="44.80791" lon="3.48292">
        <ele>1393</ele>
      </trkpt>
      <trkpt lat="44.80757" lon="3.48325">
        <ele>1391</ele>
      </trkpt>
      <trkpt lat="44.80742" lon="3.48348">
        <ele>1390</ele>
      </trkpt>
      <trkpt lat="44.80731" lon="3.48382">
        <ele>1389</ele>
      </trkpt>
      <trkpt lat="44.80723" lon="3.48428">
        <ele>1386</ele>
      </trkpt>
      <trkpt lat="44.80713" lon="3.48432">
        <ele>1387</ele>
      </trkpt>
      <trkpt lat="44.80713" lon="3.48451">
        <ele>1387</ele>
      </trkpt>
      <trkpt lat="44.80699" lon="3.48501">
        <ele>1390</ele>
      </trkpt>
      <trkpt lat="44.80673" lon="3.48589">
        <ele>1395</ele>
      </trkpt>
      <trkpt lat="44.80632" lon="3.48744">
        <ele>1399</ele>
      </trkpt>
      <trkpt lat="44.80624" lon="3.48776">
        <ele>1399</ele>
      </trkpt>
      <trkpt lat="44.80582" lon="3.48883">
        <ele>1401</ele>
      </trkpt>
      <trkpt lat="44.80565" lon="3.4894">
        <ele>1403</ele>
      </trkpt>
      <trkpt lat="44.80532" lon="3.49003">
        <ele>1405</ele>
      </trkpt>
      <trkpt lat="44.80511" lon="3.49063">
        <ele>1407</ele>
      </trkpt>
      <trkpt lat="44.80485" lon="3.49127">
        <ele>1413</ele>
      </trkpt>
      <trkpt lat="44.80464" lon="3.49187">
        <ele>1413</ele>
      </trkpt>
      <trkpt lat="44.80444" lon="3.4924">
        <ele>1414</ele>
      </trkpt>
      <trkpt lat="44.80428" lon="3.49264">
        <ele>1413</ele>
      </trkpt>
      <trkpt lat="44.80401" lon="3.49318">
        <ele>1415</ele>
      </trkpt>
      <trkpt lat="44.80387" lon="3.49345">
        <ele>1413</ele>
      </trkpt>
      <trkpt lat="44.80355" lon="3.49388">
        <ele>1413</ele>
      </trkpt>
      <trkpt lat="44.80342" lon="3.49427">
        <ele>1413</ele>
      </trkpt>
      <trkpt lat="44.80331" lon="3.4945">
        <ele>1417</ele>
      </trkpt>
      <trkpt lat="44.80326" lon="3.49479">
        <ele>1416</ele>
      </trkpt>
      <trkpt lat="44.80307" lon="3.49519">
        <ele>1417</ele>
      </trkpt>
      <trkpt lat="44.80277" lon="3.49552">
        <ele>1419</ele>
      </trkpt>
      <trkpt lat="44.80243" lon="3.49617">
        <ele>1424</ele>
      </trkpt>
      <trkpt lat="44.8019" lon="3.497">
        <ele>1423</ele>
      </trkpt>
      <trkpt lat="44.80149" lon="3.49753">
        <ele>1424</ele>
      </trkpt>
      <trkpt lat="44.80118" lon="3.49796">
        <ele>1425</ele>
      </trkpt>
      <trkpt lat="44.80091" lon="3.49814">
        <ele>1425</ele>
      </trkpt>
      <trkpt lat="44.80075" lon="3.49837">
        <ele>1425</ele>
      </trkpt>
      <trkpt lat="44.80066" lon="3.49863">
        <ele>1425</ele>
      </trkpt>
      <trkpt lat="44.80038" lon="3.49908">
        <ele>1425</ele>
      </trkpt>
      <trkpt lat="44.80027" lon="3.49912">
        <ele>1426</ele>
      </trkpt>
      <trkpt lat="44.80021" lon="3.49911">
        <ele>1426</ele>
      </trkpt>
      <trkpt lat="44.80016" lon="3.49923">
        <ele>1426</ele>
      </trkpt>
      <trkpt lat="44.80015" lon="3.49957">
        <ele>1426</ele>
      </trkpt>
      <trkpt lat="44.80013" lon="3.49987">
        <ele>1427</ele>
      </trkpt>
      <trkpt lat="44.80011" lon="3.49996">
        <ele>1427</ele>
      </trkpt>
      <trkpt lat="44.80008" lon="3.49998">
        <ele>1427</ele>
      </trkpt>
      <trkpt lat="44.80005" lon="3.49991">
        <ele>1427</ele>
      </trkpt>
      <trkpt lat="44.79997" lon="3.49978">
        <ele>1427</ele>
      </trkpt>
      <trkpt lat="44.79996" lon="3.49977">
        <ele>1427</ele>
      </trkpt>
      <trkpt lat="44.79971" lon="3.49927">
        <ele>1427</ele>
      </trkpt>
      <trkpt lat="44.79949" lon="3.49881">
        <ele>1427</ele>
      </trkpt>
      <trkpt lat="44.79902" lon="3.4979">
        <ele>1426</ele>
      </trkpt>
      <trkpt lat="44.79869" lon="3.49722">
        <ele>1426</ele>
      </trkpt>
      <trkpt lat="44.79833" lon="3.49649">
        <ele>1422</ele>
      </trkpt>
      <trkpt lat="44.79828" lon="3.4964">
        <ele>1422</ele>
      </trkpt>
      <trkpt lat="44.79829" lon="3.49657">
        <ele>1423</ele>
      </trkpt>
      <trkpt lat="44.79826" lon="3.4966">
        <ele>1423</ele>
      </trkpt>
      <trkpt lat="44.79817" lon="3.49663">
        <ele>1422</ele>
      </trkpt>
      <trkpt lat="44.79814" lon="3.49681">
        <ele>1423</ele>
      </trkpt>
      <trkpt lat="44.79809" lon="3.49712">
        <ele>1423</ele>
      </trkpt>
      <trkpt lat="44.798" lon="3.49725">
        <ele>1422</ele>
      </trkpt>
      <trkpt lat="44.79774" lon="3.49738">
        <ele>1421</ele>
      </trkpt>
      <trkpt lat="44.79685" lon="3.49786">
        <ele>1420</ele>
      </trkpt>
      <trkpt lat="44.79639" lon="3.49814">
        <ele>1420</ele>
      </trkpt>
      <trkpt lat="44.79634" lon="3.49855">
        <ele>1419</ele>
      </trkpt>
      <trkpt lat="44.79633" lon="3.49857">
        <ele>1419</ele>
      </trkpt>
      <trkpt lat="44.79626" lon="3.4993">
        <ele>1418</ele>
      </trkpt>
      <trkpt lat="44.79613" lon="3.49954">
        <ele>1418</ele>
      </trkpt>
      <trkpt lat="44.7959" lon="3.49963">
        <ele>1419</ele>
      </trkpt>
      <trkpt lat="44.79553" lon="3.49963">
        <ele>1422</ele>
      </trkpt>
      <trkpt lat="44.79514" lon="3.49957">
        <ele>1423</ele>
      </trkpt>
      <trkpt lat="44.79487" lon="3.49955">
        <ele>1426</ele>
      </trkpt>
      <trkpt lat="44.79423" lon="3.49921">
        <ele>1427</ele>
      </trkpt>
      <trkpt lat="44.79423" lon="3.4992">
        <ele>1427</ele>
      </trkpt>
      <trkpt lat="44.79355" lon="3.49888">
        <ele>1429</ele>
      </trkpt>
      <trkpt lat="44.79319" lon="3.49858">
        <ele>1430</ele>
      </trkpt>
      <trkpt lat="44.7927" lon="3.49813">
        <ele>1431</ele>
      </trkpt>
      <trkpt lat="44.79229" lon="3.49797">
        <ele>1434</ele>
      </trkpt>
      <trkpt lat="44.79191" lon="3.49777">
        <ele>1434</ele>
      </trkpt>
      <trkpt lat="44.79155" lon="3.49771">
        <ele>1437</ele>
      </trkpt>
      <trkpt lat="44.79115" lon="3.49774">
        <ele>1438</ele>
      </trkpt>
      <trkpt lat="44.79031" lon="3.49774">
        <ele>1443</ele>
      </trkpt>
      <trkpt lat="44.78965" lon="3.49774">
        <ele>1448</ele>
      </trkpt>
      <trkpt lat="44.7894" lon="3.49794">
        <ele>1448</ele>
      </trkpt>
      <trkpt lat="44.78912" lon="3.49825">
        <ele>1451</ele>
      </trkpt>
      <trkpt lat="44.78892" lon="3.49833">
        <ele>1452</ele>
      </trkpt>
      <trkpt lat="44.78853" lon="3.49844">
        <ele>1451</ele>
      </trkpt>
      <trkpt lat="44.78818" lon="3.49845">
        <ele>1453</ele>
      </trkpt>
      <trkpt lat="44.78797" lon="3.4985">
        <ele>1453</ele>
      </trkpt>
      <trkpt lat="44.78765" lon="3.49868">
        <ele>1453</ele>
      </trkpt>
      <trkpt lat="44.78726" lon="3.499">
        <ele>1453</ele>
      </trkpt>
      <trkpt lat="44.78691" lon="3.49935">
        <ele>1451</ele>
      </trkpt>
      <trkpt lat="44.78627" lon="3.49998">
        <ele>1450</ele>
      </trkpt>
      <trkpt lat="44.786" lon="3.50042">
        <ele>1446</ele>
      </trkpt>
      <trkpt lat="44.78594" lon="3.50075">
        <ele>1445</ele>
      </trkpt>
      <trkpt lat="44.78589" lon="3.50114">
        <ele>1443</ele>
      </trkpt>
      <trkpt lat="44.78589" lon="3.50142">
        <ele>1442</ele>
      </trkpt>
      <trkpt lat="44.78584" lon="3.50164">
        <ele>1443</ele>
      </trkpt>
      <trkpt lat="44.78556" lon="3.50211">
        <ele>1444</ele>
      </trkpt>
      <trkpt lat="44.78542" lon="3.5025">
        <ele>1444</ele>
      </trkpt>
      <trkpt lat="44.78531" lon="3.50288">
        <ele>1445</ele>
      </trkpt>
      <trkpt lat="44.7853" lon="3.50291">
        <ele>1445</ele>
      </trkpt>
      <trkpt lat="44.78523" lon="3.50331">
        <ele>1446</ele>
      </trkpt>
      <trkpt lat="44.78513" lon="3.5036">
        <ele>1445</ele>
      </trkpt>
      <trkpt lat="44.7851" lon="3.5039">
        <ele>1445</ele>
      </trkpt>
      <trkpt lat="44.78512" lon="3.50407">
        <ele>1445</ele>
      </trkpt>
      <trkpt lat="44.78507" lon="3.50428">
        <ele>1445</ele>
      </trkpt>
      <trkpt lat="44.78499" lon="3.50438">
        <ele>1445</ele>
      </trkpt>
      <trkpt lat="44.78498" lon="3.50467">
        <ele>1444</ele>
      </trkpt>
      <trkpt lat="44.78499" lon="3.50491">
        <ele>1444</ele>
      </trkpt>
      <trkpt lat="44.78497" lon="3.50505">
        <ele>1444</ele>
      </trkpt>
      <trkpt lat="44.7849" lon="3.50516">
        <ele>1443</ele>
      </trkpt>
      <trkpt lat="44.7848" lon="3.5051">
        <ele>1443</ele>
      </trkpt>
      <trkpt lat="44.78479" lon="3.50509">
        <ele>1443</ele>
      </trkpt>
      <trkpt lat="44.78452" lon="3.50487">
        <ele>1444</ele>
      </trkpt>
      <trkpt lat="44.784" lon="3.50444">
        <ele>1442</ele>
      </trkpt>
      <trkpt lat="44.78399" lon="3.50444">
        <ele>1442</ele>
      </trkpt>
      <trkpt lat="44.78337" lon="3.50393">
        <ele>1440</ele>
      </trkpt>
      <trkpt lat="44.78288" lon="3.50353">
        <ele>1434</ele>
      </trkpt>
      <trkpt lat="44.78246" lon="3.50314">
        <ele>1427</ele>
      </trkpt>
      <trkpt lat="44.78208" lon="3.50284">
        <ele>1426</ele>
      </trkpt>
      <trkpt lat="44.78197" lon="3.50331">
        <ele>1425</ele>
      </trkpt>
      <trkpt lat="44.78193" lon="3.50389">
        <ele>1425</ele>
      </trkpt>
      <trkpt lat="44.78178" lon="3.50429">
        <ele>1425</ele>
      </trkpt>
      <trkpt lat="44.78169" lon="3.50461">
        <ele>1425</ele>
      </trkpt>
      <trkpt lat="44.78149" lon="3.50505">
        <ele>1420</ele>
      </trkpt>
      <trkpt lat="44.78125" lon="3.50553">
        <ele>1418</ele>
      </trkpt>
      <trkpt lat="44.78098" lon="3.5061">
        <ele>1417</ele>
      </trkpt>
      <trkpt lat="44.78083" lon="3.50652">
        <ele>1412</ele>
      </trkpt>
      <trkpt lat="44.7808" lon="3.50633">
        <ele>1411</ele>
      </trkpt>
      <trkpt lat="44.78054" lon="3.50555">
        <ele>1411</ele>
      </trkpt>
      <trkpt lat="44.78044" lon="3.50537">
        <ele>1411</ele>
      </trkpt>
      <trkpt lat="44.78023" lon="3.50521">
        <ele>1410</ele>
      </trkpt>
      <trkpt lat="44.78022" lon="3.50521">
        <ele>1410</ele>
      </trkpt>
      <trkpt lat="44.78009" lon="3.50515">
        <ele>1410</ele>
      </trkpt>
      <trkpt lat="44.78002" lon="3.50507">
        <ele>1410</ele>
      </trkpt>
      <trkpt lat="44.78002" lon="3.50502">
        <ele>1410</ele>
      </trkpt>
      <trkpt lat="44.78005" lon="3.50488">
        <ele>1412</ele>
      </trkpt>
      <trkpt lat="44.78011" lon="3.50455">
        <ele>1413</ele>
      </trkpt>
      <trkpt lat="44.78018" lon="3.50426">
        <ele>1414</ele>
      </trkpt>
      <trkpt lat="44.78024" lon="3.50404">
        <ele>1417</ele>
      </trkpt>
      <trkpt lat="44.78032" lon="3.50386">
        <ele>1418</ele>
      </trkpt>
      <trkpt lat="44.78043" lon="3.50372">
        <ele>1419</ele>
      </trkpt>
      <trkpt lat="44.7805" lon="3.50355">
        <ele>1419</ele>
      </trkpt>
      <trkpt lat="44.78051" lon="3.5034">
        <ele>1420</ele>
      </trkpt>
      <trkpt lat="44.78049" lon="3.50327">
        <ele>1423</ele>
      </trkpt>
      <trkpt lat="44.78049" lon="3.50302">
        <ele>1424</ele>
      </trkpt>
      <trkpt lat="44.78049" lon="3.50288">
        <ele>1424</ele>
      </trkpt>
      <trkpt lat="44.78051" lon="3.5026">
        <ele>1425</ele>
      </trkpt>
      <trkpt lat="44.7805" lon="3.5024">
        <ele>1428</ele>
      </trkpt>
      <trkpt lat="44.78045" lon="3.5023">
        <ele>1429</ele>
      </trkpt>
      <trkpt lat="44.78031" lon="3.50216">
        <ele>1429</ele>
      </trkpt>
      <trkpt lat="44.7803" lon="3.50216">
        <ele>1429</ele>
      </trkpt>
      <trkpt lat="44.78015" lon="3.50205">
        <ele>1429</ele>
      </trkpt>
      <trkpt lat="44.78014" lon="3.50204">
        <ele>1429</ele>
      </trkpt>
      <trkpt lat="44.78013" lon="3.50203">
        <ele>1429</ele>
      </trkpt>
      <trkpt lat="44.78004" lon="3.50198">
        <ele>1430</ele>
      </trkpt>
      <trkpt lat="44.78001" lon="3.50195">
        <ele>1430</ele>
      </trkpt>
      <trkpt lat="44.78" lon="3.5019">
        <ele>1428</ele>
      </trkpt>
      <trkpt lat="44.78" lon="3.50184">
        <ele>1429</ele>
      </trkpt>
      <trkpt lat="44.78005" lon="3.50163">
        <ele>1431</ele>
      </trkpt>
      <trkpt lat="44.78016" lon="3.50119">
        <ele>1433</ele>
      </trkpt>
      <trkpt lat="44.78027" lon="3.50059">
        <ele>1434</ele>
      </trkpt>
      <trkpt lat="44.78037" lon="3.50012">
        <ele>1434</ele>
      </trkpt>
      <trkpt lat="44.78057" lon="3.49947">
        <ele>1434</ele>
      </trkpt>
      <trkpt lat="44.78053" lon="3.49909">
        <ele>1436</ele>
      </trkpt>
      <trkpt lat="44.78037" lon="3.49877">
        <ele>1437</ele>
      </trkpt>
      <trkpt lat="44.78035" lon="3.49875">
        <ele>1437</ele>
      </trkpt>
      <trkpt lat="44.78021" lon="3.49861">
        <ele>1438</ele>
      </trkpt>
      <trkpt lat="44.77986" lon="3.49845">
        <ele>1440</ele>
      </trkpt>
      <trkpt lat="44.77966" lon="3.49832">
        <ele>1443</ele>
      </trkpt>
      <trkpt lat="44.7795" lon="3.49816">
        <ele>1443</ele>
      </trkpt>
      <trkpt lat="44.77905" lon="3.49801">
        <ele>1441</ele>
      </trkpt>
      <trkpt lat="44.77887" lon="3.49797">
        <ele>1441</ele>
      </trkpt>
      <trkpt lat="44.77863" lon="3.49806">
        <ele>1440</ele>
      </trkpt>
      <trkpt lat="44.77831" lon="3.49818">
        <ele>1437</ele>
      </trkpt>
      <trkpt lat="44.77811" lon="3.4982">
        <ele>1437</ele>
      </trkpt>
      <trkpt lat="44.77797" lon="3.49821">
        <ele>1436</ele>
      </trkpt>
      <trkpt lat="44.77796" lon="3.49821">
        <ele>1436</ele>
      </trkpt>
      <trkpt lat="44.77785" lon="3.49832">
        <ele>1436</ele>
      </trkpt>
      <trkpt lat="44.7778" lon="3.49858">
        <ele>1434</ele>
      </trkpt>
      <trkpt lat="44.77785" lon="3.49884">
        <ele>1434</ele>
      </trkpt>
      <trkpt lat="44.7778" lon="3.49902">
        <ele>1433</ele>
      </trkpt>
      <trkpt lat="44.77761" lon="3.49929">
        <ele>1433</ele>
      </trkpt>
      <trkpt lat="44.77742" lon="3.49965">
        <ele>1433</ele>
      </trkpt>
      <trkpt lat="44.77716" lon="3.5001">
        <ele>1434</ele>
      </trkpt>
      <trkpt lat="44.77697" lon="3.50038">
        <ele>1434</ele>
      </trkpt>
      <trkpt lat="44.77689" lon="3.50045">
        <ele>1434</ele>
      </trkpt>
      <trkpt lat="44.77678" lon="3.50061">
        <ele>1435</ele>
      </trkpt>
      <trkpt lat="44.77665" lon="3.50071">
        <ele>1435</ele>
      </trkpt>
      <trkpt lat="44.77664" lon="3.50071">
        <ele>1435</ele>
      </trkpt>
      <trkpt lat="44.77643" lon="3.50084">
        <ele>1435</ele>
      </trkpt>
      <trkpt lat="44.77629" lon="3.50098">
        <ele>1434</ele>
      </trkpt>
      <trkpt lat="44.77615" lon="3.50123">
        <ele>1434</ele>
      </trkpt>
      <trkpt lat="44.77591" lon="3.50167">
        <ele>1434</ele>
      </trkpt>
      <trkpt lat="44.77576" lon="3.50195">
        <ele>1434</ele>
      </trkpt>
      <trkpt lat="44.77556" lon="3.50223">
        <ele>1433</ele>
      </trkpt>
      <trkpt lat="44.77539" lon="3.50245">
        <ele>1433</ele>
      </trkpt>
      <trkpt lat="44.77529" lon="3.50273">
        <ele>1435</ele>
      </trkpt>
      <trkpt lat="44.77514" lon="3.50299">
        <ele>1435</ele>
      </trkpt>
      <trkpt lat="44.77496" lon="3.50321">
        <ele>1437</ele>
      </trkpt>
      <trkpt lat="44.77495" lon="3.50321">
        <ele>1437</ele>
      </trkpt>
      <trkpt lat="44.7747" lon="3.50326">
        <ele>1436</ele>
      </trkpt>
      <trkpt lat="44.77469" lon="3.50326">
        <ele>1436</ele>
      </trkpt>
      <trkpt lat="44.77446" lon="3.50319">
        <ele>1436</ele>
      </trkpt>
      <trkpt lat="44.77445" lon="3.50319">
        <ele>1436</ele>
      </trkpt>
      <trkpt lat="44.77423" lon="3.50323">
        <ele>1436</ele>
      </trkpt>
      <trkpt lat="44.77397" lon="3.50334">
        <ele>1435</ele>
      </trkpt>
      <trkpt lat="44.77377" lon="3.5035">
        <ele>1434</ele>
      </trkpt>
      <trkpt lat="44.77357" lon="3.50359">
        <ele>1434</ele>
      </trkpt>
      <trkpt lat="44.77344" lon="3.50372">
        <ele>1433</ele>
      </trkpt>
      <trkpt lat="44.77312" lon="3.50397">
        <ele>1431</ele>
      </trkpt>
      <trkpt lat="44.77284" lon="3.50412">
        <ele>1430</ele>
      </trkpt>
      <trkpt lat="44.77233" lon="3.50441">
        <ele>1426</ele>
      </trkpt>
      <trkpt lat="44.7722" lon="3.50447">
        <ele>1426</ele>
      </trkpt>
      <trkpt lat="44.77219" lon="3.50447">
        <ele>1426</ele>
      </trkpt>
      <trkpt lat="44.77198" lon="3.50454">
        <ele>1426</ele>
      </trkpt>
      <trkpt lat="44.77169" lon="3.50469">
        <ele>1424</ele>
      </trkpt>
      <trkpt lat="44.77129" lon="3.5048">
        <ele>1422</ele>
      </trkpt>
      <trkpt lat="44.7711" lon="3.50487">
        <ele>1422</ele>
      </trkpt>
      <trkpt lat="44.77077" lon="3.50492">
        <ele>1419</ele>
      </trkpt>
      <trkpt lat="44.77063" lon="3.50493">
        <ele>1420</ele>
      </trkpt>
      <trkpt lat="44.77046" lon="3.50499">
        <ele>1420</ele>
      </trkpt>
      <trkpt lat="44.77029" lon="3.50501">
        <ele>1417</ele>
      </trkpt>
      <trkpt lat="44.77028" lon="3.50501">
        <ele>1417</ele>
      </trkpt>
      <trkpt lat="44.77009" lon="3.50505">
        <ele>1417</ele>
      </trkpt>
      <trkpt lat="44.76993" lon="3.50506">
        <ele>1418</ele>
      </trkpt>
      <trkpt lat="44.76978" lon="3.50507">
        <ele>1417</ele>
      </trkpt>
      <trkpt lat="44.76963" lon="3.50506">
        <ele>1417</ele>
      </trkpt>
      <trkpt lat="44.76934" lon="3.50514">
        <ele>1417</ele>
      </trkpt>
      <trkpt lat="44.76912" lon="3.50524">
        <ele>1417</ele>
      </trkpt>
      <trkpt lat="44.76897" lon="3.50538">
        <ele>1417</ele>
      </trkpt>
      <trkpt lat="44.76885" lon="3.5055">
        <ele>1417</ele>
      </trkpt>
      <trkpt lat="44.76866" lon="3.50558">
        <ele>1417</ele>
      </trkpt>
      <trkpt lat="44.76838" lon="3.50578">
        <ele>1417</ele>
      </trkpt>
      <trkpt lat="44.76822" lon="3.50596">
        <ele>1418</ele>
      </trkpt>
      <trkpt lat="44.76795" lon="3.50609">
        <ele>1419</ele>
      </trkpt>
      <trkpt lat="44.76779" lon="3.50622">
        <ele>1420</ele>
      </trkpt>
      <trkpt lat="44.76764" lon="3.50632">
        <ele>1420</ele>
      </trkpt>
      <trkpt lat="44.76751" lon="3.50649">
        <ele>1421</ele>
      </trkpt>
      <trkpt lat="44.76739" lon="3.50669">
        <ele>1424</ele>
      </trkpt>
      <trkpt lat="44.76732" lon="3.50689">
        <ele>1425</ele>
      </trkpt>
      <trkpt lat="44.76725" lon="3.5071">
        <ele>1425</ele>
      </trkpt>
      <trkpt lat="44.76724" lon="3.5071">
        <ele>1425</ele>
      </trkpt>
      <trkpt lat="44.76716" lon="3.50723">
        <ele>1425</ele>
      </trkpt>
      <trkpt lat="44.7671" lon="3.50727">
        <ele>1425</ele>
      </trkpt>
      <trkpt lat="44.76694" lon="3.50728">
        <ele>1426</ele>
      </trkpt>
      <trkpt lat="44.76686" lon="3.50724">
        <ele>1426</ele>
      </trkpt>
      <trkpt lat="44.76677" lon="3.50719">
        <ele>1426</ele>
      </trkpt>
      <trkpt lat="44.7666" lon="3.50727">
        <ele>1428</ele>
      </trkpt>
      <trkpt lat="44.76643" lon="3.50739">
        <ele>1428</ele>
      </trkpt>
      <trkpt lat="44.76629" lon="3.5075">
        <ele>1428</ele>
      </trkpt>
      <trkpt lat="44.76621" lon="3.50753">
        <ele>1428</ele>
      </trkpt>
      <trkpt lat="44.76612" lon="3.50754">
        <ele>1428</ele>
      </trkpt>
      <trkpt lat="44.76604" lon="3.50754">
        <ele>1429</ele>
      </trkpt>
      <trkpt lat="44.76594" lon="3.50753">
        <ele>1430</ele>
      </trkpt>
      <trkpt lat="44.76581" lon="3.50763">
        <ele>1430</ele>
      </trkpt>
      <trkpt lat="44.76571" lon="3.50774">
        <ele>1430</ele>
      </trkpt>
      <trkpt lat="44.76559" lon="3.50784">
        <ele>1430</ele>
      </trkpt>
      <trkpt lat="44.76554" lon="3.50787">
        <ele>1430</ele>
      </trkpt>
      <trkpt lat="44.76547" lon="3.50782">
        <ele>1430</ele>
      </trkpt>
      <trkpt lat="44.7654" lon="3.50774">
        <ele>1430</ele>
      </trkpt>
      <trkpt lat="44.76526" lon="3.50755">
        <ele>1431</ele>
      </trkpt>
      <trkpt lat="44.76512" lon="3.50736">
        <ele>1432</ele>
      </trkpt>
      <trkpt lat="44.76496" lon="3.5072">
        <ele>1431</ele>
      </trkpt>
      <trkpt lat="44.76496" lon="3.50718">
        <ele>1431</ele>
      </trkpt>
      <trkpt lat="44.7648" lon="3.50699">
        <ele>1431</ele>
      </trkpt>
      <trkpt lat="44.76471" lon="3.50691">
        <ele>1431</ele>
      </trkpt>
      <trkpt lat="44.7647" lon="3.50692">
        <ele>1431</ele>
      </trkpt>
      <trkpt lat="44.7646" lon="3.50701">
        <ele>1431</ele>
      </trkpt>
      <trkpt lat="44.7645" lon="3.50715">
        <ele>1431</ele>
      </trkpt>
      <trkpt lat="44.76444" lon="3.5073">
        <ele>1431</ele>
      </trkpt>
      <trkpt lat="44.76435" lon="3.5075">
        <ele>1431</ele>
      </trkpt>
      <trkpt lat="44.76411" lon="3.50792">
        <ele>1433</ele>
      </trkpt>
      <trkpt lat="44.76358" lon="3.50881">
        <ele>1436</ele>
      </trkpt>
      <trkpt lat="44.7631" lon="3.50969">
        <ele>1439</ele>
      </trkpt>
      <trkpt lat="44.76303" lon="3.50987">
        <ele>1439</ele>
      </trkpt>
      <trkpt lat="44.76308" lon="3.51007">
        <ele>1439</ele>
      </trkpt>
      <trkpt lat="44.76316" lon="3.51061">
        <ele>1438</ele>
      </trkpt>
      <trkpt lat="44.7632" lon="3.51079">
        <ele>1438</ele>
      </trkpt>
      <trkpt lat="44.76306" lon="3.51104">
        <ele>1438</ele>
      </trkpt>
      <trkpt lat="44.76301" lon="3.51133">
        <ele>1438</ele>
      </trkpt>
      <trkpt lat="44.76296" lon="3.51157">
        <ele>1438</ele>
      </trkpt>
      <trkpt lat="44.76294" lon="3.51174">
        <ele>1438</ele>
      </trkpt>
      <trkpt lat="44.76273" lon="3.51212">
        <ele>1438</ele>
      </trkpt>
      <trkpt lat="44.76246" lon="3.51258">
        <ele>1439</ele>
      </trkpt>
      <trkpt lat="44.76223" lon="3.51309">
        <ele>1438</ele>
      </trkpt>
      <trkpt lat="44.76188" lon="3.51371">
        <ele>1439</ele>
      </trkpt>
      <trkpt lat="44.76158" lon="3.51435">
        <ele>1437</ele>
      </trkpt>
      <trkpt lat="44.76141" lon="3.51462">
        <ele>1435</ele>
      </trkpt>
      <trkpt lat="44.7611" lon="3.51489">
        <ele>1434</ele>
      </trkpt>
      <trkpt lat="44.76109" lon="3.5149">
        <ele>1434</ele>
      </trkpt>
      <trkpt lat="44.76073" lon="3.51543">
        <ele>1433</ele>
      </trkpt>
      <trkpt lat="44.76042" lon="3.51573">
        <ele>1432</ele>
      </trkpt>
      <trkpt lat="44.76026" lon="3.51595">
        <ele>1435</ele>
      </trkpt>
      <trkpt lat="44.7601" lon="3.51624">
        <ele>1435</ele>
      </trkpt>
      <trkpt lat="44.76" lon="3.51643">
        <ele>1435</ele>
      </trkpt>
      <trkpt lat="44.75979" lon="3.51666">
        <ele>1432</ele>
      </trkpt>
      <trkpt lat="44.75955" lon="3.51699">
        <ele>1431</ele>
      </trkpt>
      <trkpt lat="44.7595" lon="3.51725">
        <ele>1431</ele>
      </trkpt>
      <trkpt lat="44.75945" lon="3.51768">
        <ele>1429</ele>
      </trkpt>
      <trkpt lat="44.75946" lon="3.51769">
        <ele>1429</ele>
      </trkpt>
      <trkpt lat="44.75943" lon="3.51831">
        <ele>1428</ele>
      </trkpt>
      <trkpt lat="44.75945" lon="3.51849">
        <ele>1428</ele>
      </trkpt>
      <trkpt lat="44.75949" lon="3.51868">
        <ele>1428</ele>
      </trkpt>
      <trkpt lat="44.75948" lon="3.51936">
        <ele>1427</ele>
      </trkpt>
      <trkpt lat="44.75946" lon="3.51977">
        <ele>1427</ele>
      </trkpt>
      <trkpt lat="44.75949" lon="3.52019">
        <ele>1426</ele>
      </trkpt>
      <trkpt lat="44.75949" lon="3.5202">
        <ele>1426</ele>
      </trkpt>
      <trkpt lat="44.75957" lon="3.52097">
        <ele>1424</ele>
      </trkpt>
      <trkpt lat="44.75961" lon="3.52145">
        <ele>1423</ele>
      </trkpt>
      <trkpt lat="44.75962" lon="3.52165">
        <ele>1423</ele>
      </trkpt>
      <trkpt lat="44.75961" lon="3.52168">
        <ele>1421</ele>
      </trkpt>
      <trkpt lat="44.75953" lon="3.52185">
        <ele>1421</ele>
      </trkpt>
      <trkpt lat="44.75953" lon="3.52186">
        <ele>1421</ele>
      </trkpt>
      <trkpt lat="44.75941" lon="3.52202">
        <ele>1421</ele>
      </trkpt>
      <trkpt lat="44.75927" lon="3.52204">
        <ele>1421</ele>
      </trkpt>
      <trkpt lat="44.75906" lon="3.52207">
        <ele>1422</ele>
      </trkpt>
      <trkpt lat="44.75893" lon="3.52204">
        <ele>1422</ele>
      </trkpt>
      <trkpt lat="44.75886" lon="3.52199">
        <ele>1423</ele>
      </trkpt>
      <trkpt lat="44.75872" lon="3.52193">
        <ele>1423</ele>
      </trkpt>
      <trkpt lat="44.75862" lon="3.52168">
        <ele>1423</ele>
      </trkpt>
      <trkpt lat="44.75841" lon="3.522">
        <ele>1424</ele>
      </trkpt>
      <trkpt lat="44.75808" lon="3.52234">
        <ele>1428</ele>
      </trkpt>
      <trkpt lat="44.75771" lon="3.52267">
        <ele>1433</ele>
      </trkpt>
      <trkpt lat="44.75739" lon="3.52334">
        <ele>1442</ele>
      </trkpt>
      <trkpt lat="44.75656" lon="3.52522">
        <ele>1461</ele>
      </trkpt>
      <trkpt lat="44.75547" lon="3.5279">
        <ele>1471</ele>
      </trkpt>
      <trkpt lat="44.75507" lon="3.52886">
        <ele>1472</ele>
      </trkpt>
      <trkpt lat="44.75507" lon="3.52885">
        <ele>1472</ele>
      </trkpt>
      <trkpt lat="44.75426" lon="3.52937">
        <ele>1476</ele>
      </trkpt>
      <trkpt lat="44.75383" lon="3.52995">
        <ele>1475</ele>
      </trkpt>
      <trkpt lat="44.75297" lon="3.53107">
        <ele>1471</ele>
      </trkpt>
      <trkpt lat="44.75271" lon="3.53138">
        <ele>1470</ele>
      </trkpt>
      <trkpt lat="44.75191" lon="3.53178">
        <ele>1473</ele>
      </trkpt>
      <trkpt lat="44.75168" lon="3.53213">
        <ele>1472</ele>
      </trkpt>
      <trkpt lat="44.75076" lon="3.53355">
        <ele>1479</ele>
      </trkpt>
      <trkpt lat="44.74984" lon="3.53481">
        <ele>1480</ele>
      </trkpt>
      <trkpt lat="44.74925" lon="3.53547">
        <ele>1477</ele>
      </trkpt>
      <trkpt lat="44.74883" lon="3.53604">
        <ele>1476</ele>
      </trkpt>
      <trkpt lat="44.74851" lon="3.53645">
        <ele>1475</ele>
      </trkpt>
      <trkpt lat="44.74788" lon="3.53711">
        <ele>1473</ele>
      </trkpt>
      <trkpt lat="44.7471" lon="3.53794">
        <ele>1470</ele>
      </trkpt>
      <trkpt lat="44.74649" lon="3.53856">
        <ele>1465</ele>
      </trkpt>
      <trkpt lat="44.7459" lon="3.53888">
        <ele>1463</ele>
      </trkpt>
      <trkpt lat="44.74526" lon="3.53922">
        <ele>1457</ele>
      </trkpt>
      <trkpt lat="44.74459" lon="3.53962">
        <ele>1456</ele>
      </trkpt>
      <trkpt lat="44.74381" lon="3.54011">
        <ele>1448</ele>
      </trkpt>
      <trkpt lat="44.74332" lon="3.54049">
        <ele>1444</ele>
      </trkpt>
      <trkpt lat="44.74246" lon="3.54121">
        <ele>1437</ele>
      </trkpt>
      <trkpt lat="44.74208" lon="3.54138">
        <ele>1436</ele>
      </trkpt>
      <trkpt lat="44.74152" lon="3.54173">
        <ele>1432</ele>
      </trkpt>
      <trkpt lat="44.74094" lon="3.54211">
        <ele>1428</ele>
      </trkpt>
      <trkpt lat="44.73996" lon="3.54275">
        <ele>1425</ele>
      </trkpt>
      <trkpt lat="44.73947" lon="3.54306">
        <ele>1425</ele>
      </trkpt>
      <trkpt lat="44.73939" lon="3.54323">
        <ele>1425</ele>
      </trkpt>
      <trkpt lat="44.73926" lon="3.54355">
        <ele>1424</ele>
      </trkpt>
      <trkpt lat="44.73871" lon="3.54484">
        <ele>1421</ele>
      </trkpt>
      <trkpt lat="44.73822" lon="3.54602">
        <ele>1421</ele>
      </trkpt>
      <trkpt lat="44.73755" lon="3.54745">
        <ele>1429</ele>
      </trkpt>
      <trkpt lat="44.73688" lon="3.54874">
        <ele>1442</ele>
      </trkpt>
      <trkpt lat="44.73641" lon="3.5497">
        <ele>1451</ele>
      </trkpt>
      <trkpt lat="44.73612" lon="3.55051">
        <ele>1453</ele>
      </trkpt>
      <trkpt lat="44.7358" lon="3.55102">
        <ele>1457</ele>
      </trkpt>
      <trkpt lat="44.73546" lon="3.55163">
        <ele>1458</ele>
      </trkpt>
      <trkpt lat="44.73541" lon="3.55229">
        <ele>1460</ele>
      </trkpt>
      <trkpt lat="44.7352" lon="3.55299">
        <ele>1464</ele>
      </trkpt>
      <trkpt lat="44.73491" lon="3.55407">
        <ele>1470</ele>
      </trkpt>
      <trkpt lat="44.73449" lon="3.55536">
        <ele>1475</ele>
      </trkpt>
      <trkpt lat="44.73405" lon="3.55694">
        <ele>1480</ele>
      </trkpt>
      <trkpt lat="44.73392" lon="3.55738">
        <ele>1481</ele>
      </trkpt>
      <trkpt lat="44.73358" lon="3.5579">
        <ele>1485</ele>
      </trkpt>
      <trkpt lat="44.73318" lon="3.55842">
        <ele>1489</ele>
      </trkpt>
      <trkpt lat="44.73275" lon="3.55876">
        <ele>1490</ele>
      </trkpt>
      <trkpt lat="44.73225" lon="3.55907">
        <ele>1491</ele>
      </trkpt>
      <trkpt lat="44.73178" lon="3.55973">
        <ele>1494</ele>
      </trkpt>
      <trkpt lat="44.73158" lon="3.56015">
        <ele>1495</ele>
      </trkpt>
      <trkpt lat="44.73107" lon="3.56076">
        <ele>1493</ele>
      </trkpt>
      <trkpt lat="44.73068" lon="3.56134">
        <ele>1491</ele>
      </trkpt>
      <trkpt lat="44.73024" lon="3.56194">
        <ele>1490</ele>
      </trkpt>
      <trkpt lat="44.7298" lon="3.56248">
        <ele>1486</ele>
      </trkpt>
      <trkpt lat="44.72928" lon="3.56289">
        <ele>1485</ele>
      </trkpt>
      <trkpt lat="44.72873" lon="3.56337">
        <ele>1482</ele>
      </trkpt>
      <trkpt lat="44.72852" lon="3.56359">
        <ele>1481</ele>
      </trkpt>
      <trkpt lat="44.72826" lon="3.56377">
        <ele>1479</ele>
      </trkpt>
      <trkpt lat="44.72762" lon="3.56418">
        <ele>1481</ele>
      </trkpt>
      <trkpt lat="44.72705" lon="3.56415">
        <ele>1477</ele>
      </trkpt>
      <trkpt lat="44.72687" lon="3.56424">
        <ele>1480</ele>
      </trkpt>
      <trkpt lat="44.72652" lon="3.56421">
        <ele>1479</ele>
      </trkpt>
      <trkpt lat="44.7262" lon="3.56417">
        <ele>1475</ele>
      </trkpt>
      <trkpt lat="44.72593" lon="3.56414">
        <ele>1475</ele>
      </trkpt>
      <trkpt lat="44.72557" lon="3.56416">
        <ele>1472</ele>
      </trkpt>
      <trkpt lat="44.72516" lon="3.5643">
        <ele>1473</ele>
      </trkpt>
      <trkpt lat="44.72467" lon="3.56457">
        <ele>1468</ele>
      </trkpt>
      <trkpt lat="44.72424" lon="3.5649">
        <ele>1466</ele>
      </trkpt>
      <trkpt lat="44.72384" lon="3.56526">
        <ele>1462</ele>
      </trkpt>
      <trkpt lat="44.72372" lon="3.5653">
        <ele>1462</ele>
      </trkpt>
      <trkpt lat="44.72349" lon="3.56527">
        <ele>1462</ele>
      </trkpt>
      <trkpt lat="44.72315" lon="3.56519">
        <ele>1460</ele>
      </trkpt>
      <trkpt lat="44.72258" lon="3.56509">
        <ele>1461</ele>
      </trkpt>
      <trkpt lat="44.72176" lon="3.56493">
        <ele>1465</ele>
      </trkpt>
      <trkpt lat="44.72092" lon="3.56483">
        <ele>1468</ele>
      </trkpt>
      <trkpt lat="44.72007" lon="3.56483">
        <ele>1467</ele>
      </trkpt>
      <trkpt lat="44.7196" lon="3.56488">
        <ele>1467</ele>
      </trkpt>
      <trkpt lat="44.71919" lon="3.56479">
        <ele>1467</ele>
      </trkpt>
      <trkpt lat="44.71892" lon="3.56469">
        <ele>1468</ele>
      </trkpt>
      <trkpt lat="44.7187" lon="3.56454">
        <ele>1469</ele>
      </trkpt>
      <trkpt lat="44.71869" lon="3.56453">
        <ele>1469</ele>
      </trkpt>
      <trkpt lat="44.71817" lon="3.5641">
        <ele>1471</ele>
      </trkpt>
      <trkpt lat="44.71738" lon="3.56357">
        <ele>1472</ele>
      </trkpt>
      <trkpt lat="44.71686" lon="3.56319">
        <ele>1473</ele>
      </trkpt>
      <trkpt lat="44.71614" lon="3.56276">
        <ele>1474</ele>
      </trkpt>
      <trkpt lat="44.7159" lon="3.5626">
        <ele>1475</ele>
      </trkpt>
      <trkpt lat="44.71551" lon="3.56215">
        <ele>1475</ele>
      </trkpt>
      <trkpt lat="44.71496" lon="3.56161">
        <ele>1476</ele>
      </trkpt>
      <trkpt lat="44.71436" lon="3.56101">
        <ele>1477</ele>
      </trkpt>
      <trkpt lat="44.71344" lon="3.56024">
        <ele>1484</ele>
      </trkpt>
      <trkpt lat="44.71255" lon="3.55939">
        <ele>1488</ele>
      </trkpt>
      <trkpt lat="44.71215" lon="3.55895">
        <ele>1487</ele>
      </trkpt>
      <trkpt lat="44.71194" lon="3.55878">
        <ele>1486</ele>
      </trkpt>
      <trkpt lat="44.7118" lon="3.55874">
        <ele>1486</ele>
      </trkpt>
      <trkpt lat="44.71144" lon="3.5587">
        <ele>1482</ele>
      </trkpt>
      <trkpt lat="44.71079" lon="3.5587">
        <ele>1479</ele>
      </trkpt>
      <trkpt lat="44.71019" lon="3.55869">
        <ele>1478</ele>
      </trkpt>
      <trkpt lat="44.70953" lon="3.55867">
        <ele>1476</ele>
      </trkpt>
      <trkpt lat="44.7092" lon="3.55866">
        <ele>1476</ele>
      </trkpt>
      <trkpt lat="44.70901" lon="3.55854">
        <ele>1477</ele>
      </trkpt>
      <trkpt lat="44.70878" lon="3.55839">
        <ele>1477</ele>
      </trkpt>
      <trkpt lat="44.70848" lon="3.55831">
        <ele>1479</ele>
      </trkpt>
      <trkpt lat="44.70774" lon="3.55834">
        <ele>1479</ele>
      </trkpt>
      <trkpt lat="44.70665" lon="3.55857">
        <ele>1481</ele>
      </trkpt>
      <trkpt lat="44.70664" lon="3.55857">
        <ele>1481</ele>
      </trkpt>
      <trkpt lat="44.70592" lon="3.55869">
        <ele>1482</ele>
      </trkpt>
      <trkpt lat="44.70591" lon="3.55869">
        <ele>1482</ele>
      </trkpt>
      <trkpt lat="44.70539" lon="3.55876">
        <ele>1483</ele>
      </trkpt>
      <trkpt lat="44.70505" lon="3.55887">
        <ele>1483</ele>
      </trkpt>
      <trkpt lat="44.70437" lon="3.55924">
        <ele>1483</ele>
      </trkpt>
      <trkpt lat="44.70394" lon="3.55954">
        <ele>1481</ele>
      </trkpt>
      <trkpt lat="44.70251" lon="3.56049">
        <ele>1475</ele>
      </trkpt>
      <trkpt lat="44.70138" lon="3.56152">
        <ele>1473</ele>
      </trkpt>
      <trkpt lat="44.70127" lon="3.56219">
        <ele>1470</ele>
      </trkpt>
      <trkpt lat="44.70083" lon="3.56364">
        <ele>1470</ele>
      </trkpt>
      <trkpt lat="44.70012" lon="3.56508">
        <ele>1467</ele>
      </trkpt>
      <trkpt lat="44.69921" lon="3.56717">
        <ele>1461</ele>
      </trkpt>
      <trkpt lat="44.69878" lon="3.56783">
        <ele>1461</ele>
      </trkpt>
      <trkpt lat="44.69801" lon="3.56838">
        <ele>1460</ele>
      </trkpt>
      <trkpt lat="44.69661" lon="3.57064">
        <ele>1452</ele>
      </trkpt>
      <trkpt lat="44.69586" lon="3.57209">
        <ele>1453</ele>
      </trkpt>
      <trkpt lat="44.69512" lon="3.57347">
        <ele>1448</ele>
      </trkpt>
      <trkpt lat="44.69358" lon="3.57599">
        <ele>1443</ele>
      </trkpt>
      <trkpt lat="44.69185" lon="3.57864">
        <ele>1440</ele>
      </trkpt>
      <trkpt lat="44.69074" lon="3.58032">
        <ele>1435</ele>
      </trkpt>
      <trkpt lat="44.69048" lon="3.58108">
        <ele>1432</ele>
      </trkpt>
      <trkpt lat="44.69031" lon="3.58219">
        <ele>1430</ele>
      </trkpt>
      <trkpt lat="44.68973" lon="3.58517">
        <ele>1424</ele>
      </trkpt>
      <trkpt lat="44.68907" lon="3.58759">
        <ele>1418</ele>
      </trkpt>
      <trkpt lat="44.68884" lon="3.58821">
        <ele>1417</ele>
      </trkpt>
      <trkpt lat="44.68845" lon="3.58878">
        <ele>1414</ele>
      </trkpt>
      <trkpt lat="44.68772" lon="3.58981">
        <ele>1409</ele>
      </trkpt>
      <trkpt lat="44.68729" lon="3.59038">
        <ele>1405</ele>
      </trkpt>
      <trkpt lat="44.6871" lon="3.59106">
        <ele>1402</ele>
      </trkpt>
      <trkpt lat="44.68676" lon="3.59277">
        <ele>1397</ele>
      </trkpt>
      <trkpt lat="44.68639" lon="3.59379">
        <ele>1398</ele>
      </trkpt>
      <trkpt lat="44.68621" lon="3.59433">
        <ele>1396</ele>
      </trkpt>
      <trkpt lat="44.68581" lon="3.59459">
        <ele>1399</ele>
      </trkpt>
      <trkpt lat="44.68564" lon="3.5947">
        <ele>1398</ele>
      </trkpt>
      <trkpt lat="44.68552" lon="3.59496">
        <ele>1397</ele>
      </trkpt>
      <trkpt lat="44.68506" lon="3.59458">
        <ele>1398</ele>
      </trkpt>
      <trkpt lat="44.68454" lon="3.59421">
        <ele>1396</ele>
      </trkpt>
      <trkpt lat="44.68452" lon="3.5942">
        <ele>1396</ele>
      </trkpt>
      <trkpt lat="44.68418" lon="3.59386">
        <ele>1399</ele>
      </trkpt>
      <trkpt lat="44.68416" lon="3.59384">
        <ele>1396</ele>
      </trkpt>
      <trkpt lat="44.68362" lon="3.59318">
        <ele>1398</ele>
      </trkpt>
      <trkpt lat="44.68309" lon="3.59216">
        <ele>1398</ele>
      </trkpt>
      <trkpt lat="44.6821" lon="3.59058">
        <ele>1397</ele>
      </trkpt>
      <trkpt lat="44.68185" lon="3.5902">
        <ele>1397</ele>
      </trkpt>
      <trkpt lat="44.68148" lon="3.58928">
        <ele>1390</ele>
      </trkpt>
      <trkpt lat="44.68111" lon="3.58914">
        <ele>1384</ele>
      </trkpt>
      <trkpt lat="44.68087" lon="3.58893">
        <ele>1383</ele>
      </trkpt>
      <trkpt lat="44.68051" lon="3.58864">
        <ele>1379</ele>
      </trkpt>
      <trkpt lat="44.68016" lon="3.58859">
        <ele>1378</ele>
      </trkpt>
      <trkpt lat="44.68015" lon="3.58859">
        <ele>1378</ele>
      </trkpt>
      <trkpt lat="44.68" lon="3.58854">
        <ele>1377</ele>
      </trkpt>
      <trkpt lat="44.67978" lon="3.58833">
        <ele>1369</ele>
      </trkpt>
      <trkpt lat="44.67977" lon="3.58832">
        <ele>1368</ele>
      </trkpt>
      <trkpt lat="44.67944" lon="3.5881">
        <ele>1366</ele>
      </trkpt>
      <trkpt lat="44.67905" lon="3.58794">
        <ele>1362</ele>
      </trkpt>
      <trkpt lat="44.67893" lon="3.58785">
        <ele>1361</ele>
      </trkpt>
      <trkpt lat="44.67877" lon="3.5878">
        <ele>1361</ele>
      </trkpt>
      <trkpt lat="44.67864" lon="3.58775">
        <ele>1360</ele>
      </trkpt>
      <trkpt lat="44.67832" lon="3.58737">
        <ele>1354</ele>
      </trkpt>
      <trkpt lat="44.67805" lon="3.58715">
        <ele>1351</ele>
      </trkpt>
      <trkpt lat="44.67807" lon="3.5869">
        <ele>1351</ele>
      </trkpt>
      <trkpt lat="44.67813" lon="3.58673">
        <ele>1351</ele>
      </trkpt>
      <trkpt lat="44.678" lon="3.58621">
        <ele>1347</ele>
      </trkpt>
      <trkpt lat="44.67796" lon="3.58595">
        <ele>1346</ele>
      </trkpt>
      <trkpt lat="44.67778" lon="3.58541">
        <ele>1341</ele>
      </trkpt>
      <trkpt lat="44.67763" lon="3.5852">
        <ele>1340</ele>
      </trkpt>
      <trkpt lat="44.67755" lon="3.585">
        <ele>1337</ele>
      </trkpt>
      <trkpt lat="44.67754" lon="3.58482">
        <ele>1336</ele>
      </trkpt>
      <trkpt lat="44.6774" lon="3.58453">
        <ele>1332</ele>
      </trkpt>
      <trkpt lat="44.67732" lon="3.58427">
        <ele>1331</ele>
      </trkpt>
      <trkpt lat="44.67711" lon="3.58397">
        <ele>1330</ele>
      </trkpt>
      <trkpt lat="44.67689" lon="3.58373">
        <ele>1331</ele>
      </trkpt>
      <trkpt lat="44.67614" lon="3.58351">
        <ele>1334</ele>
      </trkpt>
      <trkpt lat="44.67546" lon="3.58329">
        <ele>1342</ele>
      </trkpt>
      <trkpt lat="44.67545" lon="3.58329">
        <ele>1342</ele>
      </trkpt>
      <trkpt lat="44.67503" lon="3.58304">
        <ele>1343</ele>
      </trkpt>
      <trkpt lat="44.67482" lon="3.58277">
        <ele>1346</ele>
      </trkpt>
      <trkpt lat="44.67473" lon="3.58252">
        <ele>1346</ele>
      </trkpt>
      <trkpt lat="44.67449" lon="3.58296">
        <ele>1346</ele>
      </trkpt>
      <trkpt lat="44.67431" lon="3.58342">
        <ele>1344</ele>
      </trkpt>
      <trkpt lat="44.67371" lon="3.58487">
        <ele>1343</ele>
      </trkpt>
      <trkpt lat="44.67358" lon="3.58533">
        <ele>1341</ele>
      </trkpt>
      <trkpt lat="44.6732" lon="3.58606">
        <ele>1340</ele>
      </trkpt>
      <trkpt lat="44.67263" lon="3.58735">
        <ele>1334</ele>
      </trkpt>
      <trkpt lat="44.67228" lon="3.58819">
        <ele>1333</ele>
      </trkpt>
      <trkpt lat="44.672" lon="3.58901">
        <ele>1333</ele>
      </trkpt>
      <trkpt lat="44.67194" lon="3.58953">
        <ele>1333</ele>
      </trkpt>
      <trkpt lat="44.67194" lon="3.59026">
        <ele>1332</ele>
      </trkpt>
      <trkpt lat="44.67187" lon="3.59096">
        <ele>1331</ele>
      </trkpt>
      <trkpt lat="44.67185" lon="3.59186">
        <ele>1328</ele>
      </trkpt>
      <trkpt lat="44.67183" lon="3.5926">
        <ele>1330</ele>
      </trkpt>
      <trkpt lat="44.67173" lon="3.59296">
        <ele>1330</ele>
      </trkpt>
      <trkpt lat="44.67175" lon="3.59392">
        <ele>1334</ele>
      </trkpt>
      <trkpt lat="44.6717" lon="3.59419">
        <ele>1339</ele>
      </trkpt>
      <trkpt lat="44.67163" lon="3.59471">
        <ele>1340</ele>
      </trkpt>
      <trkpt lat="44.67155" lon="3.59515">
        <ele>1340</ele>
      </trkpt>
      <trkpt lat="44.67138" lon="3.59566">
        <ele>1339</ele>
      </trkpt>
      <trkpt lat="44.67128" lon="3.59593">
        <ele>1336</ele>
      </trkpt>
      <trkpt lat="44.67104" lon="3.59651">
        <ele>1335</ele>
      </trkpt>
      <trkpt lat="44.67087" lon="3.5968">
        <ele>1332</ele>
      </trkpt>
      <trkpt lat="44.67054" lon="3.5974">
        <ele>1328</ele>
      </trkpt>
      <trkpt lat="44.67012" lon="3.59819">
        <ele>1323</ele>
      </trkpt>
      <trkpt lat="44.66996" lon="3.59836">
        <ele>1320</ele>
      </trkpt>
      <trkpt lat="44.66982" lon="3.5987">
        <ele>1316</ele>
      </trkpt>
      <trkpt lat="44.66957" lon="3.59932">
        <ele>1309</ele>
      </trkpt>
      <trkpt lat="44.66957" lon="3.59933">
        <ele>1309</ele>
      </trkpt>
      <trkpt lat="44.66923" lon="3.60009">
        <ele>1302</ele>
      </trkpt>
      <trkpt lat="44.66914" lon="3.60013">
        <ele>1304</ele>
      </trkpt>
      <trkpt lat="44.66903" lon="3.60007">
        <ele>1304</ele>
      </trkpt>
      <trkpt lat="44.66886" lon="3.59983">
        <ele>1303</ele>
      </trkpt>
      <trkpt lat="44.66873" lon="3.59961">
        <ele>1302</ele>
      </trkpt>
      <trkpt lat="44.66862" lon="3.59905">
        <ele>1298</ele>
      </trkpt>
      <trkpt lat="44.66853" lon="3.59833">
        <ele>1294</ele>
      </trkpt>
      <trkpt lat="44.66849" lon="3.59783">
        <ele>1296</ele>
      </trkpt>
      <trkpt lat="44.66843" lon="3.59757">
        <ele>1292</ele>
      </trkpt>
      <trkpt lat="44.66823" lon="3.5972">
        <ele>1283</ele>
      </trkpt>
      <trkpt lat="44.6681" lon="3.59698">
        <ele>1282</ele>
      </trkpt>
      <trkpt lat="44.66806" lon="3.59677">
        <ele>1282</ele>
      </trkpt>
      <trkpt lat="44.66806" lon="3.59662">
        <ele>1281</ele>
      </trkpt>
      <trkpt lat="44.66785" lon="3.59657">
        <ele>1278</ele>
      </trkpt>
      <trkpt lat="44.66768" lon="3.59646">
        <ele>1277</ele>
      </trkpt>
      <trkpt lat="44.66772" lon="3.59614">
        <ele>1278</ele>
      </trkpt>
      <trkpt lat="44.66776" lon="3.59576">
        <ele>1278</ele>
      </trkpt>
      <trkpt lat="44.66777" lon="3.59525">
        <ele>1278</ele>
        <time>2021-02-07T18:03:51Z</time>
      </trkpt>
      <trkpt lat="44.66761" lon="3.59485">
        <ele>1276</ele>
        <time>2021-02-07T18:03:59Z</time>
      </trkpt>
      <trkpt lat="44.66742" lon="3.59427">
        <ele>1275</ele>
        <time>2021-02-07T18:04:09Z</time>
      </trkpt>
      <trkpt lat="44.66747" lon="3.59362">
        <ele>1276</ele>
        <time>2021-02-07T18:04:20Z</time>
      </trkpt>
      <trkpt lat="44.66766" lon="3.59308">
        <ele>1278</ele>
        <time>2021-02-07T18:04:30Z</time>
      </trkpt>
      <trkpt lat="44.66753" lon="3.5927">
        <ele>1280</ele>
        <time>2021-02-07T18:04:37Z</time>
      </trkpt>
      <trkpt lat="44.66704" lon="3.59257">
        <ele>1288</ele>
        <time>2021-02-07T18:04:49Z</time>
      </trkpt>
      <trkpt lat="44.66693" lon="3.59238">
        <ele>1292</ele>
        <time>2021-02-07T18:04:53Z</time>
      </trkpt>
      <trkpt lat="44.66696" lon="3.59143">
        <ele>1301</ele>
        <time>2021-02-07T18:05:09Z</time>
      </trkpt>
      <trkpt lat="44.66716" lon="3.58939">
        <ele>1312</ele>
        <time>2021-02-07T18:05:43Z</time>
      </trkpt>
      <trkpt lat="44.66711" lon="3.58803">
        <ele>1327</ele>
        <time>2021-02-07T18:06:06Z</time>
      </trkpt>
      <trkpt lat="44.66697" lon="3.58696">
        <ele>1342</ele>
        <time>2021-02-07T18:06:24Z</time>
      </trkpt>
      <trkpt lat="44.66691" lon="3.58579">
        <ele>1350</ele>
        <time>2021-02-07T18:06:43Z</time>
      </trkpt>
      <trkpt lat="44.66669" lon="3.58534">
        <ele>1355</ele>
        <time>2021-02-07T18:06:52Z</time>
      </trkpt>
      <trkpt lat="44.66582" lon="3.58438">
        <ele>1369</ele>
        <time>2021-02-07T18:07:18Z</time>
      </trkpt>
      <trkpt lat="44.66519" lon="3.58317">
        <ele>1368</ele>
        <time>2021-02-07T18:07:43Z</time>
      </trkpt>
      <trkpt lat="44.66508" lon="3.58307">
        <ele>1369</ele>
        <time>2021-02-07T18:07:46Z</time>
      </trkpt>
      <trkpt lat="44.6639" lon="3.58342">
        <ele>1373</ele>
        <time>2021-02-07T18:08:14Z</time>
      </trkpt>
      <trkpt lat="44.66311" lon="3.5835">
        <ele>1380</ele>
        <time>2021-02-07T18:08:33Z</time>
      </trkpt>
      <trkpt lat="44.6628" lon="3.58346">
        <ele>1385</ele>
        <time>2021-02-07T18:08:40Z</time>
      </trkpt>
      <trkpt lat="44.66265" lon="3.58295">
        <ele>1387</ele>
        <time>2021-02-07T18:08:49Z</time>
      </trkpt>
      <trkpt lat="44.6625" lon="3.58226">
        <ele>1389</ele>
        <time>2021-02-07T18:09:01Z</time>
      </trkpt>
      <trkpt lat="44.66199" lon="3.58111">
        <ele>1396</ele>
        <time>2021-02-07T18:09:24Z</time>
      </trkpt>
      <trkpt lat="44.66142" lon="3.58044">
        <ele>1400</ele>
        <time>2021-02-07T18:09:41Z</time>
      </trkpt>
      <trkpt lat="44.65997" lon="3.57952">
        <ele>1407</ele>
        <time>2021-02-07T18:10:18Z</time>
      </trkpt>
      <trkpt lat="44.65961" lon="3.57914">
        <ele>1407</ele>
        <time>2021-02-07T18:10:29Z</time>
      </trkpt>
      <trkpt lat="44.65924" lon="3.5784">
        <ele>1408</ele>
        <time>2021-02-07T18:10:44Z</time>
      </trkpt>
      <trkpt lat="44.65891" lon="3.57755">
        <ele>1408</ele>
        <time>2021-02-07T18:11:00Z</time>
      </trkpt>
      <trkpt lat="44.65856" lon="3.57688">
        <ele>1409</ele>
        <time>2021-02-07T18:11:14Z</time>
      </trkpt>
      <trkpt lat="44.65833" lon="3.57659">
        <ele>1410</ele>
        <time>2021-02-07T18:11:21Z</time>
      </trkpt>
      <trkpt lat="44.658" lon="3.57633">
        <ele>1411</ele>
        <time>2021-02-07T18:11:30Z</time>
      </trkpt>
      <trkpt lat="44.65744" lon="3.57603">
        <ele>1413</ele>
        <time>2021-02-07T18:11:44Z</time>
      </trkpt>
      <trkpt lat="44.65747" lon="3.57572">
        <ele>1413</ele>
        <time>2021-02-07T18:11:49Z</time>
      </trkpt>
      <trkpt lat="44.65742" lon="3.57572">
        <ele>1413</ele>
        <time>2021-02-07T18:11:50Z</time>
      </trkpt>
      <trkpt lat="44.65747" lon="3.57575">
        <ele>1413</ele>
        <time>2021-02-07T18:11:51Z</time>
      </trkpt>
      <trkpt lat="44.65762" lon="3.57459">
        <ele>1415</ele>
        <time>2021-02-07T18:12:11Z</time>
      </trkpt>
      <trkpt lat="44.65754" lon="3.57329">
        <ele>1418</ele>
        <time>2021-02-07T18:12:33Z</time>
      </trkpt>
      <trkpt lat="44.65782" lon="3.57229">
        <ele>1419</ele>
        <time>2021-02-07T18:12:50Z</time>
      </trkpt>
      <trkpt lat="44.65863" lon="3.57039">
        <ele>1419</ele>
        <time>2021-02-07T18:13:27Z</time>
      </trkpt>
      <trkpt lat="44.65882" lon="3.56986">
        <ele>1418</ele>
        <time>2021-02-07T18:13:37Z</time>
      </trkpt>
      <trkpt lat="44.65948" lon="3.56889">
        <ele>1412</ele>
        <time>2021-02-07T18:13:59Z</time>
      </trkpt>
      <trkpt lat="44.66014" lon="3.56818">
        <ele>1407</ele>
        <time>2021-02-07T18:14:19Z</time>
      </trkpt>
      <trkpt lat="44.66033" lon="3.56734">
        <ele>1404</ele>
        <time>2021-02-07T18:14:33Z</time>
      </trkpt>
      <trkpt lat="44.66043" lon="3.56661">
        <ele>1403</ele>
        <time>2021-02-07T18:14:46Z</time>
      </trkpt>
      <trkpt lat="44.66076" lon="3.56646">
        <ele>1401</ele>
        <time>2021-02-07T18:14:54Z</time>
      </trkpt>
      <trkpt lat="44.66164" lon="3.56642">
        <ele>1414</ele>
        <time>2021-02-07T18:15:14Z</time>
      </trkpt>
      <trkpt lat="44.6627" lon="3.56647">
        <ele>1426</ele>
        <time>2021-02-07T18:15:39Z</time>
      </trkpt>
      <trkpt lat="44.66376" lon="3.56599">
        <ele>1435</ele>
        <time>2021-02-07T18:16:05Z</time>
      </trkpt>
      <trkpt lat="44.66471" lon="3.56529">
        <ele>1444</ele>
        <time>2021-02-07T18:16:30Z</time>
      </trkpt>
      <trkpt lat="44.66555" lon="3.56471">
        <ele>1452</ele>
        <time>2021-02-07T18:16:52Z</time>
      </trkpt>
      <trkpt lat="44.66591" lon="3.56443">
        <ele>1453</ele>
        <time>2021-02-07T18:17:02Z</time>
      </trkpt>
      <trkpt lat="44.66619" lon="3.56406">
        <ele>1451</ele>
        <time>2021-02-07T18:17:11Z</time>
      </trkpt>
      <trkpt lat="44.66618" lon="3.56305">
        <ele>1455</ele>
        <time>2021-02-07T18:17:27Z</time>
      </trkpt>
      <trkpt lat="44.66606" lon="3.56182">
        <ele>1459</ele>
        <time>2021-02-07T18:17:48Z</time>
      </trkpt>
      <trkpt lat="44.66592" lon="3.56144">
        <ele>1462</ele>
        <time>2021-02-07T18:17:55Z</time>
      </trkpt>
      <trkpt lat="44.66566" lon="3.56125">
        <ele>1465</ele>
        <time>2021-02-07T18:18:02Z</time>
      </trkpt>
      <trkpt lat="44.6646" lon="3.56138">
        <ele>1472</ele>
        <time>2021-02-07T18:18:27Z</time>
      </trkpt>
      <trkpt lat="44.66431" lon="3.56119">
        <ele>1473</ele>
        <time>2021-02-07T18:18:34Z</time>
      </trkpt>
      <trkpt lat="44.66416" lon="3.56084">
        <ele>1476</ele>
        <time>2021-02-07T18:18:41Z</time>
      </trkpt>
      <trkpt lat="44.66428" lon="3.55983">
        <ele>1479</ele>
        <time>2021-02-07T18:18:58Z</time>
      </trkpt>
      <trkpt lat="44.66459" lon="3.55823">
        <ele>1483</ele>
        <time>2021-02-07T18:19:26Z</time>
      </trkpt>
      <trkpt lat="44.66459" lon="3.55769">
        <ele>1483</ele>
        <time>2021-02-07T18:19:35Z</time>
      </trkpt>
      <trkpt lat="44.6644" lon="3.557">
        <ele>1485</ele>
        <time>2021-02-07T18:19:47Z</time>
      </trkpt>
      <trkpt lat="44.66406" lon="3.55557">
        <ele>1486</ele>
        <time>2021-02-07T18:20:12Z</time>
      </trkpt>
      <trkpt lat="44.6638" lon="3.55396">
        <ele>1488</ele>
        <time>2021-02-07T18:20:39Z</time>
      </trkpt>
      <trkpt lat="44.66373" lon="3.5526">
        <ele>1488</ele>
        <time>2021-02-07T18:21:02Z</time>
      </trkpt>
      <trkpt lat="44.66385" lon="3.55156">
        <ele>1487</ele>
        <time>2021-02-07T18:21:20Z</time>
      </trkpt>
      <trkpt lat="44.66493" lon="3.54982">
        <ele>1485</ele>
        <time>2021-02-07T18:21:58Z</time>
      </trkpt>
      <trkpt lat="44.66546" lon="3.54876">
        <ele>1481</ele>
        <time>2021-02-07T18:22:19Z</time>
      </trkpt>
      <trkpt lat="44.66569" lon="3.54811">
        <ele>1475</ele>
        <time>2021-02-07T18:22:32Z</time>
      </trkpt>
      <trkpt lat="44.66594" lon="3.54792">
        <ele>1470</ele>
        <time>2021-02-07T18:22:38Z</time>
      </trkpt>
      <trkpt lat="44.66619" lon="3.54802">
        <ele>1467</ele>
        <time>2021-02-07T18:22:44Z</time>
      </trkpt>
      <trkpt lat="44.66641" lon="3.54837">
        <ele>1467</ele>
        <time>2021-02-07T18:22:52Z</time>
      </trkpt>
      <trkpt lat="44.66672" lon="3.54841">
        <ele>1463</ele>
        <time>2021-02-07T18:22:59Z</time>
      </trkpt>
      <trkpt lat="44.66722" lon="3.54786">
        <ele>1456</ele>
        <time>2021-02-07T18:23:14Z</time>
      </trkpt>
      <trkpt lat="44.66752" lon="3.54717">
        <ele>1449</ele>
        <time>2021-02-07T18:23:27Z</time>
      </trkpt>
      <trkpt lat="44.66715" lon="3.54656">
        <ele>1448</ele>
        <time>2021-02-07T18:23:41Z</time>
      </trkpt>
      <trkpt lat="44.66675" lon="3.54583">
        <ele>1448</ele>
        <time>2021-02-07T18:23:56Z</time>
      </trkpt>
      <trkpt lat="44.66655" lon="3.54523">
        <ele>1449</ele>
        <time>2021-02-07T18:24:07Z</time>
      </trkpt>
      <trkpt lat="44.66651" lon="3.54491">
        <ele>1450</ele>
        <time>2021-02-07T18:24:13Z</time>
      </trkpt>
      <trkpt lat="44.66676" lon="3.5447">
        <ele>1450</ele>
        <time>2021-02-07T18:24:19Z</time>
      </trkpt>
      <trkpt lat="44.66728" lon="3.54477">
        <ele>1446</ele>
        <time>2021-02-07T18:24:32Z</time>
      </trkpt>
      <trkpt lat="44.66764" lon="3.54468">
        <ele>1446</ele>
        <time>2021-02-07T18:24:40Z</time>
      </trkpt>
      <trkpt lat="44.66793" lon="3.54441">
        <ele>1449</ele>
        <time>2021-02-07T18:24:48Z</time>
      </trkpt>
      <trkpt lat="44.66803" lon="3.54356">
        <ele>1453</ele>
        <time>2021-02-07T18:25:02Z</time>
      </trkpt>
      <trkpt lat="44.66788" lon="3.54299">
        <ele>1454</ele>
        <time>2021-02-07T18:25:13Z</time>
      </trkpt>
      <trkpt lat="44.66678" lon="3.54318">
        <ele>1458</ele>
        <time>2021-02-07T18:25:38Z</time>
      </trkpt>
      <trkpt lat="44.66615" lon="3.54317">
        <ele>1459</ele>
        <time>2021-02-07T18:25:53Z</time>
      </trkpt>
      <trkpt lat="44.66456" lon="3.54203">
        <ele>1466</ele>
        <time>2021-02-07T18:26:35Z</time>
      </trkpt>
      <trkpt lat="44.66379" lon="3.54132">
        <ele>1474</ele>
        <time>2021-02-07T18:26:56Z</time>
      </trkpt>
      <trkpt lat="44.66325" lon="3.5409">
        <ele>1483</ele>
        <time>2021-02-07T18:27:11Z</time>
      </trkpt>
      <trkpt lat="44.66278" lon="3.54061">
        <ele>1490</ele>
        <time>2021-02-07T18:27:23Z</time>
      </trkpt>
      <trkpt lat="44.66207" lon="3.54009">
        <ele>1500</ele>
        <time>2021-02-07T18:27:41Z</time>
      </trkpt>
      <trkpt lat="44.66086" lon="3.53959">
        <ele>1512</ele>
        <time>2021-02-07T18:28:11Z</time>
      </trkpt>
      <trkpt lat="44.66023" lon="3.53942">
        <ele>1517</ele>
        <time>2021-02-07T18:28:26Z</time>
      </trkpt>
      <trkpt lat="44.65985" lon="3.53929">
        <ele>1518</ele>
        <time>2021-02-07T18:28:35Z</time>
      </trkpt>
      <trkpt lat="44.65918" lon="3.5393">
        <ele>1517</ele>
        <time>2021-02-07T18:28:51Z</time>
      </trkpt>
      <trkpt lat="44.6585" lon="3.53935">
        <ele>1515</ele>
        <time>2021-02-07T18:29:07Z</time>
      </trkpt>
      <trkpt lat="44.658" lon="3.53966">
        <ele>1516</ele>
        <time>2021-02-07T18:29:19Z</time>
      </trkpt>
      <trkpt lat="44.6574" lon="3.53961">
        <ele>1514</ele>
        <time>2021-02-07T18:29:33Z</time>
      </trkpt>
      <trkpt lat="44.6567" lon="3.53975">
        <ele>1516</ele>
        <time>2021-02-07T18:29:50Z</time>
      </trkpt>
      <trkpt lat="44.656" lon="3.5398">
        <ele>1517</ele>
        <time>2021-02-07T18:30:06Z</time>
      </trkpt>
      <trkpt lat="44.65562" lon="3.5396">
        <ele>1515</ele>
        <time>2021-02-07T18:30:16Z</time>
      </trkpt>
      <trkpt lat="44.65491" lon="3.53908">
        <ele>1511</ele>
        <time>2021-02-07T18:30:34Z</time>
      </trkpt>
      <trkpt lat="44.65413" lon="3.53834">
        <ele>1512</ele>
        <time>2021-02-07T18:30:56Z</time>
      </trkpt>
      <trkpt lat="44.65377" lon="3.53783">
        <ele>1509</ele>
        <time>2021-02-07T18:31:08Z</time>
      </trkpt>
      <trkpt lat="44.65308" lon="3.53766">
        <ele>1506</ele>
        <time>2021-02-07T18:31:25Z</time>
      </trkpt>
      <trkpt lat="44.65166" lon="3.5375">
        <ele>1500</ele>
        <time>2021-02-07T18:31:58Z</time>
      </trkpt>
      <trkpt lat="44.65088" lon="3.53723">
        <ele>1503</ele>
        <time>2021-02-07T18:32:17Z</time>
      </trkpt>
      <trkpt lat="44.64985" lon="3.53649">
        <ele>1507</ele>
        <time>2021-02-07T18:32:44Z</time>
      </trkpt>
      <trkpt lat="44.64898" lon="3.53571">
        <ele>1510</ele>
        <time>2021-02-07T18:33:08Z</time>
      </trkpt>
      <trkpt lat="44.64865" lon="3.5353">
        <ele>1512</ele>
        <time>2021-02-07T18:33:18Z</time>
      </trkpt>
      <trkpt lat="44.64823" lon="3.53504">
        <ele>1516</ele>
        <time>2021-02-07T18:33:29Z</time>
      </trkpt>
      <trkpt lat="44.64728" lon="3.53476">
        <ele>1525</ele>
        <time>2021-02-07T18:33:51Z</time>
      </trkpt>
      <trkpt lat="44.64623" lon="3.5343">
        <ele>1529</ele>
        <time>2021-02-07T18:34:17Z</time>
      </trkpt>
      <trkpt lat="44.64547" lon="3.53372">
        <ele>1529</ele>
        <time>2021-02-07T18:34:37Z</time>
      </trkpt>
      <trkpt lat="44.64445" lon="3.53266">
        <ele>1534</ele>
        <time>2021-02-07T18:35:07Z</time>
      </trkpt>
      <trkpt lat="44.64405" lon="3.53243">
        <ele>1536</ele>
        <time>2021-02-07T18:35:17Z</time>
      </trkpt>
      <trkpt lat="44.64362" lon="3.53239">
        <ele>1538</ele>
        <time>2021-02-07T18:35:27Z</time>
      </trkpt>
      <trkpt lat="44.64297" lon="3.53225">
        <ele>1540</ele>
        <time>2021-02-07T18:35:43Z</time>
      </trkpt>
      <trkpt lat="44.64259" lon="3.53205">
        <ele>1540</ele>
        <time>2021-02-07T18:35:52Z</time>
      </trkpt>
      <trkpt lat="44.64259" lon="3.5323">
        <ele>1541</ele>
        <time>2021-02-07T18:35:56Z</time>
      </trkpt>
      <trkpt lat="44.64364" lon="3.53261">
        <ele>1538</ele>
        <time>2021-02-07T18:36:21Z</time>
      </trkpt>
      <trkpt lat="44.64418" lon="3.53262">
        <ele>1535</ele>
        <time>2021-02-07T18:36:34Z</time>
      </trkpt>
      <trkpt lat="44.6452" lon="3.53371">
        <ele>1529</ele>
        <time>2021-02-07T18:37:04Z</time>
      </trkpt>
      <trkpt lat="44.64612" lon="3.53442">
        <ele>1529</ele>
        <time>2021-02-07T18:37:28Z</time>
      </trkpt>
      <trkpt lat="44.64739" lon="3.53514">
        <ele>1525</ele>
        <time>2021-02-07T18:38:00Z</time>
      </trkpt>
      <trkpt lat="44.64867" lon="3.53564">
        <ele>1513</ele>
        <time>2021-02-07T18:38:31Z</time>
      </trkpt>
      <trkpt lat="44.64934" lon="3.53638">
        <ele>1509</ele>
        <time>2021-02-07T18:38:51Z</time>
      </trkpt>
      <trkpt lat="44.64995" lon="3.53791">
        <ele>1506</ele>
        <time>2021-02-07T18:39:20Z</time>
      </trkpt>
      <trkpt lat="44.65014" lon="3.53848">
        <ele>1506</ele>
        <time>2021-02-07T18:39:31Z</time>
      </trkpt>
      <trkpt lat="44.64982" lon="3.5392">
        <ele>1502</ele>
        <time>2021-02-07T18:39:45Z</time>
      </trkpt>
      <trkpt lat="44.64896" lon="3.54022">
        <ele>1495</ele>
        <time>2021-02-07T18:40:11Z</time>
      </trkpt>
      <trkpt lat="44.64792" lon="3.54057">
        <ele>1496</ele>
        <time>2021-02-07T18:40:36Z</time>
      </trkpt>
      <trkpt lat="44.64646" lon="3.54029">
        <ele>1496</ele>
        <time>2021-02-07T18:41:11Z</time>
      </trkpt>
      <trkpt lat="44.64539" lon="3.53979">
        <ele>1492</ele>
        <time>2021-02-07T18:41:37Z</time>
      </trkpt>
      <trkpt lat="44.64467" lon="3.53937">
        <ele>1489</ele>
        <time>2021-02-07T18:41:55Z</time>
      </trkpt>
      <trkpt lat="44.64429" lon="3.53876">
        <ele>1490</ele>
        <time>2021-02-07T18:42:09Z</time>
      </trkpt>
      <trkpt lat="44.644" lon="3.53869">
        <ele>1488</ele>
        <time>2021-02-07T18:42:15Z</time>
      </trkpt>
      <trkpt lat="44.64391" lon="3.53891">
        <ele>1485</ele>
        <time>2021-02-07T18:42:20Z</time>
      </trkpt>
      <trkpt lat="44.64383" lon="3.53982">
        <ele>1478</ele>
        <time>2021-02-07T18:42:35Z</time>
      </trkpt>
      <trkpt lat="44.64362" lon="3.54111">
        <ele>1468</ele>
        <time>2021-02-07T18:42:57Z</time>
      </trkpt>
      <trkpt lat="44.64312" lon="3.54126">
        <ele>1464</ele>
        <time>2021-02-07T18:43:09Z</time>
      </trkpt>
      <trkpt lat="44.64251" lon="3.54128">
        <ele>1460</ele>
        <time>2021-02-07T18:43:23Z</time>
      </trkpt>
      <trkpt lat="44.64204" lon="3.54155">
        <ele>1456</ele>
        <time>2021-02-07T18:43:35Z</time>
      </trkpt>
      <trkpt lat="44.64183" lon="3.5418">
        <ele>1453</ele>
        <time>2021-02-07T18:43:41Z</time>
      </trkpt>
      <trkpt lat="44.64129" lon="3.54179">
        <ele>1449</ele>
        <time>2021-02-07T18:43:54Z</time>
      </trkpt>
      <trkpt lat="44.64098" lon="3.54175">
        <ele>1447</ele>
        <time>2021-02-07T18:44:01Z</time>
      </trkpt>
      <trkpt lat="44.64007" lon="3.54292">
        <ele>1439</ele>
        <time>2021-02-07T18:44:30Z</time>
      </trkpt>
      <trkpt lat="44.63953" lon="3.54427">
        <ele>1436</ele>
        <time>2021-02-07T18:44:56Z</time>
      </trkpt>
      <trkpt lat="44.63932" lon="3.54559">
        <ele>1433</ele>
        <time>2021-02-07T18:45:18Z</time>
      </trkpt>
      <trkpt lat="44.63926" lon="3.54656">
        <ele>1431</ele>
        <time>2021-02-07T18:45:34Z</time>
      </trkpt>
      <trkpt lat="44.63887" lon="3.54794">
        <ele>1433</ele>
        <time>2021-02-07T18:45:59Z</time>
      </trkpt>
      <trkpt lat="44.63905" lon="3.54923">
        <ele>1435</ele>
        <time>2021-02-07T18:46:21Z</time>
      </trkpt>
      <trkpt lat="44.63898" lon="3.54992">
        <ele>1435</ele>
        <time>2021-02-07T18:46:32Z</time>
      </trkpt>
      <trkpt lat="44.63879" lon="3.55039">
        <ele>1434</ele>
        <time>2021-02-07T18:46:41Z</time>
      </trkpt>
      <trkpt lat="44.63956" lon="3.5523">
        <ele>1422</ele>
        <time>2021-02-07T18:47:18Z</time>
      </trkpt>
      <trkpt lat="44.63873" lon="3.55411">
        <ele>1411</ele>
        <time>2021-02-07T18:47:54Z</time>
      </trkpt>
      <trkpt lat="44.63883" lon="3.5554">
        <ele>1403</ele>
        <time>2021-02-07T18:48:15Z</time>
      </trkpt>
      <trkpt lat="44.63906" lon="3.55657">
        <ele>1395</ele>
        <time>2021-02-07T18:48:35Z</time>
      </trkpt>
      <trkpt lat="44.63914" lon="3.55723">
        <ele>1392</ele>
        <time>2021-02-07T18:48:47Z</time>
      </trkpt>
      <trkpt lat="44.63909" lon="3.55777">
        <ele>1389</ele>
        <time>2021-02-07T18:48:56Z</time>
      </trkpt>
      <trkpt lat="44.63866" lon="3.55877">
        <ele>1383</ele>
        <time>2021-02-07T18:49:15Z</time>
      </trkpt>
      <trkpt lat="44.63806" lon="3.55945">
        <ele>1378</ele>
        <time>2021-02-07T18:49:33Z</time>
      </trkpt>
      <trkpt lat="44.63675" lon="3.56033">
        <ele>1370</ele>
        <time>2021-02-07T18:50:07Z</time>
      </trkpt>
      <trkpt lat="44.63492" lon="3.56124">
        <ele>1360</ele>
        <time>2021-02-07T18:50:52Z</time>
      </trkpt>
      <trkpt lat="44.63338" lon="3.5619">
        <ele>1353</ele>
        <time>2021-02-07T18:51:30Z</time>
      </trkpt>
      <trkpt lat="44.63257" lon="3.5621">
        <ele>1349</ele>
        <time>2021-02-07T18:51:49Z</time>
      </trkpt>
      <trkpt lat="44.63248" lon="3.56185">
        <ele>1349</ele>
        <time>2021-02-07T18:51:54Z</time>
      </trkpt>
      <trkpt lat="44.6325" lon="3.56188">
        <ele>1349</ele>
        <time>2021-02-07T18:51:54Z</time>
      </trkpt>
      <trkpt lat="44.63201" lon="3.55963">
        <ele>1350</ele>
        <time>2021-02-07T18:52:34Z</time>
      </trkpt>
      <trkpt lat="44.63159" lon="3.55704">
        <ele>1347</ele>
        <time>2021-02-07T18:53:18Z</time>
      </trkpt>
      <trkpt lat="44.63117" lon="3.55473">
        <ele>1342</ele>
        <time>2021-02-07T18:53:57Z</time>
      </trkpt>
      <trkpt lat="44.63134" lon="3.55366">
        <ele>1341</ele>
        <time>2021-02-07T18:54:16Z</time>
      </trkpt>
      <trkpt lat="44.63134" lon="3.55373">
        <ele>1341</ele>
        <time>2021-02-07T18:54:17Z</time>
      </trkpt>
      <trkpt lat="44.63139" lon="3.5531">
        <ele>1342</ele>
        <time>2021-02-07T18:54:27Z</time>
      </trkpt>
      <trkpt lat="44.63121" lon="3.55253">
        <ele>1342</ele>
        <time>2021-02-07T18:54:38Z</time>
      </trkpt>
      <trkpt lat="44.63119" lon="3.55231">
        <ele>1342</ele>
        <time>2021-02-07T18:54:41Z</time>
      </trkpt>
      <trkpt lat="44.63117" lon="3.55234">
        <ele>1342</ele>
        <time>2021-02-07T18:54:42Z</time>
      </trkpt>
      <trkpt lat="44.63134" lon="3.55137">
        <ele>1343</ele>
        <time>2021-02-07T18:54:59Z</time>
      </trkpt>
      <trkpt lat="44.63187" lon="3.55024">
        <ele>1347</ele>
        <time>2021-02-07T18:55:21Z</time>
      </trkpt>
      <trkpt lat="44.63169" lon="3.54996">
        <ele>1343</ele>
        <time>2021-02-07T18:55:27Z</time>
      </trkpt>
      <trkpt lat="44.63035" lon="3.54917">
        <ele>1352</ele>
        <time>2021-02-07T18:56:01Z</time>
      </trkpt>
      <trkpt lat="44.63004" lon="3.54879">
        <ele>1357</ele>
        <time>2021-02-07T18:56:11Z</time>
      </trkpt>
      <trkpt lat="44.62995" lon="3.54853">
        <ele>1359</ele>
        <time>2021-02-07T18:56:16Z</time>
      </trkpt>
      <trkpt lat="44.62983" lon="3.54743">
        <ele>1372</ele>
        <time>2021-02-07T18:56:34Z</time>
      </trkpt>
      <trkpt lat="44.62955" lon="3.54626">
        <ele>1384</ele>
        <time>2021-02-07T18:56:55Z</time>
      </trkpt>
      <trkpt lat="44.62907" lon="3.54486">
        <ele>1388</ele>
        <time>2021-02-07T18:57:21Z</time>
      </trkpt>
      <trkpt lat="44.62901" lon="3.54401">
        <ele>1390</ele>
        <time>2021-02-07T18:57:35Z</time>
      </trkpt>
      <trkpt lat="44.62973" lon="3.54239">
        <ele>1394</ele>
        <time>2021-02-07T18:58:06Z</time>
      </trkpt>
      <trkpt lat="44.63001" lon="3.54151">
        <ele>1392</ele>
        <time>2021-02-07T18:58:22Z</time>
      </trkpt>
      <trkpt lat="44.63" lon="3.54013">
        <ele>1393</ele>
        <time>2021-02-07T18:58:45Z</time>
      </trkpt>
      <trkpt lat="44.62966" lon="3.53867">
        <ele>1399</ele>
        <time>2021-02-07T18:59:11Z</time>
      </trkpt>
      <trkpt lat="44.62899" lon="3.53777">
        <ele>1398</ele>
        <time>2021-02-07T18:59:33Z</time>
      </trkpt>
      <trkpt lat="44.62842" lon="3.53688">
        <ele>1395</ele>
        <time>2021-02-07T18:59:52Z</time>
      </trkpt>
      <trkpt lat="44.62809" lon="3.53568">
        <ele>1393</ele>
        <time>2021-02-07T19:00:14Z</time>
      </trkpt>
      <trkpt lat="44.62804" lon="3.53423">
        <ele>1387</ele>
        <time>2021-02-07T19:00:38Z</time>
      </trkpt>
      <trkpt lat="44.62821" lon="3.53347">
        <ele>1381</ele>
        <time>2021-02-07T19:00:51Z</time>
      </trkpt>
      <trkpt lat="44.62867" lon="3.53207">
        <ele>1368</ele>
        <time>2021-02-07T19:01:17Z</time>
      </trkpt>
      <trkpt lat="44.62905" lon="3.53009">
        <ele>1359</ele>
        <time>2021-02-07T19:01:51Z</time>
      </trkpt>
      <trkpt lat="44.62895" lon="3.52943">
        <ele>1353</ele>
        <time>2021-02-07T19:02:02Z</time>
      </trkpt>
      <trkpt lat="44.62909" lon="3.52877">
        <ele>1350</ele>
        <time>2021-02-07T19:02:14Z</time>
      </trkpt>
      <trkpt lat="44.62916" lon="3.52858">
        <ele>1349</ele>
        <time>2021-02-07T19:02:17Z</time>
      </trkpt>
      <trkpt lat="44.62937" lon="3.5283">
        <ele>1350</ele>
        <time>2021-02-07T19:02:24Z</time>
      </trkpt>
      <trkpt lat="44.62932" lon="3.52786">
        <ele>1341</ele>
        <time>2021-02-07T19:02:31Z</time>
      </trkpt>
      <trkpt lat="44.62976" lon="3.52705">
        <ele>1337</ele>
        <time>2021-02-07T19:02:48Z</time>
      </trkpt>
      <trkpt lat="44.63003" lon="3.52671">
        <ele>1337</ele>
        <time>2021-02-07T19:02:57Z</time>
      </trkpt>
      <trkpt lat="44.63029" lon="3.52618">
        <ele>1333</ele>
        <time>2021-02-07T19:03:07Z</time>
      </trkpt>
      <trkpt lat="44.63065" lon="3.52584">
        <ele>1333</ele>
        <time>2021-02-07T19:03:18Z</time>
      </trkpt>
      <trkpt lat="44.63081" lon="3.52402">
        <ele>1320</ele>
        <time>2021-02-07T19:03:48Z</time>
      </trkpt>
      <trkpt lat="44.63083" lon="3.52349">
        <ele>1315</ele>
        <time>2021-02-07T19:03:57Z</time>
      </trkpt>
      <trkpt lat="44.63052" lon="3.5231">
        <ele>1310</ele>
        <time>2021-02-07T19:04:07Z</time>
      </trkpt>
      <trkpt lat="44.63008" lon="3.52293">
        <ele>1309</ele>
        <time>2021-02-07T19:04:17Z</time>
      </trkpt>
      <trkpt lat="44.62999" lon="3.52205">
        <ele>1300</ele>
        <time>2021-02-07T19:04:32Z</time>
      </trkpt>
      <trkpt lat="44.6302" lon="3.52187">
        <ele>1297</ele>
        <time>2021-02-07T19:04:38Z</time>
      </trkpt>
      <trkpt lat="44.63083" lon="3.5216">
        <ele>1289</ele>
        <time>2021-02-07T19:04:53Z</time>
      </trkpt>
      <trkpt lat="44.63123" lon="3.52182">
        <ele>1293</ele>
        <time>2021-02-07T19:05:03Z</time>
      </trkpt>
      <trkpt lat="44.63159" lon="3.52171">
        <ele>1294</ele>
        <time>2021-02-07T19:05:12Z</time>
      </trkpt>
      <trkpt lat="44.63156" lon="3.5212">
        <ele>1294</ele>
        <time>2021-02-07T19:05:20Z</time>
      </trkpt>
      <trkpt lat="44.63128" lon="3.51959">
        <ele>1293</ele>
        <time>2021-02-07T19:05:48Z</time>
      </trkpt>
      <trkpt lat="44.63097" lon="3.51883">
        <ele>1286</ele>
        <time>2021-02-07T19:06:02Z</time>
      </trkpt>
      <trkpt lat="44.63084" lon="3.51832">
        <ele>1282</ele>
        <time>2021-02-07T19:06:11Z</time>
      </trkpt>
      <trkpt lat="44.63085" lon="3.51747">
        <ele>1278</ele>
        <time>2021-02-07T19:06:25Z</time>
      </trkpt>
      <trkpt lat="44.63124" lon="3.51672">
        <ele>1269</ele>
        <time>2021-02-07T19:06:41Z</time>
      </trkpt>
      <trkpt lat="44.63116" lon="3.5165">
        <ele>1266</ele>
        <time>2021-02-07T19:06:45Z</time>
      </trkpt>
      <trkpt lat="44.6311" lon="3.51502">
        <ele>1253</ele>
        <time>2021-02-07T19:07:10Z</time>
      </trkpt>
      <trkpt lat="44.63109" lon="3.51385">
        <ele>1240</ele>
        <time>2021-02-07T19:07:29Z</time>
      </trkpt>
      <trkpt lat="44.63119" lon="3.5132">
        <ele>1234</ele>
        <time>2021-02-07T19:07:40Z</time>
      </trkpt>
      <trkpt lat="44.63104" lon="3.51272">
        <ele>1230</ele>
        <time>2021-02-07T19:07:49Z</time>
      </trkpt>
      <trkpt lat="44.63166" lon="3.5116">
        <ele>1222</ele>
        <time>2021-02-07T19:08:12Z</time>
      </trkpt>
      <trkpt lat="44.63187" lon="3.51113">
        <ele>1216</ele>
        <time>2021-02-07T19:08:22Z</time>
      </trkpt>
      <trkpt lat="44.63201" lon="3.51047">
        <ele>1209</ele>
        <time>2021-02-07T19:08:33Z</time>
      </trkpt>
      <trkpt lat="44.63233" lon="3.50976">
        <ele>1204</ele>
        <time>2021-02-07T19:08:47Z</time>
      </trkpt>
      <trkpt lat="44.63254" lon="3.50938">
        <ele>1201</ele>
        <time>2021-02-07T19:08:55Z</time>
      </trkpt>
      <trkpt lat="44.6332" lon="3.50785">
        <ele>1193</ele>
        <time>2021-02-07T19:09:25Z</time>
      </trkpt>
      <trkpt lat="44.63328" lon="3.50688">
        <ele>1185</ele>
        <time>2021-02-07T19:09:41Z</time>
      </trkpt>
      <trkpt lat="44.63329" lon="3.50641">
        <ele>1180</ele>
        <time>2021-02-07T19:09:49Z</time>
      </trkpt>
      <trkpt lat="44.63357" lon="3.50559">
        <ele>1171</ele>
        <time>2021-02-07T19:10:04Z</time>
      </trkpt>
      <trkpt lat="44.63396" lon="3.50488">
        <ele>1163</ele>
        <time>2021-02-07T19:10:19Z</time>
      </trkpt>
      <trkpt lat="44.63438" lon="3.50479">
        <ele>1162</ele>
        <time>2021-02-07T19:10:29Z</time>
      </trkpt>
      <trkpt lat="44.63441" lon="3.50432">
        <ele>1155</ele>
        <time>2021-02-07T19:10:37Z</time>
      </trkpt>
      <trkpt lat="44.63437" lon="3.50381">
        <ele>1149</ele>
        <time>2021-02-07T19:10:45Z</time>
      </trkpt>
      <trkpt lat="44.63447" lon="3.50322">
        <ele>1146</ele>
        <time>2021-02-07T19:10:55Z</time>
      </trkpt>
      <trkpt lat="44.63422" lon="3.50293">
        <ele>1141</ele>
        <time>2021-02-07T19:11:03Z</time>
      </trkpt>
      <trkpt lat="44.6336" lon="3.50276">
        <ele>1142</ele>
        <time>2021-02-07T19:11:18Z</time>
      </trkpt>
      <trkpt lat="44.63344" lon="3.50231">
        <ele>1144</ele>
        <time>2021-02-07T19:11:26Z</time>
      </trkpt>
      <trkpt lat="44.63337" lon="3.50263">
        <ele>1143</ele>
        <time>2021-02-07T19:11:32Z</time>
      </trkpt>
      <trkpt lat="44.63315" lon="3.50272">
        <ele>1148</ele>
        <time>2021-02-07T19:11:37Z</time>
      </trkpt>
      <trkpt lat="44.63306" lon="3.50196">
        <ele>1152</ele>
        <time>2021-02-07T19:11:50Z</time>
      </trkpt>
      <trkpt lat="44.63296" lon="3.50167">
        <ele>1154</ele>
        <time>2021-02-07T19:11:55Z</time>
      </trkpt>
      <trkpt lat="44.63235" lon="3.50147">
        <ele>1169</ele>
        <time>2021-02-07T19:12:10Z</time>
      </trkpt>
      <trkpt lat="44.63229" lon="3.50122">
        <ele>1170</ele>
        <time>2021-02-07T19:12:14Z</time>
      </trkpt>
      <trkpt lat="44.63274" lon="3.50041">
        <ele>1166</ele>
        <time>2021-02-07T19:12:31Z</time>
      </trkpt>
      <trkpt lat="44.6327" lon="3.50006">
        <ele>1169</ele>
        <time>2021-02-07T19:12:37Z</time>
      </trkpt>
      <trkpt lat="44.63257" lon="3.49978">
        <ele>1172</ele>
        <time>2021-02-07T19:12:43Z</time>
      </trkpt>
      <trkpt lat="44.63257" lon="3.49953">
        <ele>1173</ele>
        <time>2021-02-07T19:12:47Z</time>
      </trkpt>
      <trkpt lat="44.63276" lon="3.49921">
        <ele>1173</ele>
        <time>2021-02-07T19:12:54Z</time>
      </trkpt>
      <trkpt lat="44.63233" lon="3.49873">
        <ele>1179</ele>
        <time>2021-02-07T19:13:06Z</time>
      </trkpt>
      <trkpt lat="44.6322" lon="3.49823">
        <ele>1184</ele>
        <time>2021-02-07T19:13:15Z</time>
      </trkpt>
      <trkpt lat="44.63221" lon="3.49744">
        <ele>1188</ele>
        <time>2021-02-07T19:13:28Z</time>
      </trkpt>
      <trkpt lat="44.63197" lon="3.49665">
        <ele>1195</ele>
        <time>2021-02-07T19:13:43Z</time>
      </trkpt>
      <trkpt lat="44.63191" lon="3.49652">
        <ele>1196</ele>
        <time>2021-02-07T19:13:45Z</time>
      </trkpt>
      <trkpt lat="44.6316" lon="3.49636">
        <ele>1198</ele>
        <time>2021-02-07T19:13:53Z</time>
      </trkpt>
      <trkpt lat="44.63122" lon="3.496">
        <ele>1202</ele>
        <time>2021-02-07T19:14:04Z</time>
      </trkpt>
      <trkpt lat="44.63114" lon="3.49487">
        <ele>1203</ele>
        <time>2021-02-07T19:14:23Z</time>
      </trkpt>
      <trkpt lat="44.63121" lon="3.49424">
        <ele>1205</ele>
        <time>2021-02-07T19:14:33Z</time>
      </trkpt>
      <trkpt lat="44.63156" lon="3.49333">
        <ele>1208</ele>
        <time>2021-02-07T19:14:50Z</time>
      </trkpt>
      <trkpt lat="44.63224" lon="3.4925">
        <ele>1207</ele>
        <time>2021-02-07T19:15:11Z</time>
      </trkpt>
      <trkpt lat="44.63281" lon="3.49222">
        <ele>1207</ele>
        <time>2021-02-07T19:15:25Z</time>
      </trkpt>
      <trkpt lat="44.63347" lon="3.49132">
        <ele>1205</ele>
        <time>2021-02-07T19:15:47Z</time>
      </trkpt>
      <trkpt lat="44.63337" lon="3.4905">
        <ele>1202</ele>
        <time>2021-02-07T19:16:01Z</time>
      </trkpt>
      <trkpt lat="44.63342" lon="3.48978">
        <ele>1202</ele>
        <time>2021-02-07T19:16:13Z</time>
      </trkpt>
      <trkpt lat="44.63349" lon="3.48925">
        <ele>1201</ele>
        <time>2021-02-07T19:16:22Z</time>
      </trkpt>
      <trkpt lat="44.63352" lon="3.48827">
        <ele>1194</ele>
        <time>2021-02-07T19:16:38Z</time>
      </trkpt>
      <trkpt lat="44.63374" lon="3.48743">
        <ele>1187</ele>
        <time>2021-02-07T19:16:53Z</time>
      </trkpt>
      <trkpt lat="44.63372" lon="3.48695">
        <ele>1183</ele>
        <time>2021-02-07T19:17:01Z</time>
      </trkpt>
      <trkpt lat="44.6335" lon="3.48588">
        <ele>1177</ele>
        <time>2021-02-07T19:17:19Z</time>
      </trkpt>
      <trkpt lat="44.63356" lon="3.48519">
        <ele>1174</ele>
        <time>2021-02-07T19:17:31Z</time>
      </trkpt>
      <trkpt lat="44.63347" lon="3.48462">
        <ele>1173</ele>
        <time>2021-02-07T19:17:41Z</time>
      </trkpt>
      <trkpt lat="44.63326" lon="3.48383">
        <ele>1173</ele>
        <time>2021-02-07T19:17:55Z</time>
      </trkpt>
      <trkpt lat="44.63254" lon="3.4834">
        <ele>1168</ele>
        <time>2021-02-07T19:18:13Z</time>
      </trkpt>
      <trkpt lat="44.63209" lon="3.48317">
        <ele>1163</ele>
        <time>2021-02-07T19:18:24Z</time>
      </trkpt>
      <trkpt lat="44.63181" lon="3.48263">
        <ele>1160</ele>
        <time>2021-02-07T19:18:35Z</time>
      </trkpt>
      <trkpt lat="44.63198" lon="3.48093">
        <ele>1153</ele>
        <time>2021-02-07T19:19:04Z</time>
      </trkpt>
      <trkpt lat="44.63197" lon="3.4803">
        <ele>1149</ele>
        <time>2021-02-07T19:19:14Z</time>
      </trkpt>
      <trkpt lat="44.63206" lon="3.47986">
        <ele>1147</ele>
        <time>2021-02-07T19:19:22Z</time>
      </trkpt>
      <trkpt lat="44.63285" lon="3.47922">
        <ele>1142</ele>
        <time>2021-02-07T19:19:43Z</time>
      </trkpt>
      <trkpt lat="44.63355" lon="3.47908">
        <ele>1141</ele>
        <time>2021-02-07T19:20:00Z</time>
      </trkpt>
      <trkpt lat="44.63371" lon="3.47892">
        <ele>1140</ele>
        <time>2021-02-07T19:20:04Z</time>
      </trkpt>
      <trkpt lat="44.6339" lon="3.47852">
        <ele>1138</ele>
        <time>2021-02-07T19:20:12Z</time>
      </trkpt>
      <trkpt lat="44.63435" lon="3.47824">
        <ele>1138</ele>
        <time>2021-02-07T19:20:24Z</time>
      </trkpt>
      <trkpt lat="44.635" lon="3.47652">
        <ele>1128</ele>
        <time>2021-02-07T19:20:56Z</time>
      </trkpt>
      <trkpt lat="44.63559" lon="3.47572">
        <ele>1120</ele>
        <time>2021-02-07T19:21:15Z</time>
      </trkpt>
      <trkpt lat="44.63618" lon="3.47507">
        <ele>1110</ele>
        <time>2021-02-07T19:21:33Z</time>
      </trkpt>
      <trkpt lat="44.63643" lon="3.47491">
        <ele>1107</ele>
        <time>2021-02-07T19:21:39Z</time>
      </trkpt>
      <trkpt lat="44.63697" lon="3.47496">
        <ele>1104</ele>
        <time>2021-02-07T19:21:52Z</time>
      </trkpt>
      <trkpt lat="44.63737" lon="3.4749">
        <ele>1102</ele>
        <time>2021-02-07T19:22:01Z</time>
      </trkpt>
      <trkpt lat="44.63744" lon="3.47459">
        <ele>1102</ele>
        <time>2021-02-07T19:22:07Z</time>
      </trkpt>
      <trkpt lat="44.6372" lon="3.47424">
        <ele>1103</ele>
        <time>2021-02-07T19:22:15Z</time>
      </trkpt>
      <trkpt lat="44.63743" lon="3.4739">
        <ele>1103</ele>
        <time>2021-02-07T19:22:23Z</time>
      </trkpt>
      <trkpt lat="44.63723" lon="3.47348">
        <ele>1105</ele>
        <time>2021-02-07T19:22:31Z</time>
      </trkpt>
      <trkpt lat="44.63681" lon="3.47294">
        <ele>1109</ele>
        <time>2021-02-07T19:22:44Z</time>
      </trkpt>
      <trkpt lat="44.63642" lon="3.47183">
        <ele>1107</ele>
        <time>2021-02-07T19:23:05Z</time>
      </trkpt>
      <trkpt lat="44.6367" lon="3.47073">
        <ele>1101</ele>
        <time>2021-02-07T19:23:24Z</time>
      </trkpt>
      <trkpt lat="44.63706" lon="3.47042">
        <ele>1099</ele>
        <time>2021-02-07T19:23:34Z</time>
      </trkpt>
      <trkpt lat="44.63714" lon="3.46948">
        <ele>1103</ele>
        <time>2021-02-07T19:23:50Z</time>
      </trkpt>
      <trkpt lat="44.63698" lon="3.46923">
        <ele>1107</ele>
        <time>2021-02-07T19:23:55Z</time>
      </trkpt>
      <trkpt lat="44.63692" lon="3.46866">
        <ele>1114</ele>
        <time>2021-02-07T19:24:05Z</time>
      </trkpt>
      <trkpt lat="44.63722" lon="3.46797">
        <ele>1119</ele>
        <time>2021-02-07T19:24:18Z</time>
      </trkpt>
      <trkpt lat="44.63729" lon="3.46747">
        <ele>1127</ele>
        <time>2021-02-07T19:24:27Z</time>
      </trkpt>
      <trkpt lat="44.63707" lon="3.46693">
        <ele>1132</ele>
        <time>2021-02-07T19:24:37Z</time>
      </trkpt>
      <trkpt lat="44.63632" lon="3.46613">
        <ele>1132</ele>
        <time>2021-02-07T19:24:59Z</time>
      </trkpt>
      <trkpt lat="44.63619" lon="3.46568">
        <ele>1132</ele>
        <time>2021-02-07T19:25:07Z</time>
      </trkpt>
      <trkpt lat="44.63617" lon="3.46467">
        <ele>1139</ele>
        <time>2021-02-07T19:25:24Z</time>
      </trkpt>
      <trkpt lat="44.63594" lon="3.46341">
        <ele>1149</ele>
        <time>2021-02-07T19:25:46Z</time>
      </trkpt>
      <trkpt lat="44.63599" lon="3.46288">
        <ele>1149</ele>
        <time>2021-02-07T19:25:55Z</time>
      </trkpt>
      <trkpt lat="44.63627" lon="3.46231">
        <ele>1147</ele>
        <time>2021-02-07T19:26:06Z</time>
      </trkpt>
      <trkpt lat="44.63643" lon="3.46159">
        <ele>1145</ele>
        <time>2021-02-07T19:26:19Z</time>
      </trkpt>
      <trkpt lat="44.63689" lon="3.46075">
        <ele>1149</ele>
        <time>2021-02-07T19:26:36Z</time>
      </trkpt>
      <trkpt lat="44.63678" lon="3.45993">
        <ele>1156</ele>
        <time>2021-02-07T19:26:50Z</time>
      </trkpt>
      <trkpt lat="44.63668" lon="3.4588">
        <ele>1169</ele>
        <time>2021-02-07T19:27:09Z</time>
      </trkpt>
      <trkpt lat="44.63685" lon="3.45785">
        <ele>1172</ele>
        <time>2021-02-07T19:27:25Z</time>
      </trkpt>
      <trkpt lat="44.63693" lon="3.45669">
        <ele>1175</ele>
        <time>2021-02-07T19:27:45Z</time>
      </trkpt>
      <trkpt lat="44.63678" lon="3.45596">
        <ele>1171</ele>
        <time>2021-02-07T19:27:57Z</time>
      </trkpt>
      <trkpt lat="44.63686" lon="3.45499">
        <ele>1160</ele>
        <time>2021-02-07T19:28:13Z</time>
      </trkpt>
      <trkpt lat="44.63717" lon="3.45304">
        <ele>1142</ele>
        <time>2021-02-07T19:28:47Z</time>
      </trkpt>
      <trkpt lat="44.63734" lon="3.45169">
        <ele>1133</ele>
        <time>2021-02-07T19:29:09Z</time>
      </trkpt>
      <trkpt lat="44.63674" lon="3.4513">
        <ele>1128</ele>
        <time>2021-02-07T19:29:25Z</time>
      </trkpt>
      <trkpt lat="44.6362" lon="3.45072">
        <ele>1123</ele>
        <time>2021-02-07T19:29:41Z</time>
      </trkpt>
      <trkpt lat="44.63585" lon="3.45028">
        <ele>1124</ele>
        <time>2021-02-07T19:29:52Z</time>
      </trkpt>
      <trkpt lat="44.63558" lon="3.45024">
        <ele>1125</ele>
        <time>2021-02-07T19:29:58Z</time>
      </trkpt>
      <trkpt lat="44.63565" lon="3.44964">
        <ele>1127</ele>
        <time>2021-02-07T19:30:08Z</time>
      </trkpt>
      <trkpt lat="44.63579" lon="3.44898">
        <ele>1129</ele>
        <time>2021-02-07T19:30:20Z</time>
      </trkpt>
      <trkpt lat="44.63636" lon="3.44858">
        <ele>1130</ele>
        <time>2021-02-07T19:30:35Z</time>
      </trkpt>
      <trkpt lat="44.6363" lon="3.44742">
        <ele>1138</ele>
        <time>2021-02-07T19:30:54Z</time>
      </trkpt>
      <trkpt lat="44.63613" lon="3.44685">
        <ele>1144</ele>
        <time>2021-02-07T19:31:04Z</time>
      </trkpt>
      <trkpt lat="44.63618" lon="3.44603">
        <ele>1154</ele>
        <time>2021-02-07T19:31:18Z</time>
      </trkpt>
      <trkpt lat="44.63578" lon="3.44561">
        <ele>1163</ele>
        <time>2021-02-07T19:31:29Z</time>
      </trkpt>
      <trkpt lat="44.63568" lon="3.44517">
        <ele>1168</ele>
        <time>2021-02-07T19:31:37Z</time>
      </trkpt>
      <trkpt lat="44.63594" lon="3.44357">
        <ele>1176</ele>
        <time>2021-02-07T19:32:04Z</time>
      </trkpt>
      <trkpt lat="44.6355" lon="3.44224">
        <ele>1176</ele>
        <time>2021-02-07T19:32:29Z</time>
      </trkpt>
      <trkpt lat="44.63382" lon="3.43969">
        <ele>1181</ele>
        <time>2021-02-07T19:33:27Z</time>
      </trkpt>
      <trkpt lat="44.63347" lon="3.43902">
        <ele>1180</ele>
        <time>2021-02-07T19:33:40Z</time>
      </trkpt>
      <trkpt lat="44.63356" lon="3.43877">
        <ele>1177</ele>
        <time>2021-02-07T19:33:45Z</time>
      </trkpt>
      <trkpt lat="44.6345" lon="3.43853">
        <ele>1171</ele>
        <time>2021-02-07T19:34:07Z</time>
      </trkpt>
      <trkpt lat="44.63498" lon="3.43861">
        <ele>1171</ele>
        <time>2021-02-07T19:34:19Z</time>
      </trkpt>
      <trkpt lat="44.63654" lon="3.43703">
        <ele>1161</ele>
        <time>2021-02-07T19:35:03Z</time>
      </trkpt>
      <trkpt lat="44.63803" lon="3.43684">
        <ele>1144</ele>
        <time>2021-02-07T19:35:38Z</time>
      </trkpt>
      <trkpt lat="44.63897" lon="3.43695">
        <ele>1140</ele>
        <time>2021-02-07T19:36:00Z</time>
      </trkpt>
      <trkpt lat="44.63949" lon="3.43687">
        <ele>1136</ele>
        <time>2021-02-07T19:36:13Z</time>
      </trkpt>
      <trkpt lat="44.64061" lon="3.43698">
        <ele>1127</ele>
        <time>2021-02-07T19:36:39Z</time>
      </trkpt>
      <trkpt lat="44.64127" lon="3.43709">
        <ele>1123</ele>
        <time>2021-02-07T19:36:54Z</time>
      </trkpt>
      <trkpt lat="44.64164" lon="3.43757">
        <ele>1120</ele>
        <time>2021-02-07T19:37:06Z</time>
      </trkpt>
      <trkpt lat="44.64283" lon="3.43772">
        <ele>1112</ele>
        <time>2021-02-07T19:37:34Z</time>
      </trkpt>
      <trkpt lat="44.6439" lon="3.43705">
        <ele>1104</ele>
        <time>2021-02-07T19:38:01Z</time>
      </trkpt>
      <trkpt lat="44.64477" lon="3.43697">
        <ele>1094</ele>
        <time>2021-02-07T19:38:22Z</time>
      </trkpt>
      <trkpt lat="44.64643" lon="3.43744">
        <ele>1071</ele>
        <time>2021-02-07T19:39:01Z</time>
      </trkpt>
      <trkpt lat="44.6465" lon="3.43801">
        <ele>1071</ele>
        <time>2021-02-07T19:39:11Z</time>
      </trkpt>
      <trkpt lat="44.64715" lon="3.43784">
        <ele>1072</ele>
        <time>2021-02-07T19:39:26Z</time>
      </trkpt>
      <trkpt lat="44.64727" lon="3.43702">
        <ele>1073</ele>
        <time>2021-02-07T19:39:40Z</time>
      </trkpt>
      <trkpt lat="44.64696" lon="3.4362">
        <ele>1074</ele>
        <time>2021-02-07T19:39:56Z</time>
      </trkpt>
      <trkpt lat="44.6463" lon="3.43546">
        <ele>1076</ele>
        <time>2021-02-07T19:40:15Z</time>
      </trkpt>
      <trkpt lat="44.64503" lon="3.43383">
        <ele>1069</ele>
        <time>2021-02-07T19:40:56Z</time>
      </trkpt>
      <trkpt lat="44.64488" lon="3.43304">
        <ele>1069</ele>
        <time>2021-02-07T19:41:09Z</time>
      </trkpt>
      <trkpt lat="44.64567" lon="3.43041">
        <ele>1065</ele>
        <time>2021-02-07T19:41:57Z</time>
      </trkpt>
      <trkpt lat="44.64599" lon="3.42796">
        <ele>1054</ele>
        <time>2021-02-07T19:42:38Z</time>
      </trkpt>
      <trkpt lat="44.6462" lon="3.42708">
        <ele>1054</ele>
        <time>2021-02-07T19:42:53Z</time>
      </trkpt>
      <trkpt lat="44.64663" lon="3.42649">
        <ele>1052</ele>
        <time>2021-02-07T19:43:07Z</time>
      </trkpt>
      <trkpt lat="44.64778" lon="3.42607">
        <ele>1054</ele>
        <time>2021-02-07T19:43:35Z</time>
      </trkpt>
      <trkpt lat="44.64795" lon="3.42538">
        <ele>1052</ele>
        <time>2021-02-07T19:43:47Z</time>
      </trkpt>
      <trkpt lat="44.64814" lon="3.42434">
        <ele>1053</ele>
        <time>2021-02-07T19:44:05Z</time>
      </trkpt>
      <trkpt lat="44.64844" lon="3.42381">
        <ele>1056</ele>
        <time>2021-02-07T19:44:16Z</time>
      </trkpt>
      <trkpt lat="44.64835" lon="3.42296">
        <ele>1053</ele>
        <time>2021-02-07T19:44:31Z</time>
      </trkpt>
      <trkpt lat="44.64759" lon="3.42046">
        <ele>1051</ele>
        <time>2021-02-07T19:45:16Z</time>
      </trkpt>
      <trkpt lat="44.64754" lon="3.41917">
        <ele>1049</ele>
        <time>2021-02-07T19:45:37Z</time>
      </trkpt>
      <trkpt lat="44.64836" lon="3.41795">
        <ele>1049</ele>
        <time>2021-02-07T19:46:05Z</time>
      </trkpt>
      <trkpt lat="44.64887" lon="3.41658">
        <ele>1054</ele>
        <time>2021-02-07T19:46:31Z</time>
      </trkpt>
      <trkpt lat="44.64904" lon="3.41541">
        <ele>1058</ele>
        <time>2021-02-07T19:46:51Z</time>
      </trkpt>
      <trkpt lat="44.64893" lon="3.41481">
        <ele>1054</ele>
        <time>2021-02-07T19:47:01Z</time>
      </trkpt>
      <trkpt lat="44.64875" lon="3.41434">
        <ele>1050</ele>
        <time>2021-02-07T19:47:10Z</time>
      </trkpt>
      <trkpt lat="44.64857" lon="3.41279">
        <ele>1050</ele>
        <time>2021-02-07T19:47:36Z</time>
      </trkpt>
      <trkpt lat="44.64913" lon="3.41236">
        <ele>1057</ele>
        <time>2021-02-07T19:47:51Z</time>
      </trkpt>
      <trkpt lat="44.64977" lon="3.40973">
        <ele>1075</ele>
        <time>2021-02-07T19:48:37Z</time>
      </trkpt>
      <trkpt lat="44.651" lon="3.40789">
        <ele>1078</ele>
        <time>2021-02-07T19:49:19Z</time>
      </trkpt>
      <trkpt lat="44.65195" lon="3.40681">
        <ele>1086</ele>
        <time>2021-02-07T19:49:48Z</time>
      </trkpt>
      <trkpt lat="44.65223" lon="3.4058">
        <ele>1090</ele>
        <time>2021-02-07T19:50:06Z</time>
      </trkpt>
      <trkpt lat="44.65245" lon="3.4042">
        <ele>1091</ele>
        <time>2021-02-07T19:50:33Z</time>
      </trkpt>
      <trkpt lat="44.65246" lon="3.40345">
        <ele>1094</ele>
        <time>2021-02-07T19:50:45Z</time>
      </trkpt>
      <trkpt lat="44.65242" lon="3.4031">
        <ele>1094</ele>
        <time>2021-02-07T19:50:51Z</time>
      </trkpt>
      <trkpt lat="44.65269" lon="3.40219">
        <ele>1092</ele>
        <time>2021-02-07T19:51:07Z</time>
      </trkpt>
      <trkpt lat="44.65292" lon="3.40191">
        <ele>1092</ele>
        <time>2021-02-07T19:51:14Z</time>
      </trkpt>
      <trkpt lat="44.65425" lon="3.39989">
        <ele>1097</ele>
        <time>2021-02-07T19:52:00Z</time>
      </trkpt>
      <trkpt lat="44.65526" lon="3.39922">
        <ele>1097</ele>
        <time>2021-02-07T19:52:26Z</time>
      </trkpt>
      <trkpt lat="44.65649" lon="3.3981">
        <ele>1100</ele>
        <time>2021-02-07T19:53:01Z</time>
      </trkpt>
      <trkpt lat="44.65703" lon="3.39752">
        <ele>1102</ele>
        <time>2021-02-07T19:53:16Z</time>
      </trkpt>
      <trkpt lat="44.65765" lon="3.39709">
        <ele>1105</ele>
        <time>2021-02-07T19:53:33Z</time>
      </trkpt>
      <trkpt lat="44.65882" lon="3.39642">
        <ele>1104</ele>
        <time>2021-02-07T19:54:02Z</time>
      </trkpt>
      <trkpt lat="44.65954" lon="3.39466">
        <ele>1106</ele>
        <time>2021-02-07T19:54:36Z</time>
      </trkpt>
      <trkpt lat="44.66025" lon="3.39244">
        <ele>1107</ele>
        <time>2021-02-07T19:55:16Z</time>
      </trkpt>
      <trkpt lat="44.66064" lon="3.39188">
        <ele>1108</ele>
        <time>2021-02-07T19:55:29Z</time>
      </trkpt>
      <trkpt lat="44.66116" lon="3.39148">
        <ele>1107</ele>
        <time>2021-02-07T19:55:43Z</time>
      </trkpt>
      <trkpt lat="44.66175" lon="3.39089">
        <ele>1105</ele>
        <time>2021-02-07T19:56:00Z</time>
      </trkpt>
      <trkpt lat="44.66218" lon="3.39071">
        <ele>1103</ele>
        <time>2021-02-07T19:56:10Z</time>
      </trkpt>
      <trkpt lat="44.66306" lon="3.3907">
        <ele>1102</ele>
        <time>2021-02-07T19:56:31Z</time>
      </trkpt>
      <trkpt lat="44.66391" lon="3.39053">
        <ele>1102</ele>
        <time>2021-02-07T19:56:51Z</time>
      </trkpt>
      <trkpt lat="44.66443" lon="3.39028">
        <ele>1102</ele>
        <time>2021-02-07T19:57:04Z</time>
      </trkpt>
      <trkpt lat="44.66496" lon="3.38982">
        <ele>1102</ele>
        <time>2021-02-07T19:57:18Z</time>
      </trkpt>
      <trkpt lat="44.66611" lon="3.38909">
        <ele>1099</ele>
        <time>2021-02-07T19:57:48Z</time>
      </trkpt>
      <trkpt lat="44.66665" lon="3.38878">
        <ele>1101</ele>
        <time>2021-02-07T19:58:02Z</time>
      </trkpt>
      <trkpt lat="44.66724" lon="3.38857">
        <ele>1103</ele>
        <time>2021-02-07T19:58:16Z</time>
      </trkpt>
      <trkpt lat="44.66806" lon="3.3878">
        <ele>1100</ele>
        <time>2021-02-07T19:58:39Z</time>
      </trkpt>
      <trkpt lat="44.66858" lon="3.38658">
        <ele>1098</ele>
        <time>2021-02-07T19:59:02Z</time>
      </trkpt>
      <trkpt lat="44.66944" lon="3.38641">
        <ele>1096</ele>
        <time>2021-02-07T19:59:23Z</time>
      </trkpt>
      <trkpt lat="44.67014" lon="3.38585">
        <ele>1097</ele>
        <time>2021-02-07T19:59:41Z</time>
      </trkpt>
      <trkpt lat="44.67067" lon="3.38451">
        <ele>1098</ele>
        <time>2021-02-07T20:00:07Z</time>
      </trkpt>
      <trkpt lat="44.67097" lon="3.38366">
        <ele>1102</ele>
        <time>2021-02-07T20:00:23Z</time>
      </trkpt>
      <trkpt lat="44.6715" lon="3.38244">
        <ele>1103</ele>
        <time>2021-02-07T20:00:46Z</time>
      </trkpt>
      <trkpt lat="44.67213" lon="3.38078">
        <ele>1102</ele>
        <time>2021-02-07T20:01:18Z</time>
      </trkpt>
      <trkpt lat="44.67254" lon="3.37978">
        <ele>1100</ele>
        <time>2021-02-07T20:01:37Z</time>
      </trkpt>
      <trkpt lat="44.67274" lon="3.37954">
        <ele>1100</ele>
        <time>2021-02-07T20:01:43Z</time>
      </trkpt>
      <trkpt lat="44.6732" lon="3.37917">
        <ele>1098</ele>
        <time>2021-02-07T20:01:55Z</time>
      </trkpt>
      <trkpt lat="44.67368" lon="3.37826">
        <ele>1094</ele>
        <time>2021-02-07T20:02:14Z</time>
      </trkpt>
      <trkpt lat="44.67407" lon="3.37723">
        <ele>1091</ele>
        <time>2021-02-07T20:02:34Z</time>
      </trkpt>
      <trkpt lat="44.67419" lon="3.37625">
        <ele>1086</ele>
        <time>2021-02-07T20:02:50Z</time>
      </trkpt>
      <trkpt lat="44.67413" lon="3.37562">
        <ele>1080</ele>
        <time>2021-02-07T20:03:01Z</time>
      </trkpt>
      <trkpt lat="44.67425" lon="3.37468">
        <ele>1074</ele>
        <time>2021-02-07T20:03:16Z</time>
      </trkpt>
      <trkpt lat="44.67419" lon="3.3737">
        <ele>1070</ele>
        <time>2021-02-07T20:03:33Z</time>
      </trkpt>
      <trkpt lat="44.67445" lon="3.37298">
        <ele>1073</ele>
        <time>2021-02-07T20:03:46Z</time>
      </trkpt>
      <trkpt lat="44.67518" lon="3.37129">
        <ele>1072</ele>
        <time>2021-02-07T20:04:19Z</time>
      </trkpt>
      <trkpt lat="44.6763" lon="3.36983">
        <ele>1065</ele>
        <time>2021-02-07T20:04:55Z</time>
      </trkpt>
      <trkpt lat="44.67811" lon="3.36832">
        <ele>1066</ele>
        <time>2021-02-07T20:05:44Z</time>
      </trkpt>
      <trkpt lat="44.68012" lon="3.36722">
        <ele>1070</ele>
        <time>2021-02-07T20:06:34Z</time>
      </trkpt>
      <trkpt lat="44.68053" lon="3.36707">
        <ele>1071</ele>
        <time>2021-02-07T20:06:44Z</time>
      </trkpt>
      <trkpt lat="44.68139" lon="3.36624">
        <ele>1076</ele>
        <time>2021-02-07T20:07:09Z</time>
      </trkpt>
      <trkpt lat="44.68316" lon="3.36422">
        <ele>1075</ele>
        <time>2021-02-07T20:08:02Z</time>
      </trkpt>
      <trkpt lat="44.68328" lon="3.36359">
        <ele>1077</ele>
        <time>2021-02-07T20:08:13Z</time>
      </trkpt>
      <trkpt lat="44.68351" lon="3.36313">
        <ele>1078</ele>
        <time>2021-02-07T20:08:22Z</time>
      </trkpt>
      <trkpt lat="44.68361" lon="3.36234">
        <ele>1076</ele>
        <time>2021-02-07T20:08:35Z</time>
      </trkpt>
      <trkpt lat="44.68416" lon="3.36125">
        <ele>1072</ele>
        <time>2021-02-07T20:08:57Z</time>
      </trkpt>
      <trkpt lat="44.68498" lon="3.36009">
        <ele>1059</ele>
        <time>2021-02-07T20:09:25Z</time>
      </trkpt>
      <trkpt lat="44.68528" lon="3.35897">
        <ele>1057</ele>
        <time>2021-02-07T20:09:44Z</time>
      </trkpt>
      <trkpt lat="44.68563" lon="3.35746">
        <ele>1058</ele>
        <time>2021-02-07T20:10:11Z</time>
      </trkpt>
      <trkpt lat="44.68623" lon="3.35608">
        <ele>1060</ele>
        <time>2021-02-07T20:10:38Z</time>
      </trkpt>
      <trkpt lat="44.68731" lon="3.35415">
        <ele>1051</ele>
        <time>2021-02-07T20:11:18Z</time>
      </trkpt>
      <trkpt lat="44.68765" lon="3.3533">
        <ele>1049</ele>
        <time>2021-02-07T20:11:35Z</time>
      </trkpt>
      <trkpt lat="44.68792" lon="3.35135">
        <ele>1039</ele>
        <time>2021-02-07T20:12:08Z</time>
      </trkpt>
      <trkpt lat="44.68824" lon="3.35022">
        <ele>1037</ele>
        <time>2021-02-07T20:12:28Z</time>
      </trkpt>
      <trkpt lat="44.68863" lon="3.34963">
        <ele>1032</ele>
        <time>2021-02-07T20:12:41Z</time>
      </trkpt>
      <trkpt lat="44.68902" lon="3.34917">
        <ele>1029</ele>
        <time>2021-02-07T20:12:53Z</time>
      </trkpt>
      <trkpt lat="44.68958" lon="3.34899">
        <ele>1021</ele>
        <time>2021-02-07T20:13:07Z</time>
      </trkpt>
      <trkpt lat="44.69028" lon="3.34859">
        <ele>1012</ele>
        <time>2021-02-07T20:13:24Z</time>
      </trkpt>
      <trkpt lat="44.69053" lon="3.3479">
        <ele>1007</ele>
        <time>2021-02-07T20:13:37Z</time>
      </trkpt>
      <trkpt lat="44.69074" lon="3.34743">
        <ele>1002</ele>
        <time>2021-02-07T20:13:46Z</time>
      </trkpt>
      <trkpt lat="44.69068" lon="3.34705">
        <ele>1000</ele>
        <time>2021-02-07T20:13:53Z</time>
      </trkpt>
      <trkpt lat="44.69081" lon="3.34677">
        <ele>995</ele>
        <time>2021-02-07T20:13:58Z</time>
      </trkpt>
      <trkpt lat="44.69095" lon="3.34668">
        <ele>993</ele>
        <time>2021-02-07T20:14:02Z</time>
      </trkpt>
      <trkpt lat="44.69145" lon="3.34571">
        <ele>985</ele>
        <time>2021-02-07T20:14:22Z</time>
      </trkpt>
      <trkpt lat="44.69175" lon="3.34524">
        <ele>982</ele>
        <time>2021-02-07T20:14:32Z</time>
      </trkpt>
      <trkpt lat="44.69218" lon="3.34481">
        <ele>981</ele>
        <time>2021-02-07T20:14:45Z</time>
      </trkpt>
      <trkpt lat="44.69258" lon="3.34494">
        <ele>981</ele>
        <time>2021-02-07T20:14:54Z</time>
      </trkpt>
      <trkpt lat="44.69283" lon="3.34476">
        <ele>979</ele>
        <time>2021-02-07T20:15:01Z</time>
      </trkpt>
      <trkpt lat="44.69297" lon="3.34401">
        <ele>978</ele>
        <time>2021-02-07T20:15:14Z</time>
      </trkpt>
      <trkpt lat="44.69332" lon="3.34366">
        <ele>976</ele>
        <time>2021-02-07T20:15:24Z</time>
      </trkpt>
      <trkpt lat="44.69343" lon="3.34364">
        <ele>976</ele>
        <time>2021-02-07T20:15:26Z</time>
      </trkpt>
      <trkpt lat="44.69345" lon="3.34319">
        <ele>978</ele>
        <time>2021-02-07T20:15:34Z</time>
      </trkpt>
      <trkpt lat="44.69337" lon="3.34272">
        <ele>979</ele>
        <time>2021-02-07T20:15:42Z</time>
      </trkpt>
      <trkpt lat="44.69369" lon="3.34194">
        <ele>986</ele>
        <time>2021-02-07T20:15:57Z</time>
      </trkpt>
      <trkpt lat="44.69385" lon="3.34185">
        <ele>989</ele>
        <time>2021-02-07T20:16:01Z</time>
      </trkpt>
      <trkpt lat="44.69392" lon="3.34103">
        <ele>1003</ele>
        <time>2021-02-07T20:16:14Z</time>
      </trkpt>
      <trkpt lat="44.69424" lon="3.34072">
        <ele>1012</ele>
        <time>2021-02-07T20:16:23Z</time>
      </trkpt>
      <trkpt lat="44.69468" lon="3.33965">
        <ele>1024</ele>
        <time>2021-02-07T20:16:44Z</time>
      </trkpt>
      <trkpt lat="44.69483" lon="3.3383">
        <ele>1023</ele>
        <time>2021-02-07T20:17:07Z</time>
      </trkpt>
      <trkpt lat="44.69526" lon="3.33724">
        <ele>1028</ele>
        <time>2021-02-07T20:17:27Z</time>
      </trkpt>
      <trkpt lat="44.69626" lon="3.33666">
        <ele>1037</ele>
        <time>2021-02-07T20:17:52Z</time>
      </trkpt>
      <trkpt lat="44.69682" lon="3.33685">
        <ele>1041</ele>
        <time>2021-02-07T20:18:06Z</time>
      </trkpt>
      <trkpt lat="44.69759" lon="3.33652">
        <ele>1046</ele>
        <time>2021-02-07T20:18:24Z</time>
      </trkpt>
      <trkpt lat="44.69822" lon="3.33565">
        <ele>1053</ele>
        <time>2021-02-07T20:18:45Z</time>
      </trkpt>
      <trkpt lat="44.69938" lon="3.3346">
        <ele>1060</ele>
        <time>2021-02-07T20:19:17Z</time>
      </trkpt>
      <trkpt lat="44.69979" lon="3.33366">
        <ele>1061</ele>
        <time>2021-02-07T20:19:36Z</time>
      </trkpt>
      <trkpt lat="44.70111" lon="3.3323">
        <ele>1056</ele>
        <time>2021-02-07T20:20:14Z</time>
      </trkpt>
      <trkpt lat="44.70234" lon="3.33046">
        <ele>1057</ele>
        <time>2021-02-07T20:20:56Z</time>
      </trkpt>
      <trkpt lat="44.70371" lon="3.32824">
        <ele>1054</ele>
        <time>2021-02-07T20:21:44Z</time>
      </trkpt>
      <trkpt lat="44.70475" lon="3.32716">
        <ele>1059</ele>
        <time>2021-02-07T20:22:15Z</time>
      </trkpt>
      <trkpt lat="44.70602" lon="3.32652">
        <ele>1051</ele>
        <time>2021-02-07T20:22:46Z</time>
      </trkpt>
      <trkpt lat="44.70665" lon="3.32634">
        <ele>1048</ele>
        <time>2021-02-07T20:23:01Z</time>
      </trkpt>
      <trkpt lat="44.70791" lon="3.32567">
        <ele>1039</ele>
        <time>2021-02-07T20:23:33Z</time>
      </trkpt>
      <trkpt lat="44.70837" lon="3.32536">
        <ele>1037</ele>
        <time>2021-02-07T20:23:45Z</time>
      </trkpt>
      <trkpt lat="44.70886" lon="3.32547">
        <ele>1035</ele>
        <time>2021-02-07T20:23:56Z</time>
      </trkpt>
      <trkpt lat="44.7097" lon="3.3246">
        <ele>1029</ele>
        <time>2021-02-07T20:24:21Z</time>
      </trkpt>
      <trkpt lat="44.71013" lon="3.32382">
        <ele>1026</ele>
        <time>2021-02-07T20:24:37Z</time>
      </trkpt>
      <trkpt lat="44.71136" lon="3.32286">
        <ele>1033</ele>
        <time>2021-02-07T20:25:10Z</time>
      </trkpt>
      <trkpt lat="44.71201" lon="3.32262">
        <ele>1037</ele>
        <time>2021-02-07T20:25:25Z</time>
      </trkpt>
      <trkpt lat="44.71222" lon="3.32209">
        <ele>1039</ele>
        <time>2021-02-07T20:25:35Z</time>
      </trkpt>
      <trkpt lat="44.71335" lon="3.32182">
        <ele>1046</ele>
        <time>2021-02-07T20:26:02Z</time>
      </trkpt>
      <trkpt lat="44.71353" lon="3.32151">
        <ele>1047</ele>
        <time>2021-02-07T20:26:09Z</time>
      </trkpt>
      <trkpt lat="44.71387" lon="3.32152">
        <ele>1048</ele>
        <time>2021-02-07T20:26:17Z</time>
      </trkpt>
      <trkpt lat="44.71394" lon="3.32067">
        <ele>1052</ele>
        <time>2021-02-07T20:26:31Z</time>
      </trkpt>
      <trkpt lat="44.71417" lon="3.31985">
        <ele>1056</ele>
        <time>2021-02-07T20:26:46Z</time>
      </trkpt>
      <trkpt lat="44.71499" lon="3.31882">
        <ele>1054</ele>
        <time>2021-02-07T20:27:11Z</time>
      </trkpt>
      <trkpt lat="44.71592" lon="3.31786">
        <ele>1040</ele>
        <time>2021-02-07T20:27:38Z</time>
      </trkpt>
      <trkpt lat="44.71649" lon="3.31693">
        <ele>1037</ele>
        <time>2021-02-07T20:27:59Z</time>
      </trkpt>
      <trkpt lat="44.71666" lon="3.31636">
        <ele>1037</ele>
        <time>2021-02-07T20:28:09Z</time>
      </trkpt>
      <trkpt lat="44.71726" lon="3.31625">
        <ele>1041</ele>
        <time>2021-02-07T20:28:23Z</time>
      </trkpt>
      <trkpt lat="44.71801" lon="3.31585">
        <ele>1049</ele>
        <time>2021-02-07T20:28:42Z</time>
      </trkpt>
      <trkpt lat="44.71828" lon="3.31548">
        <ele>1052</ele>
        <time>2021-02-07T20:28:51Z</time>
      </trkpt>
      <trkpt lat="44.71862" lon="3.31517">
        <ele>1052</ele>
        <time>2021-02-07T20:29:00Z</time>
      </trkpt>
      <trkpt lat="44.71934" lon="3.31493">
        <ele>1053</ele>
        <time>2021-02-07T20:29:17Z</time>
      </trkpt>
      <trkpt lat="44.72028" lon="3.31371">
        <ele>1056</ele>
        <time>2021-02-07T20:29:47Z</time>
      </trkpt>
      <trkpt lat="44.72094" lon="3.31281">
        <ele>1063</ele>
        <time>2021-02-07T20:30:09Z</time>
      </trkpt>
      <trkpt lat="44.72148" lon="3.3125">
        <ele>1066</ele>
        <time>2021-02-07T20:30:22Z</time>
      </trkpt>
      <trkpt lat="44.72162" lon="3.31203">
        <ele>1069</ele>
        <time>2021-02-07T20:30:31Z</time>
      </trkpt>
      <trkpt lat="44.72154" lon="3.31105">
        <ele>1073</ele>
        <time>2021-02-07T20:30:47Z</time>
      </trkpt>
      <trkpt lat="44.72111" lon="3.31054">
        <ele>1074</ele>
        <time>2021-02-07T20:31:00Z</time>
      </trkpt>
      <trkpt lat="44.72115" lon="3.30934">
        <ele>1073</ele>
        <time>2021-02-07T20:31:20Z</time>
      </trkpt>
      <trkpt lat="44.72125" lon="3.30837">
        <ele>1070</ele>
        <time>2021-02-07T20:31:36Z</time>
      </trkpt>
      <trkpt lat="44.72136" lon="3.30777">
        <ele>1071</ele>
        <time>2021-02-07T20:31:47Z</time>
      </trkpt>
      <trkpt lat="44.72088" lon="3.30701">
        <ele>1070</ele>
        <time>2021-02-07T20:32:04Z</time>
      </trkpt>
      <trkpt lat="44.72062" lon="3.30583">
        <ele>1068</ele>
        <time>2021-02-07T20:32:24Z</time>
      </trkpt>
      <trkpt lat="44.7206" lon="3.30505">
        <ele>1072</ele>
        <time>2021-02-07T20:32:37Z</time>
      </trkpt>
      <trkpt lat="44.72019" lon="3.30349">
        <ele>1076</ele>
        <time>2021-02-07T20:33:05Z</time>
      </trkpt>
      <trkpt lat="44.72047" lon="3.30246">
        <ele>1081</ele>
        <time>2021-02-07T20:33:23Z</time>
      </trkpt>
      <trkpt lat="44.72072" lon="3.30218">
        <ele>1083</ele>
        <time>2021-02-07T20:33:30Z</time>
      </trkpt>
      <trkpt lat="44.72106" lon="3.30174">
        <ele>1085</ele>
        <time>2021-02-07T20:33:41Z</time>
      </trkpt>
      <trkpt lat="44.72128" lon="3.30162">
        <ele>1088</ele>
        <time>2021-02-07T20:33:47Z</time>
      </trkpt>
      <trkpt lat="44.72126" lon="3.30162">
        <ele>1088</ele>
        <time>2021-02-07T20:33:47Z</time>
      </trkpt>
      <trkpt lat="44.72131" lon="3.30149">
        <ele>1088</ele>
        <time>2021-02-07T20:33:50Z</time>
      </trkpt>
      <trkpt lat="44.72133" lon="3.3013">
        <ele>1089</ele>
        <time>2021-02-07T20:33:53Z</time>
      </trkpt>
      <trkpt lat="44.72129" lon="3.30045">
        <ele>1089</ele>
        <time>2021-02-07T20:34:07Z</time>
      </trkpt>
      <trkpt lat="44.72081" lon="3.29852">
        <ele>1086</ele>
        <time>2021-02-07T20:34:41Z</time>
      </trkpt>
      <trkpt lat="44.72047" lon="3.29735">
        <ele>1089</ele>
        <time>2021-02-07T20:35:02Z</time>
      </trkpt>
      <trkpt lat="44.72013" lon="3.29684">
        <ele>1090</ele>
        <time>2021-02-07T20:35:13Z</time>
      </trkpt>
      <trkpt lat="44.71942" lon="3.29588">
        <ele>1086</ele>
        <time>2021-02-07T20:35:36Z</time>
      </trkpt>
      <trkpt lat="44.7188" lon="3.29517">
        <ele>1090</ele>
        <time>2021-02-07T20:35:55Z</time>
      </trkpt>
      <trkpt lat="44.71937" lon="3.29414">
        <ele>1089</ele>
        <time>2021-02-07T20:36:17Z</time>
      </trkpt>
      <trkpt lat="44.72003" lon="3.29349">
        <ele>1089</ele>
        <time>2021-02-07T20:36:36Z</time>
      </trkpt>
      <trkpt lat="44.72071" lon="3.29227">
        <ele>1081</ele>
        <time>2021-02-07T20:37:01Z</time>
      </trkpt>
      <trkpt lat="44.72067" lon="3.2924">
        <ele>1082</ele>
        <time>2021-02-07T20:37:04Z</time>
      </trkpt>
      <trkpt lat="44.72124" lon="3.29153">
        <ele>1074</ele>
        <time>2021-02-07T20:37:23Z</time>
      </trkpt>
      <trkpt lat="44.72121" lon="3.29156">
        <ele>1075</ele>
        <time>2021-02-07T20:37:24Z</time>
      </trkpt>
      <trkpt lat="44.72175" lon="3.28901">
        <ele>1063</ele>
        <time>2021-02-07T20:38:08Z</time>
      </trkpt>
      <trkpt lat="44.72189" lon="3.28854">
        <ele>1061</ele>
        <time>2021-02-07T20:38:17Z</time>
      </trkpt>
      <trkpt lat="44.72214" lon="3.28798">
        <ele>1059</ele>
        <time>2021-02-07T20:38:28Z</time>
      </trkpt>
      <trkpt lat="44.72231" lon="3.28729">
        <ele>1057</ele>
        <time>2021-02-07T20:38:40Z</time>
      </trkpt>
      <trkpt lat="44.72272" lon="3.28641">
        <ele>1050</ele>
        <time>2021-02-07T20:38:57Z</time>
      </trkpt>
      <trkpt lat="44.72301" lon="3.286">
        <ele>1045</ele>
        <time>2021-02-07T20:39:07Z</time>
      </trkpt>
      <trkpt lat="44.72272" lon="3.28641">
        <ele>1046.8</ele>
      </trkpt>
      <trkpt lat="44.7227" lon="3.28622">
        <ele>1046.3</ele>
      </trkpt>
      <trkpt lat="44.72259" lon="3.28597">
        <ele>1046.5</ele>
      </trkpt>
      <trkpt lat="44.72264" lon="3.28502">
        <ele>1047.4</ele>
      </trkpt>
      <trkpt lat="44.72267" lon="3.28426">
        <ele>1045.6</ele>
      </trkpt>
      <trkpt lat="44.72218" lon="3.28353">
        <ele>1047.5</ele>
      </trkpt>
      <trkpt lat="44.72158" lon="3.28305">
        <ele>1047</ele>
      </trkpt>
      <trkpt lat="44.72111" lon="3.28253">
        <ele>1044</ele>
      </trkpt>
      <trkpt lat="44.72071" lon="3.28202">
        <ele>1040.9</ele>
      </trkpt>
      <trkpt lat="44.72037" lon="3.28208">
        <ele>1037.7</ele>
      </trkpt>
      <trkpt lat="44.72006" lon="3.28198">
        <ele>1037.6</ele>
      </trkpt>
      <trkpt lat="44.71988" lon="3.2815">
        <ele>1032.3</ele>
      </trkpt>
      <trkpt lat="44.72005" lon="3.28088">
        <ele>1032.4</ele>
      </trkpt>
      <trkpt lat="44.72052" lon="3.28006">
        <ele>1025.3</ele>
      </trkpt>
      <trkpt lat="44.72152" lon="3.27882">
        <ele>1018.1</ele>
      </trkpt>
      <trkpt lat="44.72139" lon="3.27822">
        <ele>1021.3</ele>
      </trkpt>
      <trkpt lat="44.72113" lon="3.27774">
        <ele>1023.7</ele>
      </trkpt>
      <trkpt lat="44.72127" lon="3.27661">
        <ele>1032.5</ele>
      </trkpt>
      <trkpt lat="44.72096" lon="3.27591">
        <ele>1033.7</ele>
      </trkpt>
      <trkpt lat="44.72059" lon="3.27486">
        <ele>1037.8</ele>
      </trkpt>
      <trkpt lat="44.72001" lon="3.27416">
        <ele>1036.1</ele>
      </trkpt>
      <trkpt lat="44.72031" lon="3.27315">
        <ele>1041.8</ele>
      </trkpt>
      <trkpt lat="44.72021" lon="3.27265">
        <ele>1043.9</ele>
      </trkpt>
      <trkpt lat="44.72019" lon="3.27236">
        <ele>1044</ele>
      </trkpt>
      <trkpt lat="44.72021" lon="3.27173">
        <ele>1043.2</ele>
      </trkpt>
      <trkpt lat="44.72028" lon="3.27148">
        <ele>1043</ele>
      </trkpt>
      <trkpt lat="44.72042" lon="3.27133">
        <ele>1043.3</ele>
      </trkpt>
      <trkpt lat="44.72052" lon="3.27048">
        <ele>1041</ele>
      </trkpt>
      <trkpt lat="44.72054" lon="3.26981">
        <ele>1036.6</ele>
      </trkpt>
      <trkpt lat="44.72059" lon="3.26953">
        <ele>1035.9</ele>
      </trkpt>
      <trkpt lat="44.72044" lon="3.26899">
        <ele>1037</ele>
      </trkpt>
      <trkpt lat="44.72033" lon="3.26823">
        <ele>1040</ele>
      </trkpt>
      <trkpt lat="44.72016" lon="3.2677">
        <ele>1043.3</ele>
      </trkpt>
      <trkpt lat="44.72009" lon="3.26722">
        <ele>1045.3</ele>
      </trkpt>
      <trkpt lat="44.72008" lon="3.26665">
        <ele>1045.8</ele>
      </trkpt>
      <trkpt lat="44.72003" lon="3.26634">
        <ele>1047.1</ele>
      </trkpt>
      <trkpt lat="44.72008" lon="3.26596">
        <ele>1048.6</ele>
      </trkpt>
      <trkpt lat="44.72011" lon="3.26552">
        <ele>1051.4</ele>
      </trkpt>
      <trkpt lat="44.72023" lon="3.26479">
        <ele>1054.2</ele>
      </trkpt>
      <trkpt lat="44.72023" lon="3.26388">
        <ele>1057.8</ele>
      </trkpt>
      <trkpt lat="44.72" lon="3.26274">
        <ele>1062.9</ele>
      </trkpt>
      <trkpt lat="44.71982" lon="3.26182">
        <ele>1064.3</ele>
      </trkpt>
      <trkpt lat="44.71988" lon="3.26085">
        <ele>1066</ele>
      </trkpt>
      <trkpt lat="44.72002" lon="3.26012">
        <ele>1067.1</ele>
      </trkpt>
      <trkpt lat="44.7202" lon="3.25981">
        <ele>1068.2</ele>
      </trkpt>
      <trkpt lat="44.72036" lon="3.25937">
        <ele>1069.4</ele>
      </trkpt>
      <trkpt lat="44.72043" lon="3.25877">
        <ele>1070.4</ele>
      </trkpt>
      <trkpt lat="44.72049" lon="3.25808">
        <ele>1071.5</ele>
      </trkpt>
      <trkpt lat="44.72056" lon="3.25764">
        <ele>1073</ele>
      </trkpt>
      <trkpt lat="44.72074" lon="3.25679">
        <ele>1075.2</ele>
      </trkpt>
      <trkpt lat="44.72123" lon="3.25566">
        <ele>1078.6</ele>
      </trkpt>
      <trkpt lat="44.72148" lon="3.25529">
        <ele>1079.9</ele>
      </trkpt>
      <trkpt lat="44.72173" lon="3.25447">
        <ele>1079.8</ele>
      </trkpt>
      <trkpt lat="44.72199" lon="3.25337">
        <ele>1081.3</ele>
      </trkpt>
      <trkpt lat="44.72217" lon="3.25243">
        <ele>1084.1</ele>
      </trkpt>
      <trkpt lat="44.72225" lon="3.25174">
        <ele>1086.3</ele>
      </trkpt>
      <trkpt lat="44.7221" lon="3.25076">
        <ele>1085.8</ele>
      </trkpt>
      <trkpt lat="44.72208" lon="3.25041">
        <ele>1088.1</ele>
      </trkpt>
      <trkpt lat="44.72242" lon="3.24991">
        <ele>1090.6</ele>
      </trkpt>
      <trkpt lat="44.72265" lon="3.24919">
        <ele>1096.8</ele>
      </trkpt>
      <trkpt lat="44.72288" lon="3.24831">
        <ele>1102.1</ele>
      </trkpt>
      <trkpt lat="44.72314" lon="3.2474">
        <ele>1102.7</ele>
      </trkpt>
      <trkpt lat="44.72344" lon="3.24665">
        <ele>1101</ele>
      </trkpt>
      <trkpt lat="44.72376" lon="3.24587">
        <ele>1100.6</ele>
      </trkpt>
      <trkpt lat="44.72388" lon="3.24511">
        <ele>1100</ele>
      </trkpt>
      <trkpt lat="44.72402" lon="3.24429">
        <ele>1099.1</ele>
      </trkpt>
      <trkpt lat="44.72418" lon="3.24382">
        <ele>1101.2</ele>
      </trkpt>
      <trkpt lat="44.72452" lon="3.24354">
        <ele>1103.5</ele>
      </trkpt>
      <trkpt lat="44.7247" lon="3.24326">
        <ele>1106.4</ele>
      </trkpt>
      <trkpt lat="44.72477" lon="3.24289">
        <ele>1108.5</ele>
      </trkpt>
      <trkpt lat="44.72471" lon="3.24229">
        <ele>1110.9</ele>
      </trkpt>
      <trkpt lat="44.72512" lon="3.24141">
        <ele>1111.9</ele>
      </trkpt>
      <trkpt lat="44.72531" lon="3.24081">
        <ele>1113.2</ele>
      </trkpt>
      <trkpt lat="44.72531" lon="3.23987">
        <ele>1116.3</ele>
      </trkpt>
      <trkpt lat="44.72556" lon="3.23952">
        <ele>1119.7</ele>
      </trkpt>
      <trkpt lat="44.72591" lon="3.23839">
        <ele>1123.5</ele>
      </trkpt>
      <trkpt lat="44.72667" lon="3.23667">
        <ele>1128</ele>
      </trkpt>
      <trkpt lat="44.72615" lon="3.23632">
        <ele>1130.3</ele>
      </trkpt>
      <trkpt lat="44.72586" lon="3.23593">
        <ele>1128.9</ele>
      </trkpt>
      <trkpt lat="44.72562" lon="3.23539">
        <ele>1128.9</ele>
      </trkpt>
      <trkpt lat="44.72497" lon="3.23491">
        <ele>1128.9</ele>
      </trkpt>
      <trkpt lat="44.72424" lon="3.23398">
        <ele>1129.9</ele>
      </trkpt>
      <trkpt lat="44.72361" lon="3.23328">
        <ele>1126</ele>
      </trkpt>
      <trkpt lat="44.72306" lon="3.23229">
        <ele>1123</ele>
      </trkpt>
      <trkpt lat="44.72248" lon="3.23194">
        <ele>1123</ele>
      </trkpt>
      <trkpt lat="44.72235" lon="3.23155">
        <ele>1123.7</ele>
      </trkpt>
      <trkpt lat="44.72148" lon="3.23031">
        <ele>1126.8</ele>
      </trkpt>
      <trkpt lat="44.72134" lon="3.23015">
        <ele>1127.7</ele>
      </trkpt>
      <trkpt lat="44.72106" lon="3.22967">
        <ele>1132.7</ele>
      </trkpt>
      <trkpt lat="44.72081" lon="3.22961">
        <ele>1135</ele>
      </trkpt>
      <trkpt lat="44.72027" lon="3.22935">
        <ele>1141.1</ele>
      </trkpt>
      <trkpt lat="44.71947" lon="3.22848">
        <ele>1147.5</ele>
      </trkpt>
      <trkpt lat="44.71876" lon="3.22762">
        <ele>1153.8</ele>
      </trkpt>
      <trkpt lat="44.71836" lon="3.2272">
        <ele>1153.9</ele>
      </trkpt>
      <trkpt lat="44.71764" lon="3.22697">
        <ele>1148.1</ele>
      </trkpt>
      <trkpt lat="44.71703" lon="3.22655">
        <ele>1144.5</ele>
      </trkpt>
      <trkpt lat="44.71637" lon="3.22553">
        <ele>1131.4</ele>
      </trkpt>
      <trkpt lat="44.71599" lon="3.22493">
        <ele>1122.6</ele>
      </trkpt>
      <trkpt lat="44.71568" lon="3.22483">
        <ele>1119.4</ele>
      </trkpt>
      <trkpt lat="44.71534" lon="3.22479">
        <ele>1116.7</ele>
      </trkpt>
      <trkpt lat="44.71517" lon="3.22311">
        <ele>1111.8</ele>
      </trkpt>
      <trkpt lat="44.715" lon="3.22251">
        <ele>1111</ele>
      </trkpt>
      <trkpt lat="44.7148" lon="3.22251">
        <ele>1111</ele>
      </trkpt>
      <trkpt lat="44.71473" lon="3.2221">
        <ele>1112.4</ele>
      </trkpt>
      <trkpt lat="44.71451" lon="3.22194">
        <ele>1113</ele>
      </trkpt>
      <trkpt lat="44.71428" lon="3.22168">
        <ele>1113.9</ele>
      </trkpt>
      <trkpt lat="44.7138" lon="3.2207">
        <ele>1120.5</ele>
      </trkpt>
      <trkpt lat="44.71286" lon="3.21977">
        <ele>1125.7</ele>
      </trkpt>
      <trkpt lat="44.71232" lon="3.21954">
        <ele>1128.1</ele>
      </trkpt>
      <trkpt lat="44.71184" lon="3.21846">
        <ele>1131.9</ele>
      </trkpt>
      <trkpt lat="44.71155" lon="3.21839">
        <ele>1133.2</ele>
      </trkpt>
      <trkpt lat="44.71107" lon="3.21829">
        <ele>1135.3</ele>
      </trkpt>
      <trkpt lat="44.71063" lon="3.21809">
        <ele>1137.6</ele>
      </trkpt>
      <trkpt lat="44.71015" lon="3.21812">
        <ele>1139.6</ele>
      </trkpt>
      <trkpt lat="44.70909" lon="3.21845">
        <ele>1146.5</ele>
      </trkpt>
      <trkpt lat="44.70835" lon="3.21872">
        <ele>1158.8</ele>
      </trkpt>
      <trkpt lat="44.7075" lon="3.21874">
        <ele>1170.1</ele>
      </trkpt>
      <trkpt lat="44.70671" lon="3.21857">
        <ele>1174.7</ele>
      </trkpt>
      <trkpt lat="44.70615" lon="3.21865">
        <ele>1176</ele>
      </trkpt>
      <trkpt lat="44.70567" lon="3.21861">
        <ele>1177</ele>
      </trkpt>
      <trkpt lat="44.70532" lon="3.21861">
        <ele>1177.9</ele>
      </trkpt>
      <trkpt lat="44.70496" lon="3.21844">
        <ele>1179.4</ele>
      </trkpt>
      <trkpt lat="44.7048" lon="3.21838">
        <ele>1180.5</ele>
      </trkpt>
      <trkpt lat="44.70363" lon="3.21786">
        <ele>1187</ele>
      </trkpt>
      <trkpt lat="44.70285" lon="3.21775">
        <ele>1187.9</ele>
      </trkpt>
      <trkpt lat="44.702" lon="3.21755">
        <ele>1186.4</ele>
      </trkpt>
      <trkpt lat="44.70143" lon="3.21776">
        <ele>1186</ele>
      </trkpt>
      <trkpt lat="44.70101" lon="3.21769">
        <ele>1185.6</ele>
      </trkpt>
      <trkpt lat="44.70049" lon="3.21759">
        <ele>1187.2</ele>
      </trkpt>
      <trkpt lat="44.70002" lon="3.21723">
        <ele>1188</ele>
      </trkpt>
      <trkpt lat="44.69892" lon="3.21639">
        <ele>1188.8</ele>
      </trkpt>
      <trkpt lat="44.69848" lon="3.21617">
        <ele>1190.4</ele>
      </trkpt>
      <trkpt lat="44.69601" lon="3.21465">
        <ele>1197.6</ele>
      </trkpt>
      <trkpt lat="44.69536" lon="3.21451">
        <ele>1201.6</ele>
      </trkpt>
      <trkpt lat="44.69297" lon="3.21312">
        <ele>1208.6</ele>
      </trkpt>
      <trkpt lat="44.69252" lon="3.21273">
        <ele>1210.7</ele>
      </trkpt>
      <trkpt lat="44.69138" lon="3.21224">
        <ele>1210.1</ele>
      </trkpt>
      <trkpt lat="44.69039" lon="3.21229">
        <ele>1205</ele>
      </trkpt>
      <trkpt lat="44.68947" lon="3.21262">
        <ele>1203.1</ele>
      </trkpt>
      <trkpt lat="44.68906" lon="3.21277">
        <ele>1202.6</ele>
      </trkpt>
      <trkpt lat="44.68872" lon="3.21258">
        <ele>1201.4</ele>
      </trkpt>
      <trkpt lat="44.68861" lon="3.21245">
        <ele>1201.2</ele>
      </trkpt>
      <trkpt lat="44.68898" lon="3.21173">
        <ele>1202.8</ele>
      </trkpt>
      <trkpt lat="44.68918" lon="3.21129">
        <ele>1202.9</ele>
      </trkpt>
      <trkpt lat="44.6891" lon="3.20789">
        <ele>1208.9</ele>
      </trkpt>
      <trkpt lat="44.68879" lon="3.20719">
        <ele>1211</ele>
      </trkpt>
      <trkpt lat="44.68828" lon="3.20639">
        <ele>1213.4</ele>
      </trkpt>
      <trkpt lat="44.68805" lon="3.2062">
        <ele>1214.3</ele>
      </trkpt>
      <trkpt lat="44.68705" lon="3.20549">
        <ele>1212.7</ele>
      </trkpt>
      <trkpt lat="44.6856" lon="3.20408">
        <ele>1209.5</ele>
      </trkpt>
      <trkpt lat="44.68544" lon="3.20367">
        <ele>1209.9</ele>
      </trkpt>
      <trkpt lat="44.68529" lon="3.20313">
        <ele>1210.1</ele>
      </trkpt>
      <trkpt lat="44.68467" lon="3.20202">
        <ele>1211.1</ele>
      </trkpt>
      <trkpt lat="44.68376" lon="3.2004">
        <ele>1215.3</ele>
      </trkpt>
      <trkpt lat="44.68343" lon="3.19976">
        <ele>1218.1</ele>
      </trkpt>
      <trkpt lat="44.6828" lon="3.19931">
        <ele>1217.1</ele>
      </trkpt>
      <trkpt lat="44.68067" lon="3.19846">
        <ele>1219.8</ele>
      </trkpt>
      <trkpt lat="44.68011" lon="3.19823">
        <ele>1219.4</ele>
      </trkpt>
      <trkpt lat="44.67966" lon="3.19832">
        <ele>1215.6</ele>
      </trkpt>
      <trkpt lat="44.67942" lon="3.19819">
        <ele>1213.8</ele>
      </trkpt>
      <trkpt lat="44.67884" lon="3.19761">
        <ele>1212.4</ele>
      </trkpt>
      <trkpt lat="44.67857" lon="3.19745">
        <ele>1213.2</ele>
      </trkpt>
      <trkpt lat="44.67778" lon="3.19744">
        <ele>1209.9</ele>
      </trkpt>
      <trkpt lat="44.67735" lon="3.19749">
        <ele>1209.6</ele>
      </trkpt>
      <trkpt lat="44.67692" lon="3.19768">
        <ele>1208</ele>
      </trkpt>
      <trkpt lat="44.67652" lon="3.19767">
        <ele>1206.5</ele>
      </trkpt>
      <trkpt lat="44.6762" lon="3.19779">
        <ele>1204.8</ele>
      </trkpt>
      <trkpt lat="44.6756" lon="3.19778">
        <ele>1204.1</ele>
      </trkpt>
      <trkpt lat="44.67501" lon="3.19799">
        <ele>1198.8</ele>
      </trkpt>
      <trkpt lat="44.67463" lon="3.19783">
        <ele>1195.3</ele>
      </trkpt>
      <trkpt lat="44.67416" lon="3.19763">
        <ele>1191.5</ele>
      </trkpt>
      <trkpt lat="44.67347" lon="3.1969">
        <ele>1194.8</ele>
      </trkpt>
      <trkpt lat="44.67331" lon="3.19617">
        <ele>1193.2</ele>
      </trkpt>
      <trkpt lat="44.6733" lon="3.19545">
        <ele>1189.9</ele>
      </trkpt>
      <trkpt lat="44.67355" lon="3.19463">
        <ele>1187.8</ele>
      </trkpt>
      <trkpt lat="44.67335" lon="3.19406">
        <ele>1183.8</ele>
      </trkpt>
      <trkpt lat="44.67284" lon="3.19399">
        <ele>1178.7</ele>
      </trkpt>
      <trkpt lat="44.6726" lon="3.19326">
        <ele>1181.2</ele>
      </trkpt>
      <trkpt lat="44.67244" lon="3.19257">
        <ele>1186.4</ele>
      </trkpt>
      <trkpt lat="44.67216" lon="3.19184">
        <ele>1185.3</ele>
      </trkpt>
      <trkpt lat="44.67203" lon="3.19092">
        <ele>1182.9</ele>
      </trkpt>
      <trkpt lat="44.67204" lon="3.18947">
        <ele>1183.7</ele>
      </trkpt>
      <trkpt lat="44.67202" lon="3.18862">
        <ele>1185.3</ele>
      </trkpt>
      <trkpt lat="44.67192" lon="3.18783">
        <ele>1185.4</ele>
      </trkpt>
      <trkpt lat="44.67195" lon="3.18698">
        <ele>1186.2</ele>
      </trkpt>
      <trkpt lat="44.67227" lon="3.18639">
        <ele>1188.5</ele>
      </trkpt>
      <trkpt lat="44.67272" lon="3.18586">
        <ele>1188.6</ele>
      </trkpt>
      <trkpt lat="44.67295" lon="3.18536">
        <ele>1188.7</ele>
      </trkpt>
      <trkpt lat="44.67289" lon="3.18463">
        <ele>1191.2</ele>
      </trkpt>
      <trkpt lat="44.67262" lon="3.18375">
        <ele>1191.4</ele>
      </trkpt>
      <trkpt lat="44.67258" lon="3.18337">
        <ele>1191.4</ele>
      </trkpt>
      <trkpt lat="44.6728" lon="3.18173">
        <ele>1185</ele>
      </trkpt>
      <trkpt lat="44.67371" lon="3.17967">
        <ele>1177.5</ele>
      </trkpt>
      <trkpt lat="44.67403" lon="3.1786">
        <ele>1179.7</ele>
      </trkpt>
      <trkpt lat="44.67402" lon="3.17787">
        <ele>1182.1</ele>
      </trkpt>
      <trkpt lat="44.67353" lon="3.17686">
        <ele>1177.9</ele>
      </trkpt>
      <trkpt lat="44.67375" lon="3.17519">
        <ele>1180.7</ele>
      </trkpt>
      <trkpt lat="44.67412" lon="3.17394">
        <ele>1177.1</ele>
      </trkpt>
      <trkpt lat="44.67421" lon="3.17321">
        <ele>1177.4</ele>
      </trkpt>
      <trkpt lat="44.67422" lon="3.17252">
        <ele>1178</ele>
      </trkpt>
      <trkpt lat="44.67423" lon="3.17107">
        <ele>1184.9</ele>
      </trkpt>
      <trkpt lat="44.6744" lon="3.1689">
        <ele>1198.1</ele>
      </trkpt>
      <trkpt lat="44.67427" lon="3.16827">
        <ele>1203.3</ele>
      </trkpt>
      <trkpt lat="44.67411" lon="3.16814">
        <ele>1206.4</ele>
      </trkpt>
      <trkpt lat="44.67279" lon="3.17017">
        <ele>1202.5</ele>
      </trkpt>
      <trkpt lat="44.67217" lon="3.17186">
        <ele>1199.8</ele>
      </trkpt>
      <trkpt lat="44.67086" lon="3.17379">
        <ele>1193</ele>
      </trkpt>
      <trkpt lat="44.67031" lon="3.17416">
        <ele>1191.7</ele>
      </trkpt>
      <trkpt lat="44.66955" lon="3.17447">
        <ele>1188.7</ele>
      </trkpt>
      <trkpt lat="44.66889" lon="3.17515">
        <ele>1180.7</ele>
      </trkpt>
      <trkpt lat="44.66855" lon="3.17593">
        <ele>1179.6</ele>
      </trkpt>
      <trkpt lat="44.6682" lon="3.17668">
        <ele>1174.2</ele>
      </trkpt>
      <trkpt lat="44.66752" lon="3.17721">
        <ele>1167.9</ele>
      </trkpt>
      <trkpt lat="44.66711" lon="3.1784">
        <ele>1163.9</ele>
      </trkpt>
      <trkpt lat="44.66636" lon="3.17924">
        <ele>1160.9</ele>
      </trkpt>
      <trkpt lat="44.66595" lon="3.1799">
        <ele>1154.8</ele>
      </trkpt>
      <trkpt lat="44.66588" lon="3.18021">
        <ele>1153.2</ele>
      </trkpt>
      <trkpt lat="44.66612" lon="3.18141">
        <ele>1151.9</ele>
      </trkpt>
      <trkpt lat="44.66595" lon="3.18283">
        <ele>1148.6</ele>
      </trkpt>
      <trkpt lat="44.66529" lon="3.18373">
        <ele>1148.1</ele>
      </trkpt>
      <trkpt lat="44.66484" lon="3.18438">
        <ele>1146.2</ele>
      </trkpt>
      <trkpt lat="44.66461" lon="3.18444">
        <ele>1145.6</ele>
      </trkpt>
      <trkpt lat="44.66432" lon="3.18428">
        <ele>1144.8</ele>
      </trkpt>
      <trkpt lat="44.66371" lon="3.1844">
        <ele>1146.3</ele>
      </trkpt>
      <trkpt lat="44.66367" lon="3.1844">
        <ele>1146.6</ele>
      </trkpt>
      <trkpt lat="44.66347" lon="3.1843">
        <ele>1148.3</ele>
      </trkpt>
      <trkpt lat="44.66302" lon="3.18366">
        <ele>1154</ele>
      </trkpt>
      <trkpt lat="44.66202" lon="3.18318">
        <ele>1161.8</ele>
      </trkpt>
      <trkpt lat="44.66072" lon="3.18256">
        <ele>1167.3</ele>
      </trkpt>
      <trkpt lat="44.66029" lon="3.18195">
        <ele>1172.8</ele>
      </trkpt>
      <trkpt lat="44.65984" lon="3.18195">
        <ele>1173</ele>
      </trkpt>
      <trkpt lat="44.65964" lon="3.18197">
        <ele>1172.1</ele>
      </trkpt>
      <trkpt lat="44.65906" lon="3.18171">
        <ele>1171.2</ele>
      </trkpt>
      <trkpt lat="44.65859" lon="3.1818">
        <ele>1170.9</ele>
      </trkpt>
      <trkpt lat="44.65815" lon="3.18227">
        <ele>1173.6</ele>
      </trkpt>
      <trkpt lat="44.65797" lon="3.18233">
        <ele>1177</ele>
      </trkpt>
      <trkpt lat="44.65768" lon="3.18267">
        <ele>1178.4</ele>
      </trkpt>
      <trkpt lat="44.65745" lon="3.18276">
        <ele>1178.2</ele>
      </trkpt>
      <trkpt lat="44.65705" lon="3.18266">
        <ele>1181.1</ele>
      </trkpt>
      <trkpt lat="44.65649" lon="3.18271">
        <ele>1179.2</ele>
      </trkpt>
      <trkpt lat="44.65593" lon="3.18252">
        <ele>1183.1</ele>
      </trkpt>
      <trkpt lat="44.65476" lon="3.1825">
        <ele>1186.5</ele>
      </trkpt>
      <trkpt lat="44.65375" lon="3.18252">
        <ele>1195.8</ele>
      </trkpt>
      <trkpt lat="44.65341" lon="3.18242">
        <ele>1199</ele>
      </trkpt>
      <trkpt lat="44.65269" lon="3.18222">
        <ele>1198.9</ele>
      </trkpt>
      <trkpt lat="44.65209" lon="3.18161">
        <ele>1198.9</ele>
      </trkpt>
      <trkpt lat="44.65131" lon="3.18012">
        <ele>1198.8</ele>
      </trkpt>
      <trkpt lat="44.65117" lon="3.18134">
        <ele>1197.6</ele>
      </trkpt>
      <trkpt lat="44.65139" lon="3.18235">
        <ele>1198</ele>
      </trkpt>
      <trkpt lat="44.6516" lon="3.18396">
        <ele>1198.5</ele>
      </trkpt>
      <trkpt lat="44.65166" lon="3.18453">
        <ele>1198</ele>
      </trkpt>
      <trkpt lat="44.65157" lon="3.18481">
        <ele>1199</ele>
      </trkpt>
      <trkpt lat="44.6517" lon="3.18535">
        <ele>1199.1</ele>
      </trkpt>
      <trkpt lat="44.65154" lon="3.18604">
        <ele>1200.5</ele>
      </trkpt>
      <trkpt lat="44.65129" lon="3.18654">
        <ele>1201.6</ele>
      </trkpt>
      <trkpt lat="44.65122" lon="3.18686">
        <ele>1201.3</ele>
      </trkpt>
      <trkpt lat="44.65118" lon="3.18802">
        <ele>1195.5</ele>
      </trkpt>
      <trkpt lat="44.65114" lon="3.1883">
        <ele>1195.5</ele>
      </trkpt>
      <trkpt lat="44.65091" lon="3.18918">
        <ele>1189.4</ele>
      </trkpt>
      <trkpt lat="44.6504" lon="3.1911">
        <ele>1178</ele>
      </trkpt>
      <trkpt lat="44.65019" lon="3.19185">
        <ele>1164.9</ele>
      </trkpt>
      <trkpt lat="44.65027" lon="3.19305">
        <ele>1152.1</ele>
      </trkpt>
      <trkpt lat="44.6508" lon="3.19356">
        <ele>1154.6</ele>
      </trkpt>
      <trkpt lat="44.65087" lon="3.19384">
        <ele>1155.8</ele>
      </trkpt>
      <trkpt lat="44.65078" lon="3.19441">
        <ele>1153.2</ele>
      </trkpt>
      <trkpt lat="44.65075" lon="3.19501">
        <ele>1146.7</ele>
      </trkpt>
      <trkpt lat="44.65112" lon="3.19571">
        <ele>1140.1</ele>
      </trkpt>
      <trkpt lat="44.65189" lon="3.1961">
        <ele>1138.7</ele>
      </trkpt>
      <trkpt lat="44.65234" lon="3.19617">
        <ele>1137.7</ele>
      </trkpt>
      <trkpt lat="44.65288" lon="3.19583">
        <ele>1138.7</ele>
      </trkpt>
      <trkpt lat="44.65295" lon="3.19583">
        <ele>1137.7</ele>
      </trkpt>
      <trkpt lat="44.65267" lon="3.1963">
        <ele>1134.8</ele>
      </trkpt>
      <trkpt lat="44.65238" lon="3.19648">
        <ele>1131.8</ele>
      </trkpt>
      <trkpt lat="44.65179" lon="3.19647">
        <ele>1128.5</ele>
      </trkpt>
      <trkpt lat="44.65148" lon="3.1965">
        <ele>1129.1</ele>
      </trkpt>
      <trkpt lat="44.6507" lon="3.19787">
        <ele>1118.3</ele>
      </trkpt>
      <trkpt lat="44.65016" lon="3.19862">
        <ele>1122.8</ele>
      </trkpt>
      <trkpt lat="44.64977" lon="3.19928">
        <ele>1127.8</ele>
      </trkpt>
      <trkpt lat="44.64898" lon="3.20018">
        <ele>1134.1</ele>
      </trkpt>
      <trkpt lat="44.64891" lon="3.20052">
        <ele>1136.8</ele>
      </trkpt>
      <trkpt lat="44.6489" lon="3.20144">
        <ele>1137</ele>
      </trkpt>
      <trkpt lat="44.64839" lon="3.2036">
        <ele>1137.4</ele>
      </trkpt>
      <trkpt lat="44.64818" lon="3.20417">
        <ele>1138.4</ele>
      </trkpt>
      <trkpt lat="44.6481" lon="3.20549">
        <ele>1137.2</ele>
      </trkpt>
      <trkpt lat="44.64774" lon="3.20633">
        <ele>1135.8</ele>
      </trkpt>
      <trkpt lat="44.64699" lon="3.20736">
        <ele>1133.1</ele>
      </trkpt>
      <trkpt lat="44.64644" lon="3.20757">
        <ele>1131.1</ele>
      </trkpt>
      <trkpt lat="44.64606" lon="3.20779">
        <ele>1131.1</ele>
      </trkpt>
      <trkpt lat="44.6453" lon="3.20771">
        <ele>1133.5</ele>
      </trkpt>
      <trkpt lat="44.64478" lon="3.20808">
        <ele>1134.4</ele>
      </trkpt>
      <trkpt lat="44.64469" lon="3.20817">
        <ele>1135.1</ele>
      </trkpt>
      <trkpt lat="44.645" lon="3.20859">
        <ele>1134.8</ele>
      </trkpt>
      <trkpt lat="44.64513" lon="3.20881">
        <ele>1137.8</ele>
      </trkpt>
      <trkpt lat="44.64506" lon="3.20931">
        <ele>1139.5</ele>
      </trkpt>
      <trkpt lat="44.64481" lon="3.20994">
        <ele>1141.8</ele>
      </trkpt>
      <trkpt lat="44.64447" lon="3.21028">
        <ele>1143.7</ele>
      </trkpt>
      <trkpt lat="44.6442" lon="3.2104">
        <ele>1144.8</ele>
      </trkpt>
      <trkpt lat="44.64363" lon="3.21043">
        <ele>1147.3</ele>
      </trkpt>
      <trkpt lat="44.64321" lon="3.21061">
        <ele>1148</ele>
      </trkpt>
      <trkpt lat="44.64248" lon="3.21195">
        <ele>1151</ele>
      </trkpt>
      <trkpt lat="44.64203" lon="3.21135">
        <ele>1151.2</ele>
      </trkpt>
      <trkpt lat="44.64138" lon="3.21086">
        <ele>1155.8</ele>
      </trkpt>
      <trkpt lat="44.64105" lon="3.21076">
        <ele>1156.5</ele>
      </trkpt>
      <trkpt lat="44.64021" lon="3.21059">
        <ele>1161.2</ele>
      </trkpt>
      <trkpt lat="44.63974" lon="3.21046">
        <ele>1166.5</ele>
      </trkpt>
      <trkpt lat="44.63907" lon="3.21067">
        <ele>1169.1</ele>
      </trkpt>
      <trkpt lat="44.63839" lon="3.21101">
        <ele>1171.6</ele>
      </trkpt>
      <trkpt lat="44.63778" lon="3.21112">
        <ele>1173.8</ele>
      </trkpt>
      <trkpt lat="44.63738" lon="3.21115">
        <ele>1177.7</ele>
      </trkpt>
      <trkpt lat="44.63704" lon="3.21114">
        <ele>1181.3</ele>
      </trkpt>
      <trkpt lat="44.63641" lon="3.21167">
        <ele>1179.8</ele>
      </trkpt>
      <trkpt lat="44.63582" lon="3.21245">
        <ele>1175.6</ele>
      </trkpt>
      <trkpt lat="44.63528" lon="3.21253">
        <ele>1179.3</ele>
      </trkpt>
      <trkpt lat="44.63485" lon="3.21256">
        <ele>1179.3</ele>
      </trkpt>
      <trkpt lat="44.63444" lon="3.2123">
        <ele>1180.6</ele>
      </trkpt>
      <trkpt lat="44.63406" lon="3.21217">
        <ele>1175.9</ele>
      </trkpt>
      <trkpt lat="44.63346" lon="3.21168">
        <ele>1173.7</ele>
      </trkpt>
      <trkpt lat="44.63288" lon="3.21152">
        <ele>1173.7</ele>
      </trkpt>
      <trkpt lat="44.63239" lon="3.21082">
        <ele>1177.9</ele>
      </trkpt>
      <trkpt lat="44.63219" lon="3.21085">
        <ele>1175.8</ele>
      </trkpt>
      <trkpt lat="44.63194" lon="3.21087">
        <ele>1174.4</ele>
      </trkpt>
      <trkpt lat="44.63156" lon="3.21021">
        <ele>1170.7</ele>
      </trkpt>
      <trkpt lat="44.63118" lon="3.20989">
        <ele>1165.4</ele>
      </trkpt>
      <trkpt lat="44.63056" lon="3.20915">
        <ele>1162.1</ele>
      </trkpt>
      <trkpt lat="44.63026" lon="3.20924">
        <ele>1161.4</ele>
      </trkpt>
      <trkpt lat="44.63002" lon="3.2093">
        <ele>1159.2</ele>
      </trkpt>
      <trkpt lat="44.62997" lon="3.20974">
        <ele>1156.8</ele>
      </trkpt>
      <trkpt lat="44.62974" lon="3.21002">
        <ele>1155.9</ele>
      </trkpt>
      <trkpt lat="44.62953" lon="3.21058">
        <ele>1153.2</ele>
      </trkpt>
      <trkpt lat="44.62951" lon="3.21137">
        <ele>1151</ele>
      </trkpt>
      <trkpt lat="44.62926" lon="3.21159">
        <ele>1151.3</ele>
      </trkpt>
      <trkpt lat="44.62858" lon="3.21167">
        <ele>1149.3</ele>
      </trkpt>
      <trkpt lat="44.62844" lon="3.21208">
        <ele>1151</ele>
      </trkpt>
      <trkpt lat="44.62855" lon="3.21315">
        <ele>1154.3</ele>
      </trkpt>
      <trkpt lat="44.62831" lon="3.21406">
        <ele>1151.3</ele>
      </trkpt>
      <trkpt lat="44.62815" lon="3.21453">
        <ele>1150.9</ele>
      </trkpt>
      <trkpt lat="44.6281" lon="3.2162">
        <ele>1156.1</ele>
      </trkpt>
      <trkpt lat="44.62786" lon="3.21764">
        <ele>1156.8</ele>
      </trkpt>
      <trkpt lat="44.62756" lon="3.21827">
        <ele>1158.4</ele>
      </trkpt>
      <trkpt lat="44.62736" lon="3.2205">
        <ele>1159</ele>
      </trkpt>
      <trkpt lat="44.62723" lon="3.22012">
        <ele>1159.9</ele>
      </trkpt>
      <trkpt lat="44.62688" lon="3.21971">
        <ele>1162.5</ele>
      </trkpt>
      <trkpt lat="44.62686" lon="3.21901">
        <ele>1165.5</ele>
      </trkpt>
      <trkpt lat="44.62678" lon="3.21813">
        <ele>1172.5</ele>
      </trkpt>
      <trkpt lat="44.62647" lon="3.21655">
        <ele>1189.7</ele>
      </trkpt>
      <trkpt lat="44.62603" lon="3.21544">
        <ele>1201.4</ele>
      </trkpt>
      <trkpt lat="44.62541" lon="3.21452">
        <ele>1207.7</ele>
      </trkpt>
      <trkpt lat="44.62481" lon="3.21388">
        <ele>1208.6</ele>
      </trkpt>
      <trkpt lat="44.62474" lon="3.21378">
        <ele>1208.2</ele>
      </trkpt>
      <trkpt lat="44.6243" lon="3.21315">
        <ele>1203.4</ele>
      </trkpt>
      <trkpt lat="44.6239" lon="3.21251">
        <ele>1200.1</ele>
      </trkpt>
      <trkpt lat="44.62372" lon="3.21248">
        <ele>1201</ele>
      </trkpt>
      <trkpt lat="44.62349" lon="3.21225">
        <ele>1200.6</ele>
      </trkpt>
      <trkpt lat="44.62327" lon="3.21209">
        <ele>1201</ele>
      </trkpt>
      <trkpt lat="44.62293" lon="3.21202">
        <ele>1202.4</ele>
      </trkpt>
      <trkpt lat="44.62233" lon="3.21227">
        <ele>1206.1</ele>
      </trkpt>
      <trkpt lat="44.62212" lon="3.21248">
        <ele>1208.6</ele>
      </trkpt>
      <trkpt lat="44.62198" lon="3.21305">
        <ele>1212.5</ele>
      </trkpt>
      <trkpt lat="44.62171" lon="3.21342">
        <ele>1213.1</ele>
      </trkpt>
      <trkpt lat="44.62157" lon="3.21377">
        <ele>1214.1</ele>
      </trkpt>
      <trkpt lat="44.62139" lon="3.21436">
        <ele>1215.4</ele>
      </trkpt>
      <trkpt lat="44.62102" lon="3.21483">
        <ele>1215.1</ele>
      </trkpt>
      <trkpt lat="44.62068" lon="3.21533">
        <ele>1216.8</ele>
      </trkpt>
      <trkpt lat="44.62036" lon="3.21614">
        <ele>1220.1</ele>
      </trkpt>
      <trkpt lat="44.62011" lon="3.21692">
        <ele>1224.1</ele>
      </trkpt>
      <trkpt lat="44.61992" lon="3.21742">
        <ele>1225.3</ele>
      </trkpt>
      <trkpt lat="44.61965" lon="3.21761">
        <ele>1224.8</ele>
      </trkpt>
      <trkpt lat="44.61927" lon="3.21754">
        <ele>1227.8</ele>
      </trkpt>
      <trkpt lat="44.619" lon="3.2175">
        <ele>1230.8</ele>
      </trkpt>
      <trkpt lat="44.61873" lon="3.21769">
        <ele>1230.9</ele>
      </trkpt>
      <trkpt lat="44.61839" lon="3.2179">
        <ele>1230.9</ele>
      </trkpt>
      <trkpt lat="44.61792" lon="3.21805">
        <ele>1232</ele>
      </trkpt>
      <trkpt lat="44.61769" lon="3.21824">
        <ele>1233.6</ele>
      </trkpt>
      <trkpt lat="44.61746" lon="3.21874">
        <ele>1235.2</ele>
      </trkpt>
      <trkpt lat="44.61718" lon="3.21974">
        <ele>1238.5</ele>
      </trkpt>
      <trkpt lat="44.61673" lon="3.22027">
        <ele>1241.4</ele>
      </trkpt>
      <trkpt lat="44.61646" lon="3.22061">
        <ele>1240.1</ele>
      </trkpt>
      <trkpt lat="44.61605" lon="3.22076">
        <ele>1240.7</ele>
      </trkpt>
      <trkpt lat="44.61558" lon="3.22072">
        <ele>1238.6</ele>
      </trkpt>
      <trkpt lat="44.61518" lon="3.2205">
        <ele>1235.5</ele>
      </trkpt>
      <trkpt lat="44.61469" lon="3.21989">
        <ele>1233</ele>
      </trkpt>
      <trkpt lat="44.61449" lon="3.21935">
        <ele>1228</ele>
      </trkpt>
      <trkpt lat="44.61433" lon="3.21926">
        <ele>1224.7</ele>
      </trkpt>
      <trkpt lat="44.61402" lon="3.21916">
        <ele>1219.4</ele>
      </trkpt>
      <trkpt lat="44.61382" lon="3.21922">
        <ele>1217.1</ele>
      </trkpt>
      <trkpt lat="44.61365" lon="3.21962">
        <ele>1216</ele>
      </trkpt>
      <trkpt lat="44.61352" lon="3.21984">
        <ele>1216.5</ele>
      </trkpt>
      <trkpt lat="44.61325" lon="3.21984">
        <ele>1215.7</ele>
      </trkpt>
      <trkpt lat="44.61291" lon="3.21939">
        <ele>1210.8</ele>
      </trkpt>
      <trkpt lat="44.61256" lon="3.21932">
        <ele>1207.3</ele>
      </trkpt>
      <trkpt lat="44.61235" lon="3.21945">
        <ele>1205.9</ele>
      </trkpt>
      <trkpt lat="44.61212" lon="3.21991">
        <ele>1203.9</ele>
      </trkpt>
      <trkpt lat="44.61199" lon="3.21985">
        <ele>1202.3</ele>
      </trkpt>
      <trkpt lat="44.61123" lon="3.21943">
        <ele>1192.7</ele>
      </trkpt>
      <trkpt lat="44.61071" lon="3.21926">
        <ele>1189.1</ele>
      </trkpt>
      <trkpt lat="44.61033" lon="3.21897">
        <ele>1185</ele>
      </trkpt>
      <trkpt lat="44.60989" lon="3.21831">
        <ele>1174.3</ele>
      </trkpt>
      <trkpt lat="44.60949" lon="3.21805">
        <ele>1170.1</ele>
      </trkpt>
      <trkpt lat="44.6091" lon="3.21788">
        <ele>1167.9</ele>
      </trkpt>
      <trkpt lat="44.60873" lon="3.21728">
        <ele>1168.4</ele>
      </trkpt>
      <trkpt lat="44.60844" lon="3.21684">
        <ele>1170.1</ele>
      </trkpt>
      <trkpt lat="44.60831" lon="3.21633">
        <ele>1169.3</ele>
      </trkpt>
      <trkpt lat="44.60802" lon="3.21592">
        <ele>1162.2</ele>
      </trkpt>
      <trkpt lat="44.60789" lon="3.21528">
        <ele>1159</ele>
      </trkpt>
      <trkpt lat="44.60771" lon="3.21484">
        <ele>1161.8</ele>
      </trkpt>
      <trkpt lat="44.60758" lon="3.21456">
        <ele>1164.7</ele>
      </trkpt>
      <trkpt lat="44.60743" lon="3.21405">
        <ele>1167.5</ele>
      </trkpt>
      <trkpt lat="44.60727" lon="3.21354">
        <ele>1170.1</ele>
      </trkpt>
      <trkpt lat="44.60714" lon="3.21323">
        <ele>1172.5</ele>
      </trkpt>
      <trkpt lat="44.60685" lon="3.21281">
        <ele>1176.8</ele>
      </trkpt>
      <trkpt lat="44.60641" lon="3.21214">
        <ele>1183.1</ele>
      </trkpt>
      <trkpt lat="44.60616" lon="3.21154">
        <ele>1184.2</ele>
      </trkpt>
      <trkpt lat="44.60588" lon="3.21091">
        <ele>1179.6</ele>
      </trkpt>
      <trkpt lat="44.6057" lon="3.21043">
        <ele>1177.4</ele>
      </trkpt>
      <trkpt lat="44.60586" lon="3.21018">
        <ele>1178.1</ele>
      </trkpt>
      <trkpt lat="44.60557" lon="3.20993">
        <ele>1176.6</ele>
      </trkpt>
      <trkpt lat="44.60513" lon="3.20917">
        <ele>1172.3</ele>
      </trkpt>
      <trkpt lat="44.60441" lon="3.20865">
        <ele>1171.4</ele>
      </trkpt>
      <trkpt lat="44.60437" lon="3.20862">
        <ele>1171.6</ele>
      </trkpt>
      <trkpt lat="44.60378" lon="3.20852">
        <ele>1169.5</ele>
      </trkpt>
      <trkpt lat="44.60329" lon="3.2087">
        <ele>1167.9</ele>
      </trkpt>
      <trkpt lat="44.6029" lon="3.20879">
        <ele>1170.3</ele>
      </trkpt>
      <trkpt lat="44.60261" lon="3.20872">
        <ele>1171</ele>
      </trkpt>
      <trkpt lat="44.60225" lon="3.20833">
        <ele>1173.1</ele>
      </trkpt>
      <trkpt lat="44.60197" lon="3.20786">
        <ele>1176.4</ele>
      </trkpt>
      <trkpt lat="44.60199" lon="3.2072">
        <ele>1180.7</ele>
      </trkpt>
      <trkpt lat="44.6025" lon="3.20636">
        <ele>1181</ele>
      </trkpt>
      <trkpt lat="44.6021" lon="3.20484">
        <ele>1175</ele>
      </trkpt>
      <trkpt lat="44.60165" lon="3.2048">
        <ele>1170.9</ele>
      </trkpt>
      <trkpt lat="44.60103" lon="3.20432">
        <ele>1167.5</ele>
      </trkpt>
      <trkpt lat="44.60071" lon="3.20428">
        <ele>1166.4</ele>
      </trkpt>
      <trkpt lat="44.60018" lon="3.20396">
        <ele>1167.6</ele>
      </trkpt>
      <trkpt lat="44.59966" lon="3.20357">
        <ele>1170.2</ele>
      </trkpt>
      <trkpt lat="44.59942" lon="3.20322">
        <ele>1172.8</ele>
      </trkpt>
      <trkpt lat="44.59824" lon="3.20173">
        <ele>1194.4</ele>
      </trkpt>
      <trkpt lat="44.5977" lon="3.20096">
        <ele>1200.6</ele>
      </trkpt>
      <trkpt lat="44.59748" lon="3.20055">
        <ele>1204.6</ele>
      </trkpt>
      <trkpt lat="44.59731" lon="3.19979">
        <ele>1210.4</ele>
      </trkpt>
      <trkpt lat="44.59732" lon="3.19882">
        <ele>1216.7</ele>
      </trkpt>
      <trkpt lat="44.5975" lon="3.19806">
        <ele>1224.8</ele>
      </trkpt>
      <trkpt lat="44.59748" lon="3.1974">
        <ele>1231.7</ele>
      </trkpt>
      <trkpt lat="44.59724" lon="3.19696">
        <ele>1238.4</ele>
      </trkpt>
      <trkpt lat="44.59691" lon="3.1967">
        <ele>1241.9</ele>
      </trkpt>
      <trkpt lat="44.59646" lon="3.19657">
        <ele>1246</ele>
      </trkpt>
      <trkpt lat="44.59605" lon="3.19641">
        <ele>1245.3</ele>
      </trkpt>
      <trkpt lat="44.59565" lon="3.19583">
        <ele>1249.6</ele>
      </trkpt>
      <trkpt lat="44.5953" lon="3.19551">
        <ele>1254.5</ele>
      </trkpt>
      <trkpt lat="44.59503" lon="3.19504">
        <ele>1257.8</ele>
      </trkpt>
      <trkpt lat="44.59445" lon="3.19456">
        <ele>1260.2</ele>
      </trkpt>
      <trkpt lat="44.59418" lon="3.19427">
        <ele>1262.3</ele>
      </trkpt>
      <trkpt lat="44.59385" lon="3.19386">
        <ele>1263</ele>
      </trkpt>
      <trkpt lat="44.59367" lon="3.19307">
        <ele>1261</ele>
      </trkpt>
      <trkpt lat="44.59377" lon="3.19206">
        <ele>1256.8</ele>
      </trkpt>
      <trkpt lat="44.59382" lon="3.19115">
        <ele>1251.7</ele>
      </trkpt>
      <trkpt lat="44.59374" lon="3.19068">
        <ele>1250.2</ele>
      </trkpt>
      <trkpt lat="44.59377" lon="3.18983">
        <ele>1247.8</ele>
      </trkpt>
      <trkpt lat="44.59348" lon="3.18919">
        <ele>1244.7</ele>
      </trkpt>
      <trkpt lat="44.59321" lon="3.18878">
        <ele>1244</ele>
      </trkpt>
      <trkpt lat="44.59286" lon="3.1883">
        <ele>1244</ele>
      </trkpt>
      <trkpt lat="44.59165" lon="3.18674">
        <ele>1255.4</ele>
      </trkpt>
      <trkpt lat="44.59076" lon="3.18553">
        <ele>1249.4</ele>
      </trkpt>
      <trkpt lat="44.59061" lon="3.1849">
        <ele>1244.7</ele>
      </trkpt>
      <trkpt lat="44.59053" lon="3.18336">
        <ele>1227.9</ele>
      </trkpt>
      <trkpt lat="44.59018" lon="3.18235">
        <ele>1222</ele>
      </trkpt>
      <trkpt lat="44.59005" lon="3.18181">
        <ele>1223.3</ele>
      </trkpt>
      <trkpt lat="44.59006" lon="3.1808">
        <ele>1232.5</ele>
      </trkpt>
      <trkpt lat="44.58992" lon="3.18077">
        <ele>1234.5</ele>
      </trkpt>
      <trkpt lat="44.58968" lon="3.18076">
        <ele>1237.2</ele>
      </trkpt>
      <trkpt lat="44.58947" lon="3.1806">
        <ele>1240.4</ele>
      </trkpt>
      <trkpt lat="44.58926" lon="3.17988">
        <ele>1247.9</ele>
      </trkpt>
      <trkpt lat="44.58872" lon="3.17896">
        <ele>1250.4</ele>
      </trkpt>
      <trkpt lat="44.58823" lon="3.17863">
        <ele>1247.8</ele>
      </trkpt>
      <trkpt lat="44.58778" lon="3.17841">
        <ele>1243.8</ele>
      </trkpt>
      <trkpt lat="44.58734" lon="3.17812">
        <ele>1241.4</ele>
      </trkpt>
      <trkpt lat="44.58635" lon="3.17716">
        <ele>1238.9</ele>
      </trkpt>
      <trkpt lat="44.58564" lon="3.17649">
        <ele>1237.9</ele>
      </trkpt>
      <trkpt lat="44.5847" lon="3.17597">
        <ele>1237.7</ele>
      </trkpt>
      <trkpt lat="44.5843" lon="3.17549">
        <ele>1236.6</ele>
      </trkpt>
      <trkpt lat="44.58383" lon="3.17464">
        <ele>1234.6</ele>
      </trkpt>
      <trkpt lat="44.58357" lon="3.17385">
        <ele>1232.6</ele>
      </trkpt>
      <trkpt lat="44.58339" lon="3.17334">
        <ele>1231.2</ele>
      </trkpt>
      <trkpt lat="44.58329" lon="3.17252">
        <ele>1232.6</ele>
      </trkpt>
      <trkpt lat="44.58316" lon="3.17186">
        <ele>1239.3</ele>
      </trkpt>
      <trkpt lat="44.58282" lon="3.17129">
        <ele>1243.7</ele>
      </trkpt>
      <trkpt lat="44.58256" lon="3.17009">
        <ele>1247.3</ele>
      </trkpt>
      <trkpt lat="44.5823" lon="3.16967">
        <ele>1245.4</ele>
      </trkpt>
      <trkpt lat="44.5819" lon="3.16819">
        <ele>1240.1</ele>
      </trkpt>
      <trkpt lat="44.58155" lon="3.16689">
        <ele>1237.2</ele>
      </trkpt>
      <trkpt lat="44.58062" lon="3.16477">
        <ele>1217.3</ele>
      </trkpt>
      <trkpt lat="44.58086" lon="3.16327">
        <ele>1210.9</ele>
      </trkpt>
      <trkpt lat="44.5808" lon="3.16229">
        <ele>1205.4</ele>
      </trkpt>
      <trkpt lat="44.58076" lon="3.16175">
        <ele>1203</ele>
      </trkpt>
      <trkpt lat="44.58049" lon="3.16122">
        <ele>1200.8</ele>
      </trkpt>
      <trkpt lat="44.5804" lon="3.16118">
        <ele>1199.7</ele>
      </trkpt>
      <trkpt lat="44.58009" lon="3.1613">
        <ele>1194.8</ele>
      </trkpt>
      <trkpt lat="44.57975" lon="3.16083">
        <ele>1191.2</ele>
      </trkpt>
      <trkpt lat="44.5796" lon="3.16067">
        <ele>1188.8</ele>
      </trkpt>
      <trkpt lat="44.57949" lon="3.16001">
        <ele>1184.5</ele>
      </trkpt>
      <trkpt lat="44.57927" lon="3.15959">
        <ele>1184.3</ele>
      </trkpt>
      <trkpt lat="44.57891" lon="3.1593">
        <ele>1186.5</ele>
      </trkpt>
      <trkpt lat="44.57878" lon="3.15911">
        <ele>1188.1</ele>
      </trkpt>
      <trkpt lat="44.57855" lon="3.15902">
        <ele>1187.6</ele>
      </trkpt>
      <trkpt lat="44.57838" lon="3.15854">
        <ele>1187.5</ele>
      </trkpt>
      <trkpt lat="44.5782" lon="3.15829">
        <ele>1183.6</ele>
      </trkpt>
      <trkpt lat="44.57793" lon="3.15794">
        <ele>1178.6</ele>
      </trkpt>
      <trkpt lat="44.57792" lon="3.15715">
        <ele>1176.1</ele>
      </trkpt>
      <trkpt lat="44.57751" lon="3.15718">
        <ele>1172.1</ele>
      </trkpt>
      <trkpt lat="44.57742" lon="3.15711">
        <ele>1171</ele>
      </trkpt>
      <trkpt lat="44.5772" lon="3.15664">
        <ele>1170.1</ele>
      </trkpt>
      <trkpt lat="44.57697" lon="3.1566">
        <ele>1167.8</ele>
      </trkpt>
      <trkpt lat="44.57648" lon="3.15672">
        <ele>1170.8</ele>
      </trkpt>
      <trkpt lat="44.57596" lon="3.157">
        <ele>1173.5</ele>
      </trkpt>
      <trkpt lat="44.57562" lon="3.15743">
        <ele>1177.3</ele>
      </trkpt>
      <trkpt lat="44.57503" lon="3.1584">
        <ele>1185</ele>
      </trkpt>
      <trkpt lat="44.57475" lon="3.15906">
        <ele>1183.6</ele>
      </trkpt>
      <trkpt lat="44.57437" lon="3.15962">
        <ele>1187.3</ele>
      </trkpt>
      <trkpt lat="44.57409" lon="3.15986">
        <ele>1189.4</ele>
      </trkpt>
      <trkpt lat="44.5738" lon="3.16011">
        <ele>1190.9</ele>
      </trkpt>
      <trkpt lat="44.57342" lon="3.16051">
        <ele>1192.7</ele>
      </trkpt>
      <trkpt lat="44.57294" lon="3.16117">
        <ele>1195.6</ele>
      </trkpt>
      <trkpt lat="44.57262" lon="3.16164">
        <ele>1197.4</ele>
      </trkpt>
      <trkpt lat="44.57242" lon="3.16195">
        <ele>1199.1</ele>
      </trkpt>
      <trkpt lat="44.57223" lon="3.16267">
        <ele>1201.8</ele>
      </trkpt>
      <trkpt lat="44.57211" lon="3.16339">
        <ele>1202.6</ele>
      </trkpt>
      <trkpt lat="44.57211" lon="3.16414">
        <ele>1204.4</ele>
      </trkpt>
      <trkpt lat="44.57202" lon="3.16424">
        <ele>1208.7</ele>
      </trkpt>
      <trkpt lat="44.57188" lon="3.16411">
        <ele>1212.7</ele>
      </trkpt>
      <trkpt lat="44.57171" lon="3.16367">
        <ele>1216.9</ele>
      </trkpt>
      <trkpt lat="44.57149" lon="3.16294">
        <ele>1219.5</ele>
      </trkpt>
      <trkpt lat="44.57104" lon="3.16196">
        <ele>1223.6</ele>
      </trkpt>
      <trkpt lat="44.57075" lon="3.16186">
        <ele>1225.7</ele>
      </trkpt>
      <trkpt lat="44.56999" lon="3.16185">
        <ele>1231.7</ele>
      </trkpt>
      <trkpt lat="44.56897" lon="3.16212">
        <ele>1237.5</ele>
      </trkpt>
      <trkpt lat="44.5683" lon="3.16245">
        <ele>1239.5</ele>
      </trkpt>
      <trkpt lat="44.56748" lon="3.1631">
        <ele>1246.6</ele>
      </trkpt>
      <trkpt lat="44.56705" lon="3.16353">
        <ele>1251.7</ele>
      </trkpt>
      <trkpt lat="44.56603" lon="3.16424">
        <ele>1262.5</ele>
      </trkpt>
      <trkpt lat="44.56545" lon="3.16423">
        <ele>1274.8</ele>
      </trkpt>
      <trkpt lat="44.5622" lon="3.16287">
        <ele>1343</ele>
      </trkpt>
      <trkpt lat="44.56088" lon="3.16231">
        <ele>1353.9</ele>
      </trkpt>
      <trkpt lat="44.5605" lon="3.16215">
        <ele>1352</ele>
      </trkpt>
      <trkpt lat="44.5589" lon="3.16165">
        <ele>1355</ele>
      </trkpt>
      <trkpt lat="44.55815" lon="3.16038">
        <ele>1356.6</ele>
      </trkpt>
      <trkpt lat="44.5578" lon="3.15922">
        <ele>1356.7</ele>
      </trkpt>
      <trkpt lat="44.55776" lon="3.15859">
        <ele>1358.3</ele>
      </trkpt>
      <trkpt lat="44.55835" lon="3.15803">
        <ele>1362.1</ele>
      </trkpt>
      <trkpt lat="44.55819" lon="3.15517">
        <ele>1366.7</ele>
      </trkpt>
      <trkpt lat="44.55908" lon="3.15295">
        <ele>1367.7</ele>
      </trkpt>
      <trkpt lat="44.55991" lon="3.14994">
        <ele>1371.8</ele>
      </trkpt>
      <trkpt lat="44.56035" lon="3.149">
        <ele>1370.2</ele>
      </trkpt>
      <trkpt lat="44.56049" lon="3.14815">
        <ele>1369.3</ele>
      </trkpt>
      <trkpt lat="44.56056" lon="3.14709">
        <ele>1367</ele>
      </trkpt>
      <trkpt lat="44.56095" lon="3.14605">
        <ele>1365.9</ele>
      </trkpt>
      <trkpt lat="44.56157" lon="3.14521">
        <ele>1367.8</ele>
      </trkpt>
      <trkpt lat="44.5617" lon="3.14484">
        <ele>1369.7</ele>
      </trkpt>
      <trkpt lat="44.56184" lon="3.14437">
        <ele>1372.6</ele>
      </trkpt>
      <trkpt lat="44.56246" lon="3.14356">
        <ele>1377.4</ele>
      </trkpt>
      <trkpt lat="44.56323" lon="3.14244">
        <ele>1382.6</ele>
      </trkpt>
      <trkpt lat="44.56364" lon="3.14141">
        <ele>1385.7</ele>
      </trkpt>
      <trkpt lat="44.5638" lon="3.14078">
        <ele>1388.5</ele>
      </trkpt>
      <trkpt lat="44.5639" lon="3.13999">
        <ele>1390</ele>
      </trkpt>
      <trkpt lat="44.56399" lon="3.13943">
        <ele>1391.3</ele>
      </trkpt>
      <trkpt lat="44.56425" lon="3.13846">
        <ele>1390.2</ele>
      </trkpt>
      <trkpt lat="44.56475" lon="3.13683">
        <ele>1389.9</ele>
      </trkpt>
      <trkpt lat="44.56498" lon="3.13595">
        <ele>1389.8</ele>
      </trkpt>
      <trkpt lat="44.56483" lon="3.13557">
        <ele>1389.1</ele>
      </trkpt>
      <trkpt lat="44.56486" lon="3.13516">
        <ele>1389.4</ele>
      </trkpt>
      <trkpt lat="44.56502" lon="3.13482">
        <ele>1390.5</ele>
      </trkpt>
      <trkpt lat="44.56511" lon="3.13451">
        <ele>1389.5</ele>
      </trkpt>
      <trkpt lat="44.56509" lon="3.13413">
        <ele>1389.7</ele>
      </trkpt>
      <trkpt lat="44.56516" lon="3.13394">
        <ele>1390.5</ele>
      </trkpt>
      <trkpt lat="44.56536" lon="3.13385">
        <ele>1391.6</ele>
      </trkpt>
      <trkpt lat="44.56586" lon="3.13313">
        <ele>1391.5</ele>
      </trkpt>
      <trkpt lat="44.56627" lon="3.13261">
        <ele>1393.5</ele>
      </trkpt>
      <trkpt lat="44.56663" lon="3.13173">
        <ele>1392.3</ele>
      </trkpt>
      <trkpt lat="44.5672" lon="3.13079">
        <ele>1392.6</ele>
      </trkpt>
      <trkpt lat="44.56762" lon="3.12964">
        <ele>1390.9</ele>
      </trkpt>
      <trkpt lat="44.56789" lon="3.12901">
        <ele>1389.7</ele>
      </trkpt>
      <trkpt lat="44.56794" lon="3.12867">
        <ele>1388.4</ele>
      </trkpt>
      <trkpt lat="44.56858" lon="3.12761">
        <ele>1381.7</ele>
      </trkpt>
      <trkpt lat="44.56912" lon="3.12654">
        <ele>1372.5</ele>
      </trkpt>
      <trkpt lat="44.56938" lon="3.1257">
        <ele>1365.2</ele>
      </trkpt>
      <trkpt lat="44.56942" lon="3.12529">
        <ele>1361.1</ele>
      </trkpt>
      <trkpt lat="44.56963" lon="3.1251">
        <ele>1359.8</ele>
      </trkpt>
      <trkpt lat="44.56979" lon="3.12479">
        <ele>1357</ele>
      </trkpt>
      <trkpt lat="44.57013" lon="3.12445">
        <ele>1354.5</ele>
      </trkpt>
      <trkpt lat="44.57029" lon="3.12411">
        <ele>1350.6</ele>
      </trkpt>
      <trkpt lat="44.57054" lon="3.1238">
        <ele>1348.3</ele>
      </trkpt>
      <trkpt lat="44.57105" lon="3.12371">
        <ele>1347.4</ele>
      </trkpt>
      <trkpt lat="44.57133" lon="3.12337">
        <ele>1346.1</ele>
      </trkpt>
      <trkpt lat="44.57147" lon="3.12283">
        <ele>1344.2</ele>
      </trkpt>
      <trkpt lat="44.57149" lon="3.12227">
        <ele>1342.8</ele>
      </trkpt>
      <trkpt lat="44.5719" lon="3.12142">
        <ele>1338.1</ele>
      </trkpt>
      <trkpt lat="44.57202" lon="3.12089">
        <ele>1336</ele>
      </trkpt>
      <trkpt lat="44.57191" lon="3.12017">
        <ele>1333.2</ele>
      </trkpt>
      <trkpt lat="44.57185" lon="3.11941">
        <ele>1330.9</ele>
      </trkpt>
      <trkpt lat="44.5717" lon="3.11828">
        <ele>1326.4</ele>
      </trkpt>
      <trkpt lat="44.57137" lon="3.11774">
        <ele>1327.3</ele>
      </trkpt>
      <trkpt lat="44.57139" lon="3.11742">
        <ele>1327.5</ele>
      </trkpt>
      <trkpt lat="44.57198" lon="3.1168">
        <ele>1328.3</ele>
      </trkpt>
      <trkpt lat="44.57244" lon="3.1158">
        <ele>1334.2</ele>
      </trkpt>
      <trkpt lat="44.57258" lon="3.11533">
        <ele>1336.1</ele>
      </trkpt>
      <trkpt lat="44.57301" lon="3.1143">
        <ele>1340.4</ele>
      </trkpt>
      <trkpt lat="44.57369" lon="3.11346">
        <ele>1344.3</ele>
      </trkpt>
      <trkpt lat="44.5744" lon="3.11149">
        <ele>1354.1</ele>
      </trkpt>
      <trkpt lat="44.57452" lon="3.11055">
        <ele>1360.4</ele>
      </trkpt>
      <trkpt lat="44.57446" lon="3.11004">
        <ele>1364.7</ele>
      </trkpt>
      <trkpt lat="44.57433" lon="3.10888">
        <ele>1372.1</ele>
      </trkpt>
      <trkpt lat="44.57412" lon="3.10727">
        <ele>1377.5</ele>
      </trkpt>
      <trkpt lat="44.57381" lon="3.10654">
        <ele>1377.5</ele>
      </trkpt>
      <trkpt lat="44.57415" lon="3.10526">
        <ele>1368</ele>
      </trkpt>
      <trkpt lat="44.57515" lon="3.10127">
        <ele>1341</ele>
      </trkpt>
      <trkpt lat="44.57568" lon="3.09905">
        <ele>1317.3</ele>
      </trkpt>
      <trkpt lat="44.57596" lon="3.09798">
        <ele>1314</ele>
      </trkpt>
      <trkpt lat="44.57585" lon="3.09719">
        <ele>1315.2</ele>
      </trkpt>
      <trkpt lat="44.57584" lon="3.09468">
        <ele>1324.2</ele>
      </trkpt>
      <trkpt lat="44.57587" lon="3.09443">
        <ele>1325.2</ele>
      </trkpt>
      <trkpt lat="44.57612" lon="3.09339">
        <ele>1331.1</ele>
      </trkpt>
      <trkpt lat="44.57615" lon="3.09242">
        <ele>1339.5</ele>
      </trkpt>
      <trkpt lat="44.57643" lon="3.09167">
        <ele>1347</ele>
      </trkpt>
      <trkpt lat="44.57668" lon="3.09095">
        <ele>1353.2</ele>
      </trkpt>
      <trkpt lat="44.57709" lon="3.09064">
        <ele>1358.7</ele>
      </trkpt>
      <trkpt lat="44.57765" lon="3.09001">
        <ele>1367.9</ele>
      </trkpt>
      <trkpt lat="44.57808" lon="3.08964">
        <ele>1370.7</ele>
      </trkpt>
      <trkpt lat="44.57859" lon="3.08798">
        <ele>1381.8</ele>
      </trkpt>
      <trkpt lat="44.57891" lon="3.08689">
        <ele>1387.1</ele>
      </trkpt>
      <trkpt lat="44.57887" lon="3.08676">
        <ele>1387.8</ele>
      </trkpt>
      <trkpt lat="44.57878" lon="3.08663">
        <ele>1388.9</ele>
      </trkpt>
      <trkpt lat="44.57784" lon="3.08568">
        <ele>1396.5</ele>
      </trkpt>
      <trkpt lat="44.57578" lon="3.08508">
        <ele>1410.3</ele>
      </trkpt>
      <trkpt lat="44.57534" lon="3.08394">
        <ele>1412.6</ele>
      </trkpt>
      <trkpt lat="44.57345" lon="3.0836">
        <ele>1401.3</ele>
      </trkpt>
      <trkpt lat="44.57219" lon="3.08321">
        <ele>1400.9</ele>
      </trkpt>
      <trkpt lat="44.57043" lon="3.08463">
        <ele>1424.8</ele>
      </trkpt>
      <trkpt lat="44.56906" lon="3.08707">
        <ele>1425.8</ele>
      </trkpt>
      <trkpt lat="44.56676" lon="3.08792">
        <ele>1424.8</ele>
      </trkpt>
      <trkpt lat="44.56613" lon="3.08867">
        <ele>1422.8</ele>
      </trkpt>
      <trkpt lat="44.56522" lon="3.08941">
        <ele>1415.9</ele>
      </trkpt>
      <trkpt lat="44.56496" lon="3.0884">
        <ele>1418.1</ele>
      </trkpt>
      <trkpt lat="44.56474" lon="3.08751">
        <ele>1422.9</ele>
      </trkpt>
      <trkpt lat="44.56462" lon="3.08575">
        <ele>1434.4</ele>
      </trkpt>
      <trkpt lat="44.56427" lon="3.08461">
        <ele>1438.5</ele>
      </trkpt>
      <trkpt lat="44.56388" lon="3.0826">
        <ele>1441.3</ele>
      </trkpt>
      <trkpt lat="44.56371" lon="3.08058">
        <ele>1438.5</ele>
      </trkpt>
      <trkpt lat="44.56407" lon="3.08021">
        <ele>1438.2</ele>
      </trkpt>
      <trkpt lat="44.56503" lon="3.07884">
        <ele>1446.5</ele>
      </trkpt>
      <trkpt lat="44.56517" lon="3.07733">
        <ele>1442.2</ele>
      </trkpt>
      <trkpt lat="44.56567" lon="3.07633">
        <ele>1448.8</ele>
      </trkpt>
      <trkpt lat="44.56613" lon="3.07514">
        <ele>1450.5</ele>
      </trkpt>
      <trkpt lat="44.56663" lon="3.07427">
        <ele>1448.2</ele>
      </trkpt>
      <trkpt lat="44.56795" lon="3.07221">
        <ele>1446.3</ele>
      </trkpt>
      <trkpt lat="44.56922" lon="3.07084">
        <ele>1442.9</ele>
      </trkpt>
      <trkpt lat="44.57039" lon="3.07016">
        <ele>1445.3</ele>
      </trkpt>
      <trkpt lat="44.57161" lon="3.06961">
        <ele>1439.4</ele>
      </trkpt>
      <trkpt lat="44.57197" lon="3.06912">
        <ele>1432.9</ele>
      </trkpt>
      <trkpt lat="44.57378" lon="3.06826">
        <ele>1412.3</ele>
      </trkpt>
      <trkpt lat="44.57414" lon="3.06738">
        <ele>1406.6</ele>
      </trkpt>
      <trkpt lat="44.57532" lon="3.06652">
        <ele>1396.2</ele>
      </trkpt>
      <trkpt lat="44.57658" lon="3.06578">
        <ele>1385</ele>
      </trkpt>
      <trkpt lat="44.57653" lon="3.0659">
        <ele>1385.7</ele>
      </trkpt>
      <trkpt lat="44.57746" lon="3.06469">
        <ele>1378.1</ele>
      </trkpt>
      <trkpt lat="44.57808" lon="3.06391">
        <ele>1373.1</ele>
      </trkpt>
      <trkpt lat="44.57835" lon="3.06363">
        <ele>1373</ele>
      </trkpt>
      <trkpt lat="44.57908" lon="3.062">
        <ele>1369.6</ele>
      </trkpt>
      <trkpt lat="44.57965" lon="3.06113">
        <ele>1367.2</ele>
      </trkpt>
      <trkpt lat="44.58123" lon="3.05977">
        <ele>1364.1</ele>
      </trkpt>
      <trkpt lat="44.58306" lon="3.05847">
        <ele>1367.5</ele>
      </trkpt>
      <trkpt lat="44.58688" lon="3.05581">
        <ele>1364.5</ele>
      </trkpt>
      <trkpt lat="44.58892" lon="3.05279">
        <ele>1356.8</ele>
      </trkpt>
      <trkpt lat="44.59035" lon="3.05066">
        <ele>1347</ele>
      </trkpt>
      <trkpt lat="44.59067" lon="3.04991">
        <ele>1342.2</ele>
      </trkpt>
      <trkpt lat="44.59421" lon="3.0414">
        <ele>1325.9</ele>
      </trkpt>
      <trkpt lat="44.59508" lon="3.03933">
        <ele>1332.1</ele>
      </trkpt>
      <trkpt lat="44.59581" lon="3.03676">
        <ele>1336.1</ele>
      </trkpt>
      <trkpt lat="44.59643" lon="3.03463">
        <ele>1345.3</ele>
      </trkpt>
      <trkpt lat="44.59721" lon="3.03291">
        <ele>1344.5</ele>
      </trkpt>
      <trkpt lat="44.59762" lon="3.03225">
        <ele>1343.2</ele>
      </trkpt>
      <trkpt lat="44.59759" lon="3.03222">
        <ele>1343</ele>
      </trkpt>
      <trkpt lat="44.59764" lon="3.03216">
        <ele>1342.7</ele>
      </trkpt>
      <trkpt lat="44.59825" lon="3.03182">
        <ele>1338.2</ele>
      </trkpt>
      <trkpt lat="44.60041" lon="3.03122">
        <ele>1319.9</ele>
      </trkpt>
      <trkpt lat="44.60087" lon="3.03069">
        <ele>1319.8</ele>
      </trkpt>
      <trkpt lat="44.60148" lon="3.02981">
        <ele>1319.1</ele>
      </trkpt>
      <trkpt lat="44.60262" lon="3.03014">
        <ele>1319</ele>
      </trkpt>
      <trkpt lat="44.60262" lon="3.03036">
        <ele>1319</ele>
      </trkpt>
      <trkpt lat="44.60253" lon="3.03137">
        <ele>1315</ele>
      </trkpt>
      <trkpt lat="44.60374" lon="3.03113">
        <ele>1311.4</ele>
      </trkpt>
      <trkpt lat="44.60589" lon="3.03204">
        <ele>1303.1</ele>
      </trkpt>
      <trkpt lat="44.608" lon="3.03351">
        <ele>1304.8</ele>
      </trkpt>
      <trkpt lat="44.60984" lon="3.03442">
        <ele>1295.4</ele>
      </trkpt>
      <trkpt lat="44.6114" lon="3.03639">
        <ele>1283</ele>
      </trkpt>
      <trkpt lat="44.61283" lon="3.03792">
        <ele>1272.6</ele>
      </trkpt>
      <trkpt lat="44.61413" lon="3.03863">
        <ele>1275.5</ele>
      </trkpt>
      <trkpt lat="44.61582" lon="3.04117">
        <ele>1265.5</ele>
      </trkpt>
      <trkpt lat="44.61649" lon="3.04225">
        <ele>1259.1</ele>
      </trkpt>
      <trkpt lat="44.61922" lon="3.04304">
        <ele>1256.6</ele>
      </trkpt>
      <trkpt lat="44.61974" lon="3.04663">
        <ele>1262.3</ele>
      </trkpt>
      <trkpt lat="44.62076" lon="3.04967">
        <ele>1256.5</ele>
      </trkpt>
      <trkpt lat="44.62307" lon="3.05372">
        <ele>1253.3</ele>
      </trkpt>
      <trkpt lat="44.62306" lon="3.05423">
        <ele>1255.1</ele>
      </trkpt>
      <trkpt lat="44.62175" lon="3.05572">
        <ele>1261.4</ele>
      </trkpt>
      <trkpt lat="44.62116" lon="3.05716">
        <ele>1260.9</ele>
      </trkpt>
      <trkpt lat="44.62111" lon="3.05823">
        <ele>1263.9</ele>
      </trkpt>
      <trkpt lat="44.62224" lon="3.06284">
        <ele>1259.9</ele>
      </trkpt>
      <trkpt lat="44.62245" lon="3.066">
        <ele>1224.9</ele>
      </trkpt>
      <trkpt lat="44.62262" lon="3.06782">
        <ele>1228.3</ele>
      </trkpt>
      <trkpt lat="44.6231" lon="3.06922">
        <ele>1226.1</ele>
      </trkpt>
      <trkpt lat="44.62328" lon="3.07004">
        <ele>1220.5</ele>
      </trkpt>
      <trkpt lat="44.6226" lon="3.07097">
        <ele>1227.2</ele>
      </trkpt>
      <trkpt lat="44.62241" lon="3.07166">
        <ele>1230</ele>
      </trkpt>
      <trkpt lat="44.62226" lon="3.07349">
        <ele>1238.4</ele>
      </trkpt>
      <trkpt lat="44.62203" lon="3.07474">
        <ele>1228.7</ele>
      </trkpt>
      <trkpt lat="44.62125" lon="3.07725">
        <ele>1231.5</ele>
      </trkpt>
      <trkpt lat="44.6171" lon="3.07839">
        <ele>1224.9</ele>
      </trkpt>
      <trkpt lat="44.61719" lon="3.07839">
        <ele>1224.8</ele>
      </trkpt>
      <trkpt lat="44.61684" lon="3.0782">
        <ele>1226</ele>
      </trkpt>
      <trkpt lat="44.61639" lon="3.07738">
        <ele>1243.3</ele>
      </trkpt>
      <trkpt lat="44.61572" lon="3.07718">
        <ele>1251.1</ele>
      </trkpt>
      <trkpt lat="44.61544" lon="3.07887">
        <ele>1250.4</ele>
      </trkpt>
      <trkpt lat="44.61603" lon="3.08442">
        <ele>1253.9</ele>
      </trkpt>
      <trkpt lat="44.61657" lon="3.08468">
        <ele>1253.9</ele>
      </trkpt>
      <trkpt lat="44.61731" lon="3.0874">
        <ele>1258</ele>
      </trkpt>
      <trkpt lat="44.61762" lon="3.08803">
        <ele>1259.9</ele>
      </trkpt>
      <trkpt lat="44.61787" lon="3.09081">
        <ele>1268.8</ele>
      </trkpt>
      <trkpt lat="44.61823" lon="3.09125">
        <ele>1265.4</ele>
      </trkpt>
      <trkpt lat="44.61872" lon="3.09195">
        <ele>1265.8</ele>
      </trkpt>
      <trkpt lat="44.62015" lon="3.09279">
        <ele>1257.9</ele>
      </trkpt>
      <trkpt lat="44.6201" lon="3.09398">
        <ele>1256.9</ele>
      </trkpt>
      <trkpt lat="44.62085" lon="3.09607">
        <ele>1257.8</ele>
      </trkpt>
      <trkpt lat="44.62184" lon="3.09659">
        <ele>1256.2</ele>
      </trkpt>
      <trkpt lat="44.62377" lon="3.09668">
        <ele>1251.7</ele>
      </trkpt>
      <trkpt lat="44.62499" lon="3.09651">
        <ele>1247.8</ele>
      </trkpt>
      <trkpt lat="44.62719" lon="3.09685">
        <ele>1240.2</ele>
      </trkpt>
      <trkpt lat="44.62881" lon="3.09687">
        <ele>1237.7</ele>
      </trkpt>
      <trkpt lat="44.62966" lon="3.09739">
        <ele>1230.1</ele>
      </trkpt>
      <trkpt lat="44.63002" lon="3.0972">
        <ele>1229.9</ele>
      </trkpt>
      <trkpt lat="44.63235" lon="3.09774">
        <ele>1228.5</ele>
      </trkpt>
      <trkpt lat="44.63281" lon="3.09699">
        <ele>1225.7</ele>
      </trkpt>
      <trkpt lat="44.63572" lon="3.09886">
        <ele>1204.8</ele>
      </trkpt>
      <trkpt lat="44.63643" lon="3.09924">
        <ele>1201.7</ele>
      </trkpt>
      <trkpt lat="44.63746" lon="3.09982">
        <ele>1195.6</ele>
      </trkpt>
      <trkpt lat="44.63805" lon="3.09977">
        <ele>1192.4</ele>
      </trkpt>
      <trkpt lat="44.63957" lon="3.10061">
        <ele>1187.7</ele>
      </trkpt>
      <trkpt lat="44.63998" lon="3.10074">
        <ele>1184.5</ele>
      </trkpt>
      <trkpt lat="44.64038" lon="3.1015">
        <ele>1179.4</ele>
      </trkpt>
      <trkpt lat="44.64173" lon="3.10114">
        <ele>1180.7</ele>
      </trkpt>
      <trkpt lat="44.64392" lon="3.10325">
        <ele>1177.7</ele>
      </trkpt>
      <trkpt lat="44.6453" lon="3.1044">
        <ele>1181.1</ele>
      </trkpt>
      <trkpt lat="44.6462" lon="3.10492">
        <ele>1184.7</ele>
      </trkpt>
      <trkpt lat="44.64638" lon="3.10517">
        <ele>1187.2</ele>
      </trkpt>
      <trkpt lat="44.64732" lon="3.10538">
        <ele>1191.4</ele>
      </trkpt>
      <trkpt lat="44.64822" lon="3.10532">
        <ele>1193</ele>
      </trkpt>
      <trkpt lat="44.64926" lon="3.10477">
        <ele>1189.4</ele>
      </trkpt>
      <trkpt lat="44.6499" lon="3.10302">
        <ele>1180.4</ele>
      </trkpt>
      <trkpt lat="44.65112" lon="3.10158">
        <ele>1178.5</ele>
      </trkpt>
      <trkpt lat="44.6523" lon="3.10053">
        <ele>1175.9</ele>
      </trkpt>
      <trkpt lat="44.65303" lon="3.09833">
        <ele>1167.9</ele>
      </trkpt>
      <trkpt lat="44.65341" lon="3.09676">
        <ele>1168.7</ele>
      </trkpt>
      <trkpt lat="44.65337" lon="3.09519">
        <ele>1171.5</ele>
      </trkpt>
      <trkpt lat="44.65483" lon="3.09168">
        <ele>1159.5</ele>
      </trkpt>
      <trkpt lat="44.6553" lon="3.08929">
        <ele>1151</ele>
      </trkpt>
      <trkpt lat="44.65436" lon="3.08821">
        <ele>1153.9</ele>
      </trkpt>
      <trkpt lat="44.65378" lon="3.08732">
        <ele>1156.5</ele>
      </trkpt>
      <trkpt lat="44.65204" lon="3.08597">
        <ele>1157</ele>
      </trkpt>
      <trkpt lat="44.65102" lon="3.08451">
        <ele>1157.2</ele>
      </trkpt>
      <trkpt lat="44.65076" lon="3.08287">
        <ele>1155.4</ele>
      </trkpt>
      <trkpt lat="44.65018" lon="3.08173">
        <ele>1155.8</ele>
      </trkpt>
      <trkpt lat="44.65018" lon="3.08122">
        <ele>1157</ele>
      </trkpt>
      <trkpt lat="44.65046" lon="3.08072">
        <ele>1158.1</ele>
      </trkpt>
      <trkpt lat="44.6501" lon="3.07971">
        <ele>1159.6</ele>
      </trkpt>
      <trkpt lat="44.64963" lon="3.07693">
        <ele>1161.3</ele>
      </trkpt>
      <trkpt lat="44.64883" lon="3.07478">
        <ele>1168.4</ele>
      </trkpt>
      <trkpt lat="44.64808" lon="3.07307">
        <ele>1177.8</ele>
      </trkpt>
      <trkpt lat="44.64813" lon="3.07269">
        <ele>1179.1</ele>
      </trkpt>
      <trkpt lat="44.64849" lon="3.07207">
        <ele>1187.9</ele>
      </trkpt>
      <trkpt lat="44.64899" lon="3.07157">
        <ele>1191.5</ele>
      </trkpt>
      <trkpt lat="44.64809" lon="3.07131">
        <ele>1203.4</ele>
      </trkpt>
      <trkpt lat="44.64706" lon="3.07047">
        <ele>1210.9</ele>
      </trkpt>
      <trkpt lat="44.64626" lon="3.06939">
        <ele>1212.2</ele>
      </trkpt>
      <trkpt lat="44.64694" lon="3.06789">
        <ele>1217</ele>
      </trkpt>
      <trkpt lat="44.64795" lon="3.06551">
        <ele>1218.7</ele>
      </trkpt>
      <trkpt lat="44.6484" lon="3.06469">
        <ele>1223.7</ele>
      </trkpt>
      <trkpt lat="44.6503" lon="3.0644">
        <ele>1223.9</ele>
      </trkpt>
      <trkpt lat="44.65057" lon="3.0639">
        <ele>1223.1</ele>
      </trkpt>
      <trkpt lat="44.65093" lon="3.06372">
        <ele>1223.7</ele>
      </trkpt>
      <trkpt lat="44.65175" lon="3.06272">
        <ele>1218.4</ele>
      </trkpt>
      <trkpt lat="44.6531" lon="3.06242">
        <ele>1215.8</ele>
      </trkpt>
      <trkpt lat="44.65337" lon="3.0618">
        <ele>1218.8</ele>
      </trkpt>
      <trkpt lat="44.65405" lon="3.06174">
        <ele>1217.8</ele>
      </trkpt>
      <trkpt lat="44.65508" lon="3.06214">
        <ele>1205.2</ele>
      </trkpt>
      <trkpt lat="44.65558" lon="3.06107">
        <ele>1205.1</ele>
      </trkpt>
      <trkpt lat="44.65653" lon="3.05976">
        <ele>1209.5</ele>
      </trkpt>
      <trkpt lat="44.6568" lon="3.05926">
        <ele>1210.7</ele>
      </trkpt>
      <trkpt lat="44.65695" lon="3.05838">
        <ele>1213.9</ele>
      </trkpt>
      <trkpt lat="44.65619" lon="3.05761">
        <ele>1211.5</ele>
      </trkpt>
      <trkpt lat="44.65677" lon="3.05775">
        <ele>1215.7</ele>
      </trkpt>
      <trkpt lat="44.65753" lon="3.05795">
        <ele>1222.3</ele>
      </trkpt>
      <trkpt lat="44.65844" lon="3.05632">
        <ele>1205.9</ele>
      </trkpt>
      <trkpt lat="44.65849" lon="3.05544">
        <ele>1204.3</ele>
      </trkpt>
      <trkpt lat="44.65913" lon="3.05406">
        <ele>1196.9</ele>
      </trkpt>
      <trkpt lat="44.65941" lon="3.05306">
        <ele>1190.1</ele>
      </trkpt>
      <trkpt lat="44.65932" lon="3.0523">
        <ele>1187.7</ele>
      </trkpt>
      <trkpt lat="44.66019" lon="3.05117">
        <ele>1184.3</ele>
      </trkpt>
      <trkpt lat="44.66123" lon="3.04999">
        <ele>1178</ele>
      </trkpt>
      <trkpt lat="44.66173" lon="3.04918">
        <ele>1174.1</ele>
      </trkpt>
      <trkpt lat="44.66178" lon="3.04786">
        <ele>1170.5</ele>
      </trkpt>
      <trkpt lat="44.66179" lon="3.0471">
        <ele>1169.6</ele>
      </trkpt>
      <trkpt lat="44.66215" lon="3.04673">
        <ele>1172</ele>
      </trkpt>
      <trkpt lat="44.66255" lon="3.04654">
        <ele>1177.8</ele>
      </trkpt>
      <trkpt lat="44.66274" lon="3.04503">
        <ele>1181</ele>
      </trkpt>
      <trkpt lat="44.66248" lon="3.04339">
        <ele>1179.7</ele>
      </trkpt>
      <trkpt lat="44.66173" lon="3.04206">
        <ele>1181.7</ele>
      </trkpt>
      <trkpt lat="44.66003" lon="3.03964">
        <ele>1188</ele>
      </trkpt>
      <trkpt lat="44.65986" lon="3.03945">
        <ele>1191.4</ele>
      </trkpt>
      <trkpt lat="44.6599" lon="3.03888">
        <ele>1199.4</ele>
      </trkpt>
      <trkpt lat="44.66031" lon="3.03851">
        <ele>1204.8</ele>
      </trkpt>
      <trkpt lat="44.65942" lon="3.03661">
        <ele>1212</ele>
      </trkpt>
      <trkpt lat="44.65819" lon="3.03275">
        <ele>1217</ele>
      </trkpt>
      <trkpt lat="44.65816" lon="3.03092">
        <ele>1213.1</ele>
      </trkpt>
      <trkpt lat="44.65807" lon="3.02954">
        <ele>1208.4</ele>
      </trkpt>
      <trkpt lat="44.65727" lon="3.02827">
        <ele>1211.8</ele>
      </trkpt>
      <trkpt lat="44.6571" lon="3.02745">
        <ele>1212.8</ele>
      </trkpt>
      <trkpt lat="44.65701" lon="3.02663">
        <ele>1216.2</ele>
      </trkpt>
      <trkpt lat="44.65639" lon="3.02555">
        <ele>1224.2</ele>
      </trkpt>
      <trkpt lat="44.65622" lon="3.02435">
        <ele>1234.3</ele>
      </trkpt>
      <trkpt lat="44.65573" lon="3.02321">
        <ele>1240.9</ele>
      </trkpt>
      <trkpt lat="44.65574" lon="3.02132">
        <ele>1236.2</ele>
      </trkpt>
      <trkpt lat="44.65588" lon="3.02031">
        <ele>1236.3</ele>
      </trkpt>
      <trkpt lat="44.65545" lon="3.01823">
        <ele>1225.2</ele>
      </trkpt>
      <trkpt lat="44.65523" lon="3.0164">
        <ele>1221</ele>
      </trkpt>
      <trkpt lat="44.65461" lon="3.01469">
        <ele>1215.2</ele>
      </trkpt>
      <trkpt lat="44.65489" lon="3.01381">
        <ele>1214.4</ele>
      </trkpt>
      <trkpt lat="44.65378" lon="3.01065">
        <ele>1236.5</ele>
      </trkpt>
      <trkpt lat="44.65407" lon="3.00876">
        <ele>1255.1</ele>
      </trkpt>
      <trkpt lat="44.65399" lon="3.00693">
        <ele>1273.7</ele>
      </trkpt>
      <trkpt lat="44.65318" lon="3.00579">
        <ele>1272.6</ele>
      </trkpt>
      <trkpt lat="44.6526" lon="3.00559">
        <ele>1274.4</ele>
      </trkpt>
      <trkpt lat="44.65144" lon="3.0047">
        <ele>1284.9</ele>
      </trkpt>
      <trkpt lat="44.65054" lon="3.00462">
        <ele>1293.8</ele>
      </trkpt>
      <trkpt lat="44.64986" lon="3.00443">
        <ele>1295.7</ele>
      </trkpt>
      <trkpt lat="44.64884" lon="3.00246">
        <ele>1294.6</ele>
      </trkpt>
      <trkpt lat="44.6484" lon="3.00057">
        <ele>1290.1</ele>
      </trkpt>
      <trkpt lat="44.64851" lon="2.99855">
        <ele>1295.2</ele>
      </trkpt>
      <trkpt lat="44.64833" lon="2.99798">
        <ele>1295.2</ele>
      </trkpt>
      <trkpt lat="44.64857" lon="2.99572">
        <ele>1302.1</ele>
      </trkpt>
      <trkpt lat="44.64857" lon="2.99477">
        <ele>1303.2</ele>
      </trkpt>
      <trkpt lat="44.64826" lon="2.99407">
        <ele>1301.4</ele>
      </trkpt>
      <trkpt lat="44.6477" lon="2.99048">
        <ele>1314.6</ele>
      </trkpt>
      <trkpt lat="44.64408" lon="2.9864">
        <ele>1314.8</ele>
      </trkpt>
      <trkpt lat="44.64151" lon="2.98757">
        <ele>1304.2</ele>
      </trkpt>
      <trkpt lat="44.63767" lon="2.99068">
        <ele>1337.1</ele>
      </trkpt>
      <trkpt lat="44.63563" lon="2.99292">
        <ele>1357.7</ele>
      </trkpt>
      <trkpt lat="44.63455" lon="2.99391">
        <ele>1363.5</ele>
      </trkpt>
      <trkpt lat="44.63351" lon="2.9939">
        <ele>1368.9</ele>
      </trkpt>
      <trkpt lat="44.63123" lon="2.99224">
        <ele>1360.5</ele>
      </trkpt>
      <trkpt lat="44.63029" lon="2.99084">
        <ele>1357.2</ele>
      </trkpt>
      <trkpt lat="44.62882" lon="2.98881">
        <ele>1346.9</ele>
      </trkpt>
      <trkpt lat="44.62775" lon="2.98804">
        <ele>1341.5</ele>
      </trkpt>
      <trkpt lat="44.62622" lon="2.98771">
        <ele>1315.6</ele>
      </trkpt>
      <trkpt lat="44.62631" lon="2.98771">
        <ele>1316.9</ele>
      </trkpt>
      <trkpt lat="44.62617" lon="2.98872">
        <ele>1314.5</ele>
      </trkpt>
      <trkpt lat="44.62589" lon="2.98997">
        <ele>1316.4</ele>
      </trkpt>
      <trkpt lat="44.62611" lon="2.99123">
        <ele>1318.4</ele>
      </trkpt>
      <trkpt lat="44.62543" lon="2.99242">
        <ele>1320.4</ele>
      </trkpt>
      <trkpt lat="44.62434" lon="2.99348">
        <ele>1323.3</ele>
      </trkpt>
      <trkpt lat="44.62397" lon="2.99499">
        <ele>1325.6</ele>
      </trkpt>
      <trkpt lat="44.62397" lon="2.99612">
        <ele>1327.9</ele>
      </trkpt>
      <trkpt lat="44.6244" lon="2.99852">
        <ele>1331.5</ele>
      </trkpt>
      <trkpt lat="44.6243" lon="3.00022">
        <ele>1332.6</ele>
      </trkpt>
      <trkpt lat="44.62415" lon="3.00261">
        <ele>1336.4</ele>
      </trkpt>
      <trkpt lat="44.62451" lon="3.00375">
        <ele>1338.6</ele>
      </trkpt>
      <trkpt lat="44.62548" lon="3.00596">
        <ele>1338.6</ele>
      </trkpt>
      <trkpt lat="44.62611" lon="3.00647">
        <ele>1340</ele>
      </trkpt>
      <trkpt lat="44.62479" lon="3.00904">
        <ele>1331.2</ele>
      </trkpt>
      <trkpt lat="44.62279" lon="3.0116">
        <ele>1324.1</ele>
      </trkpt>
      <trkpt lat="44.62058" lon="3.01396">
        <ele>1316.7</ele>
      </trkpt>
      <trkpt lat="44.61931" lon="3.01489">
        <ele>1311.1</ele>
      </trkpt>
      <trkpt lat="44.61895" lon="3.0152">
        <ele>1312.7</ele>
      </trkpt>
      <trkpt lat="44.61707" lon="3.0131">
        <ele>1311.1</ele>
      </trkpt>
      <trkpt lat="44.61573" lon="3.01258">
        <ele>1304.4</ele>
      </trkpt>
      <trkpt lat="44.61537" lon="3.01251">
        <ele>1300.1</ele>
      </trkpt>
      <trkpt lat="44.61555" lon="3.01289">
        <ele>1306.2</ele>
      </trkpt>
      <trkpt lat="44.61707" lon="3.01335">
        <ele>1314.3</ele>
      </trkpt>
      <trkpt lat="44.61881" lon="3.01539">
        <ele>1314.3</ele>
      </trkpt>
      <trkpt lat="44.61827" lon="3.01557">
        <ele>1319.5</ele>
      </trkpt>
      <trkpt lat="44.61755" lon="3.01563">
        <ele>1323.9</ele>
      </trkpt>
      <trkpt lat="44.61692" lon="3.01581">
        <ele>1328</ele>
      </trkpt>
      <trkpt lat="44.61602" lon="3.0158">
        <ele>1332.2</ele>
      </trkpt>
      <trkpt lat="44.61544" lon="3.01629">
        <ele>1335.9</ele>
      </trkpt>
      <trkpt lat="44.61494" lon="3.01604">
        <ele>1338.1</ele>
      </trkpt>
      <trkpt lat="44.61503" lon="3.01604">
        <ele>1337.4</ele>
      </trkpt>
      <trkpt lat="44.61463" lon="3.01591">
        <ele>1339.3</ele>
      </trkpt>
      <trkpt lat="44.61201" lon="3.01801">
        <ele>1342.1</ele>
      </trkpt>
      <trkpt lat="44.61142" lon="3.01838">
        <ele>1338</ele>
      </trkpt>
      <trkpt lat="44.60921" lon="3.01874">
        <ele>1337.3</ele>
      </trkpt>
      <trkpt lat="44.60566" lon="3.01907">
        <ele>1340.1</ele>
      </trkpt>
      <trkpt lat="44.60548" lon="3.01907">
        <ele>1340.3</ele>
      </trkpt>
      <trkpt lat="44.60557" lon="3.01894">
        <ele>1339.4</ele>
      </trkpt>
      <trkpt lat="44.60553" lon="3.01907">
        <ele>1340.3</ele>
      </trkpt>
      <trkpt lat="44.60553" lon="3.01882">
        <ele>1338.5</ele>
      </trkpt>
      <trkpt lat="44.60557" lon="3.01888">
        <ele>1338.9</ele>
      </trkpt>
      <trkpt lat="44.60545" lon="3.01712">
        <ele>1324.7</ele>
      </trkpt>
      <trkpt lat="44.60546" lon="3.01523">
        <ele>1316.6</ele>
      </trkpt>
      <trkpt lat="44.60502" lon="3.01403">
        <ele>1308.7</ele>
      </trkpt>
      <trkpt lat="44.60481" lon="3.01063">
        <ele>1294.3</ele>
      </trkpt>
      <trkpt lat="44.60477" lon="3.01044">
        <ele>1293.1</ele>
      </trkpt>
      <trkpt lat="44.60463" lon="3.01037">
        <ele>1292.9</ele>
      </trkpt>
      <trkpt lat="44.60468" lon="3.01037">
        <ele>1292.8</ele>
      </trkpt>
      <trkpt lat="44.6047" lon="3.01047">
        <ele>1293.4</ele>
      </trkpt>
      <trkpt lat="44.60334" lon="3.00853">
        <ele>1283.9</ele>
      </trkpt>
      <trkpt lat="44.60265" lon="3.00717">
        <ele>1280.9</ele>
      </trkpt>
      <trkpt lat="44.60239" lon="3.00628">
        <ele>1275.9</ele>
      </trkpt>
      <trkpt lat="44.60258" lon="3.00474">
        <ele>1267.2</ele>
      </trkpt>
      <trkpt lat="44.6022" lon="3.00348">
        <ele>1255.4</ele>
      </trkpt>
      <trkpt lat="44.60207" lon="3.0031">
        <ele>1253.4</ele>
      </trkpt>
      <trkpt lat="44.60212" lon="3.00238">
        <ele>1253</ele>
      </trkpt>
      <trkpt lat="44.60231" lon="3.00109">
        <ele>1247.3</ele>
      </trkpt>
      <trkpt lat="44.60249" lon="3.00078">
        <ele>1244.8</ele>
      </trkpt>
      <trkpt lat="44.60312" lon="3.00082">
        <ele>1247.4</ele>
      </trkpt>
      <trkpt lat="44.60371" lon="2.99979">
        <ele>1238.6</ele>
      </trkpt>
      <trkpt lat="44.60432" lon="2.99926">
        <ele>1233.9</ele>
      </trkpt>
      <trkpt lat="44.60515" lon="2.9993">
        <ele>1224</ele>
      </trkpt>
      <trkpt lat="44.60553" lon="2.99927">
        <ele>1218.6</ele>
      </trkpt>
      <trkpt lat="44.60587" lon="2.99912">
        <ele>1214.4</ele>
      </trkpt>
      <trkpt lat="44.60637" lon="2.99906">
        <ele>1210.4</ele>
      </trkpt>
      <trkpt lat="44.60689" lon="2.99803">
        <ele>1206.9</ele>
      </trkpt>
      <trkpt lat="44.6071" lon="2.99709">
        <ele>1202.5</ele>
      </trkpt>
      <trkpt lat="44.60746" lon="2.99681">
        <ele>1201.9</ele>
      </trkpt>
      <trkpt lat="44.60787" lon="2.99618">
        <ele>1200.3</ele>
      </trkpt>
      <trkpt lat="44.60836" lon="2.99587">
        <ele>1202.1</ele>
      </trkpt>
      <trkpt lat="44.60916" lon="2.99491">
        <ele>1203.5</ele>
      </trkpt>
      <trkpt lat="44.60956" lon="2.99453">
        <ele>1207.6</ele>
      </trkpt>
      <trkpt lat="44.61027" lon="2.99376">
        <ele>1215.2</ele>
      </trkpt>
      <trkpt lat="44.61085" lon="2.99294">
        <ele>1227.4</ele>
      </trkpt>
      <trkpt lat="44.61113" lon="2.99273">
        <ele>1231.4</ele>
      </trkpt>
      <trkpt lat="44.6121" lon="2.9923">
        <ele>1235.8</ele>
      </trkpt>
      <trkpt lat="44.61291" lon="2.99212">
        <ele>1236.1</ele>
      </trkpt>
      <trkpt lat="44.61414" lon="2.99204">
        <ele>1236.4</ele>
      </trkpt>
      <trkpt lat="44.61432" lon="2.99201">
        <ele>1236.1</ele>
      </trkpt>
      <trkpt lat="44.61471" lon="2.99167">
        <ele>1235</ele>
      </trkpt>
      <trkpt lat="44.61511" lon="2.9917">
        <ele>1236.1</ele>
      </trkpt>
      <trkpt lat="44.61574" lon="2.99231">
        <ele>1235.6</ele>
      </trkpt>
      <trkpt lat="44.61594" lon="2.99228">
        <ele>1234.8</ele>
      </trkpt>
      <trkpt lat="44.61648" lon="2.99159">
        <ele>1241.2</ele>
      </trkpt>
      <trkpt lat="44.61696" lon="2.99135">
        <ele>1247.6</ele>
      </trkpt>
      <trkpt lat="44.61728" lon="2.99091">
        <ele>1255.7</ele>
      </trkpt>
      <trkpt lat="44.618" lon="2.9906">
        <ele>1264.7</ele>
      </trkpt>
      <trkpt lat="44.6187" lon="2.99005">
        <ele>1272.6</ele>
      </trkpt>
      <trkpt lat="44.61893" lon="2.9891">
        <ele>1281.4</ele>
      </trkpt>
      <trkpt lat="44.61902" lon="2.98854">
        <ele>1285.2</ele>
      </trkpt>
      <trkpt lat="44.61961" lon="2.98792">
        <ele>1291.4</ele>
      </trkpt>
      <trkpt lat="44.62026" lon="2.98755">
        <ele>1298.5</ele>
      </trkpt>
      <trkpt lat="44.62042" lon="2.98711">
        <ele>1298.4</ele>
      </trkpt>
      <trkpt lat="44.6211" lon="2.98705">
        <ele>1300.5</ele>
      </trkpt>
      <trkpt lat="44.62157" lon="2.98687">
        <ele>1304.2</ele>
      </trkpt>
      <trkpt lat="44.62164" lon="2.98652">
        <ele>1306.9</ele>
      </trkpt>
      <trkpt lat="44.6216" lon="2.98589">
        <ele>1308.5</ele>
      </trkpt>
      <trkpt lat="44.62138" lon="2.98463">
        <ele>1311.6</ele>
      </trkpt>
      <trkpt lat="44.62094" lon="2.98371">
        <ele>1313.8</ele>
      </trkpt>
      <trkpt lat="44.62061" lon="2.98254">
        <ele>1319.1</ele>
      </trkpt>
      <trkpt lat="44.61987" lon="2.98184">
        <ele>1316.5</ele>
      </trkpt>
      <trkpt lat="44.61954" lon="2.9808">
        <ele>1313.8</ele>
      </trkpt>
      <trkpt lat="44.61907" lon="2.97938">
        <ele>1310</ele>
      </trkpt>
      <trkpt lat="44.61899" lon="2.97812">
        <ele>1307.2</ele>
      </trkpt>
      <trkpt lat="44.61893" lon="2.97736">
        <ele>1306.7</ele>
      </trkpt>
      <trkpt lat="44.61815" lon="2.97531">
        <ele>1298.3</ele>
      </trkpt>
      <trkpt lat="44.61791" lon="2.97477">
        <ele>1292.2</ele>
      </trkpt>
      <trkpt lat="44.61791" lon="2.9743">
        <ele>1287</ele>
      </trkpt>
      <trkpt lat="44.61851" lon="2.97279">
        <ele>1271.6</ele>
      </trkpt>
      <trkpt lat="44.61851" lon="2.97213">
        <ele>1260.6</ele>
      </trkpt>
      <trkpt lat="44.6184" lon="2.97159">
        <ele>1254.4</ele>
      </trkpt>
      <trkpt lat="44.61783" lon="2.96872">
        <ele>1238.6</ele>
      </trkpt>
      <trkpt lat="44.61497" lon="2.96646">
        <ele>1216.1</ele>
      </trkpt>
      <trkpt lat="44.61381" lon="2.96509">
        <ele>1207.4</ele>
      </trkpt>
      <trkpt lat="44.61226" lon="2.96391">
        <ele>1205</ele>
      </trkpt>
      <trkpt lat="44.61067" lon="2.96291">
        <ele>1196.2</ele>
      </trkpt>
      <trkpt lat="44.61024" lon="2.96281">
        <ele>1194</ele>
      </trkpt>
      <trkpt lat="44.61024" lon="2.96275">
        <ele>1193.8</ele>
      </trkpt>
      <trkpt lat="44.61009" lon="2.96231">
        <ele>1192.3</ele>
      </trkpt>
      <trkpt lat="44.60985" lon="2.96146">
        <ele>1191.9</ele>
      </trkpt>
      <trkpt lat="44.60944" lon="2.96104">
        <ele>1192</ele>
      </trkpt>
      <trkpt lat="44.6092" lon="2.96088">
        <ele>1192.6</ele>
      </trkpt>
      <trkpt lat="44.60886" lon="2.96022">
        <ele>1194.3</ele>
      </trkpt>
      <trkpt lat="44.60824" lon="2.95898">
        <ele>1198.2</ele>
      </trkpt>
      <trkpt lat="44.60824" lon="2.9588">
        <ele>1197.1</ele>
      </trkpt>
      <trkpt lat="44.60847" lon="2.9588">
        <ele>1196</ele>
      </trkpt>
      <trkpt lat="44.60876" lon="2.95902">
        <ele>1197.3</ele>
      </trkpt>
      <trkpt lat="44.60909" lon="2.95937">
        <ele>1200.2</ele>
      </trkpt>
      <trkpt lat="44.60936" lon="2.95937">
        <ele>1201.6</ele>
      </trkpt>
      <trkpt lat="44.60984" lon="2.959">
        <ele>1205.5</ele>
      </trkpt>
      <trkpt lat="44.61011" lon="2.95863">
        <ele>1207.5</ele>
      </trkpt>
      <trkpt lat="44.6104" lon="2.95832">
        <ele>1209.7</ele>
      </trkpt>
      <trkpt lat="44.61094" lon="2.95804">
        <ele>1210.8</ele>
      </trkpt>
      <trkpt lat="44.61104" lon="2.95722">
        <ele>1215.5</ele>
      </trkpt>
      <trkpt lat="44.61131" lon="2.95694">
        <ele>1216.7</ele>
      </trkpt>
      <trkpt lat="44.61239" lon="2.95661">
        <ele>1222.7</ele>
      </trkpt>
      <trkpt lat="44.61305" lon="2.9563">
        <ele>1225.6</ele>
      </trkpt>
      <trkpt lat="44.61449" lon="2.95559">
        <ele>1227.8</ele>
      </trkpt>
      <trkpt lat="44.61582" lon="2.95476">
        <ele>1230.1</ele>
      </trkpt>
      <trkpt lat="44.6169" lon="2.95426">
        <ele>1230.4</ele>
      </trkpt>
      <trkpt lat="44.61724" lon="2.95405">
        <ele>1234.7</ele>
      </trkpt>
      <trkpt lat="44.61781" lon="2.95311">
        <ele>1230.6</ele>
      </trkpt>
      <trkpt lat="44.61814" lon="2.95314">
        <ele>1236.7</ele>
      </trkpt>
      <trkpt lat="44.61907" lon="2.95249">
        <ele>1235.4</ele>
      </trkpt>
      <trkpt lat="44.61966" lon="2.95171">
        <ele>1233.1</ele>
      </trkpt>
      <trkpt lat="44.62026" lon="2.95232">
        <ele>1226.2</ele>
      </trkpt>
      <trkpt lat="44.62127" lon="2.95393">
        <ele>1222.5</ele>
      </trkpt>
      <trkpt lat="44.62249" lon="2.95524">
        <ele>1208.8</ele>
      </trkpt>
      <trkpt lat="44.62316" lon="2.95606">
        <ele>1198.5</ele>
      </trkpt>
      <trkpt lat="44.62334" lon="2.95666">
        <ele>1198.8</ele>
      </trkpt>
      <trkpt lat="44.62343" lon="2.95692">
        <ele>1200.2</ele>
      </trkpt>
      <trkpt lat="44.62383" lon="2.95705">
        <ele>1193.5</ele>
      </trkpt>
      <trkpt lat="44.62426" lon="2.95724">
        <ele>1187.6</ele>
      </trkpt>
      <trkpt lat="44.62502" lon="2.95766">
        <ele>1178.9</ele>
      </trkpt>
      <trkpt lat="44.6249" lon="2.95593">
        <ele>1162.5</ele>
      </trkpt>
      <trkpt lat="44.62517" lon="2.95574">
        <ele>1160.9</ele>
      </trkpt>
      <trkpt lat="44.6251" lon="2.95495">
        <ele>1159</ele>
      </trkpt>
      <trkpt lat="44.62511" lon="2.95429">
        <ele>1157.3</ele>
      </trkpt>
      <trkpt lat="44.62536" lon="2.95366">
        <ele>1161.7</ele>
      </trkpt>
      <trkpt lat="44.62534" lon="2.953">
        <ele>1161.2</ele>
      </trkpt>
      <trkpt lat="44.6255" lon="2.95247">
        <ele>1162.7</ele>
      </trkpt>
      <trkpt lat="44.62559" lon="2.952">
        <ele>1161.1</ele>
      </trkpt>
      <trkpt lat="44.62587" lon="2.95162">
        <ele>1159.4</ele>
      </trkpt>
      <trkpt lat="44.62636" lon="2.95122">
        <ele>1154.8</ele>
      </trkpt>
      <trkpt lat="44.62684" lon="2.95091">
        <ele>1149.8</ele>
      </trkpt>
      <trkpt lat="44.62765" lon="2.95045">
        <ele>1144.7</ele>
      </trkpt>
      <trkpt lat="44.62745" lon="2.94912">
        <ele>1145</ele>
      </trkpt>
      <trkpt lat="44.6273" lon="2.94814">
        <ele>1139.2</ele>
      </trkpt>
      <trkpt lat="44.6276" lon="2.94704">
        <ele>1139.2</ele>
      </trkpt>
      <trkpt lat="44.62767" lon="2.94711">
        <ele>1140.6</ele>
      </trkpt>
      <trkpt lat="44.62765" lon="2.94645">
        <ele>1137.9</ele>
      </trkpt>
      <trkpt lat="44.62836" lon="2.94431">
        <ele>1154.1</ele>
      </trkpt>
      <trkpt lat="44.62904" lon="2.94199">
        <ele>1187.1</ele>
      </trkpt>
      <trkpt lat="44.62959" lon="2.94162">
        <ele>1195.1</ele>
      </trkpt>
      <trkpt lat="44.62968" lon="2.94162">
        <ele>1196</ele>
      </trkpt>
      <trkpt lat="44.63003" lon="2.94172">
        <ele>1199.1</ele>
      </trkpt>
      <trkpt lat="44.63241" lon="2.94351">
        <ele>1225.3</ele>
      </trkpt>
      <trkpt lat="44.63339" lon="2.94399">
        <ele>1230.3</ele>
      </trkpt>
      <trkpt lat="44.63405" lon="2.9439">
        <ele>1236</ele>
      </trkpt>
      <trkpt lat="44.63464" lon="2.94328">
        <ele>1243.8</ele>
      </trkpt>
      <trkpt lat="44.63493" lon="2.94303">
        <ele>1247.8</ele>
      </trkpt>
      <trkpt lat="44.63547" lon="2.9431">
        <ele>1252.6</ele>
      </trkpt>
      <trkpt lat="44.63661" lon="2.94333">
        <ele>1265.2</ele>
      </trkpt>
      <trkpt lat="44.63688" lon="2.94327">
        <ele>1269</ele>
      </trkpt>
      <trkpt lat="44.63756" lon="2.94271">
        <ele>1282.1</ele>
      </trkpt>
      <trkpt lat="44.63835" lon="2.94241">
        <ele>1291.4</ele>
      </trkpt>
      <trkpt lat="44.63842" lon="2.94184">
        <ele>1291.1</ele>
      </trkpt>
      <trkpt lat="44.63836" lon="2.94064">
        <ele>1294.9</ele>
      </trkpt>
      <trkpt lat="44.63821" lon="2.94011">
        <ele>1295.6</ele>
      </trkpt>
      <trkpt lat="44.63798" lon="2.93938">
        <ele>1291.4</ele>
      </trkpt>
      <trkpt lat="44.63794" lon="2.93878">
        <ele>1286.8</ele>
      </trkpt>
      <trkpt lat="44.6381" lon="2.93796">
        <ele>1285.2</ele>
      </trkpt>
      <trkpt lat="44.63874" lon="2.93712">
        <ele>1282.3</ele>
      </trkpt>
      <trkpt lat="44.63809" lon="2.93686">
        <ele>1273.9</ele>
      </trkpt>
      <trkpt lat="44.63773" lon="2.93648">
        <ele>1263</ele>
      </trkpt>
      <trkpt lat="44.63744" lon="2.93566">
        <ele>1248.9</ele>
      </trkpt>
      <trkpt lat="44.63707" lon="2.93452">
        <ele>1235.1</ele>
      </trkpt>
      <trkpt lat="44.63665" lon="2.93294">
        <ele>1217.7</ele>
      </trkpt>
      <trkpt lat="44.63638" lon="2.93199">
        <ele>1210.4</ele>
      </trkpt>
      <trkpt lat="44.6369" lon="2.93184">
        <ele>1208.4</ele>
      </trkpt>
      <trkpt lat="44.63722" lon="2.93162">
        <ele>1203.7</ele>
      </trkpt>
      <trkpt lat="44.63838" lon="2.93274">
        <ele>1205.1</ele>
      </trkpt>
      <trkpt lat="44.63872" lon="2.9329">
        <ele>1205.4</ele>
      </trkpt>
      <trkpt lat="44.6391" lon="2.93306">
        <ele>1206.3</ele>
      </trkpt>
      <trkpt lat="44.64016" lon="2.93295">
        <ele>1197</ele>
      </trkpt>
      <trkpt lat="44.64103" lon="2.93321">
        <ele>1190.1</ele>
      </trkpt>
      <trkpt lat="44.64152" lon="2.93369">
        <ele>1187.5</ele>
      </trkpt>
      <trkpt lat="44.64229" lon="2.93379">
        <ele>1160.7</ele>
      </trkpt>
      <trkpt lat="44.64287" lon="2.93395">
        <ele>1144.6</ele>
      </trkpt>
      <trkpt lat="44.64345" lon="2.93446">
        <ele>1140.5</ele>
      </trkpt>
      <trkpt lat="44.64361" lon="2.93421">
        <ele>1141</ele>
      </trkpt>
      <trkpt lat="44.64382" lon="2.9339">
        <ele>1143.7</ele>
      </trkpt>
      <trkpt lat="44.64404" lon="2.93368">
        <ele>1147.1</ele>
      </trkpt>
      <trkpt lat="44.64447" lon="2.9335">
        <ele>1154</ele>
      </trkpt>
      <trkpt lat="44.64474" lon="2.93328">
        <ele>1162.1</ele>
      </trkpt>
      <trkpt lat="44.64497" lon="2.93287">
        <ele>1173.8</ele>
      </trkpt>
      <trkpt lat="44.64479" lon="2.93202">
        <ele>1179</ele>
      </trkpt>
      <trkpt lat="44.64468" lon="2.93133">
        <ele>1184.6</ele>
      </trkpt>
      <trkpt lat="44.64494" lon="2.92982">
        <ele>1189.4</ele>
      </trkpt>
      <trkpt lat="44.64523" lon="2.93004">
        <ele>1191.3</ele>
      </trkpt>
      <trkpt lat="44.64588" lon="2.93127">
        <ele>1200.4</ele>
      </trkpt>
      <trkpt lat="44.64621" lon="2.93181">
        <ele>1207.8</ele>
      </trkpt>
      <trkpt lat="44.64625" lon="2.93266">
        <ele>1216.3</ele>
      </trkpt>
      <trkpt lat="44.64633" lon="2.93386">
        <ele>1226.8</ele>
      </trkpt>
      <trkpt lat="44.64651" lon="2.93459">
        <ele>1230.9</ele>
      </trkpt>
      <trkpt lat="44.64718" lon="2.93519">
        <ele>1243.6</ele>
      </trkpt>
      <trkpt lat="44.64756" lon="2.93583">
        <ele>1246.4</ele>
      </trkpt>
      <trkpt lat="44.64801" lon="2.93593">
        <ele>1249.5</ele>
      </trkpt>
      <trkpt lat="44.6485" lon="2.93656">
        <ele>1250.4</ele>
      </trkpt>
      <trkpt lat="44.64888" lon="2.93704">
        <ele>1257</ele>
      </trkpt>
      <trkpt lat="44.64926" lon="2.93679">
        <ele>1258.3</ele>
      </trkpt>
      <trkpt lat="44.64974" lon="2.93654">
        <ele>1261.6</ele>
      </trkpt>
      <trkpt lat="44.64971" lon="2.93651">
        <ele>1261.4</ele>
      </trkpt>
      <trkpt lat="44.65037" lon="2.93661">
        <ele>1265.2</ele>
      </trkpt>
      <trkpt lat="44.65079" lon="2.93693">
        <ele>1271.6</ele>
      </trkpt>
      <trkpt lat="44.65144" lon="2.93707">
        <ele>1276.6</ele>
      </trkpt>
      <trkpt lat="44.65192" lon="2.93701">
        <ele>1276.8</ele>
      </trkpt>
      <trkpt lat="44.65299" lon="2.93743">
        <ele>1284.3</ele>
      </trkpt>
      <trkpt lat="44.65378" lon="2.9376">
        <ele>1290.7</ele>
      </trkpt>
      <trkpt lat="44.65472" lon="2.93739">
        <ele>1292.9</ele>
      </trkpt>
      <trkpt lat="44.6558" lon="2.93749">
        <ele>1301.5</ele>
      </trkpt>
      <trkpt lat="44.65656" lon="2.93807">
        <ele>1310.5</ele>
      </trkpt>
      <trkpt lat="44.65686" lon="2.93829">
        <ele>1311</ele>
      </trkpt>
      <trkpt lat="44.65744" lon="2.9388">
        <ele>1306.9</ele>
      </trkpt>
      <trkpt lat="44.65818" lon="2.93903">
        <ele>1302.9</ele>
      </trkpt>
      <trkpt lat="44.65847" lon="2.93913">
        <ele>1306</ele>
      </trkpt>
      <trkpt lat="44.6589" lon="2.93882">
        <ele>1309.1</ele>
      </trkpt>
      <trkpt lat="44.65946" lon="2.93863">
        <ele>1314.3</ele>
      </trkpt>
      <trkpt lat="44.65969" lon="2.93835">
        <ele>1316.6</ele>
      </trkpt>
      <trkpt lat="44.6603" lon="2.93808">
        <ele>1324.2</ele>
      </trkpt>
      <trkpt lat="44.66052" lon="2.93786">
        <ele>1324.5</ele>
      </trkpt>
      <trkpt lat="44.66066" lon="2.93729">
        <ele>1323.8</ele>
      </trkpt>
      <trkpt lat="44.66089" lon="2.93688">
        <ele>1325.4</ele>
      </trkpt>
      <trkpt lat="44.66085" lon="2.93629">
        <ele>1323.9</ele>
      </trkpt>
      <trkpt lat="44.6606" lon="2.93584">
        <ele>1323.5</ele>
      </trkpt>
      <trkpt lat="44.66033" lon="2.9354">
        <ele>1323.3</ele>
      </trkpt>
      <trkpt lat="44.6597" lon="2.9329">
        <ele>1326.6</ele>
      </trkpt>
      <trkpt lat="44.65937" lon="2.93113">
        <ele>1333.5</ele>
      </trkpt>
      <trkpt lat="44.65863" lon="2.93069">
        <ele>1335.8</ele>
      </trkpt>
      <trkpt lat="44.65796" lon="2.9303">
        <ele>1334.6</ele>
      </trkpt>
      <trkpt lat="44.6574" lon="2.92982">
        <ele>1335.3</ele>
      </trkpt>
      <trkpt lat="44.6567" lon="2.92925">
        <ele>1340.5</ele>
      </trkpt>
      <trkpt lat="44.65643" lon="2.92896">
        <ele>1342.4</ele>
      </trkpt>
      <trkpt lat="44.65605" lon="2.92899">
        <ele>1343</ele>
      </trkpt>
      <trkpt lat="44.65531" lon="2.92948">
        <ele>1342.2</ele>
      </trkpt>
      <trkpt lat="44.65481" lon="2.92945">
        <ele>1343.6</ele>
      </trkpt>
      <trkpt lat="44.65457" lon="2.92929">
        <ele>1344</ele>
      </trkpt>
      <trkpt lat="44.65428" lon="2.92891">
        <ele>1343.7</ele>
      </trkpt>
      <trkpt lat="44.6543" lon="2.92825">
        <ele>1341.8</ele>
      </trkpt>
      <trkpt lat="44.65487" lon="2.92646">
        <ele>1341.4</ele>
      </trkpt>
      <trkpt lat="44.65555" lon="2.92508">
        <ele>1333.6</ele>
      </trkpt>
      <trkpt lat="44.65599" lon="2.92382">
        <ele>1330.1</ele>
      </trkpt>
      <trkpt lat="44.65635" lon="2.92329">
        <ele>1328.6</ele>
      </trkpt>
      <trkpt lat="44.65728" lon="2.92264">
        <ele>1327.7</ele>
      </trkpt>
      <trkpt lat="44.65773" lon="2.92211">
        <ele>1327.6</ele>
      </trkpt>
      <trkpt lat="44.65787" lon="2.92157">
        <ele>1322</ele>
      </trkpt>
      <trkpt lat="44.65827" lon="2.92114">
        <ele>1322.5</ele>
      </trkpt>
      <trkpt lat="44.65841" lon="2.92067">
        <ele>1319</ele>
      </trkpt>
      <trkpt lat="44.65898" lon="2.91973">
        <ele>1315.4</ele>
      </trkpt>
      <trkpt lat="44.65959" lon="2.9192">
        <ele>1313.7</ele>
      </trkpt>
      <trkpt lat="44.65977" lon="2.91891">
        <ele>1312.2</ele>
      </trkpt>
      <trkpt lat="44.66184" lon="2.91856">
        <ele>1302.4</ele>
      </trkpt>
      <trkpt lat="44.66243" lon="2.91775">
        <ele>1306.9</ele>
      </trkpt>
      <trkpt lat="44.66284" lon="2.91718">
        <ele>1306.4</ele>
      </trkpt>
      <trkpt lat="44.6632" lon="2.91719">
        <ele>1310.8</ele>
      </trkpt>
      <trkpt lat="44.66396" lon="2.91685">
        <ele>1317.3</ele>
      </trkpt>
      <trkpt lat="44.6641" lon="2.91672">
        <ele>1317.8</ele>
      </trkpt>
      <trkpt lat="44.66435" lon="2.9161">
        <ele>1314.5</ele>
      </trkpt>
      <trkpt lat="44.66485" lon="2.91566">
        <ele>1316.1</ele>
      </trkpt>
      <trkpt lat="44.66541" lon="2.91472">
        <ele>1311.5</ele>
      </trkpt>
      <trkpt lat="44.66591" lon="2.91413">
        <ele>1312.4</ele>
      </trkpt>
      <trkpt lat="44.66632" lon="2.91252">
        <ele>1316</ele>
      </trkpt>
      <trkpt lat="44.66667" lon="2.91089">
        <ele>1317</ele>
      </trkpt>
      <trkpt lat="44.66688" lon="2.90988">
        <ele>1313.5</ele>
      </trkpt>
      <trkpt lat="44.66677" lon="2.90859">
        <ele>1304.1</ele>
      </trkpt>
      <trkpt lat="44.66691" lon="2.90774">
        <ele>1296.8</ele>
      </trkpt>
      <trkpt lat="44.66723" lon="2.90633">
        <ele>1282.9</ele>
      </trkpt>
      <trkpt lat="44.66735" lon="2.90589">
        <ele>1282</ele>
      </trkpt>
      <trkpt lat="44.66787" lon="2.90523">
        <ele>1278.8</ele>
      </trkpt>
      <trkpt lat="44.66817" lon="2.90432">
        <ele>1274.7</ele>
      </trkpt>
      <trkpt lat="44.66875" lon="2.90357">
        <ele>1267.3</ele>
      </trkpt>
      <trkpt lat="44.66925" lon="2.90301">
        <ele>1261.4</ele>
      </trkpt>
      <trkpt lat="44.66984" lon="2.90122">
        <ele>1243.4</ele>
      </trkpt>
      <trkpt lat="44.67055" lon="2.89936">
        <ele>1216.4</ele>
      </trkpt>
      <trkpt lat="44.67141" lon="2.89811">
        <ele>1219.1</ele>
      </trkpt>
      <trkpt lat="44.67212" lon="2.89654">
        <ele>1216.3</ele>
      </trkpt>
      <trkpt lat="44.67235" lon="2.89519">
        <ele>1201.8</ele>
      </trkpt>
      <trkpt lat="44.67222" lon="2.89497">
        <ele>1199.5</ele>
      </trkpt>
      <trkpt lat="44.67145" lon="2.89455">
        <ele>1188.5</ele>
      </trkpt>
      <trkpt lat="44.67083" lon="2.89341">
        <ele>1169.5</ele>
      </trkpt>
      <trkpt lat="44.67034" lon="2.89136">
        <ele>1170.9</ele>
      </trkpt>
      <trkpt lat="44.67024" lon="2.88956">
        <ele>1164.6</ele>
      </trkpt>
      <trkpt lat="44.67023" lon="2.88792">
        <ele>1150.3</ele>
      </trkpt>
      <trkpt lat="44.67008" lon="2.88669">
        <ele>1136.4</ele>
      </trkpt>
      <trkpt lat="44.67017" lon="2.88553">
        <ele>1130.7</ele>
      </trkpt>
      <trkpt lat="44.67032" lon="2.88358">
        <ele>1115.7</ele>
      </trkpt>
      <trkpt lat="44.67024" lon="2.88162">
        <ele>1103.2</ele>
      </trkpt>
      <trkpt lat="44.67018" lon="2.88014">
        <ele>1096.9</ele>
      </trkpt>
      <trkpt lat="44.66963" lon="2.87717">
        <ele>1086.5</ele>
      </trkpt>
      <trkpt lat="44.66955" lon="2.8755">
        <ele>1080.9</ele>
      </trkpt>
      <trkpt lat="44.66895" lon="2.87275">
        <ele>1068.1</ele>
      </trkpt>
      <trkpt lat="44.66891" lon="2.87209">
        <ele>1068.9</ele>
      </trkpt>
      <trkpt lat="44.66905" lon="2.8714">
        <ele>1070.4</ele>
      </trkpt>
      <trkpt lat="44.66946" lon="2.87005">
        <ele>1074.6</ele>
      </trkpt>
      <trkpt lat="44.66978" lon="2.86939">
        <ele>1079</ele>
      </trkpt>
      <trkpt lat="44.66987" lon="2.86876">
        <ele>1081.4</ele>
      </trkpt>
      <trkpt lat="44.6695" lon="2.86633">
        <ele>1088.2</ele>
      </trkpt>
      <trkpt lat="44.66839" lon="2.86298">
        <ele>1092.9</ele>
      </trkpt>
      <trkpt lat="44.66759" lon="2.86149">
        <ele>1097.8</ele>
      </trkpt>
      <trkpt lat="44.66733" lon="2.85988">
        <ele>1099.3</ele>
      </trkpt>
      <trkpt lat="44.66738" lon="2.85913">
        <ele>1102.6</ele>
      </trkpt>
      <trkpt lat="44.66806" lon="2.85813">
        <ele>1100.7</ele>
      </trkpt>
      <trkpt lat="44.66855" lon="2.85737">
        <ele>1100.2</ele>
      </trkpt>
      <trkpt lat="44.66908" lon="2.85599">
        <ele>1093.5</ele>
      </trkpt>
      <trkpt lat="44.67037" lon="2.85298">
        <ele>1071.9</ele>
      </trkpt>
      <trkpt lat="44.67132" lon="2.85141">
        <ele>1064.9</ele>
      </trkpt>
      <trkpt lat="44.67225" lon="2.85089">
        <ele>1057.9</ele>
      </trkpt>
      <trkpt lat="44.67297" lon="2.85001">
        <ele>1049.9</ele>
      </trkpt>
      <trkpt lat="44.67358" lon="2.84989">
        <ele>1049.3</ele>
      </trkpt>
      <trkpt lat="44.67461" lon="2.85066">
        <ele>1043.3</ele>
      </trkpt>
      <trkpt lat="44.67535" lon="2.85098">
        <ele>1038.6</ele>
      </trkpt>
      <trkpt lat="44.6769" lon="2.85115">
        <ele>1024.2</ele>
      </trkpt>
      <trkpt lat="44.67796" lon="2.851">
        <ele>1018.7</ele>
      </trkpt>
      <trkpt lat="44.67846" lon="2.85075">
        <ele>1018.2</ele>
      </trkpt>
      <trkpt lat="44.679" lon="2.85007">
        <ele>1018.6</ele>
      </trkpt>
      <trkpt lat="44.67936" lon="2.84991">
        <ele>1020.9</ele>
      </trkpt>
      <trkpt lat="44.68019" lon="2.85052">
        <ele>1017.4</ele>
      </trkpt>
      <trkpt lat="44.68048" lon="2.85074">
        <ele>1016.6</ele>
      </trkpt>
      <trkpt lat="44.68249" lon="2.84922">
        <ele>998.4</ele>
      </trkpt>
      <trkpt lat="44.68278" lon="2.84811">
        <ele>993.3</ele>
      </trkpt>
      <trkpt lat="44.68308" lon="2.84708">
        <ele>1001.5</ele>
      </trkpt>
      <trkpt lat="44.68378" lon="2.84639">
        <ele>1001.9</ele>
      </trkpt>
      <trkpt lat="44.68401" lon="2.84617">
        <ele>1003.1</ele>
      </trkpt>
      <trkpt lat="44.6843" lon="2.84703">
        <ele>1005.6</ele>
      </trkpt>
      <trkpt lat="44.68481" lon="2.84684">
        <ele>1005.8</ele>
      </trkpt>
      <trkpt lat="44.68517" lon="2.84713">
        <ele>1004.4</ele>
      </trkpt>
      <trkpt lat="44.68621" lon="2.85057">
        <ele>998.6</ele>
      </trkpt>
      <trkpt lat="44.68635" lon="2.8507">
        <ele>995.1</ele>
      </trkpt>
      <trkpt lat="44.68621" lon="2.8513">
        <ele>994.3</ele>
      </trkpt>
      <trkpt lat="44.68625" lon="2.85161">
        <ele>995</ele>
      </trkpt>
      <trkpt lat="44.68665" lon="2.85259">
        <ele>994.1</ele>
      </trkpt>
      <trkpt lat="44.68681" lon="2.85395">
        <ele>995.7</ele>
      </trkpt>
      <trkpt lat="44.68712" lon="2.85484">
        <ele>992.5</ele>
      </trkpt>
      <trkpt lat="44.68718" lon="2.85616">
        <ele>989.3</ele>
      </trkpt>
      <trkpt lat="44.68729" lon="2.85651">
        <ele>988.3</ele>
      </trkpt>
      <trkpt lat="44.68773" lon="2.85705">
        <ele>986.8</ele>
      </trkpt>
      <trkpt lat="44.68791" lon="2.85771">
        <ele>989.2</ele>
      </trkpt>
      <trkpt lat="44.68829" lon="2.85819">
        <ele>992.5</ele>
      </trkpt>
      <trkpt lat="44.68856" lon="2.85873">
        <ele>993.8</ele>
      </trkpt>
      <trkpt lat="44.689" lon="2.85958">
        <ele>1002.8</ele>
      </trkpt>
      <trkpt lat="44.68927" lon="2.86003">
        <ele>1007.1</ele>
      </trkpt>
      <trkpt lat="44.68927" lon="2.86059">
        <ele>1010.5</ele>
      </trkpt>
      <trkpt lat="44.68915" lon="2.86147">
        <ele>1016.5</ele>
      </trkpt>
      <trkpt lat="44.68921" lon="2.8634">
        <ele>1029.6</ele>
      </trkpt>
      <trkpt lat="44.68934" lon="2.86444">
        <ele>1038.3</ele>
      </trkpt>
      <trkpt lat="44.68985" lon="2.86589">
        <ele>1047.2</ele>
      </trkpt>
      <trkpt lat="44.69014" lon="2.86675">
        <ele>1048.3</ele>
      </trkpt>
      <trkpt lat="44.69083" lon="2.86748">
        <ele>1053.9</ele>
      </trkpt>
      <trkpt lat="44.69139" lon="2.86811">
        <ele>1062.7</ele>
      </trkpt>
      <trkpt lat="44.6913" lon="2.86871">
        <ele>1066.4</ele>
      </trkpt>
      <trkpt lat="44.69164" lon="2.86862">
        <ele>1070.7</ele>
      </trkpt>
      <trkpt lat="44.69208" lon="2.86913">
        <ele>1076.1</ele>
      </trkpt>
      <trkpt lat="44.69257" lon="2.87008">
        <ele>1084.8</ele>
      </trkpt>
      <trkpt lat="44.69284" lon="2.87147">
        <ele>1094.9</ele>
      </trkpt>
      <trkpt lat="44.69348" lon="2.87293">
        <ele>1102.1</ele>
      </trkpt>
      <trkpt lat="44.69392" lon="2.87454">
        <ele>1107.1</ele>
      </trkpt>
      <trkpt lat="44.69452" lon="2.87631">
        <ele>1115.6</ele>
      </trkpt>
      <trkpt lat="44.69481" lon="2.87732">
        <ele>1119.9</ele>
      </trkpt>
      <trkpt lat="44.69528" lon="2.87849">
        <ele>1130.7</ele>
      </trkpt>
      <trkpt lat="44.69525" lon="2.87956">
        <ele>1140.2</ele>
      </trkpt>
      <trkpt lat="44.69542" lon="2.88086">
        <ele>1152.8</ele>
      </trkpt>
      <trkpt lat="44.69595" lon="2.88256">
        <ele>1169.5</ele>
      </trkpt>
      <trkpt lat="44.69609" lon="2.88279">
        <ele>1172</ele>
      </trkpt>
      <trkpt lat="44.69692" lon="2.88349">
        <ele>1183.9</ele>
      </trkpt>
      <trkpt lat="44.69776" lon="2.88495">
        <ele>1197.8</ele>
      </trkpt>
      <trkpt lat="44.69812" lon="2.88605">
        <ele>1202.2</ele>
      </trkpt>
      <trkpt lat="44.69847" lon="2.88672">
        <ele>1203.8</ele>
      </trkpt>
      <trkpt lat="44.69907" lon="2.88915">
        <ele>1204.6</ele>
      </trkpt>
      <trkpt lat="44.69927" lon="2.89007">
        <ele>1205.9</ele>
      </trkpt>
      <trkpt lat="44.69955" lon="2.89124">
        <ele>1207.1</ele>
      </trkpt>
      <trkpt lat="44.69984" lon="2.89279">
        <ele>1208.2</ele>
      </trkpt>
      <trkpt lat="44.70021" lon="2.89427">
        <ele>1210.4</ele>
      </trkpt>
      <trkpt lat="44.70039" lon="2.89566">
        <ele>1211</ele>
      </trkpt>
      <trkpt lat="44.70025" lon="2.89623">
        <ele>1211.3</ele>
      </trkpt>
      <trkpt lat="44.69959" lon="2.89723">
        <ele>1214.1</ele>
      </trkpt>
      <trkpt lat="44.69918" lon="2.89817">
        <ele>1217</ele>
      </trkpt>
      <trkpt lat="44.69884" lon="2.89946">
        <ele>1219.5</ele>
      </trkpt>
      <trkpt lat="44.69863" lon="2.90053">
        <ele>1222</ele>
      </trkpt>
      <trkpt lat="44.69831" lon="2.90163">
        <ele>1224.6</ele>
      </trkpt>
      <trkpt lat="44.6977" lon="2.90282">
        <ele>1217.5</ele>
      </trkpt>
      <trkpt lat="44.69756" lon="2.90336">
        <ele>1219.4</ele>
      </trkpt>
      <trkpt lat="44.69715" lon="2.9049">
        <ele>1221</ele>
      </trkpt>
      <trkpt lat="44.69672" lon="2.90536">
        <ele>1219.5</ele>
      </trkpt>
      <trkpt lat="44.69627" lon="2.90552">
        <ele>1220.1</ele>
      </trkpt>
      <trkpt lat="44.69534" lon="2.90626">
        <ele>1223.2</ele>
      </trkpt>
      <trkpt lat="44.69507" lon="2.90639">
        <ele>1221.7</ele>
      </trkpt>
      <trkpt lat="44.69457" lon="2.90727">
        <ele>1225.9</ele>
      </trkpt>
      <trkpt lat="44.69405" lon="2.90789">
        <ele>1228.6</ele>
      </trkpt>
      <trkpt lat="44.69342" lon="2.90817">
        <ele>1228.6</ele>
      </trkpt>
      <trkpt lat="44.69308" lon="2.90804">
        <ele>1228.8</ele>
      </trkpt>
      <trkpt lat="44.69288" lon="2.90772">
        <ele>1231.5</ele>
      </trkpt>
      <trkpt lat="44.69266" lon="2.90693">
        <ele>1233.5</ele>
      </trkpt>
      <trkpt lat="44.69246" lon="2.90674">
        <ele>1235.8</ele>
      </trkpt>
      <trkpt lat="44.69219" lon="2.90667">
        <ele>1237</ele>
      </trkpt>
      <trkpt lat="44.69183" lon="2.90686">
        <ele>1238.1</ele>
      </trkpt>
      <trkpt lat="44.69144" lon="2.90723">
        <ele>1240.3</ele>
      </trkpt>
      <trkpt lat="44.69115" lon="2.90767">
        <ele>1243.1</ele>
      </trkpt>
      <trkpt lat="44.69106" lon="2.90821">
        <ele>1246.4</ele>
      </trkpt>
      <trkpt lat="44.69083" lon="2.9088">
        <ele>1249.4</ele>
      </trkpt>
      <trkpt lat="44.69015" lon="2.90955">
        <ele>1252.8</ele>
      </trkpt>
      <trkpt lat="44.68985" lon="2.91037">
        <ele>1254.7</ele>
      </trkpt>
      <trkpt lat="44.68969" lon="2.9115">
        <ele>1257.4</ele>
      </trkpt>
      <trkpt lat="44.68978" lon="2.91204">
        <ele>1259.7</ele>
      </trkpt>
      <trkpt lat="44.69018" lon="2.91343">
        <ele>1262.1</ele>
      </trkpt>
      <trkpt lat="44.69037" lon="2.91425">
        <ele>1263.7</ele>
      </trkpt>
      <trkpt lat="44.69032" lon="2.91662">
        <ele>1265.8</ele>
      </trkpt>
      <trkpt lat="44.69021" lon="2.91895">
        <ele>1270.4</ele>
      </trkpt>
      <trkpt lat="44.69041" lon="2.92005">
        <ele>1275.3</ele>
      </trkpt>
      <trkpt lat="44.69054" lon="2.92068">
        <ele>1277.3</ele>
      </trkpt>
      <trkpt lat="44.69058" lon="2.92144">
        <ele>1280.4</ele>
      </trkpt>
      <trkpt lat="44.69091" lon="2.92293">
        <ele>1287.2</ele>
      </trkpt>
      <trkpt lat="44.69077" lon="2.92374">
        <ele>1289.7</ele>
      </trkpt>
      <trkpt lat="44.69007" lon="2.925">
        <ele>1296.5</ele>
      </trkpt>
      <trkpt lat="44.68932" lon="2.92597">
        <ele>1302.2</ele>
      </trkpt>
      <trkpt lat="44.68876" lon="2.92599">
        <ele>1304.5</ele>
      </trkpt>
      <trkpt lat="44.68775" lon="2.92576">
        <ele>1307</ele>
      </trkpt>
      <trkpt lat="44.68708" lon="2.92569">
        <ele>1307.5</ele>
      </trkpt>
      <trkpt lat="44.68635" lon="2.92609">
        <ele>1304</ele>
      </trkpt>
      <trkpt lat="44.68563" lon="2.92662">
        <ele>1300.9</ele>
      </trkpt>
      <trkpt lat="44.68486" lon="2.92721">
        <ele>1296.5</ele>
      </trkpt>
      <trkpt lat="44.68448" lon="2.92711">
        <ele>1291.5</ele>
      </trkpt>
      <trkpt lat="44.68428" lon="2.92626">
        <ele>1288.8</ele>
      </trkpt>
      <trkpt lat="44.6839" lon="2.92604">
        <ele>1287.1</ele>
      </trkpt>
      <trkpt lat="44.68309" lon="2.92606">
        <ele>1283</ele>
      </trkpt>
      <trkpt lat="44.68291" lon="2.92675">
        <ele>1284.4</ele>
      </trkpt>
      <trkpt lat="44.68259" lon="2.9276">
        <ele>1285.1</ele>
      </trkpt>
      <trkpt lat="44.68229" lon="2.92838">
        <ele>1287.3</ele>
      </trkpt>
      <trkpt lat="44.68213" lon="2.92914">
        <ele>1289.9</ele>
      </trkpt>
      <trkpt lat="44.68275" lon="2.93097">
        <ele>1292.1</ele>
      </trkpt>
      <trkpt lat="44.68412" lon="2.93089">
        <ele>1298.1</ele>
      </trkpt>
      <trkpt lat="44.68498" lon="2.93125">
        <ele>1314.1</ele>
      </trkpt>
      <trkpt lat="44.68798" lon="2.93245">
        <ele>1330.8</ele>
      </trkpt>
      <trkpt lat="44.68886" lon="2.93287">
        <ele>1334.9</ele>
      </trkpt>
      <trkpt lat="44.69055" lon="2.9326">
        <ele>1327.7</ele>
      </trkpt>
      <trkpt lat="44.69325" lon="2.93244">
        <ele>1307.8</ele>
      </trkpt>
      <trkpt lat="44.69642" lon="2.93257">
        <ele>1307.1</ele>
      </trkpt>
      <trkpt lat="44.69679" lon="2.93371">
        <ele>1310.9</ele>
      </trkpt>
      <trkpt lat="44.69695" lon="2.93418">
        <ele>1312.1</ele>
      </trkpt>
      <trkpt lat="44.69712" lon="2.93557">
        <ele>1319.5</ele>
      </trkpt>
      <trkpt lat="44.69794" lon="2.93706">
        <ele>1321.6</ele>
      </trkpt>
      <trkpt lat="44.69879" lon="2.93868">
        <ele>1317.2</ele>
      </trkpt>
      <trkpt lat="44.6993" lon="2.93979">
        <ele>1314.7</ele>
      </trkpt>
      <trkpt lat="44.69947" lon="2.94073">
        <ele>1312.9</ele>
      </trkpt>
      <trkpt lat="44.6994" lon="2.94206">
        <ele>1308</ele>
      </trkpt>
      <trkpt lat="44.69912" lon="2.9435">
        <ele>1305.4</ele>
      </trkpt>
      <trkpt lat="44.69889" lon="2.94391">
        <ele>1303.1</ele>
      </trkpt>
      <trkpt lat="44.69864" lon="2.94429">
        <ele>1300.4</ele>
      </trkpt>
      <trkpt lat="44.69819" lon="2.94447">
        <ele>1294.6</ele>
      </trkpt>
      <trkpt lat="44.69805" lon="2.94608">
        <ele>1294</ele>
      </trkpt>
      <trkpt lat="44.69789" lon="2.94718">
        <ele>1293.3</ele>
      </trkpt>
      <trkpt lat="44.69741" lon="2.94825">
        <ele>1296.8</ele>
      </trkpt>
      <trkpt lat="44.69745" lon="2.94938">
        <ele>1294.1</ele>
      </trkpt>
      <trkpt lat="44.69738" lon="2.95011">
        <ele>1289.2</ele>
      </trkpt>
      <trkpt lat="44.69671" lon="2.95199">
        <ele>1285.4</ele>
      </trkpt>
      <trkpt lat="44.69641" lon="2.95369">
        <ele>1284.3</ele>
      </trkpt>
      <trkpt lat="44.69629" lon="2.95492">
        <ele>1282</ele>
      </trkpt>
      <trkpt lat="44.69662" lon="2.95716">
        <ele>1275.7</ele>
      </trkpt>
      <trkpt lat="44.69715" lon="2.95827">
        <ele>1273</ele>
      </trkpt>
      <trkpt lat="44.6982" lon="2.96014">
        <ele>1261</ele>
      </trkpt>
      <trkpt lat="44.6994" lon="2.96217">
        <ele>1257.2</ele>
      </trkpt>
      <trkpt lat="44.70074" lon="2.96427">
        <ele>1249.2</ele>
      </trkpt>
      <trkpt lat="44.70198" lon="2.96728">
        <ele>1242.8</ele>
      </trkpt>
      <trkpt lat="44.70235" lon="2.96898">
        <ele>1234.1</ele>
      </trkpt>
      <trkpt lat="44.70235" lon="2.9699">
        <ele>1226.2</ele>
      </trkpt>
      <trkpt lat="44.70214" lon="2.97062">
        <ele>1223.2</ele>
      </trkpt>
      <trkpt lat="44.70191" lon="2.97204">
        <ele>1223.9</ele>
      </trkpt>
      <trkpt lat="44.70172" lon="2.97405">
        <ele>1216.7</ele>
      </trkpt>
      <trkpt lat="44.70135" lon="2.97521">
        <ele>1213.3</ele>
      </trkpt>
      <trkpt lat="44.70083" lon="2.97555">
        <ele>1209</ele>
      </trkpt>
      <trkpt lat="44.70056" lon="2.97546">
        <ele>1206.7</ele>
      </trkpt>
      <trkpt lat="44.70027" lon="2.97571">
        <ele>1203</ele>
      </trkpt>
      <trkpt lat="44.70022" lon="2.97615">
        <ele>1201.7</ele>
      </trkpt>
      <trkpt lat="44.70028" lon="2.97757">
        <ele>1188.5</ele>
      </trkpt>
      <trkpt lat="44.70043" lon="2.97858">
        <ele>1184.6</ele>
      </trkpt>
      <trkpt lat="44.70053" lon="2.9811">
        <ele>1176.2</ele>
      </trkpt>
      <trkpt lat="44.70074" lon="2.98277">
        <ele>1170</ele>
      </trkpt>
      <trkpt lat="44.7001" lon="2.98425">
        <ele>1179</ele>
      </trkpt>
      <trkpt lat="44.69991" lon="2.98648">
        <ele>1193.9</ele>
      </trkpt>
      <trkpt lat="44.69997" lon="2.98819">
        <ele>1193.5</ele>
      </trkpt>
      <trkpt lat="44.70001" lon="2.98894">
        <ele>1190.5</ele>
      </trkpt>
      <trkpt lat="44.69937" lon="2.99001">
        <ele>1186.2</ele>
      </trkpt>
      <trkpt lat="44.6986" lon="2.9911">
        <ele>1182.2</ele>
      </trkpt>
      <trkpt lat="44.69779" lon="2.99172">
        <ele>1178.5</ele>
      </trkpt>
      <trkpt lat="44.69767" lon="2.99245">
        <ele>1177.4</ele>
      </trkpt>
      <trkpt lat="44.69761" lon="2.99248">
        <ele>1177.6</ele>
      </trkpt>
      <trkpt lat="44.69718" lon="2.99257">
        <ele>1179</ele>
      </trkpt>
      <trkpt lat="44.69636" lon="2.9947">
        <ele>1187.1</ele>
      </trkpt>
      <trkpt lat="44.69641" lon="2.99719">
        <ele>1178.2</ele>
      </trkpt>
      <trkpt lat="44.69629" lon="2.99814">
        <ele>1173</ele>
      </trkpt>
      <trkpt lat="44.69617" lon="2.99924">
        <ele>1163.7</ele>
      </trkpt>
      <trkpt lat="44.69605" lon="3.00006">
        <ele>1156.6</ele>
      </trkpt>
      <trkpt lat="44.69621" lon="3.00072">
        <ele>1147</ele>
      </trkpt>
      <trkpt lat="44.69679" lon="3.00123">
        <ele>1136.1</ele>
      </trkpt>
      <trkpt lat="44.69737" lon="3.00155">
        <ele>1128.2</ele>
      </trkpt>
      <trkpt lat="44.69768" lon="3.00231">
        <ele>1119.4</ele>
      </trkpt>
      <trkpt lat="44.6975" lon="3.0031">
        <ele>1119</ele>
      </trkpt>
      <trkpt lat="44.69671" lon="3.00315">
        <ele>1120.8</ele>
      </trkpt>
      <trkpt lat="44.69657" lon="3.00381">
        <ele>1118.7</ele>
      </trkpt>
      <trkpt lat="44.69657" lon="3.00413">
        <ele>1114.5</ele>
      </trkpt>
      <trkpt lat="44.69702" lon="3.00448">
        <ele>1114.8</ele>
      </trkpt>
      <trkpt lat="44.69767" lon="3.0049">
        <ele>1111.2</ele>
      </trkpt>
      <trkpt lat="44.69827" lon="3.00525">
        <ele>1108.2</ele>
      </trkpt>
      <trkpt lat="44.69852" lon="3.00557">
        <ele>1102.9</ele>
      </trkpt>
      <trkpt lat="44.6984" lon="3.0062">
        <ele>1092.7</ele>
      </trkpt>
      <trkpt lat="44.6979" lon="3.00676">
        <ele>1080.9</ele>
      </trkpt>
      <trkpt lat="44.6973" lon="3.00666">
        <ele>1078.6</ele>
      </trkpt>
      <trkpt lat="44.69675" lon="3.00722">
        <ele>1073.3</ele>
      </trkpt>
      <trkpt lat="44.69708" lon="3.00883">
        <ele>1076.3</ele>
      </trkpt>
      <trkpt lat="44.69751" lon="3.01177">
        <ele>1091</ele>
      </trkpt>
      <trkpt lat="44.69755" lon="3.01328">
        <ele>1092.2</ele>
      </trkpt>
      <trkpt lat="44.69722" lon="3.01476">
        <ele>1096</ele>
      </trkpt>
      <trkpt lat="44.69688" lon="3.0163">
        <ele>1107.2</ele>
      </trkpt>
      <trkpt lat="44.69658" lon="3.01753">
        <ele>1120.5</ele>
      </trkpt>
      <trkpt lat="44.69601" lon="3.01815">
        <ele>1126</ele>
      </trkpt>
      <trkpt lat="44.69544" lon="3.01947">
        <ele>1130.2</ele>
      </trkpt>
      <trkpt lat="44.69506" lon="3.01946">
        <ele>1129.8</ele>
      </trkpt>
      <trkpt lat="44.6949" lon="3.01997">
        <ele>1127.3</ele>
      </trkpt>
      <trkpt lat="44.69453" lon="3.02135">
        <ele>1126.8</ele>
      </trkpt>
      <trkpt lat="44.69421" lon="3.0216">
        <ele>1130.2</ele>
      </trkpt>
      <trkpt lat="44.69396" lon="3.02178">
        <ele>1129.9</ele>
      </trkpt>
      <trkpt lat="44.69349" lon="3.02219">
        <ele>1120.4</ele>
      </trkpt>
      <trkpt lat="44.69306" lon="3.02237">
        <ele>1117.4</ele>
      </trkpt>
      <trkpt lat="44.69277" lon="3.02281">
        <ele>1116</ele>
      </trkpt>
      <trkpt lat="44.69276" lon="3.02335">
        <ele>1115</ele>
      </trkpt>
      <trkpt lat="44.69233" lon="3.02403">
        <ele>1110.7</ele>
      </trkpt>
      <trkpt lat="44.69239" lon="3.02485">
        <ele>1103.4</ele>
      </trkpt>
      <trkpt lat="44.6923" lon="3.02501">
        <ele>1101.5</ele>
      </trkpt>
      <trkpt lat="44.69179" lon="3.02504">
        <ele>1092.6</ele>
      </trkpt>
      <trkpt lat="44.69138" lon="3.02531">
        <ele>1077.4</ele>
      </trkpt>
      <trkpt lat="44.69084" lon="3.02597">
        <ele>1071.5</ele>
      </trkpt>
      <trkpt lat="44.69045" lon="3.0259">
        <ele>1073.3</ele>
      </trkpt>
      <trkpt lat="44.69025" lon="3.02612">
        <ele>1071.3</ele>
      </trkpt>
      <trkpt lat="44.68975" lon="3.02655">
        <ele>1066.9</ele>
      </trkpt>
      <trkpt lat="44.68964" lon="3.02709">
        <ele>1065.8</ele>
      </trkpt>
      <trkpt lat="44.68945" lon="3.02781">
        <ele>1069.4</ele>
      </trkpt>
      <trkpt lat="44.68965" lon="3.02826">
        <ele>1075.8</ele>
      </trkpt>
      <trkpt lat="44.68956" lon="3.02889">
        <ele>1082.9</ele>
      </trkpt>
      <trkpt lat="44.6896" lon="3.02904">
        <ele>1082.5</ele>
      </trkpt>
      <trkpt lat="44.68973" lon="3.02971">
        <ele>1086.7</ele>
      </trkpt>
      <trkpt lat="44.68939" lon="3.03014">
        <ele>1091</ele>
      </trkpt>
      <trkpt lat="44.68907" lon="3.0308">
        <ele>1091.5</ele>
      </trkpt>
      <trkpt lat="44.68898" lon="3.03153">
        <ele>1094.2</ele>
      </trkpt>
      <trkpt lat="44.68891" lon="3.03171">
        <ele>1094.8</ele>
      </trkpt>
      <trkpt lat="44.68833" lon="3.03186">
        <ele>1102.3</ele>
      </trkpt>
      <trkpt lat="44.68812" lon="3.03284">
        <ele>1107</ele>
      </trkpt>
      <trkpt lat="44.68812" lon="3.03293">
        <ele>1107.1</ele>
      </trkpt>
      <trkpt lat="44.68868" lon="3.03316">
        <ele>1107.7</ele>
      </trkpt>
      <trkpt lat="44.68933" lon="3.03361">
        <ele>1107</ele>
      </trkpt>
      <trkpt lat="44.69002" lon="3.03375">
        <ele>1105.9</ele>
      </trkpt>
      <trkpt lat="44.6904" lon="3.03463">
        <ele>1098.4</ele>
      </trkpt>
      <trkpt lat="44.69087" lon="3.0342">
        <ele>1099.2</ele>
      </trkpt>
      <trkpt lat="44.69114" lon="3.03436">
        <ele>1094.9</ele>
      </trkpt>
      <trkpt lat="44.69168" lon="3.03433">
        <ele>1088.2</ele>
      </trkpt>
      <trkpt lat="44.69193" lon="3.03468">
        <ele>1085.8</ele>
      </trkpt>
      <trkpt lat="44.69206" lon="3.03506">
        <ele>1080.4</ele>
      </trkpt>
      <trkpt lat="44.69251" lon="3.03491">
        <ele>1078.9</ele>
      </trkpt>
      <trkpt lat="44.69285" lon="3.03495">
        <ele>1076.5</ele>
      </trkpt>
      <trkpt lat="44.69316" lon="3.03508">
        <ele>1069.7</ele>
      </trkpt>
      <trkpt lat="44.69345" lon="3.03508">
        <ele>1066.9</ele>
      </trkpt>
      <trkpt lat="44.69455" lon="3.03544">
        <ele>1072.8</ele>
      </trkpt>
      <trkpt lat="44.69371" lon="3.03726">
        <ele>1084.1</ele>
      </trkpt>
      <trkpt lat="44.69296" lon="3.0381">
        <ele>1085.1</ele>
      </trkpt>
      <trkpt lat="44.6926" lon="3.03851">
        <ele>1086.3</ele>
      </trkpt>
      <trkpt lat="44.6923" lon="3.03948">
        <ele>1090.6</ele>
      </trkpt>
      <trkpt lat="44.69179" lon="3.04158">
        <ele>1097</ele>
      </trkpt>
      <trkpt lat="44.69233" lon="3.04225">
        <ele>1105.3</ele>
      </trkpt>
      <trkpt lat="44.69114" lon="3.04252">
        <ele>1112.2</ele>
      </trkpt>
      <trkpt lat="44.69082" lon="3.04283">
        <ele>1115.6</ele>
      </trkpt>
      <trkpt lat="44.69082" lon="3.04327">
        <ele>1117.9</ele>
      </trkpt>
      <trkpt lat="44.69103" lon="3.04507">
        <ele>1123</ele>
      </trkpt>
      <trkpt lat="44.69122" lon="3.04681">
        <ele>1127.5</ele>
      </trkpt>
      <trkpt lat="44.69139" lon="3.04785">
        <ele>1133.1</ele>
      </trkpt>
      <trkpt lat="44.69199" lon="3.04884">
        <ele>1140.6</ele>
      </trkpt>
      <trkpt lat="44.6921" lon="3.04969">
        <ele>1143.3</ele>
      </trkpt>
      <trkpt lat="44.69237" lon="3.05039">
        <ele>1146.7</ele>
      </trkpt>
      <trkpt lat="44.69214" lon="3.05139">
        <ele>1149.3</ele>
      </trkpt>
      <trkpt lat="44.69202" lon="3.05186">
        <ele>1151.1</ele>
      </trkpt>
      <trkpt lat="44.69215" lon="3.05243">
        <ele>1157.4</ele>
      </trkpt>
      <trkpt lat="44.6921" lon="3.05272">
        <ele>1160.8</ele>
      </trkpt>
      <trkpt lat="44.69224" lon="3.05316">
        <ele>1163.7</ele>
      </trkpt>
      <trkpt lat="44.69221" lon="3.05366">
        <ele>1164.6</ele>
      </trkpt>
      <trkpt lat="44.6921" lon="3.05391">
        <ele>1162.4</ele>
      </trkpt>
      <trkpt lat="44.69268" lon="3.05458">
        <ele>1160.1</ele>
      </trkpt>
      <trkpt lat="44.69279" lon="3.05446">
        <ele>1161</ele>
      </trkpt>
      <trkpt lat="44.69319" lon="3.05468">
        <ele>1161.6</ele>
      </trkpt>
      <trkpt lat="44.69355" lon="3.05447">
        <ele>1162</ele>
      </trkpt>
      <trkpt lat="44.69398" lon="3.05432">
        <ele>1161.4</ele>
      </trkpt>
      <trkpt lat="44.69448" lon="3.05413">
        <ele>1158.8</ele>
      </trkpt>
      <trkpt lat="44.6952" lon="3.0543">
        <ele>1156.1</ele>
      </trkpt>
      <trkpt lat="44.69585" lon="3.05447">
        <ele>1152.9</ele>
      </trkpt>
      <trkpt lat="44.69627" lon="3.05457">
        <ele>1151.5</ele>
      </trkpt>
      <trkpt lat="44.69681" lon="3.05451">
        <ele>1150.2</ele>
      </trkpt>
      <trkpt lat="44.69735" lon="3.05445">
        <ele>1148.5</ele>
      </trkpt>
      <trkpt lat="44.69781" lon="3.05437">
        <ele>1147</ele>
      </trkpt>
      <trkpt lat="44.6992" lon="3.05476">
        <ele>1143.6</ele>
      </trkpt>
      <trkpt lat="44.69974" lon="3.0548">
        <ele>1142.7</ele>
      </trkpt>
      <trkpt lat="44.70025" lon="3.05493">
        <ele>1141.3</ele>
      </trkpt>
      <trkpt lat="44.7007" lon="3.05497">
        <ele>1140.1</ele>
      </trkpt>
      <trkpt lat="44.70136" lon="3.05463">
        <ele>1136.2</ele>
      </trkpt>
      <trkpt lat="44.70174" lon="3.05473">
        <ele>1137.8</ele>
      </trkpt>
      <trkpt lat="44.70236" lon="3.05515">
        <ele>1141.8</ele>
      </trkpt>
      <trkpt lat="44.70293" lon="3.05525">
        <ele>1145.1</ele>
      </trkpt>
      <trkpt lat="44.70331" lon="3.05522">
        <ele>1147.1</ele>
      </trkpt>
      <trkpt lat="44.70396" lon="3.05489">
        <ele>1151.2</ele>
      </trkpt>
      <trkpt lat="44.7045" lon="3.0548">
        <ele>1152.8</ele>
      </trkpt>
      <trkpt lat="44.70488" lon="3.05496">
        <ele>1153.9</ele>
      </trkpt>
      <trkpt lat="44.70531" lon="3.05541">
        <ele>1154.2</ele>
      </trkpt>
      <trkpt lat="44.70555" lon="3.05569">
        <ele>1154.5</ele>
      </trkpt>
      <trkpt lat="44.70569" lon="3.0562">
        <ele>1155.3</ele>
      </trkpt>
      <trkpt lat="44.70579" lon="3.05693">
        <ele>1154.9</ele>
      </trkpt>
      <trkpt lat="44.70601" lon="3.05775">
        <ele>1154.7</ele>
      </trkpt>
      <trkpt lat="44.70743" lon="3.05833">
        <ele>1158.7</ele>
      </trkpt>
      <trkpt lat="44.7079" lon="3.0585">
        <ele>1160.3</ele>
      </trkpt>
      <trkpt lat="44.70819" lon="3.05879">
        <ele>1161.1</ele>
      </trkpt>
      <trkpt lat="44.7085" lon="3.05901">
        <ele>1163.7</ele>
      </trkpt>
      <trkpt lat="44.70921" lon="3.05981">
        <ele>1164.2</ele>
      </trkpt>
      <trkpt lat="44.70924" lon="3.05978">
        <ele>1164.6</ele>
      </trkpt>
      <trkpt lat="44.70971" lon="3.06004">
        <ele>1166.9</ele>
      </trkpt>
      <trkpt lat="44.71047" lon="3.06014">
        <ele>1167.8</ele>
      </trkpt>
      <trkpt lat="44.71112" lon="3.06021">
        <ele>1168</ele>
      </trkpt>
      <trkpt lat="44.71188" lon="3.06073">
        <ele>1166.1</ele>
      </trkpt>
      <trkpt lat="44.71305" lon="3.06191">
        <ele>1170</ele>
      </trkpt>
      <trkpt lat="44.7134" lon="3.0621">
        <ele>1170.7</ele>
      </trkpt>
      <trkpt lat="44.71374" lon="3.06195">
        <ele>1171</ele>
      </trkpt>
      <trkpt lat="44.71429" lon="3.06114">
        <ele>1171</ele>
      </trkpt>
      <trkpt lat="44.71458" lon="3.06073">
        <ele>1170.4</ele>
      </trkpt>
      <trkpt lat="44.71552" lon="3.06128">
        <ele>1169.4</ele>
      </trkpt>
      <trkpt lat="44.71667" lon="3.06205">
        <ele>1168.4</ele>
      </trkpt>
      <trkpt lat="44.71734" lon="3.0625">
        <ele>1168</ele>
      </trkpt>
      <trkpt lat="44.71805" lon="3.06286">
        <ele>1165.7</ele>
      </trkpt>
      <trkpt lat="44.71915" lon="3.06325">
        <ele>1165.2</ele>
      </trkpt>
      <trkpt lat="44.71954" lon="3.06332">
        <ele>1163.8</ele>
      </trkpt>
      <trkpt lat="44.71974" lon="3.06348">
        <ele>1162.5</ele>
      </trkpt>
      <trkpt lat="44.71982" lon="3.06389">
        <ele>1159.6</ele>
      </trkpt>
      <trkpt lat="44.72016" lon="3.06392">
        <ele>1158.9</ele>
      </trkpt>
      <trkpt lat="44.7207" lon="3.06418">
        <ele>1158</ele>
      </trkpt>
      <trkpt lat="44.72173" lon="3.06426">
        <ele>1154.3</ele>
      </trkpt>
      <trkpt lat="44.72221" lon="3.06338">
        <ele>1155.7</ele>
      </trkpt>
      <trkpt lat="44.72246" lon="3.06307">
        <ele>1155.4</ele>
      </trkpt>
      <trkpt lat="44.723" lon="3.0632">
        <ele>1152.1</ele>
      </trkpt>
      <trkpt lat="44.72343" lon="3.06302">
        <ele>1151</ele>
      </trkpt>
      <trkpt lat="44.72419" lon="3.06287">
        <ele>1147.5</ele>
      </trkpt>
      <trkpt lat="44.72478" lon="3.06253">
        <ele>1144.8</ele>
      </trkpt>
      <trkpt lat="44.72511" lon="3.06285">
        <ele>1144.7</ele>
      </trkpt>
      <trkpt lat="44.72541" lon="3.06286">
        <ele>1147.7</ele>
      </trkpt>
      <trkpt lat="44.7257" lon="3.06245">
        <ele>1149.8</ele>
      </trkpt>
      <trkpt lat="44.72588" lon="3.06242">
        <ele>1152.7</ele>
      </trkpt>
      <trkpt lat="44.72637" lon="3.0629">
        <ele>1154.4</ele>
      </trkpt>
      <trkpt lat="44.72662" lon="3.06303">
        <ele>1154.1</ele>
      </trkpt>
      <trkpt lat="44.72714" lon="3.06313">
        <ele>1151.5</ele>
      </trkpt>
      <trkpt lat="44.7279" lon="3.06371">
        <ele>1152.7</ele>
      </trkpt>
      <trkpt lat="44.72859" lon="3.06479">
        <ele>1154.2</ele>
      </trkpt>
      <trkpt lat="44.72876" lon="3.06523">
        <ele>1155.7</ele>
      </trkpt>
      <trkpt lat="44.72926" lon="3.06574">
        <ele>1159</ele>
      </trkpt>
      <trkpt lat="44.72968" lon="3.06651">
        <ele>1158.7</ele>
      </trkpt>
      <trkpt lat="44.73001" lon="3.0668">
        <ele>1158.8</ele>
      </trkpt>
      <trkpt lat="44.73082" lon="3.06731">
        <ele>1159.7</ele>
      </trkpt>
      <trkpt lat="44.73122" lon="3.06747">
        <ele>1158</ele>
      </trkpt>
      <trkpt lat="44.73183" lon="3.06795">
        <ele>1154.1</ele>
      </trkpt>
      <trkpt lat="44.73205" lon="3.06821">
        <ele>1152.6</ele>
      </trkpt>
      <trkpt lat="44.7329" lon="3.06866">
        <ele>1149.7</ele>
      </trkpt>
      <trkpt lat="44.73384" lon="3.06924">
        <ele>1156.9</ele>
      </trkpt>
      <trkpt lat="44.73449" lon="3.06935">
        <ele>1159.5</ele>
      </trkpt>
      <trkpt lat="44.73494" lon="3.06913">
        <ele>1157.6</ele>
      </trkpt>
      <trkpt lat="44.73519" lon="3.06923">
        <ele>1155.3</ele>
      </trkpt>
      <trkpt lat="44.73528" lon="3.06964">
        <ele>1154.7</ele>
      </trkpt>
      <trkpt lat="44.73508" lon="3.06976">
        <ele>1157.1</ele>
      </trkpt>
      <trkpt lat="44.73505" lon="3.07014">
        <ele>1156</ele>
      </trkpt>
      <trkpt lat="44.73516" lon="3.07043">
        <ele>1156.4</ele>
      </trkpt>
      <trkpt lat="44.7384" lon="3.07009">
        <ele>1176.5</ele>
      </trkpt>
      <trkpt lat="44.74225" lon="3.06983">
        <ele>1177.7</ele>
      </trkpt>
      <trkpt lat="44.74284" lon="3.06946">
        <ele>1173.1</ele>
      </trkpt>
      <trkpt lat="44.74329" lon="3.06911">
        <ele>1170.3</ele>
      </trkpt>
      <trkpt lat="44.74367" lon="3.0689">
        <ele>1171.5</ele>
      </trkpt>
      <trkpt lat="44.74412" lon="3.06878">
        <ele>1173</ele>
      </trkpt>
      <trkpt lat="44.74469" lon="3.06822">
        <ele>1172.9</ele>
      </trkpt>
      <trkpt lat="44.74541" lon="3.06737">
        <ele>1170.1</ele>
      </trkpt>
      <trkpt lat="44.74591" lon="3.0671">
        <ele>1168.9</ele>
      </trkpt>
      <trkpt lat="44.74668" lon="3.06689">
        <ele>1166.5</ele>
      </trkpt>
      <trkpt lat="44.74729" lon="3.06598">
        <ele>1156.6</ele>
      </trkpt>
      <trkpt lat="44.74763" lon="3.06576">
        <ele>1152.2</ele>
      </trkpt>
      <trkpt lat="44.74819" lon="3.06624">
        <ele>1149.7</ele>
      </trkpt>
      <trkpt lat="44.74924" lon="3.06683">
        <ele>1155.7</ele>
      </trkpt>
      <trkpt lat="44.74996" lon="3.06724">
        <ele>1154</ele>
      </trkpt>
      <trkpt lat="44.75065" lon="3.06814">
        <ele>1152.2</ele>
      </trkpt>
      <trkpt lat="44.75089" lon="3.06893">
        <ele>1155.6</ele>
      </trkpt>
      <trkpt lat="44.75111" lon="3.06937">
        <ele>1153.8</ele>
      </trkpt>
      <trkpt lat="44.75167" lon="3.07008">
        <ele>1145.2</ele>
      </trkpt>
      <trkpt lat="44.75218" lon="3.07021">
        <ele>1139.4</ele>
      </trkpt>
      <trkpt lat="44.75315" lon="3.07047">
        <ele>1129.1</ele>
      </trkpt>
      <trkpt lat="44.75362" lon="3.0707">
        <ele>1127</ele>
      </trkpt>
      <trkpt lat="44.7543" lon="3.07068">
        <ele>1126.4</ele>
      </trkpt>
      <trkpt lat="44.75436" lon="3.07131">
        <ele>1126.5</ele>
      </trkpt>
      <trkpt lat="44.75463" lon="3.07163">
        <ele>1122.9</ele>
      </trkpt>
      <trkpt lat="44.75533" lon="3.07091">
        <ele>1130</ele>
      </trkpt>
      <trkpt lat="44.75562" lon="3.07047">
        <ele>1128.1</ele>
      </trkpt>
      <trkpt lat="44.75569" lon="3.07003">
        <ele>1125.8</ele>
      </trkpt>
      <trkpt lat="44.75558" lon="3.06994">
        <ele>1124.6</ele>
      </trkpt>
      <trkpt lat="44.75536" lon="3.06984">
        <ele>1122.3</ele>
      </trkpt>
      <trkpt lat="44.75536" lon="3.06952">
        <ele>1120.3</ele>
      </trkpt>
      <trkpt lat="44.75557" lon="3.06886">
        <ele>1117.8</ele>
      </trkpt>
      <trkpt lat="44.75568" lon="3.0683">
        <ele>1115.9</ele>
      </trkpt>
      <trkpt lat="44.75544" lon="3.0676">
        <ele>1115.2</ele>
      </trkpt>
      <trkpt lat="44.75535" lon="3.06713">
        <ele>1113.3</ele>
      </trkpt>
      <trkpt lat="44.75536" lon="3.06634">
        <ele>1112.9</ele>
      </trkpt>
      <trkpt lat="44.75514" lon="3.06542">
        <ele>1101.5</ele>
      </trkpt>
      <trkpt lat="44.75472" lon="3.06481">
        <ele>1094</ele>
      </trkpt>
      <trkpt lat="44.75443" lon="3.06431">
        <ele>1085.1</ele>
      </trkpt>
      <trkpt lat="44.75385" lon="3.06379">
        <ele>1080.8</ele>
      </trkpt>
      <trkpt lat="44.75369" lon="3.06329">
        <ele>1076.2</ele>
      </trkpt>
      <trkpt lat="44.75349" lon="3.0629">
        <ele>1075</ele>
      </trkpt>
      <trkpt lat="44.75352" lon="3.06243">
        <ele>1075.7</ele>
      </trkpt>
      <trkpt lat="44.75386" lon="3.06199">
        <ele>1074.8</ele>
      </trkpt>
      <trkpt lat="44.75442" lon="3.06159">
        <ele>1070.8</ele>
      </trkpt>
      <trkpt lat="44.75497" lon="3.06078">
        <ele>1071.3</ele>
      </trkpt>
      <trkpt lat="44.75517" lon="3.06021">
        <ele>1072.6</ele>
      </trkpt>
      <trkpt lat="44.75502" lon="3.05936">
        <ele>1076.4</ele>
      </trkpt>
      <trkpt lat="44.75485" lon="3.05879">
        <ele>1077.1</ele>
      </trkpt>
      <trkpt lat="44.75527" lon="3.0587">
        <ele>1072</ele>
      </trkpt>
      <trkpt lat="44.75557" lon="3.05861">
        <ele>1068.9</ele>
      </trkpt>
      <trkpt lat="44.75586" lon="3.0589">
        <ele>1068.1</ele>
      </trkpt>
      <trkpt lat="44.75599" lon="3.05943">
        <ele>1068.1</ele>
      </trkpt>
      <trkpt lat="44.75603" lon="3.0601">
        <ele>1063.4</ele>
      </trkpt>
      <trkpt lat="44.75614" lon="3.06022">
        <ele>1062.3</ele>
      </trkpt>
      <trkpt lat="44.7572" lon="3.06018">
        <ele>1053.5</ele>
      </trkpt>
      <trkpt lat="44.75758" lon="3.05996">
        <ele>1050.6</ele>
      </trkpt>
      <trkpt lat="44.75794" lon="3.06006">
        <ele>1046.9</ele>
      </trkpt>
      <trkpt lat="44.75816" lon="3.06072">
        <ele>1050.4</ele>
      </trkpt>
      <trkpt lat="44.75884" lon="3.06076">
        <ele>1056.6</ele>
      </trkpt>
      <trkpt lat="44.75955" lon="3.06077">
        <ele>1059.5</ele>
      </trkpt>
      <trkpt lat="44.76007" lon="3.06097">
        <ele>1063.1</ele>
      </trkpt>
      <trkpt lat="44.76034" lon="3.06104">
        <ele>1064.5</ele>
      </trkpt>
      <trkpt lat="44.76041" lon="3.06069">
        <ele>1063.2</ele>
      </trkpt>
      <trkpt lat="44.76032" lon="3.05999">
        <ele>1063.1</ele>
      </trkpt>
      <trkpt lat="44.76046" lon="3.05952">
        <ele>1060</ele>
      </trkpt>
      <trkpt lat="44.76117" lon="3.05836">
        <ele>1059.2</ele>
      </trkpt>
      <trkpt lat="44.76159" lon="3.05828">
        <ele>1059</ele>
      </trkpt>
      <trkpt lat="44.762" lon="3.05841">
        <ele>1057.7</ele>
      </trkpt>
      <trkpt lat="44.76245" lon="3.05844">
        <ele>1055</ele>
      </trkpt>
      <trkpt lat="44.7629" lon="3.05845">
        <ele>1050.8</ele>
      </trkpt>
      <trkpt lat="44.76319" lon="3.05845">
        <ele>1045.7</ele>
      </trkpt>
      <trkpt lat="44.76342" lon="3.0582">
        <ele>1041.2</ele>
      </trkpt>
      <trkpt lat="44.7638" lon="3.05811">
        <ele>1036.5</ele>
      </trkpt>
      <trkpt lat="44.76403" lon="3.0579">
        <ele>1032.8</ele>
      </trkpt>
      <trkpt lat="44.76394" lon="3.05755">
        <ele>1034.2</ele>
      </trkpt>
      <trkpt lat="44.76385" lon="3.05733">
        <ele>1034.3</ele>
      </trkpt>
      <trkpt lat="44.76394" lon="3.05663">
        <ele>1031.2</ele>
      </trkpt>
      <trkpt lat="44.76395" lon="3.056">
        <ele>1032.5</ele>
      </trkpt>
      <trkpt lat="44.76413" lon="3.05566">
        <ele>1029.4</ele>
      </trkpt>
      <trkpt lat="44.76445" lon="3.05522">
        <ele>1024</ele>
      </trkpt>
      <trkpt lat="44.76508" lon="3.0552">
        <ele>1025.5</ele>
      </trkpt>
      <trkpt lat="44.76533" lon="3.05507">
        <ele>1029.1</ele>
      </trkpt>
      <trkpt lat="44.76609" lon="3.0548">
        <ele>1038.1</ele>
      </trkpt>
      <trkpt lat="44.76639" lon="3.05414">
        <ele>1034.1</ele>
      </trkpt>
      <trkpt lat="44.76615" lon="3.05335">
        <ele>1032.6</ele>
      </trkpt>
      <trkpt lat="44.76611" lon="3.05227">
        <ele>1030</ele>
      </trkpt>
      <trkpt lat="44.76557" lon="3.05141">
        <ele>1028.3</ele>
      </trkpt>
      <trkpt lat="44.76646" lon="3.05076">
        <ele>1028.6</ele>
      </trkpt>
      <trkpt lat="44.76691" lon="3.05029">
        <ele>1029.1</ele>
      </trkpt>
      <trkpt lat="44.76756" lon="3.04999">
        <ele>1027.4</ele>
      </trkpt>
      <trkpt lat="44.76806" lon="3.0493">
        <ele>1023.5</ele>
      </trkpt>
      <trkpt lat="44.76847" lon="3.04858">
        <ele>1019.6</ele>
      </trkpt>
      <trkpt lat="44.76861" lon="3.04798">
        <ele>1020.8</ele>
      </trkpt>
      <trkpt lat="44.76902" lon="3.04726">
        <ele>1016.2</ele>
      </trkpt>
      <trkpt lat="44.76925" lon="3.04698">
        <ele>1011.8</ele>
      </trkpt>
      <trkpt lat="44.76936" lon="3.04657">
        <ele>1008.4</ele>
      </trkpt>
      <trkpt lat="44.76981" lon="3.04648">
        <ele>1006.7</ele>
      </trkpt>
      <trkpt lat="44.77148" lon="3.04571">
        <ele>1005.3</ele>
      </trkpt>
      <trkpt lat="44.77274" lon="3.04522">
        <ele>1008.5</ele>
      </trkpt>
      <trkpt lat="44.77281" lon="3.04488">
        <ele>1009.7</ele>
      </trkpt>
      <trkpt lat="44.77306" lon="3.04472">
        <ele>1014</ele>
      </trkpt>
      <trkpt lat="44.77333" lon="3.04498">
        <ele>1016.8</ele>
      </trkpt>
      <trkpt lat="44.77335" lon="3.04561">
        <ele>1023.7</ele>
      </trkpt>
      <trkpt lat="44.77321" lon="3.04602">
        <ele>1029.1</ele>
      </trkpt>
      <trkpt lat="44.77276" lon="3.04655">
        <ele>1033.3</ele>
      </trkpt>
      <trkpt lat="44.7723" lon="3.04708">
        <ele>1039.2</ele>
      </trkpt>
      <trkpt lat="44.77187" lon="3.04767">
        <ele>1044.6</ele>
      </trkpt>
      <trkpt lat="44.77171" lon="3.04808">
        <ele>1048.6</ele>
      </trkpt>
      <trkpt lat="44.77166" lon="3.04887">
        <ele>1054.8</ele>
      </trkpt>
      <trkpt lat="44.77192" lon="3.05014">
        <ele>1060.7</ele>
      </trkpt>
      <trkpt lat="44.77237" lon="3.05096">
        <ele>1060.9</ele>
      </trkpt>
      <trkpt lat="44.77273" lon="3.05125">
        <ele>1060.6</ele>
      </trkpt>
      <trkpt lat="44.77331" lon="3.05167">
        <ele>1062.6</ele>
      </trkpt>
      <trkpt lat="44.77337" lon="3.05218">
        <ele>1060.1</ele>
      </trkpt>
      <trkpt lat="44.77328" lon="3.053">
        <ele>1063.6</ele>
      </trkpt>
      <trkpt lat="44.77379" lon="3.05319">
        <ele>1063.2</ele>
      </trkpt>
      <trkpt lat="44.77422" lon="3.05348">
        <ele>1064.2</ele>
      </trkpt>
      <trkpt lat="44.77503" lon="3.05362">
        <ele>1071.1</ele>
      </trkpt>
      <trkpt lat="44.77568" lon="3.05382">
        <ele>1070.4</ele>
      </trkpt>
      <trkpt lat="44.77628" lon="3.05398">
        <ele>1068.2</ele>
      </trkpt>
      <trkpt lat="44.77813" lon="3.05372">
        <ele>1059.1</ele>
      </trkpt>
      <trkpt lat="44.77849" lon="3.05369">
        <ele>1058.3</ele>
      </trkpt>
      <trkpt lat="44.77924" lon="3.05241">
        <ele>1045.1</ele>
      </trkpt>
      <trkpt lat="44.77991" lon="3.05248">
        <ele>1040.3</ele>
      </trkpt>
      <trkpt lat="44.7803" lon="3.05258">
        <ele>1031.7</ele>
      </trkpt>
      <trkpt lat="44.78077" lon="3.05259">
        <ele>1021.9</ele>
      </trkpt>
      <trkpt lat="44.78063" lon="3.053">
        <ele>1020.8</ele>
      </trkpt>
      <trkpt lat="44.78042" lon="3.05394">
        <ele>1023.5</ele>
      </trkpt>
      <trkpt lat="44.78053" lon="3.05429">
        <ele>1022.3</ele>
      </trkpt>
      <trkpt lat="44.78085" lon="3.05451">
        <ele>1027.1</ele>
      </trkpt>
      <trkpt lat="44.78141" lon="3.05449">
        <ele>1029.2</ele>
      </trkpt>
      <trkpt lat="44.78228" lon="3.05463">
        <ele>1036.6</ele>
      </trkpt>
      <trkpt lat="44.78269" lon="3.05469">
        <ele>1038.5</ele>
      </trkpt>
      <trkpt lat="44.78293" lon="3.05527">
        <ele>1045.5</ele>
      </trkpt>
      <trkpt lat="44.78297" lon="3.05584">
        <ele>1050.8</ele>
      </trkpt>
      <trkpt lat="44.78288" lon="3.05593">
        <ele>1053.8</ele>
      </trkpt>
      <trkpt lat="44.78277" lon="3.05577">
        <ele>1054.3</ele>
      </trkpt>
      <trkpt lat="44.78255" lon="3.05592">
        <ele>1057.4</ele>
      </trkpt>
      <trkpt lat="44.78227" lon="3.05627">
        <ele>1064.2</ele>
      </trkpt>
      <trkpt lat="44.78202" lon="3.05655">
        <ele>1069.7</ele>
      </trkpt>
      <trkpt lat="44.78173" lon="3.05724">
        <ele>1080.5</ele>
      </trkpt>
      <trkpt lat="44.78157" lon="3.05765">
        <ele>1086.6</ele>
      </trkpt>
      <trkpt lat="44.78114" lon="3.05799">
        <ele>1092</ele>
      </trkpt>
      <trkpt lat="44.78053" lon="3.05823">
        <ele>1094.5</ele>
      </trkpt>
      <trkpt lat="44.78001" lon="3.05845">
        <ele>1094.7</ele>
      </trkpt>
      <trkpt lat="44.77963" lon="3.05882">
        <ele>1094.4</ele>
      </trkpt>
      <trkpt lat="44.77924" lon="3.05939">
        <ele>1091.4</ele>
      </trkpt>
      <trkpt lat="44.77901" lon="3.05995">
        <ele>1089.2</ele>
      </trkpt>
      <trkpt lat="44.77899" lon="3.0602">
        <ele>1089.4</ele>
      </trkpt>
      <trkpt lat="44.77858" lon="3.06077">
        <ele>1087.6</ele>
      </trkpt>
      <trkpt lat="44.77837" lon="3.06099">
        <ele>1087.6</ele>
      </trkpt>
      <trkpt lat="44.77801" lon="3.06108">
        <ele>1082.1</ele>
      </trkpt>
      <trkpt lat="44.77774" lon="3.06126">
        <ele>1081.6</ele>
      </trkpt>
      <trkpt lat="44.7775" lon="3.06135">
        <ele>1079.3</ele>
      </trkpt>
      <trkpt lat="44.77705" lon="3.06141">
        <ele>1073.1</ele>
      </trkpt>
      <trkpt lat="44.77695" lon="3.0615">
        <ele>1072.9</ele>
      </trkpt>
      <trkpt lat="44.77688" lon="3.06229">
        <ele>1079</ele>
      </trkpt>
      <trkpt lat="44.77679" lon="3.06327">
        <ele>1082</ele>
      </trkpt>
      <trkpt lat="44.77613" lon="3.06383">
        <ele>1080.6</ele>
      </trkpt>
      <trkpt lat="44.77581" lon="3.06417">
        <ele>1082.2</ele>
      </trkpt>
      <trkpt lat="44.77572" lon="3.06442">
        <ele>1084.8</ele>
      </trkpt>
      <trkpt lat="44.7758" lon="3.06537">
        <ele>1090.3</ele>
      </trkpt>
      <trkpt lat="44.7751" lon="3.06688">
        <ele>1098</ele>
      </trkpt>
      <trkpt lat="44.77471" lon="3.06798">
        <ele>1105.5</ele>
      </trkpt>
      <trkpt lat="44.77457" lon="3.06889">
        <ele>1109.7</ele>
      </trkpt>
      <trkpt lat="44.77388" lon="3.07037">
        <ele>1117.3</ele>
      </trkpt>
      <trkpt lat="44.77349" lon="3.07175">
        <ele>1123</ele>
      </trkpt>
      <trkpt lat="44.77326" lon="3.0725">
        <ele>1126</ele>
      </trkpt>
      <trkpt lat="44.77235" lon="3.07404">
        <ele>1133.3</ele>
      </trkpt>
      <trkpt lat="44.77306" lon="3.07853">
        <ele>1152.7</ele>
      </trkpt>
      <trkpt lat="44.7738" lon="3.08315">
        <ele>1165.7</ele>
      </trkpt>
      <trkpt lat="44.77355" lon="3.08356">
        <ele>1167</ele>
      </trkpt>
      <trkpt lat="44.77336" lon="3.08523">
        <ele>1165.1</ele>
      </trkpt>
      <trkpt lat="44.77621" lon="3.08549">
        <ele>1154.9</ele>
      </trkpt>
      <trkpt lat="44.77682" lon="3.08565">
        <ele>1150.4</ele>
      </trkpt>
      <trkpt lat="44.77717" lon="3.08607">
        <ele>1146.5</ele>
      </trkpt>
      <trkpt lat="44.77814" lon="3.08596">
        <ele>1141.1</ele>
      </trkpt>
      <trkpt lat="44.77873" lon="3.08584">
        <ele>1137.2</ele>
      </trkpt>
      <trkpt lat="44.77913" lon="3.08553">
        <ele>1134</ele>
      </trkpt>
      <trkpt lat="44.77959" lon="3.085">
        <ele>1130.5</ele>
      </trkpt>
      <trkpt lat="44.78006" lon="3.08428">
        <ele>1126.8</ele>
      </trkpt>
      <trkpt lat="44.78042" lon="3.08412">
        <ele>1124.9</ele>
      </trkpt>
      <trkpt lat="44.78083" lon="3.08397">
        <ele>1123</ele>
      </trkpt>
      <trkpt lat="44.78228" lon="3.08232">
        <ele>1119.5</ele>
      </trkpt>
      <trkpt lat="44.78194" lon="3.08323">
        <ele>1119.4</ele>
      </trkpt>
      <trkpt lat="44.782" lon="3.08402">
        <ele>1116.8</ele>
      </trkpt>
      <trkpt lat="44.78199" lon="3.08506">
        <ele>1114.7</ele>
      </trkpt>
      <trkpt lat="44.78206" lon="3.08547">
        <ele>1111.6</ele>
      </trkpt>
      <trkpt lat="44.78185" lon="3.08619">
        <ele>1106.6</ele>
      </trkpt>
      <trkpt lat="44.78198" lon="3.0867">
        <ele>1105.6</ele>
      </trkpt>
      <trkpt lat="44.78229" lon="3.08699">
        <ele>1105.3</ele>
      </trkpt>
      <trkpt lat="44.7827" lon="3.08712">
        <ele>1106.5</ele>
      </trkpt>
      <trkpt lat="44.78341" lon="3.08814">
        <ele>1108.7</ele>
      </trkpt>
      <trkpt lat="44.78296" lon="3.08886">
        <ele>1113.1</ele>
      </trkpt>
      <trkpt lat="44.78284" lon="3.08924">
        <ele>1110.9</ele>
      </trkpt>
      <trkpt lat="44.78291" lon="3.08959">
        <ele>1110.1</ele>
      </trkpt>
      <trkpt lat="44.78328" lon="3.09076">
        <ele>1113.3</ele>
      </trkpt>
      <trkpt lat="44.78348" lon="3.09146">
        <ele>1113.7</ele>
      </trkpt>
      <trkpt lat="44.78352" lon="3.09222">
        <ele>1116.3</ele>
      </trkpt>
      <trkpt lat="44.78313" lon="3.09297">
        <ele>1120.6</ele>
      </trkpt>
      <trkpt lat="44.7827" lon="3.09328">
        <ele>1121.4</ele>
      </trkpt>
      <trkpt lat="44.78214" lon="3.09368">
        <ele>1121.7</ele>
      </trkpt>
      <trkpt lat="44.78157" lon="3.09427">
        <ele>1118.6</ele>
      </trkpt>
      <trkpt lat="44.78164" lon="3.09421">
        <ele>1118.8</ele>
      </trkpt>
      <trkpt lat="44.78161" lon="3.09424">
        <ele>1118.7</ele>
      </trkpt>
      <trkpt lat="44.78136" lon="3.09465">
        <ele>1117.1</ele>
      </trkpt>
      <trkpt lat="44.78109" lon="3.09547">
        <ele>1118.8</ele>
      </trkpt>
      <trkpt lat="44.78091" lon="3.09575">
        <ele>1121.7</ele>
      </trkpt>
      <trkpt lat="44.77985" lon="3.09583">
        <ele>1131.5</ele>
      </trkpt>
      <trkpt lat="44.78018" lon="3.09662">
        <ele>1136.3</ele>
      </trkpt>
      <trkpt lat="44.78049" lon="3.0976">
        <ele>1141.8</ele>
      </trkpt>
      <trkpt lat="44.78071" lon="3.0978">
        <ele>1140.5</ele>
      </trkpt>
      <trkpt lat="44.78094" lon="3.09777">
        <ele>1139.3</ele>
      </trkpt>
      <trkpt lat="44.78139" lon="3.09749">
        <ele>1137.9</ele>
      </trkpt>
      <trkpt lat="44.782" lon="3.09747">
        <ele>1139.2</ele>
      </trkpt>
      <trkpt lat="44.78249" lon="3.09747">
        <ele>1140.7</ele>
      </trkpt>
      <trkpt lat="44.78303" lon="3.09704">
        <ele>1141.5</ele>
      </trkpt>
      <trkpt lat="44.78337" lon="3.09711">
        <ele>1144.9</ele>
      </trkpt>
      <trkpt lat="44.78357" lon="3.09724">
        <ele>1146.8</ele>
      </trkpt>
      <trkpt lat="44.78417" lon="3.09778">
        <ele>1150</ele>
      </trkpt>
      <trkpt lat="44.78518" lon="3.09858">
        <ele>1149.3</ele>
      </trkpt>
      <trkpt lat="44.78599" lon="3.09872">
        <ele>1150.9</ele>
      </trkpt>
      <trkpt lat="44.78743" lon="3.09827">
        <ele>1147.8</ele>
      </trkpt>
      <trkpt lat="44.78822" lon="3.09812">
        <ele>1147.2</ele>
      </trkpt>
      <trkpt lat="44.78975" lon="3.09757">
        <ele>1146.5</ele>
      </trkpt>
      <trkpt lat="44.79083" lon="3.09759">
        <ele>1140.6</ele>
      </trkpt>
      <trkpt lat="44.79202" lon="3.09792">
        <ele>1133.8</ele>
      </trkpt>
      <trkpt lat="44.79283" lon="3.09847">
        <ele>1126.8</ele>
      </trkpt>
      <trkpt lat="44.7937" lon="3.09965">
        <ele>1120.8</ele>
      </trkpt>
      <trkpt lat="44.79394" lon="3.09994">
        <ele>1118.6</ele>
      </trkpt>
      <trkpt lat="44.79419" lon="3.1">
        <ele>1118</ele>
      </trkpt>
      <trkpt lat="44.79471" lon="3.09938">
        <ele>1114.5</ele>
      </trkpt>
      <trkpt lat="44.79552" lon="3.09942">
        <ele>1109.2</ele>
      </trkpt>
      <trkpt lat="44.79611" lon="3.09905">
        <ele>1107.6</ele>
      </trkpt>
      <trkpt lat="44.7966" lon="3.09858">
        <ele>1109.5</ele>
      </trkpt>
      <trkpt lat="44.7972" lon="3.09704">
        <ele>1114.9</ele>
      </trkpt>
      <trkpt lat="44.79749" lon="3.09676">
        <ele>1116</ele>
      </trkpt>
      <trkpt lat="44.79806" lon="3.09645">
        <ele>1114</ele>
      </trkpt>
      <trkpt lat="44.80129" lon="3.09722">
        <ele>1106</ele>
      </trkpt>
      <trkpt lat="44.80145" lon="3.09694">
        <ele>1105</ele>
      </trkpt>
      <trkpt lat="44.80195" lon="3.09682">
        <ele>1105.6</ele>
      </trkpt>
      <trkpt lat="44.80235" lon="3.09664">
        <ele>1107.9</ele>
      </trkpt>
      <trkpt lat="44.80265" lon="3.09633">
        <ele>1109.7</ele>
      </trkpt>
      <trkpt lat="44.80441" lon="3.09512">
        <ele>1124.3</ele>
      </trkpt>
      <trkpt lat="44.80454" lon="3.09509">
        <ele>1123.7</ele>
      </trkpt>
      <trkpt lat="44.80515" lon="3.0951">
        <ele>1117.4</ele>
      </trkpt>
      <trkpt lat="44.80553" lon="3.09504">
        <ele>1113.7</ele>
      </trkpt>
      <trkpt lat="44.80614" lon="3.09489">
        <ele>1108.4</ele>
      </trkpt>
      <trkpt lat="44.80695" lon="3.0944">
        <ele>1098.2</ele>
      </trkpt>
      <trkpt lat="44.80734" lon="3.09431">
        <ele>1094</ele>
      </trkpt>
      <trkpt lat="44.80898" lon="3.0943">
        <ele>1080.9</ele>
      </trkpt>
      <trkpt lat="44.80943" lon="3.09414">
        <ele>1074.2</ele>
      </trkpt>
      <trkpt lat="44.81" lon="3.09362">
        <ele>1065.1</ele>
      </trkpt>
      <trkpt lat="44.81076" lon="3.09388">
        <ele>1059.3</ele>
      </trkpt>
      <trkpt lat="44.8113" lon="3.09347">
        <ele>1049.8</ele>
      </trkpt>
      <trkpt lat="44.81207" lon="3.09282">
        <ele>1039.3</ele>
      </trkpt>
      <trkpt lat="44.81252" lon="3.09258">
        <ele>1035.2</ele>
      </trkpt>
      <trkpt lat="44.81369" lon="3.09237">
        <ele>1033.1</ele>
      </trkpt>
      <trkpt lat="44.81437" lon="3.09203">
        <ele>1026.5</ele>
      </trkpt>
      <trkpt lat="44.81475" lon="3.09156">
        <ele>1024.9</ele>
      </trkpt>
      <trkpt lat="44.81505" lon="3.09071">
        <ele>1020.6</ele>
      </trkpt>
      <trkpt lat="44.81557" lon="3.09031">
        <ele>1014.4</ele>
      </trkpt>
      <trkpt lat="44.81668" lon="3.08988">
        <ele>1009.6</ele>
      </trkpt>
      <trkpt lat="44.81733" lon="3.09002">
        <ele>1006.8</ele>
      </trkpt>
      <trkpt lat="44.81771" lon="3.08999">
        <ele>1002.1</ele>
      </trkpt>
      <trkpt lat="44.81889" lon="3.08868">
        <ele>987.7</ele>
      </trkpt>
      <trkpt lat="44.81988" lon="3.08812">
        <ele>979.4</ele>
      </trkpt>
      <trkpt lat="44.82018" lon="3.08788">
        <ele>976.3</ele>
      </trkpt>
      <trkpt lat="44.82062" lon="3.08855">
        <ele>972.5</ele>
      </trkpt>
      <trkpt lat="44.82199" lon="3.08834">
        <ele>963.8</ele>
      </trkpt>
      <trkpt lat="44.82328" lon="3.08823">
        <ele>959.5</ele>
      </trkpt>
      <trkpt lat="44.82418" lon="3.08844">
        <ele>951.9</ele>
      </trkpt>
      <trkpt lat="44.82449" lon="3.0885">
        <ele>950.1</ele>
      </trkpt>
      <trkpt lat="44.82408" lon="3.08897">
        <ele>945.6</ele>
      </trkpt>
      <trkpt lat="44.82395" lon="3.08925">
        <ele>945.7</ele>
      </trkpt>
      <trkpt lat="44.82429" lon="3.09191">
        <ele>957.9</ele>
      </trkpt>
      <trkpt lat="44.8248" lon="3.09243">
        <ele>960.7</ele>
      </trkpt>
      <trkpt lat="44.82516" lon="3.09312">
        <ele>962.6</ele>
      </trkpt>
      <trkpt lat="44.82526" lon="3.09411">
        <ele>963.1</ele>
      </trkpt>
      <trkpt lat="44.82514" lon="3.09562">
        <ele>960.2</ele>
      </trkpt>
      <trkpt lat="44.82509" lon="3.09641">
        <ele>954.2</ele>
      </trkpt>
      <trkpt lat="44.82522" lon="3.09689">
        <ele>952</ele>
      </trkpt>
      <trkpt lat="44.82587" lon="3.09756">
        <ele>957.3</ele>
      </trkpt>
      <trkpt lat="44.8262" lon="3.09823">
        <ele>962.3</ele>
      </trkpt>
      <trkpt lat="44.8262" lon="3.09889">
        <ele>965.2</ele>
      </trkpt>
      <trkpt lat="44.82605" lon="3.09984">
        <ele>971</ele>
      </trkpt>
      <trkpt lat="44.82605" lon="3.10053">
        <ele>973.6</ele>
      </trkpt>
      <trkpt lat="44.82614" lon="3.10097">
        <ele>974.3</ele>
      </trkpt>
      <trkpt lat="44.82649" lon="3.10145">
        <ele>975.4</ele>
      </trkpt>
      <trkpt lat="44.82662" lon="3.10193">
        <ele>972.1</ele>
      </trkpt>
      <trkpt lat="44.82667" lon="3.10212">
        <ele>971.6</ele>
      </trkpt>
      <trkpt lat="44.82711" lon="3.1026">
        <ele>968.8</ele>
      </trkpt>
      <trkpt lat="44.82731" lon="3.10355">
        <ele>968.6</ele>
      </trkpt>
      <trkpt lat="44.82753" lon="3.104">
        <ele>962.8</ele>
      </trkpt>
      <trkpt lat="44.82775" lon="3.10457">
        <ele>960.1</ele>
      </trkpt>
      <trkpt lat="44.82781" lon="3.10596">
        <ele>950.6</ele>
      </trkpt>
      <trkpt lat="44.82801" lon="3.1065">
        <ele>947.6</ele>
      </trkpt>
      <trkpt lat="44.82819" lon="3.10628">
        <ele>944.8</ele>
      </trkpt>
      <trkpt lat="44.82841" lon="3.10635">
        <ele>941</ele>
      </trkpt>
      <trkpt lat="44.82864" lon="3.10644">
        <ele>936</ele>
      </trkpt>
      <trkpt lat="44.82893" lon="3.10721">
        <ele>929.9</ele>
      </trkpt>
      <trkpt lat="44.82881" lon="3.10784">
        <ele>925.7</ele>
      </trkpt>
      <trkpt lat="44.82899" lon="3.10806">
        <ele>925.8</ele>
      </trkpt>
      <trkpt lat="44.82939" lon="3.10803">
        <ele>930.2</ele>
      </trkpt>
      <trkpt lat="44.82951" lon="3.10785">
        <ele>932.3</ele>
      </trkpt>
      <trkpt lat="44.82967" lon="3.10655">
        <ele>932.4</ele>
      </trkpt>
      <trkpt lat="44.82977" lon="3.10567">
        <ele>932.8</ele>
      </trkpt>
      <trkpt lat="44.82998" lon="3.10491">
        <ele>937.8</ele>
      </trkpt>
      <trkpt lat="44.83032" lon="3.1046">
        <ele>943.3</ele>
      </trkpt>
      <trkpt lat="44.83054" lon="3.1047">
        <ele>947.5</ele>
      </trkpt>
      <trkpt lat="44.83081" lon="3.10521">
        <ele>958.5</ele>
      </trkpt>
      <trkpt lat="44.83101" lon="3.10534">
        <ele>960.1</ele>
      </trkpt>
      <trkpt lat="44.83136" lon="3.10645">
        <ele>970.3</ele>
      </trkpt>
      <trkpt lat="44.83151" lon="3.10715">
        <ele>973.6</ele>
      </trkpt>
      <trkpt lat="44.83167" lon="3.10756">
        <ele>977.7</ele>
      </trkpt>
      <trkpt lat="44.83178" lon="3.10775">
        <ele>980.6</ele>
      </trkpt>
      <trkpt lat="44.83178" lon="3.10807">
        <ele>983.2</ele>
      </trkpt>
      <trkpt lat="44.83162" lon="3.10819">
        <ele>982</ele>
      </trkpt>
      <trkpt lat="44.83157" lon="3.10829">
        <ele>981.7</ele>
      </trkpt>
      <trkpt lat="44.83224" lon="3.10867">
        <ele>988.4</ele>
      </trkpt>
      <trkpt lat="44.83249" lon="3.10906">
        <ele>992.7</ele>
      </trkpt>
      <trkpt lat="44.83276" lon="3.10944">
        <ele>995.9</ele>
      </trkpt>
      <trkpt lat="44.83287" lon="3.10957">
        <ele>996.6</ele>
      </trkpt>
      <trkpt lat="44.83302" lon="3.10963">
        <ele>996.5</ele>
      </trkpt>
      <trkpt lat="44.83282" lon="3.11023">
        <ele>1001.7</ele>
      </trkpt>
      <trkpt lat="44.8325" lon="3.11048">
        <ele>1003.5</ele>
      </trkpt>
      <trkpt lat="44.83257" lon="3.11083">
        <ele>1006.2</ele>
      </trkpt>
      <trkpt lat="44.83297" lon="3.11115">
        <ele>1009.7</ele>
      </trkpt>
      <trkpt lat="44.83315" lon="3.11131">
        <ele>1011.4</ele>
      </trkpt>
      <trkpt lat="44.83346" lon="3.11223">
        <ele>1019</ele>
      </trkpt>
      <trkpt lat="44.83329" lon="3.1127">
        <ele>1022.9</ele>
      </trkpt>
      <trkpt lat="44.83311" lon="3.11305">
        <ele>1024.4</ele>
      </trkpt>
      <trkpt lat="44.83311" lon="3.11349">
        <ele>1028.3</ele>
      </trkpt>
      <trkpt lat="44.83351" lon="3.1147">
        <ele>1038.1</ele>
      </trkpt>
      <trkpt lat="44.83386" lon="3.11514">
        <ele>1042.3</ele>
      </trkpt>
      <trkpt lat="44.83434" lon="3.11506">
        <ele>1046.7</ele>
      </trkpt>
      <trkpt lat="44.83486" lon="3.11734">
        <ele>1054</ele>
      </trkpt>
      <trkpt lat="44.83485" lon="3.11813">
        <ele>1053.4</ele>
      </trkpt>
      <trkpt lat="44.83467" lon="3.11888">
        <ele>1052.4</ele>
      </trkpt>
      <trkpt lat="44.83473" lon="3.12012">
        <ele>1053</ele>
      </trkpt>
      <trkpt lat="44.83472" lon="3.12053">
        <ele>1053.9</ele>
      </trkpt>
      <trkpt lat="44.83481" lon="3.12176">
        <ele>1057.6</ele>
      </trkpt>
      <trkpt lat="44.83455" lon="3.12258">
        <ele>1059.4</ele>
      </trkpt>
      <trkpt lat="44.83439" lon="3.12305">
        <ele>1060.8</ele>
      </trkpt>
      <trkpt lat="44.83485" lon="3.12442">
        <ele>1063.5</ele>
      </trkpt>
      <trkpt lat="44.8352" lon="3.126">
        <ele>1062.5</ele>
      </trkpt>
      <trkpt lat="44.83571" lon="3.12724">
        <ele>1060</ele>
      </trkpt>
      <trkpt lat="44.83609" lon="3.12823">
        <ele>1059.1</ele>
      </trkpt>
      <trkpt lat="44.83641" lon="3.12937">
        <ele>1056.9</ele>
      </trkpt>
      <trkpt lat="44.83659" lon="3.12975">
        <ele>1056</ele>
      </trkpt>
      <trkpt lat="44.83701" lon="3.13036">
        <ele>1056.3</ele>
      </trkpt>
      <trkpt lat="44.83598" lon="3.13034">
        <ele>1057.5</ele>
      </trkpt>
      <trkpt lat="44.83607" lon="3.13041">
        <ele>1056.4</ele>
      </trkpt>
      <trkpt lat="44.83497" lon="3.13058">
        <ele>1060.6</ele>
      </trkpt>
      <trkpt lat="44.83286" lon="3.1297">
        <ele>1056.3</ele>
      </trkpt>
      <trkpt lat="44.8319" lon="3.12889">
        <ele>1050.8</ele>
      </trkpt>
      <trkpt lat="44.83067" lon="3.12806">
        <ele>1048</ele>
      </trkpt>
      <trkpt lat="44.82948" lon="3.12766">
        <ele>1045.2</ele>
      </trkpt>
      <trkpt lat="44.82826" lon="3.12777">
        <ele>1040.7</ele>
      </trkpt>
      <trkpt lat="44.82757" lon="3.12763">
        <ele>1038.6</ele>
      </trkpt>
      <trkpt lat="44.82694" lon="3.12734">
        <ele>1034.4</ele>
      </trkpt>
      <trkpt lat="44.826" lon="3.12717">
        <ele>1027.9</ele>
      </trkpt>
      <trkpt lat="44.82479" lon="3.12611">
        <ele>1018.5</ele>
      </trkpt>
      <trkpt lat="44.824" lon="3.12584">
        <ele>1007.9</ele>
      </trkpt>
      <trkpt lat="44.8229" lon="3.12646">
        <ele>998.1</ele>
      </trkpt>
      <trkpt lat="44.822" lon="3.12629">
        <ele>997.9</ele>
      </trkpt>
      <trkpt lat="44.82135" lon="3.12638">
        <ele>996.1</ele>
      </trkpt>
      <trkpt lat="44.82047" lon="3.12602">
        <ele>989.8</ele>
      </trkpt>
      <trkpt lat="44.81953" lon="3.12518">
        <ele>974.5</ele>
      </trkpt>
      <trkpt lat="44.81868" lon="3.12466">
        <ele>966.9</ele>
      </trkpt>
      <trkpt lat="44.81828" lon="3.12463">
        <ele>966.1</ele>
      </trkpt>
      <trkpt lat="44.81794" lon="3.12484">
        <ele>967.6</ele>
      </trkpt>
      <trkpt lat="44.81779" lon="3.12446">
        <ele>967</ele>
      </trkpt>
      <trkpt lat="44.81721" lon="3.12344">
        <ele>965</ele>
      </trkpt>
      <trkpt lat="44.81705" lon="3.1236">
        <ele>968.4</ele>
      </trkpt>
      <trkpt lat="44.81703" lon="3.12388">
        <ele>972.2</ele>
      </trkpt>
      <trkpt lat="44.81638" lon="3.12349">
        <ele>970.3</ele>
      </trkpt>
      <trkpt lat="44.81588" lon="3.12368">
        <ele>973.2</ele>
      </trkpt>
      <trkpt lat="44.81541" lon="3.12364">
        <ele>972.2</ele>
      </trkpt>
      <trkpt lat="44.81487" lon="3.12376">
        <ele>975.5</ele>
      </trkpt>
      <trkpt lat="44.81413" lon="3.12359">
        <ele>972.6</ele>
      </trkpt>
      <trkpt lat="44.81345" lon="3.12408">
        <ele>980.2</ele>
      </trkpt>
      <trkpt lat="44.81304" lon="3.12452">
        <ele>987</ele>
      </trkpt>
      <trkpt lat="44.81211" lon="3.1253">
        <ele>1001.7</ele>
      </trkpt>
      <trkpt lat="44.81141" lon="3.12595">
        <ele>1014.2</ele>
      </trkpt>
      <trkpt lat="44.81091" lon="3.12629">
        <ele>1020.9</ele>
      </trkpt>
      <trkpt lat="44.81066" lon="3.12682">
        <ele>1024.9</ele>
      </trkpt>
      <trkpt lat="44.81041" lon="3.12761">
        <ele>1028.3</ele>
      </trkpt>
      <trkpt lat="44.80948" lon="3.12883">
        <ele>1041.2</ele>
      </trkpt>
      <trkpt lat="44.80905" lon="3.12974">
        <ele>1046.7</ele>
      </trkpt>
      <trkpt lat="44.80838" lon="3.13093">
        <ele>1045.2</ele>
      </trkpt>
      <trkpt lat="44.80748" lon="3.13108">
        <ele>1052.7</ele>
      </trkpt>
      <trkpt lat="44.80652" lon="3.13119">
        <ele>1062.7</ele>
      </trkpt>
      <trkpt lat="44.80625" lon="3.13103">
        <ele>1066.1</ele>
      </trkpt>
      <trkpt lat="44.80618" lon="3.13068">
        <ele>1066.5</ele>
      </trkpt>
      <trkpt lat="44.80607" lon="3.13017">
        <ele>1068.9</ele>
      </trkpt>
      <trkpt lat="44.80558" lon="3.12988">
        <ele>1075.1</ele>
      </trkpt>
      <trkpt lat="44.80525" lon="3.12965">
        <ele>1081.6</ele>
      </trkpt>
      <trkpt lat="44.80482" lon="3.12921">
        <ele>1083.4</ele>
      </trkpt>
      <trkpt lat="44.80421" lon="3.12923">
        <ele>1078.3</ele>
      </trkpt>
      <trkpt lat="44.80383" lon="3.12963">
        <ele>1077.7</ele>
      </trkpt>
      <trkpt lat="44.80313" lon="3.13019">
        <ele>1077.8</ele>
      </trkpt>
      <trkpt lat="44.80245" lon="3.13069">
        <ele>1076.7</ele>
      </trkpt>
      <trkpt lat="44.80222" lon="3.13072">
        <ele>1078.2</ele>
      </trkpt>
      <trkpt lat="44.80144" lon="3.13067">
        <ele>1077.3</ele>
      </trkpt>
      <trkpt lat="44.8011" lon="3.13099">
        <ele>1082.8</ele>
      </trkpt>
      <trkpt lat="44.8006" lon="3.13133">
        <ele>1089.4</ele>
      </trkpt>
      <trkpt lat="44.80044" lon="3.13249">
        <ele>1097.5</ele>
      </trkpt>
      <trkpt lat="44.80049" lon="3.13436">
        <ele>1110.4</ele>
      </trkpt>
      <trkpt lat="44.80042" lon="3.13527">
        <ele>1115.9</ele>
      </trkpt>
      <trkpt lat="44.79964" lon="3.13668">
        <ele>1120.9</ele>
      </trkpt>
      <trkpt lat="44.79963" lon="3.1376">
        <ele>1128.4</ele>
      </trkpt>
      <trkpt lat="44.7994" lon="3.1387">
        <ele>1134</ele>
      </trkpt>
      <trkpt lat="44.79887" lon="3.14059">
        <ele>1134.9</ele>
      </trkpt>
      <trkpt lat="44.79846" lon="3.14071">
        <ele>1131.8</ele>
      </trkpt>
      <trkpt lat="44.79828" lon="3.14197">
        <ele>1140.2</ele>
      </trkpt>
      <trkpt lat="44.79802" lon="3.14275">
        <ele>1143.4</ele>
      </trkpt>
      <trkpt lat="44.79781" lon="3.14379">
        <ele>1147.3</ele>
      </trkpt>
      <trkpt lat="44.79771" lon="3.14518">
        <ele>1154.3</ele>
      </trkpt>
      <trkpt lat="44.79757" lon="3.14556">
        <ele>1157.3</ele>
      </trkpt>
      <trkpt lat="44.79721" lon="3.14622">
        <ele>1159.3</ele>
      </trkpt>
      <trkpt lat="44.79723" lon="3.14697">
        <ele>1163.2</ele>
      </trkpt>
      <trkpt lat="44.79704" lon="3.14811">
        <ele>1160.9</ele>
      </trkpt>
      <trkpt lat="44.79721" lon="3.14915">
        <ele>1160</ele>
      </trkpt>
      <trkpt lat="44.79783" lon="3.15005">
        <ele>1160.5</ele>
      </trkpt>
      <trkpt lat="44.79801" lon="3.15122">
        <ele>1162.6</ele>
      </trkpt>
      <trkpt lat="44.79743" lon="3.15317">
        <ele>1172.6</ele>
      </trkpt>
      <trkpt lat="44.79794" lon="3.15355">
        <ele>1180.7</ele>
      </trkpt>
      <trkpt lat="44.79814" lon="3.15416">
        <ele>1186.3</ele>
      </trkpt>
      <trkpt lat="44.79847" lon="3.15467">
        <ele>1189.8</ele>
      </trkpt>
      <trkpt lat="44.79939" lon="3.15566">
        <ele>1192.7</ele>
      </trkpt>
      <trkpt lat="44.79966" lon="3.15588">
        <ele>1191.7</ele>
      </trkpt>
      <trkpt lat="44.80047" lon="3.15599">
        <ele>1184.3</ele>
      </trkpt>
      <trkpt lat="44.80073" lon="3.15625">
        <ele>1179.5</ele>
      </trkpt>
      <trkpt lat="44.80134" lon="3.15689">
        <ele>1173.4</ele>
      </trkpt>
      <trkpt lat="44.80185" lon="3.15715">
        <ele>1169.9</ele>
      </trkpt>
      <trkpt lat="44.80225" lon="3.15756">
        <ele>1166.6</ele>
      </trkpt>
      <trkpt lat="44.80308" lon="3.15875">
        <ele>1165.5</ele>
      </trkpt>
      <trkpt lat="44.80381" lon="3.15939">
        <ele>1159.8</ele>
      </trkpt>
      <trkpt lat="44.80451" lon="3.1593">
        <ele>1156.7</ele>
      </trkpt>
      <trkpt lat="44.80501" lon="3.15937">
        <ele>1149.5</ele>
      </trkpt>
      <trkpt lat="44.80514" lon="3.15985">
        <ele>1144.6</ele>
      </trkpt>
      <trkpt lat="44.80524" lon="3.16051">
        <ele>1139</ele>
      </trkpt>
      <trkpt lat="44.80556" lon="3.16071">
        <ele>1138</ele>
      </trkpt>
      <trkpt lat="44.80607" lon="3.16198">
        <ele>1142.2</ele>
      </trkpt>
      <trkpt lat="44.80644" lon="3.16274">
        <ele>1146.9</ele>
      </trkpt>
      <trkpt lat="44.80723" lon="3.1632">
        <ele>1148.5</ele>
      </trkpt>
      <trkpt lat="44.80824" lon="3.16331">
        <ele>1147.4</ele>
      </trkpt>
      <trkpt lat="44.80913" lon="3.16411">
        <ele>1143.4</ele>
      </trkpt>
      <trkpt lat="44.80958" lon="3.16465">
        <ele>1138.3</ele>
      </trkpt>
      <trkpt lat="44.80984" lon="3.16535">
        <ele>1136.6</ele>
      </trkpt>
      <trkpt lat="44.81055" lon="3.16628">
        <ele>1134</ele>
      </trkpt>
      <trkpt lat="44.81104" lon="3.16701">
        <ele>1134</ele>
      </trkpt>
      <trkpt lat="44.81124" lon="3.16708">
        <ele>1133.3</ele>
      </trkpt>
      <trkpt lat="44.81163" lon="3.16693">
        <ele>1133</ele>
      </trkpt>
      <trkpt lat="44.81212" lon="3.16684">
        <ele>1133.9</ele>
      </trkpt>
      <trkpt lat="44.813" lon="3.16669">
        <ele>1138.8</ele>
      </trkpt>
      <trkpt lat="44.81331" lon="3.16701">
        <ele>1143.1</ele>
      </trkpt>
      <trkpt lat="44.81313" lon="3.16742">
        <ele>1140.2</ele>
      </trkpt>
      <trkpt lat="44.81299" lon="3.16812">
        <ele>1135</ele>
      </trkpt>
      <trkpt lat="44.81285" lon="3.16938">
        <ele>1128.4</ele>
      </trkpt>
      <trkpt lat="44.81264" lon="3.17016">
        <ele>1124.4</ele>
      </trkpt>
      <trkpt lat="44.8125" lon="3.17092">
        <ele>1120.7</ele>
      </trkpt>
      <trkpt lat="44.81283" lon="3.17162">
        <ele>1118</ele>
      </trkpt>
      <trkpt lat="44.81394" lon="3.17299">
        <ele>1114.4</ele>
      </trkpt>
      <trkpt lat="44.81419" lon="3.1735">
        <ele>1116</ele>
      </trkpt>
      <trkpt lat="44.81385" lon="3.17375">
        <ele>1115.2</ele>
      </trkpt>
      <trkpt lat="44.81319" lon="3.17428">
        <ele>1111.8</ele>
      </trkpt>
      <trkpt lat="44.81283" lon="3.17491">
        <ele>1109.7</ele>
      </trkpt>
      <trkpt lat="44.81284" lon="3.17648">
        <ele>1088.2</ele>
      </trkpt>
      <trkpt lat="44.81276" lon="3.17721">
        <ele>1081.1</ele>
      </trkpt>
      <trkpt lat="44.81267" lon="3.17787">
        <ele>1076.7</ele>
      </trkpt>
      <trkpt lat="44.8128" lon="3.17857">
        <ele>1077.6</ele>
      </trkpt>
      <trkpt lat="44.81309" lon="3.17905">
        <ele>1077.8</ele>
      </trkpt>
      <trkpt lat="44.81351" lon="3.17978">
        <ele>1078.3</ele>
      </trkpt>
      <trkpt lat="44.81373" lon="3.18102">
        <ele>1077.7</ele>
      </trkpt>
      <trkpt lat="44.81349" lon="3.18205">
        <ele>1076.5</ele>
      </trkpt>
      <trkpt lat="44.81369" lon="3.1831">
        <ele>1072.8</ele>
      </trkpt>
      <trkpt lat="44.81371" lon="3.18354">
        <ele>1073.6</ele>
      </trkpt>
      <trkpt lat="44.81352" lon="3.18395">
        <ele>1072.3</ele>
      </trkpt>
      <trkpt lat="44.81327" lon="3.18429">
        <ele>1075</ele>
      </trkpt>
      <trkpt lat="44.81394" lon="3.1886">
        <ele>1079</ele>
      </trkpt>
      <trkpt lat="44.81442" lon="3.1899">
        <ele>1075.4</ele>
      </trkpt>
      <trkpt lat="44.81469" lon="3.19067">
        <ele>1071.2</ele>
      </trkpt>
      <trkpt lat="44.81486" lon="3.19098">
        <ele>1070</ele>
      </trkpt>
      <trkpt lat="44.81559" lon="3.19239">
        <ele>1067.1</ele>
      </trkpt>
      <trkpt lat="44.81648" lon="3.19464">
        <ele>1061.6</ele>
      </trkpt>
      <trkpt lat="44.81731" lon="3.19775">
        <ele>1047.8</ele>
      </trkpt>
      <trkpt lat="44.8171" lon="3.19806">
        <ele>1047</ele>
      </trkpt>
      <trkpt lat="44.81712" lon="3.19901">
        <ele>1053.1</ele>
      </trkpt>
      <trkpt lat="44.81691" lon="3.19932">
        <ele>1058</ele>
      </trkpt>
      <trkpt lat="44.81569" lon="3.19994">
        <ele>1066.4</ele>
      </trkpt>
      <trkpt lat="44.8151" lon="3.20066">
        <ele>1067.2</ele>
      </trkpt>
      <trkpt lat="44.81488" lon="3.20267">
        <ele>1067.3</ele>
      </trkpt>
      <trkpt lat="44.81456" lon="3.20384">
        <ele>1067.3</ele>
      </trkpt>
      <trkpt lat="44.81406" lon="3.20503">
        <ele>1067</ele>
      </trkpt>
      <trkpt lat="44.81391" lon="3.20613">
        <ele>1063.9</ele>
      </trkpt>
      <trkpt lat="44.81341" lon="3.20767">
        <ele>1058.1</ele>
      </trkpt>
      <trkpt lat="44.81337" lon="3.20881">
        <ele>1054.5</ele>
      </trkpt>
      <trkpt lat="44.8132" lon="3.21067">
        <ele>1050.1</ele>
      </trkpt>
      <trkpt lat="44.81305" lon="3.21238">
        <ele>1043.9</ele>
      </trkpt>
      <trkpt lat="44.81319" lon="3.21273">
        <ele>1043.2</ele>
      </trkpt>
      <trkpt lat="44.8132" lon="3.21355">
        <ele>1041.5</ele>
      </trkpt>
      <trkpt lat="44.81342" lon="3.2144">
        <ele>1040.3</ele>
      </trkpt>
      <trkpt lat="44.81316" lon="3.21569">
        <ele>1038.4</ele>
      </trkpt>
      <trkpt lat="44.81291" lon="3.21604">
        <ele>1038</ele>
      </trkpt>
      <trkpt lat="44.81218" lon="3.21754">
        <ele>1039.3</ele>
      </trkpt>
      <trkpt lat="44.81193" lon="3.21852">
        <ele>1041.1</ele>
      </trkpt>
      <trkpt lat="44.81148" lon="3.22135">
        <ele>1042.3</ele>
      </trkpt>
      <trkpt lat="44.81116" lon="3.22694">
        <ele>1032.8</ele>
      </trkpt>
      <trkpt lat="44.81132" lon="3.22729">
        <ele>1033</ele>
      </trkpt>
      <trkpt lat="44.8112" lon="3.22764">
        <ele>1033</ele>
      </trkpt>
      <trkpt lat="44.81153" lon="3.22856">
        <ele>1037.6</ele>
      </trkpt>
      <trkpt lat="44.81159" lon="3.22951">
        <ele>1039.1</ele>
      </trkpt>
      <trkpt lat="44.81149" lon="3.23026">
        <ele>1039</ele>
      </trkpt>
      <trkpt lat="44.8118" lon="3.23109">
        <ele>1039.5</ele>
      </trkpt>
      <trkpt lat="44.81279" lon="3.23373">
        <ele>1049.4</ele>
      </trkpt>
      <trkpt lat="44.81316" lon="3.23569">
        <ele>1054.2</ele>
      </trkpt>
      <trkpt lat="44.81353" lon="3.23709">
        <ele>1057.8</ele>
      </trkpt>
      <trkpt lat="44.81368" lon="3.23807">
        <ele>1061.5</ele>
      </trkpt>
      <trkpt lat="44.81437" lon="3.23919">
        <ele>1067.5</ele>
      </trkpt>
      <trkpt lat="44.81474" lon="3.24276">
        <ele>1078.9</ele>
      </trkpt>
      <trkpt lat="44.81466" lon="3.24418">
        <ele>1082.3</ele>
      </trkpt>
      <trkpt lat="44.8145" lon="3.24513">
        <ele>1083</ele>
      </trkpt>
      <trkpt lat="44.81435" lon="3.24674">
        <ele>1083</ele>
      </trkpt>
      <trkpt lat="44.81421" lon="3.24781">
        <ele>1081</ele>
      </trkpt>
      <trkpt lat="44.81409" lon="3.24844">
        <ele>1079.2</ele>
      </trkpt>
      <trkpt lat="44.81345" lon="3.249">
        <ele>1075.1</ele>
      </trkpt>
      <trkpt lat="44.81171" lon="3.25039">
        <ele>1070.1</ele>
      </trkpt>
      <trkpt lat="44.81113" lon="3.25054">
        <ele>1070</ele>
      </trkpt>
      <trkpt lat="44.80975" lon="3.25074">
        <ele>1068</ele>
      </trkpt>
      <trkpt lat="44.80917" lon="3.25095">
        <ele>1061.4</ele>
      </trkpt>
      <trkpt lat="44.80869" lon="3.25107">
        <ele>1056.7</ele>
      </trkpt>
      <trkpt lat="44.80822" lon="3.25153">
        <ele>1054.5</ele>
      </trkpt>
      <trkpt lat="44.80685" lon="3.25138">
        <ele>1052.6</ele>
      </trkpt>
      <trkpt lat="44.80561" lon="3.25108">
        <ele>1050.2</ele>
      </trkpt>
      <trkpt lat="44.80523" lon="3.25107">
        <ele>1049.9</ele>
      </trkpt>
      <trkpt lat="44.80401" lon="3.25178">
        <ele>1051.3</ele>
      </trkpt>
      <trkpt lat="44.80252" lon="3.25232">
        <ele>1046.7</ele>
      </trkpt>
      <trkpt lat="44.80234" lon="3.25251">
        <ele>1046.6</ele>
      </trkpt>
      <trkpt lat="44.80209" lon="3.2532">
        <ele>1046.2</ele>
      </trkpt>
      <trkpt lat="44.80215" lon="3.25396">
        <ele>1045.2</ele>
      </trkpt>
      <trkpt lat="44.80229" lon="3.25551">
        <ele>1041.2</ele>
      </trkpt>
      <trkpt lat="44.80233" lon="3.25681">
        <ele>1035.2</ele>
      </trkpt>
      <trkpt lat="44.80248" lon="3.25763">
        <ele>1030.1</ele>
      </trkpt>
      <trkpt lat="44.80292" lon="3.25824">
        <ele>1026.7</ele>
      </trkpt>
      <trkpt lat="44.80282" lon="3.25903">
        <ele>1028.4</ele>
      </trkpt>
      <trkpt lat="44.80286" lon="3.26023">
        <ele>1030.8</ele>
      </trkpt>
      <trkpt lat="44.80341" lon="3.26121">
        <ele>1030.6</ele>
      </trkpt>
      <trkpt lat="44.80416" lon="3.2629">
        <ele>1029</ele>
      </trkpt>
      <trkpt lat="44.80456" lon="3.26389">
        <ele>1028</ele>
      </trkpt>
      <trkpt lat="44.80466" lon="3.26522">
        <ele>1025.2</ele>
      </trkpt>
      <trkpt lat="44.80442" lon="3.26714">
        <ele>1013.8</ele>
      </trkpt>
      <trkpt lat="44.80405" lon="3.26881">
        <ele>992.5</ele>
      </trkpt>
      <trkpt lat="44.80442" lon="3.2696">
        <ele>988.4</ele>
      </trkpt>
    </trkseg>
  </trk>
</gpx>